<?xml version="1.0" encoding="UTF-8" standalone="yes"?>
<gpx xmlns="http://www.topografix.com/GPX/1/1" xmlns:gpxx="http://www.garmin.com/xmlschemas/GpxExtensions/v3" xmlns:rcxx="http://www.routeconverter.de/xmlschemas/RouteCatalogExtensions/1.0" xmlns:nmea="http://trekbuddy.net/2009/01/gpx/nmea" creator="Generated by Christian Pesch's RouteConverter. See http://www.routeconverter.de" version="1.1">
    <metadata>
        <link href="http://www.garmin.com">
            <text>Garmin International</text>
        </link>
        <time>2010-11-19T22:00:27Z</time>
        <bounds maxlon="11.472706999629736" maxlat="49.54592602327466" minlon="11.096801022067666" minlat="49.329832009971142"/>
    </metadata>
    <trk>
        <name>Track vom: 14 Nov 2010 10:06</name>
        <extensions>
            <gpxx:TrackExtension>
                <gpxx:DisplayColor>DarkYellow</gpxx:DisplayColor>
            </gpxx:TrackExtension>
        </extensions>
        <trkseg>
            <trkpt lon="11.114934012293816" lat="49.40189098007977">
                <ele>329.39</ele>
                <time>2010-11-14T09:09:32.000Z</time>
                <name>Position 1</name>
            </trkpt>
            <trkpt lon="11.114980028942227" lat="49.40187103115022">
                <ele>328.43</ele>
                <time>2010-11-14T09:09:33.000Z</time>
                <name>Position 2</name>
            </trkpt>
            <trkpt lon="11.115004001185298" lat="49.40184102393687">
                <ele>328.43</ele>
                <time>2010-11-14T09:09:34.000Z</time>
                <name>Position 3</name>
            </trkpt>
            <trkpt lon="11.115014981478453" lat="49.401811016723514">
                <ele>327.95</ele>
                <time>2010-11-14T09:09:35.000Z</time>
                <name>Position 4</name>
            </trkpt>
            <trkpt lon="11.115021016448736" lat="49.40178100951016">
                <ele>326.99</ele>
                <time>2010-11-14T09:09:36.000Z</time>
                <name>Position 5</name>
            </trkpt>
            <trkpt lon="11.115025961771607" lat="49.4017459731549">
                <ele>326.02</ele>
                <time>2010-11-14T09:09:37.000Z</time>
                <name>Position 6</name>
            </trkpt>
            <trkpt lon="11.11503099091351" lat="49.401705991476774">
                <ele>326.5</ele>
                <time>2010-11-14T09:09:38.000Z</time>
                <name>Position 7</name>
            </trkpt>
            <trkpt lon="11.115027973428369" lat="49.4016769900918">
                <ele>326.02</ele>
                <time>2010-11-14T09:09:39.000Z</time>
                <name>Position 8</name>
            </trkpt>
            <trkpt lon="11.114957984536886" lat="49.401643965393305">
                <ele>324.58</ele>
                <time>2010-11-14T09:09:41.000Z</time>
                <name>Position 9</name>
            </trkpt>
            <trkpt lon="11.114775007590652" lat="49.401639020070434">
                <ele>327.47</ele>
                <time>2010-11-14T09:09:46.000Z</time>
                <name>Position 10</name>
            </trkpt>
            <trkpt lon="11.11474902369082" lat="49.401688976213336">
                <ele>324.58</ele>
                <time>2010-11-14T09:09:55.000Z</time>
                <name>Position 11</name>
            </trkpt>
            <trkpt lon="11.11472798511386" lat="49.4016080070287">
                <ele>319.78</ele>
                <time>2010-11-14T09:10:20.000Z</time>
                <name>Position 12</name>
            </trkpt>
            <trkpt lon="11.114669982343912" lat="49.401580011472106">
                <ele>319.3</ele>
                <time>2010-11-14T09:10:46.000Z</time>
                <name>Position 13</name>
            </trkpt>
            <trkpt lon="11.114971982315183" lat="49.401643965393305">
                <ele>314.01</ele>
                <time>2010-11-14T09:11:09.000Z</time>
                <name>Position 14</name>
            </trkpt>
            <trkpt lon="11.114690015092492" lat="49.401494013145566">
                <ele>304.88</ele>
                <time>2010-11-14T09:11:40.000Z</time>
                <name>Position 15</name>
            </trkpt>
            <trkpt lon="11.11462295986712" lat="49.40147900953889">
                <ele>297.18</ele>
                <time>2010-11-14T09:12:09.000Z</time>
                <name>Position 16</name>
            </trkpt>
            <trkpt lon="11.114637041464448" lat="49.40149703063071">
                <ele>296.7</ele>
                <time>2010-11-14T09:12:46.000Z</time>
                <name>Position 17</name>
            </trkpt>
            <trkpt lon="11.114634023979306" lat="49.401492001488805">
                <ele>296.7</ele>
                <time>2010-11-14T09:13:33.000Z</time>
                <name>Position 18</name>
            </trkpt>
            <trkpt lon="11.114632012322545" lat="49.401489989832044">
                <ele>296.7</ele>
                <time>2010-11-14T09:14:26.000Z</time>
                <name>Position 19</name>
            </trkpt>
            <trkpt lon="11.114864023402333" lat="49.401447996497154">
                <ele>318.81</ele>
                <time>2010-11-14T09:14:31.000Z</time>
                <name>Position 20</name>
            </trkpt>
            <trkpt lon="11.11496301367879" lat="49.401277005672455">
                <ele>326.5</ele>
                <time>2010-11-14T09:14:42.000Z</time>
                <name>Position 21</name>
            </trkpt>
            <trkpt lon="11.114970976486802" lat="49.40128597430885">
                <ele>329.87</ele>
                <time>2010-11-14T09:15:45.000Z</time>
                <name>Position 22</name>
            </trkpt>
            <trkpt lon="11.114974999800324" lat="49.40128698013723">
                <ele>330.35</ele>
                <time>2010-11-14T09:18:11.000Z</time>
                <name>Position 23</name>
            </trkpt>
            <trkpt lon="11.114979023113847" lat="49.40129301510751">
                <ele>330.83</ele>
                <time>2010-11-14T09:20:45.000Z</time>
                <name>Position 24</name>
            </trkpt>
            <trkpt lon="11.114979023113847" lat="49.40129301510751">
                <ele>331.31</ele>
                <time>2010-11-14T09:22:34.000Z</time>
                <name>Position 25</name>
            </trkpt>
            <trkpt lon="11.114978017285466" lat="49.401300977915525">
                <ele>331.31</ele>
                <time>2010-11-14T09:23:20.000Z</time>
                <name>Position 26</name>
            </trkpt>
            <trkpt lon="11.11501095816493" lat="49.40129200927913">
                <ele>331.79</ele>
                <time>2010-11-14T09:23:22.000Z</time>
                <name>Position 27</name>
            </trkpt>
            <trkpt lon="11.115015987306833" lat="49.401252027601004">
                <ele>333.71</ele>
                <time>2010-11-14T09:23:34.000Z</time>
                <name>Position 28</name>
            </trkpt>
            <trkpt lon="11.11502897925675" lat="49.40119796432555">
                <ele>333.71</ele>
                <time>2010-11-14T09:24:08.000Z</time>
                <name>Position 29</name>
            </trkpt>
            <trkpt lon="11.115047000348568" lat="49.4011539593339">
                <ele>333.71</ele>
                <time>2010-11-14T09:24:09.000Z</time>
                <name>Position 30</name>
            </trkpt>
            <trkpt lon="11.115070972591639" lat="49.401106014847755">
                <ele>333.71</ele>
                <time>2010-11-14T09:24:10.000Z</time>
                <name>Position 31</name>
            </trkpt>
            <trkpt lon="11.115106008946896" lat="49.40105798654258">
                <ele>333.71</ele>
                <time>2010-11-14T09:24:11.000Z</time>
                <name>Position 32</name>
            </trkpt>
            <trkpt lon="11.115146996453404" lat="49.40101297572255">
                <ele>334.2</ele>
                <time>2010-11-14T09:24:12.000Z</time>
                <name>Position 33</name>
            </trkpt>
            <trkpt lon="11.11520097590983" lat="49.40096503123641">
                <ele>334.2</ele>
                <time>2010-11-14T09:24:13.000Z</time>
                <name>Position 34</name>
            </trkpt>
            <trkpt lon="11.115257972851396" lat="49.400909040123224">
                <ele>334.2</ele>
                <time>2010-11-14T09:24:14.000Z</time>
                <name>Position 35</name>
            </trkpt>
            <trkpt lon="11.11530801281333" lat="49.40083402208984">
                <ele>334.2</ele>
                <time>2010-11-14T09:24:15.000Z</time>
                <name>Position 36</name>
            </trkpt>
            <trkpt lon="11.115342965349555" lat="49.400740982964635">
                <ele>334.68</ele>
                <time>2010-11-14T09:24:16.000Z</time>
                <name>Position 37</name>
            </trkpt>
            <trkpt lon="11.115616969764233" lat="49.399663992226124">
                <ele>335.64</ele>
                <time>2010-11-14T09:24:24.000Z</time>
                <name>Position 38</name>
            </trkpt>
            <trkpt lon="11.11623203381896" lat="49.3968900013715">
                <ele>337.56</ele>
                <time>2010-11-14T09:24:40.000Z</time>
                <name>Position 39</name>
            </trkpt>
            <trkpt lon="11.116603016853333" lat="49.395154025405645">
                <ele>339.48</ele>
                <time>2010-11-14T09:24:49.000Z</time>
                <name>Position 40</name>
            </trkpt>
            <trkpt lon="11.116836033761501" lat="49.39366003498435">
                <ele>345.25</ele>
                <time>2010-11-14T09:24:57.000Z</time>
                <name>Position 41</name>
            </trkpt>
            <trkpt lon="11.116549959406257" lat="49.39252202399075">
                <ele>350.06</ele>
                <time>2010-11-14T09:25:04.000Z</time>
                <name>Position 42</name>
            </trkpt>
            <trkpt lon="11.11584504134953" lat="49.391544023528695">
                <ele>352.94</ele>
                <time>2010-11-14T09:25:12.000Z</time>
                <name>Position 43</name>
            </trkpt>
            <trkpt lon="11.115713026374578" lat="49.39144897274673">
                <ele>352.94</ele>
                <time>2010-11-14T09:25:13.000Z</time>
                <name>Position 44</name>
            </trkpt>
            <trkpt lon="11.115557039156556" lat="49.391371021047235">
                <ele>352.94</ele>
                <time>2010-11-14T09:25:14.000Z</time>
                <name>Position 45</name>
            </trkpt>
            <trkpt lon="11.115379007533193" lat="49.39131704159081">
                <ele>352.94</ele>
                <time>2010-11-14T09:25:15.000Z</time>
                <name>Position 46</name>
            </trkpt>
            <trkpt lon="11.115188989788294" lat="49.39129298552871">
                <ele>352.46</ele>
                <time>2010-11-14T09:25:16.000Z</time>
                <name>Position 47</name>
            </trkpt>
            <trkpt lon="11.114983968436718" lat="49.391311006620526">
                <ele>351.5</ele>
                <time>2010-11-14T09:25:17.000Z</time>
                <name>Position 48</name>
            </trkpt>
            <trkpt lon="11.1148139834404" lat="49.39136599190533">
                <ele>350.06</ele>
                <time>2010-11-14T09:25:18.000Z</time>
                <name>Position 49</name>
            </trkpt>
            <trkpt lon="11.114680040627718" lat="49.39145199023187">
                <ele>348.62</ele>
                <time>2010-11-14T09:25:19.000Z</time>
                <name>Position 50</name>
            </trkpt>
            <trkpt lon="11.114567974582314" lat="49.39155299216509">
                <ele>348.13</ele>
                <time>2010-11-14T09:25:20.000Z</time>
                <name>Position 51</name>
            </trkpt>
            <trkpt lon="11.114511983469129" lat="49.39167897216976">
                <ele>346.69</ele>
                <time>2010-11-14T09:25:21.000Z</time>
                <name>Position 52</name>
            </trkpt>
            <trkpt lon="11.114511983469129" lat="49.39181098714471">
                <ele>345.73</ele>
                <time>2010-11-14T09:25:22.000Z</time>
                <name>Position 53</name>
            </trkpt>
            <trkpt lon="11.114571997895837" lat="49.39194400794804">
                <ele>345.73</ele>
                <time>2010-11-14T09:25:23.000Z</time>
                <name>Position 54</name>
            </trkpt>
            <trkpt lon="11.114703007042408" lat="49.39205297268927">
                <ele>344.77</ele>
                <time>2010-11-14T09:25:24.000Z</time>
                <name>Position 55</name>
            </trkpt>
            <trkpt lon="11.114862011745572" lat="49.39213695935905">
                <ele>344.29</ele>
                <time>2010-11-14T09:25:25.000Z</time>
                <name>Position 56</name>
            </trkpt>
            <trkpt lon="11.115054041147232" lat="49.39218297600746">
                <ele>343.81</ele>
                <time>2010-11-14T09:25:26.000Z</time>
                <name>Position 57</name>
            </trkpt>
            <trkpt lon="11.115259984508157" lat="49.39218498766422">
                <ele>343.33</ele>
                <time>2010-11-14T09:25:27.000Z</time>
                <name>Position 58</name>
            </trkpt>
            <trkpt lon="11.115466011688113" lat="49.39215104095638">
                <ele>343.81</ele>
                <time>2010-11-14T09:25:28.000Z</time>
                <name>Position 59</name>
            </trkpt>
            <trkpt lon="11.115680001676083" lat="49.39207996241748">
                <ele>344.29</ele>
                <time>2010-11-14T09:25:29.000Z</time>
                <name>Position 60</name>
            </trkpt>
            <trkpt lon="11.115888962522149" lat="49.39197803847492">
                <ele>344.77</ele>
                <time>2010-11-14T09:25:30.000Z</time>
                <name>Position 61</name>
            </trkpt>
            <trkpt lon="11.11608199775219" lat="49.39185901544988">
                <ele>344.77</ele>
                <time>2010-11-14T09:25:31.000Z</time>
                <name>Position 62</name>
            </trkpt>
            <trkpt lon="11.116260029375553" lat="49.391734041273594">
                <ele>344.29</ele>
                <time>2010-11-14T09:25:32.000Z</time>
                <name>Position 63</name>
            </trkpt>
            <trkpt lon="11.116507966071367" lat="49.391588028520346">
                <ele>343.81</ele>
                <time>2010-11-14T09:25:33.000Z</time>
                <name>Position 64</name>
            </trkpt>
            <trkpt lon="11.118740988895297" lat="49.39007702283561">
                <ele>347.17</ele>
                <time>2010-11-14T09:25:42.000Z</time>
                <name>Position 65</name>
            </trkpt>
            <trkpt lon="11.120922965928912" lat="49.38833400607109">
                <ele>350.06</ele>
                <time>2010-11-14T09:25:52.000Z</time>
                <name>Position 66</name>
            </trkpt>
            <trkpt lon="11.124156033620238" lat="49.38582102768123">
                <ele>354.38</ele>
                <time>2010-11-14T09:26:05.000Z</time>
                <name>Position 67</name>
            </trkpt>
            <trkpt lon="11.129030026495457" lat="49.38251302577555">
                <ele>359.67</ele>
                <time>2010-11-14T09:26:23.000Z</time>
                <name>Position 68</name>
            </trkpt>
            <trkpt lon="11.132244989275932" lat="49.380415035411716">
                <ele>366.88</ele>
                <time>2010-11-14T09:26:34.000Z</time>
                <name>Position 69</name>
            </trkpt>
            <trkpt lon="11.1368159763515" lat="49.37743401154876">
                <ele>369.76</ele>
                <time>2010-11-14T09:26:50.000Z</time>
                <name>Position 70</name>
            </trkpt>
            <trkpt lon="11.139984000474215" lat="49.375710021704435">
                <ele>366.88</ele>
                <time>2010-11-14T09:27:01.000Z</time>
                <name>Position 71</name>
            </trkpt>
            <trkpt lon="11.142816999927163" lat="49.374830005690455">
                <ele>360.63</ele>
                <time>2010-11-14T09:27:10.000Z</time>
                <name>Position 72</name>
            </trkpt>
            <trkpt lon="11.147164022549987" lat="49.37404696829617">
                <ele>355.34</ele>
                <time>2010-11-14T09:27:23.000Z</time>
                <name>Position 73</name>
            </trkpt>
            <trkpt lon="11.152513017877936" lat="49.37320098280907">
                <ele>349.1</ele>
                <time>2010-11-14T09:27:38.000Z</time>
                <name>Position 74</name>
            </trkpt>
            <trkpt lon="11.15724896080792" lat="49.372448958456516">
                <ele>346.69</ele>
                <time>2010-11-14T09:27:51.000Z</time>
                <name>Position 75</name>
            </trkpt>
            <trkpt lon="11.16113799624145" lat="49.371455032378435">
                <ele>349.58</ele>
                <time>2010-11-14T09:28:02.000Z</time>
                <name>Position 76</name>
            </trkpt>
            <trkpt lon="11.16927900351584" lat="49.36895102262497">
                <ele>349.58</ele>
                <time>2010-11-14T09:28:25.000Z</time>
                <name>Position 77</name>
            </trkpt>
            <trkpt lon="11.173877986148" lat="49.36795902438462">
                <ele>346.21</ele>
                <time>2010-11-14T09:28:37.000Z</time>
                <name>Position 78</name>
            </trkpt>
            <trkpt lon="11.17869095876813" lat="49.367395006120205">
                <ele>343.81</ele>
                <time>2010-11-14T09:28:49.000Z</time>
                <name>Position 79</name>
            </trkpt>
            <trkpt lon="11.18548197671771" lat="49.36706601642072">
                <ele>343.81</ele>
                <time>2010-11-14T09:29:06.000Z</time>
                <name>Position 80</name>
            </trkpt>
            <trkpt lon="11.19010099209845" lat="49.366624960675836">
                <ele>346.69</ele>
                <time>2010-11-14T09:29:18.000Z</time>
                <name>Position 81</name>
            </trkpt>
            <trkpt lon="11.191286025568843" lat="49.36633000150323">
                <ele>347.65</ele>
                <time>2010-11-14T09:29:22.000Z</time>
                <name>Position 82</name>
            </trkpt>
            <trkpt lon="11.191555000841618" lat="49.366213995963335">
                <ele>348.13</ele>
                <time>2010-11-14T09:29:23.000Z</time>
                <name>Position 83</name>
            </trkpt>
            <trkpt lon="11.191815007477999" lat="49.36607703566551">
                <ele>348.13</ele>
                <time>2010-11-14T09:29:24.000Z</time>
                <name>Position 84</name>
            </trkpt>
            <trkpt lon="11.192069984972477" lat="49.36591702513397">
                <ele>348.62</ele>
                <time>2010-11-14T09:29:25.000Z</time>
                <name>Position 85</name>
            </trkpt>
            <trkpt lon="11.19230903685093" lat="49.36573002487421">
                <ele>349.1</ele>
                <time>2010-11-14T09:29:26.000Z</time>
                <name>Position 86</name>
            </trkpt>
            <trkpt lon="11.192539958283305" lat="49.36551997438073">
                <ele>349.1</ele>
                <time>2010-11-14T09:29:27.000Z</time>
                <name>Position 87</name>
            </trkpt>
            <trkpt lon="11.192752020433545" lat="49.36529701575637">
                <ele>349.58</ele>
                <time>2010-11-14T09:29:28.000Z</time>
                <name>Position 88</name>
            </trkpt>
            <trkpt lon="11.193819036707282" lat="49.36429403722286">
                <ele>351.98</ele>
                <time>2010-11-14T09:29:33.000Z</time>
                <name>Position 89</name>
            </trkpt>
            <trkpt lon="11.194076025858521" lat="49.36414400115609">
                <ele>352.46</ele>
                <time>2010-11-14T09:29:34.000Z</time>
                <name>Position 90</name>
            </trkpt>
            <trkpt lon="11.19435497559607" lat="49.36401600949466">
                <ele>352.94</ele>
                <time>2010-11-14T09:29:35.000Z</time>
                <name>Position 91</name>
            </trkpt>
            <trkpt lon="11.194648006930947" lat="49.36390796676278">
                <ele>353.42</ele>
                <time>2010-11-14T09:29:36.000Z</time>
                <name>Position 92</name>
            </trkpt>
            <trkpt lon="11.194956041872501" lat="49.36381903477013">
                <ele>353.9</ele>
                <time>2010-11-14T09:29:37.000Z</time>
                <name>Position 93</name>
            </trkpt>
            <trkpt lon="11.195269022136927" lat="49.36375097371638">
                <ele>354.38</ele>
                <time>2010-11-14T09:29:38.000Z</time>
                <name>Position 94</name>
            </trkpt>
            <trkpt lon="11.195593988522887" lat="49.36370403505862">
                <ele>354.86</ele>
                <time>2010-11-14T09:29:39.000Z</time>
                <name>Position 95</name>
            </trkpt>
            <trkpt lon="11.195925995707512" lat="49.363677967339754">
                <ele>354.86</ele>
                <time>2010-11-14T09:29:40.000Z</time>
                <name>Position 96</name>
            </trkpt>
            <trkpt lon="11.19626697152853" lat="49.36367302201688">
                <ele>355.34</ele>
                <time>2010-11-14T09:29:41.000Z</time>
                <name>Position 97</name>
            </trkpt>
            <trkpt lon="11.196622028946877" lat="49.36369297094643">
                <ele>355.34</ele>
                <time>2010-11-14T09:29:42.000Z</time>
                <name>Position 98</name>
            </trkpt>
            <trkpt lon="11.196981025859714" lat="49.36373898759484">
                <ele>355.83</ele>
                <time>2010-11-14T09:29:43.000Z</time>
                <name>Position 99</name>
            </trkpt>
            <trkpt lon="11.197342034429312" lat="49.363809982314706">
                <ele>355.83</ele>
                <time>2010-11-14T09:29:44.000Z</time>
                <name>Position 100</name>
            </trkpt>
            <trkpt lon="11.197693990543485" lat="49.36390897259116">
                <ele>355.83</ele>
                <time>2010-11-14T09:29:45.000Z</time>
                <name>Position 101</name>
            </trkpt>
            <trkpt lon="11.198035972192883" lat="49.36403897590935">
                <ele>356.31</ele>
                <time>2010-11-14T09:29:46.000Z</time>
                <name>Position 102</name>
            </trkpt>
            <trkpt lon="11.198360016569495" lat="49.364194963127375">
                <ele>356.31</ele>
                <time>2010-11-14T09:29:47.000Z</time>
                <name>Position 103</name>
            </trkpt>
            <trkpt lon="11.198662016540766" lat="49.36437601223588">
                <ele>356.79</ele>
                <time>2010-11-14T09:29:48.000Z</time>
                <name>Position 104</name>
            </trkpt>
            <trkpt lon="11.198942977935076" lat="49.36456703580916">
                <ele>356.79</ele>
                <time>2010-11-14T09:29:49.000Z</time>
                <name>Position 105</name>
            </trkpt>
            <trkpt lon="11.200996963307261" lat="49.36562701128423">
                <ele>357.27</ele>
                <time>2010-11-14T09:29:56.000Z</time>
                <name>Position 106</name>
            </trkpt>
            <trkpt lon="11.202933015301824" lat="49.36601299792528">
                <ele>356.79</ele>
                <time>2010-11-14T09:30:02.000Z</time>
                <name>Position 107</name>
            </trkpt>
            <trkpt lon="11.205022037029266" lat="49.366040993481874">
                <ele>353.9</ele>
                <time>2010-11-14T09:30:10.000Z</time>
                <name>Position 108</name>
            </trkpt>
            <trkpt lon="11.208338001742959" lat="49.36596597544849">
                <ele>354.86</ele>
                <time>2010-11-14T09:30:23.000Z</time>
                <name>Position 109</name>
            </trkpt>
            <trkpt lon="11.210890039801598" lat="49.36593999154866">
                <ele>356.31</ele>
                <time>2010-11-14T09:30:33.000Z</time>
                <name>Position 110</name>
            </trkpt>
            <trkpt lon="11.214067032560706" lat="49.36603001318872">
                <ele>359.67</ele>
                <time>2010-11-14T09:30:45.000Z</time>
                <name>Position 111</name>
            </trkpt>
            <trkpt lon="11.216509016230702" lat="49.366388004273176">
                <ele>363.52</ele>
                <time>2010-11-14T09:30:55.000Z</time>
                <name>Position 112</name>
            </trkpt>
            <trkpt lon="11.218282040208578" lat="49.366686986759305">
                <ele>368.32</ele>
                <time>2010-11-14T09:31:02.000Z</time>
                <name>Position 113</name>
            </trkpt>
            <trkpt lon="11.222084993496537" lat="49.36729299835861">
                <ele>373.13</ele>
                <time>2010-11-14T09:31:17.000Z</time>
                <name>Position 114</name>
            </trkpt>
            <trkpt lon="11.225203983485699" lat="49.36758200637996">
                <ele>371.21</ele>
                <time>2010-11-14T09:31:29.000Z</time>
                <name>Position 115</name>
            </trkpt>
            <trkpt lon="11.228340994566679" lat="49.36740498058498">
                <ele>370.73</ele>
                <time>2010-11-14T09:31:40.000Z</time>
                <name>Position 116</name>
            </trkpt>
            <trkpt lon="11.230937959626317" lat="49.36691698618233">
                <ele>371.21</ele>
                <time>2010-11-14T09:31:49.000Z</time>
                <name>Position 117</name>
            </trkpt>
            <trkpt lon="11.234455006197095" lat="49.365827003493905">
                <ele>373.61</ele>
                <time>2010-11-14T09:32:03.000Z</time>
                <name>Position 118</name>
            </trkpt>
            <trkpt lon="11.238964973017573" lat="49.36441498808563">
                <ele>376.97</ele>
                <time>2010-11-14T09:32:20.000Z</time>
                <name>Position 119</name>
            </trkpt>
            <trkpt lon="11.242826012894511" lat="49.36320003122091">
                <ele>382.26</ele>
                <time>2010-11-14T09:32:35.000Z</time>
                <name>Position 120</name>
            </trkpt>
            <trkpt lon="11.246500974521041" lat="49.36204198747873">
                <ele>372.65</ele>
                <time>2010-11-14T09:32:52.000Z</time>
                <name>Position 121</name>
            </trkpt>
            <trkpt lon="11.249174969270825" lat="49.36121301725507">
                <ele>368.32</ele>
                <time>2010-11-14T09:33:05.000Z</time>
                <name>Position 122</name>
            </trkpt>
            <trkpt lon="11.252154987305403" lat="49.36027902178466">
                <ele>365.92</ele>
                <time>2010-11-14T09:33:19.000Z</time>
                <name>Position 123</name>
            </trkpt>
            <trkpt lon="11.253714021295309" lat="49.35962598770857">
                <ele>365.44</ele>
                <time>2010-11-14T09:33:28.000Z</time>
                <name>Position 124</name>
            </trkpt>
            <trkpt lon="11.255300967022777" lat="49.358800034970045">
                <ele>361.11</ele>
                <time>2010-11-14T09:33:38.000Z</time>
                <name>Position 125</name>
            </trkpt>
            <trkpt lon="11.257015988230705" lat="49.35748399235308">
                <ele>359.67</ele>
                <time>2010-11-14T09:33:51.000Z</time>
                <name>Position 126</name>
            </trkpt>
            <trkpt lon="11.257857028394938" lat="49.35687798075378">
                <ele>358.71</ele>
                <time>2010-11-14T09:33:59.000Z</time>
                <name>Position 127</name>
            </trkpt>
            <trkpt lon="11.257956018671393" lat="49.3568820040673">
                <ele>359.19</ele>
                <time>2010-11-14T09:34:00.000Z</time>
                <name>Position 128</name>
            </trkpt>
            <trkpt lon="11.258041011169553" lat="49.35692399740219">
                <ele>359.19</ele>
                <time>2010-11-14T09:34:01.000Z</time>
                <name>Position 129</name>
            </trkpt>
            <trkpt lon="11.258112005889416" lat="49.35698300600052">
                <ele>359.19</ele>
                <time>2010-11-14T09:34:02.000Z</time>
                <name>Position 130</name>
            </trkpt>
            <trkpt lon="11.258181994780898" lat="49.35704402625561">
                <ele>359.19</ele>
                <time>2010-11-14T09:34:03.000Z</time>
                <name>Position 131</name>
            </trkpt>
            <trkpt lon="11.259038038551807" lat="49.35782203450799">
                <ele>359.67</ele>
                <time>2010-11-14T09:34:13.000Z</time>
                <name>Position 132</name>
            </trkpt>
            <trkpt lon="11.259554028511047" lat="49.35827096924186">
                <ele>360.15</ele>
                <time>2010-11-14T09:34:18.000Z</time>
                <name>Position 133</name>
            </trkpt>
            <trkpt lon="11.259683026000857" lat="49.35834699310362">
                <ele>360.15</ele>
                <time>2010-11-14T09:34:19.000Z</time>
                <name>Position 134</name>
            </trkpt>
            <trkpt lon="11.261466024443507" lat="49.359125001356006">
                <ele>361.11</ele>
                <time>2010-11-14T09:34:30.000Z</time>
                <name>Position 135</name>
            </trkpt>
            <trkpt lon="11.263133017346263" lat="49.35980603098869">
                <ele>361.11</ele>
                <time>2010-11-14T09:34:39.000Z</time>
                <name>Position 136</name>
            </trkpt>
            <trkpt lon="11.265073008835316" lat="49.36040097847581">
                <ele>361.59</ele>
                <time>2010-11-14T09:34:47.000Z</time>
                <name>Position 137</name>
            </trkpt>
            <trkpt lon="11.265868032351136" lat="49.36072401702404">
                <ele>359.67</ele>
                <time>2010-11-14T09:34:50.000Z</time>
                <name>Position 138</name>
            </trkpt>
            <trkpt lon="11.266107000410557" lat="49.36087103560567">
                <ele>358.71</ele>
                <time>2010-11-14T09:34:51.000Z</time>
                <name>Position 139</name>
            </trkpt>
            <trkpt lon="11.266787024214864" lat="49.361295998096466">
                <ele>356.79</ele>
                <time>2010-11-14T09:34:54.000Z</time>
                <name>Position 140</name>
            </trkpt>
            <trkpt lon="11.267322963103652" lat="49.36149900779128">
                <ele>355.83</ele>
                <time>2010-11-14T09:34:56.000Z</time>
                <name>Position 141</name>
            </trkpt>
            <trkpt lon="11.267633009701967" lat="49.361573019996285">
                <ele>354.38</ele>
                <time>2010-11-14T09:34:57.000Z</time>
                <name>Position 142</name>
            </trkpt>
            <trkpt lon="11.26796199940145" lat="49.36163001693785">
                <ele>355.34</ele>
                <time>2010-11-14T09:34:58.000Z</time>
                <name>Position 143</name>
            </trkpt>
            <trkpt lon="11.268316973000765" lat="49.36166597530246">
                <ele>354.86</ele>
                <time>2010-11-14T09:34:59.000Z</time>
                <name>Position 144</name>
            </trkpt>
            <trkpt lon="11.268678987398744" lat="49.36168600805104">
                <ele>354.86</ele>
                <time>2010-11-14T09:35:00.000Z</time>
                <name>Position 145</name>
            </trkpt>
            <trkpt lon="11.27131400629878" lat="49.36198700219393">
                <ele>355.83</ele>
                <time>2010-11-14T09:35:07.000Z</time>
                <name>Position 146</name>
            </trkpt>
            <trkpt lon="11.271646013483405" lat="49.3620989844203">
                <ele>356.31</ele>
                <time>2010-11-14T09:35:08.000Z</time>
                <name>Position 147</name>
            </trkpt>
            <trkpt lon="11.27195798791945" lat="49.36222395859659">
                <ele>356.31</ele>
                <time>2010-11-14T09:35:09.000Z</time>
                <name>Position 148</name>
            </trkpt>
            <trkpt lon="11.272254958748817" lat="49.362364020198584">
                <ele>356.79</ele>
                <time>2010-11-14T09:35:10.000Z</time>
                <name>Position 149</name>
            </trkpt>
            <trkpt lon="11.272540027275681" lat="49.36250802129507">
                <ele>356.79</ele>
                <time>2010-11-14T09:35:11.000Z</time>
                <name>Position 150</name>
            </trkpt>
            <trkpt lon="11.273400010541081" lat="49.36285897158086">
                <ele>358.23</ele>
                <time>2010-11-14T09:35:14.000Z</time>
                <name>Position 151</name>
            </trkpt>
            <trkpt lon="11.273696981370449" lat="49.36293600127101">
                <ele>358.71</ele>
                <time>2010-11-14T09:35:15.000Z</time>
                <name>Position 152</name>
            </trkpt>
            <trkpt lon="11.273995041847229" lat="49.36299802735448">
                <ele>359.67</ele>
                <time>2010-11-14T09:35:16.000Z</time>
                <name>Position 153</name>
            </trkpt>
            <trkpt lon="11.274285977706313" lat="49.36304303817451">
                <ele>360.15</ele>
                <time>2010-11-14T09:35:17.000Z</time>
                <name>Position 154</name>
            </trkpt>
            <trkpt lon="11.274583032354712" lat="49.36307203955948">
                <ele>360.63</ele>
                <time>2010-11-14T09:35:18.000Z</time>
                <name>Position 155</name>
            </trkpt>
            <trkpt lon="11.274892995133996" lat="49.36308402568102">
                <ele>361.11</ele>
                <time>2010-11-14T09:35:19.000Z</time>
                <name>Position 156</name>
            </trkpt>
            <trkpt lon="11.275213016197085" lat="49.36308402568102">
                <ele>361.59</ele>
                <time>2010-11-14T09:35:20.000Z</time>
                <name>Position 157</name>
            </trkpt>
            <trkpt lon="11.27554401755333" lat="49.36307296156883">
                <ele>362.07</ele>
                <time>2010-11-14T09:35:21.000Z</time>
                <name>Position 158</name>
            </trkpt>
            <trkpt lon="11.277983989566565" lat="49.362902976572514">
                <ele>360.15</ele>
                <time>2010-11-14T09:35:28.000Z</time>
                <name>Position 159</name>
            </trkpt>
            <trkpt lon="11.278344998136163" lat="49.36287296935916">
                <ele>359.67</ele>
                <time>2010-11-14T09:35:29.000Z</time>
                <name>Position 160</name>
            </trkpt>
            <trkpt lon="11.27870298922062" lat="49.36282301321626">
                <ele>359.19</ele>
                <time>2010-11-14T09:35:30.000Z</time>
                <name>Position 161</name>
            </trkpt>
            <trkpt lon="11.2812390178442" lat="49.36252101324499">
                <ele>357.27</ele>
                <time>2010-11-14T09:35:37.000Z</time>
                <name>Position 162</name>
            </trkpt>
            <trkpt lon="11.281613018363714" lat="49.36244197189808">
                <ele>356.79</ele>
                <time>2010-11-14T09:35:38.000Z</time>
                <name>Position 163</name>
            </trkpt>
            <trkpt lon="11.284507038071752" lat="49.36164502054453">
                <ele>357.27</ele>
                <time>2010-11-14T09:35:46.000Z</time>
                <name>Position 164</name>
            </trkpt>
            <trkpt lon="11.287032002583146" lat="49.36117798089981">
                <ele>358.71</ele>
                <time>2010-11-14T09:35:53.000Z</time>
                <name>Position 165</name>
            </trkpt>
            <trkpt lon="11.28938203677535" lat="49.36106700450182">
                <ele>359.67</ele>
                <time>2010-11-14T09:35:59.000Z</time>
                <name>Position 166</name>
            </trkpt>
            <trkpt lon="11.289752013981342" lat="49.36100397258997">
                <ele>360.15</ele>
                <time>2010-11-14T09:36:00.000Z</time>
                <name>Position 167</name>
            </trkpt>
            <trkpt lon="11.29011201672256" lat="49.36092099174857">
                <ele>360.15</ele>
                <time>2010-11-14T09:36:01.000Z</time>
                <name>Position 168</name>
            </trkpt>
            <trkpt lon="11.290461961179972" lat="49.36081596650183">
                <ele>360.63</ele>
                <time>2010-11-14T09:36:02.000Z</time>
                <name>Position 169</name>
            </trkpt>
            <trkpt lon="11.29080000333488" lat="49.36069501563907">
                <ele>360.63</ele>
                <time>2010-11-14T09:36:03.000Z</time>
                <name>Position 170</name>
            </trkpt>
            <trkpt lon="11.291128993034363" lat="49.36056702397764">
                <ele>360.63</ele>
                <time>2010-11-14T09:36:04.000Z</time>
                <name>Position 171</name>
            </trkpt>
            <trkpt lon="11.29370098002255" lat="49.35973101295531">
                <ele>360.63</ele>
                <time>2010-11-14T09:36:12.000Z</time>
                <name>Position 172</name>
            </trkpt>
            <trkpt lon="11.295839035883546" lat="49.35963202267885">
                <ele>359.67</ele>
                <time>2010-11-14T09:36:18.000Z</time>
                <name>Position 173</name>
            </trkpt>
            <trkpt lon="11.298178005963564" lat="49.3599109724164">
                <ele>359.67</ele>
                <time>2010-11-14T09:36:25.000Z</time>
                <name>Position 174</name>
            </trkpt>
            <trkpt lon="11.298488974571228" lat="49.35993301682174">
                <ele>359.67</ele>
                <time>2010-11-14T09:36:26.000Z</time>
                <name>Position 175</name>
            </trkpt>
            <trkpt lon="11.298796003684402" lat="49.359936034306884">
                <ele>359.67</ele>
                <time>2010-11-14T09:36:27.000Z</time>
                <name>Position 176</name>
            </trkpt>
            <trkpt lon="11.299087023362517" lat="49.35991398990154">
                <ele>359.67</ele>
                <time>2010-11-14T09:36:28.000Z</time>
                <name>Position 177</name>
            </trkpt>
            <trkpt lon="11.299363039433956" lat="49.359873002395034">
                <ele>359.67</ele>
                <time>2010-11-14T09:36:29.000Z</time>
                <name>Position 178</name>
            </trkpt>
            <trkpt lon="11.299623968079686" lat="49.359810976311564">
                <ele>359.67</ele>
                <time>2010-11-14T09:36:30.000Z</time>
                <name>Position 179</name>
            </trkpt>
            <trkpt lon="11.299861008301377" lat="49.35972900129855">
                <ele>359.19</ele>
                <time>2010-11-14T09:36:31.000Z</time>
                <name>Position 180</name>
            </trkpt>
            <trkpt lon="11.30008296109736" lat="49.35963302850723">
                <ele>359.19</ele>
                <time>2010-11-14T09:36:32.000Z</time>
                <name>Position 181</name>
            </trkpt>
            <trkpt lon="11.300292005762458" lat="49.359533032402396">
                <ele>359.19</ele>
                <time>2010-11-14T09:36:33.000Z</time>
                <name>Position 182</name>
            </trkpt>
            <trkpt lon="11.301719024777412" lat="49.35899801552296">
                <ele>358.71</ele>
                <time>2010-11-14T09:36:40.000Z</time>
                <name>Position 183</name>
            </trkpt>
            <trkpt lon="11.304294029250741" lat="49.35851798392832">
                <ele>360.15</ele>
                <time>2010-11-14T09:36:52.000Z</time>
                <name>Position 184</name>
            </trkpt>
            <trkpt lon="11.305398009717464" lat="49.35845302417874">
                <ele>360.63</ele>
                <time>2010-11-14T09:36:57.000Z</time>
                <name>Position 185</name>
            </trkpt>
            <trkpt lon="11.305633038282394" lat="49.35847599059343">
                <ele>360.63</ele>
                <time>2010-11-14T09:36:58.000Z</time>
                <name>Position 186</name>
            </trkpt>
            <trkpt lon="11.30588298663497" lat="49.35851303860545">
                <ele>360.63</ele>
                <time>2010-11-14T09:36:59.000Z</time>
                <name>Position 187</name>
            </trkpt>
            <trkpt lon="11.308046020567417" lat="49.35888200998306">
                <ele>360.63</ele>
                <time>2010-11-14T09:37:06.000Z</time>
                <name>Position 188</name>
            </trkpt>
            <trkpt lon="11.309988023713231" lat="49.358867006376386">
                <ele>360.63</ele>
                <time>2010-11-14T09:37:12.000Z</time>
                <name>Position 189</name>
            </trkpt>
            <trkpt lon="11.312670987099409" lat="49.35844196006656">
                <ele>362.07</ele>
                <time>2010-11-14T09:37:21.000Z</time>
                <name>Position 190</name>
            </trkpt>
            <trkpt lon="11.314742993563414" lat="49.35820600949228">
                <ele>361.59</ele>
                <time>2010-11-14T09:37:29.000Z</time>
                <name>Position 191</name>
            </trkpt>
            <trkpt lon="11.316486010327935" lat="49.358177008107305">
                <ele>361.59</ele>
                <time>2010-11-14T09:37:37.000Z</time>
                <name>Position 192</name>
            </trkpt>
            <trkpt lon="11.318697994574904" lat="49.35841999948025">
                <ele>362.55</ele>
                <time>2010-11-14T09:37:48.000Z</time>
                <name>Position 193</name>
            </trkpt>
            <trkpt lon="11.32042902521789" lat="49.35885996557772">
                <ele>364.0</ele>
                <time>2010-11-14T09:37:58.000Z</time>
                <name>Position 194</name>
            </trkpt>
            <trkpt lon="11.3206219766289" lat="49.35891696251929">
                <ele>363.52</ele>
                <time>2010-11-14T09:38:00.000Z</time>
                <name>Position 195</name>
            </trkpt>
            <trkpt lon="11.32070898078382" lat="49.35891897417605">
                <ele>364.0</ele>
                <time>2010-11-14T09:38:01.000Z</time>
                <name>Position 196</name>
            </trkpt>
            <trkpt lon="11.320781987160444" lat="49.3588990252465">
                <ele>364.0</ele>
                <time>2010-11-14T09:38:02.000Z</time>
                <name>Position 197</name>
            </trkpt>
            <trkpt lon="11.320843007415533" lat="49.358864994719625">
                <ele>364.48</ele>
                <time>2010-11-14T09:38:03.000Z</time>
                <name>Position 198</name>
            </trkpt>
            <trkpt lon="11.320903021842241" lat="49.35881897807121">
                <ele>364.48</ele>
                <time>2010-11-14T09:38:04.000Z</time>
                <name>Position 199</name>
            </trkpt>
            <trkpt lon="11.320968987420201" lat="49.35876701027155">
                <ele>364.96</ele>
                <time>2010-11-14T09:38:05.000Z</time>
                <name>Position 200</name>
            </trkpt>
            <trkpt lon="11.321925027295947" lat="49.35819201171398">
                <ele>365.44</ele>
                <time>2010-11-14T09:38:14.000Z</time>
                <name>Position 201</name>
            </trkpt>
            <trkpt lon="11.330404998734593" lat="49.35191002674401">
                <ele>382.74</ele>
                <time>2010-11-14T09:39:12.000Z</time>
                <name>Position 202</name>
            </trkpt>
            <trkpt lon="11.332473987713456" lat="49.35150400735438">
                <ele>385.63</ele>
                <time>2010-11-14T09:39:20.000Z</time>
                <name>Position 203</name>
            </trkpt>
            <trkpt lon="11.334555968642235" lat="49.351472994312644">
                <ele>390.91</ele>
                <time>2010-11-14T09:39:27.000Z</time>
                <name>Position 204</name>
            </trkpt>
            <trkpt lon="11.337447976693511" lat="49.352011028677225">
                <ele>391.87</ele>
                <time>2010-11-14T09:39:37.000Z</time>
                <name>Position 205</name>
            </trkpt>
            <trkpt lon="11.340600997209549" lat="49.35254001058638">
                <ele>393.8</ele>
                <time>2010-11-14T09:39:49.000Z</time>
                <name>Position 206</name>
            </trkpt>
            <trkpt lon="11.341293007135391" lat="49.352634977549314">
                <ele>394.76</ele>
                <time>2010-11-14T09:39:52.000Z</time>
                <name>Position 207</name>
            </trkpt>
            <trkpt lon="11.341489981859922" lat="49.35265098698437">
                <ele>394.76</ele>
                <time>2010-11-14T09:39:53.000Z</time>
                <name>Position 208</name>
            </trkpt>
            <trkpt lon="11.341673964634538" lat="49.352679988369346">
                <ele>395.24</ele>
                <time>2010-11-14T09:39:54.000Z</time>
                <name>Position 209</name>
            </trkpt>
            <trkpt lon="11.341843027621508" lat="49.352723993360996">
                <ele>395.24</ele>
                <time>2010-11-14T09:39:55.000Z</time>
                <name>Position 210</name>
            </trkpt>
            <trkpt lon="11.342002032324672" lat="49.35277797281742">
                <ele>395.72</ele>
                <time>2010-11-14T09:39:56.000Z</time>
                <name>Position 211</name>
            </trkpt>
            <trkpt lon="11.343721998855472" lat="49.353169994428754">
                <ele>394.28</ele>
                <time>2010-11-14T09:40:07.000Z</time>
                <name>Position 212</name>
            </trkpt>
            <trkpt lon="11.34384898468852" lat="49.35317602939904">
                <ele>393.8</ele>
                <time>2010-11-14T09:40:08.000Z</time>
                <name>Position 213</name>
            </trkpt>
            <trkpt lon="11.343968007713556" lat="49.35316898860037">
                <ele>393.8</ele>
                <time>2010-11-14T09:40:09.000Z</time>
                <name>Position 214</name>
            </trkpt>
            <trkpt lon="11.344078984111547" lat="49.353148033842444">
                <ele>393.8</ele>
                <time>2010-11-14T09:40:10.000Z</time>
                <name>Position 215</name>
            </trkpt>
            <trkpt lon="11.344175040721893" lat="49.35312003828585">
                <ele>393.8</ele>
                <time>2010-11-14T09:40:11.000Z</time>
                <name>Position 216</name>
            </trkpt>
            <trkpt lon="11.344250980764627" lat="49.35309103690088">
                <ele>393.8</ele>
                <time>2010-11-14T09:40:12.000Z</time>
                <name>Position 217</name>
            </trkpt>
            <trkpt lon="11.344309989362955" lat="49.353067986667156">
                <ele>393.8</ele>
                <time>2010-11-14T09:40:13.000Z</time>
                <name>Position 218</name>
            </trkpt>
            <trkpt lon="11.344462037086487" lat="49.352981988340616">
                <ele>394.28</ele>
                <time>2010-11-14T09:40:17.000Z</time>
                <name>Position 219</name>
            </trkpt>
            <trkpt lon="11.344801001250744" lat="49.35271896421909">
                <ele>398.12</ele>
                <time>2010-11-14T09:40:23.000Z</time>
                <name>Position 220</name>
            </trkpt>
            <trkpt lon="11.344836037606001" lat="49.35266196727753">
                <ele>399.08</ele>
                <time>2010-11-14T09:40:24.000Z</time>
                <name>Position 221</name>
            </trkpt>
            <trkpt lon="11.344860009849072" lat="49.352592984214425">
                <ele>400.05</ele>
                <time>2010-11-14T09:40:25.000Z</time>
                <name>Position 222</name>
            </trkpt>
            <trkpt lon="11.344870990142226" lat="49.35251402668655">
                <ele>401.01</ele>
                <time>2010-11-14T09:40:26.000Z</time>
                <name>Position 223</name>
            </trkpt>
            <trkpt lon="11.344861015677452" lat="49.35243397951126">
                <ele>401.49</ele>
                <time>2010-11-14T09:40:27.000Z</time>
                <name>Position 224</name>
            </trkpt>
            <trkpt lon="11.344822039827704" lat="49.35236197896302">
                <ele>401.97</ele>
                <time>2010-11-14T09:40:28.000Z</time>
                <name>Position 225</name>
            </trkpt>
            <trkpt lon="11.344755990430713" lat="49.35230196453631">
                <ele>402.45</ele>
                <time>2010-11-14T09:40:29.000Z</time>
                <name>Position 226</name>
            </trkpt>
            <trkpt lon="11.344669992104173" lat="49.352251002565026">
                <ele>402.93</ele>
                <time>2010-11-14T09:40:30.000Z</time>
                <name>Position 227</name>
            </trkpt>
            <trkpt lon="11.34457603096962" lat="49.35220196843147">
                <ele>403.41</ele>
                <time>2010-11-14T09:40:31.000Z</time>
                <name>Position 228</name>
            </trkpt>
            <trkpt lon="11.344376960769296" lat="49.35210599564016">
                <ele>404.37</ele>
                <time>2010-11-14T09:40:33.000Z</time>
                <name>Position 229</name>
            </trkpt>
            <trkpt lon="11.34429699741304" lat="49.35204598121345">
                <ele>405.33</ele>
                <time>2010-11-14T09:40:34.000Z</time>
                <name>Position 230</name>
            </trkpt>
            <trkpt lon="11.344251986593008" lat="49.35198001563549">
                <ele>404.37</ele>
                <time>2010-11-14T09:40:35.000Z</time>
                <name>Position 231</name>
            </trkpt>
            <trkpt lon="11.344230026006699" lat="49.351902985945344">
                <ele>404.85</ele>
                <time>2010-11-14T09:40:36.000Z</time>
                <name>Position 232</name>
            </trkpt>
            <trkpt lon="11.344214016571641" lat="49.35182604007423">
                <ele>404.85</ele>
                <time>2010-11-14T09:40:37.000Z</time>
                <name>Position 233</name>
            </trkpt>
            <trkpt lon="11.34427797049284" lat="49.3510920368135">
                <ele>407.74</ele>
                <time>2010-11-14T09:40:46.000Z</time>
                <name>Position 234</name>
            </trkpt>
            <trkpt lon="11.344376960769296" lat="49.35064896941185">
                <ele>408.22</ele>
                <time>2010-11-14T09:40:53.000Z</time>
                <name>Position 235</name>
            </trkpt>
            <trkpt lon="11.344518028199673" lat="49.35025803744793">
                <ele>408.7</ele>
                <time>2010-11-14T09:40:59.000Z</time>
                <name>Position 236</name>
            </trkpt>
            <trkpt lon="11.344522973522544" lat="49.3501939997077">
                <ele>408.7</ele>
                <time>2010-11-14T09:41:00.000Z</time>
                <name>Position 237</name>
            </trkpt>
            <trkpt lon="11.344687007367611" lat="49.349454967305064">
                <ele>409.18</ele>
                <time>2010-11-14T09:41:08.000Z</time>
                <name>Position 238</name>
            </trkpt>
            <trkpt lon="11.345077017322183" lat="49.34822500683367">
                <ele>418.31</ele>
                <time>2010-11-14T09:41:20.000Z</time>
                <name>Position 239</name>
            </trkpt>
            <trkpt lon="11.345068970695138" lat="49.348121993243694">
                <ele>419.27</ele>
                <time>2010-11-14T09:41:21.000Z</time>
                <name>Position 240</name>
            </trkpt>
            <trkpt lon="11.345023037865758" lat="49.348015040159225">
                <ele>421.19</ele>
                <time>2010-11-14T09:41:22.000Z</time>
                <name>Position 241</name>
            </trkpt>
            <trkpt lon="11.344947014003992" lat="49.3479179777205">
                <ele>422.16</ele>
                <time>2010-11-14T09:41:23.000Z</time>
                <name>Position 242</name>
            </trkpt>
            <trkpt lon="11.344827990978956" lat="49.34782803989947">
                <ele>424.08</ele>
                <time>2010-11-14T09:41:24.000Z</time>
                <name>Position 243</name>
            </trkpt>
            <trkpt lon="11.344670997932553" lat="49.34774799272418">
                <ele>425.52</ele>
                <time>2010-11-14T09:41:25.000Z</time>
                <name>Position 244</name>
            </trkpt>
            <trkpt lon="11.344485003501177" lat="49.347669035196304">
                <ele>426.96</ele>
                <time>2010-11-14T09:41:26.000Z</time>
                <name>Position 245</name>
            </trkpt>
            <trkpt lon="11.34397303685546" lat="49.347434006631374">
                <ele>431.77</ele>
                <time>2010-11-14T09:41:29.000Z</time>
                <name>Position 246</name>
            </trkpt>
            <trkpt lon="11.343836998566985" lat="49.34734398499131">
                <ele>433.69</ele>
                <time>2010-11-14T09:41:30.000Z</time>
                <name>Position 247</name>
            </trkpt>
            <trkpt lon="11.343101989477873" lat="49.346749037504196">
                <ele>441.86</ele>
                <time>2010-11-14T09:41:36.000Z</time>
                <name>Position 248</name>
            </trkpt>
            <trkpt lon="11.343034012243152" lat="49.346640994772315">
                <ele>442.82</ele>
                <time>2010-11-14T09:41:37.000Z</time>
                <name>Position 249</name>
            </trkpt>
            <trkpt lon="11.34301096200943" lat="49.34650504030287">
                <ele>443.31</ele>
                <time>2010-11-14T09:41:38.000Z</time>
                <name>Position 250</name>
            </trkpt>
            <trkpt lon="11.34303200058639" lat="49.34634502977133">
                <ele>443.79</ele>
                <time>2010-11-14T09:41:39.000Z</time>
                <name>Position 251</name>
            </trkpt>
            <trkpt lon="11.343101989477873" lat="49.346168003976345">
                <ele>444.27</ele>
                <time>2010-11-14T09:41:40.000Z</time>
                <name>Position 252</name>
            </trkpt>
            <trkpt lon="11.34320399723947" lat="49.345973962917924">
                <ele>444.75</ele>
                <time>2010-11-14T09:41:41.000Z</time>
                <name>Position 253</name>
            </trkpt>
            <trkpt lon="11.343877986073494" lat="49.34437402524054">
                <ele>449.07</ele>
                <time>2010-11-14T09:41:49.000Z</time>
                <name>Position 254</name>
            </trkpt>
            <trkpt lon="11.344218961894512" lat="49.3438530061394">
                <ele>448.59</ele>
                <time>2010-11-14T09:41:52.000Z</time>
                <name>Position 255</name>
            </trkpt>
            <trkpt lon="11.344396993517876" lat="49.34369098395109">
                <ele>448.59</ele>
                <time>2010-11-14T09:41:53.000Z</time>
                <name>Position 256</name>
            </trkpt>
            <trkpt lon="11.344610983505845" lat="49.34354002587497">
                <ele>449.07</ele>
                <time>2010-11-14T09:41:54.000Z</time>
                <name>Position 257</name>
            </trkpt>
            <trkpt lon="11.344849029555917" lat="49.34340700507164">
                <ele>449.55</ele>
                <time>2010-11-14T09:41:55.000Z</time>
                <name>Position 258</name>
            </trkpt>
            <trkpt lon="11.345109036192298" lat="49.34328597038984">
                <ele>449.55</ele>
                <time>2010-11-14T09:41:56.000Z</time>
                <name>Position 259</name>
            </trkpt>
            <trkpt lon="11.345363007858396" lat="49.34317097067833">
                <ele>450.03</ele>
                <time>2010-11-14T09:41:57.000Z</time>
                <name>Position 260</name>
            </trkpt>
            <trkpt lon="11.3462779764086" lat="49.34269102290273">
                <ele>451.48</ele>
                <time>2010-11-14T09:42:01.000Z</time>
                <name>Position 261</name>
            </trkpt>
            <trkpt lon="11.346453996375203" lat="49.34255397878587">
                <ele>452.44</ele>
                <time>2010-11-14T09:42:02.000Z</time>
                <name>Position 262</name>
            </trkpt>
            <trkpt lon="11.346605038270354" lat="49.34241198934615">
                <ele>452.92</ele>
                <time>2010-11-14T09:42:03.000Z</time>
                <name>Position 263</name>
            </trkpt>
            <trkpt lon="11.346729006618261" lat="49.34226698242128">
                <ele>453.4</ele>
                <time>2010-11-14T09:42:04.000Z</time>
                <name>Position 264</name>
            </trkpt>
            <trkpt lon="11.346838977187872" lat="49.34211501851678">
                <ele>453.88</ele>
                <time>2010-11-14T09:42:05.000Z</time>
                <name>Position 265</name>
            </trkpt>
            <trkpt lon="11.34694098494947" lat="49.341960959136486">
                <ele>454.36</ele>
                <time>2010-11-14T09:42:06.000Z</time>
                <name>Position 266</name>
            </trkpt>
            <trkpt lon="11.348028033971786" lat="49.34057702310383">
                <ele>452.44</ele>
                <time>2010-11-14T09:42:15.000Z</time>
                <name>Position 267</name>
            </trkpt>
            <trkpt lon="11.349200997501612" lat="49.33898697607219">
                <ele>457.24</ele>
                <time>2010-11-14T09:42:25.000Z</time>
                <name>Position 268</name>
            </trkpt>
            <trkpt lon="11.34962797164917" lat="49.33763296343386">
                <ele>461.57</ele>
                <time>2010-11-14T09:42:33.000Z</time>
                <name>Position 269</name>
            </trkpt>
            <trkpt lon="11.349324965849519" lat="49.336218014359474">
                <ele>457.24</ele>
                <time>2010-11-14T09:42:40.000Z</time>
                <name>Position 270</name>
            </trkpt>
            <trkpt lon="11.349147018045187" lat="49.335875026881695">
                <ele>457.24</ele>
                <time>2010-11-14T09:42:42.000Z</time>
                <name>Position 271</name>
            </trkpt>
            <trkpt lon="11.348840994760394" lat="49.335530027747154">
                <ele>457.24</ele>
                <time>2010-11-14T09:42:44.000Z</time>
                <name>Position 272</name>
            </trkpt>
            <trkpt lon="11.34778001345694" lat="49.33425103314221">
                <ele>459.17</ele>
                <time>2010-11-14T09:42:51.000Z</time>
                <name>Position 273</name>
            </trkpt>
            <trkpt lon="11.34771698154509" lat="49.334083981812">
                <ele>459.65</ele>
                <time>2010-11-14T09:42:52.000Z</time>
                <name>Position 274</name>
            </trkpt>
            <trkpt lon="11.347697032615542" lat="49.33391198515892">
                <ele>459.65</ele>
                <time>2010-11-14T09:42:53.000Z</time>
                <name>Position 275</name>
            </trkpt>
            <trkpt lon="11.347709018737078" lat="49.33373403735459">
                <ele>459.65</ele>
                <time>2010-11-14T09:42:54.000Z</time>
                <name>Position 276</name>
            </trkpt>
            <trkpt lon="11.347746988758445" lat="49.333554999902844">
                <ele>460.13</ele>
                <time>2010-11-14T09:42:55.000Z</time>
                <name>Position 277</name>
            </trkpt>
            <trkpt lon="11.347807003185153" lat="49.33338702656329">
                <ele>460.13</ele>
                <time>2010-11-14T09:42:56.000Z</time>
                <name>Position 278</name>
            </trkpt>
            <trkpt lon="11.34788696654141" lat="49.33322500437498">
                <ele>460.13</ele>
                <time>2010-11-14T09:42:57.000Z</time>
                <name>Position 279</name>
            </trkpt>
            <trkpt lon="11.34799299761653" lat="49.333063988015056">
                <ele>460.13</ele>
                <time>2010-11-14T09:42:58.000Z</time>
                <name>Position 280</name>
            </trkpt>
            <trkpt lon="11.348139010369778" lat="49.33290196582675">
                <ele>460.13</ele>
                <time>2010-11-14T09:42:59.000Z</time>
                <name>Position 281</name>
            </trkpt>
            <trkpt lon="11.348330033943057" lat="49.332743966951966">
                <ele>460.13</ele>
                <time>2010-11-14T09:43:00.000Z</time>
                <name>Position 282</name>
            </trkpt>
            <trkpt lon="11.348557015880942" lat="49.33258596807718">
                <ele>459.65</ele>
                <time>2010-11-14T09:43:01.000Z</time>
                <name>Position 283</name>
            </trkpt>
            <trkpt lon="11.350217973813415" lat="49.33131099678576">
                <ele>460.13</ele>
                <time>2010-11-14T09:43:09.000Z</time>
                <name>Position 284</name>
            </trkpt>
            <trkpt lon="11.350935967639089" lat="49.33036996051669">
                <ele>460.13</ele>
                <time>2010-11-14T09:43:15.000Z</time>
                <name>Position 285</name>
            </trkpt>
            <trkpt lon="11.35104300454259" lat="49.33012797497213">
                <ele>459.65</ele>
                <time>2010-11-14T09:43:17.000Z</time>
                <name>Position 286</name>
            </trkpt>
            <trkpt lon="11.351163033396006" lat="49.32987400330603">
                <ele>458.69</ele>
                <time>2010-11-14T09:43:20.000Z</time>
                <name>Position 287</name>
            </trkpt>
            <trkpt lon="11.351234028115869" lat="49.329839972779155">
                <ele>458.69</ele>
                <time>2010-11-14T09:43:21.000Z</time>
                <name>Position 288</name>
            </trkpt>
            <trkpt lon="11.351336035877466" lat="49.32983200997114">
                <ele>458.69</ele>
                <time>2010-11-14T09:43:22.000Z</time>
                <name>Position 289</name>
            </trkpt>
            <trkpt lon="11.351464027538896" lat="49.32984500192106">
                <ele>459.17</ele>
                <time>2010-11-14T09:43:23.000Z</time>
                <name>Position 290</name>
            </trkpt>
            <trkpt lon="11.351614985615015" lat="49.32987601496279">
                <ele>459.65</ele>
                <time>2010-11-14T09:43:24.000Z</time>
                <name>Position 291</name>
            </trkpt>
            <trkpt lon="11.351782036945224" lat="49.329921025782824">
                <ele>460.13</ele>
                <time>2010-11-14T09:43:25.000Z</time>
                <name>Position 292</name>
            </trkpt>
            <trkpt lon="11.353074023500085" lat="49.33029301464558">
                <ele>463.97</ele>
                <time>2010-11-14T09:43:31.000Z</time>
                <name>Position 293</name>
            </trkpt>
            <trkpt lon="11.353330006822944" lat="49.33040298521519">
                <ele>464.93</ele>
                <time>2010-11-14T09:43:32.000Z</time>
                <name>Position 294</name>
            </trkpt>
            <trkpt lon="11.353831999003887" lat="49.33067196048796">
                <ele>467.34</ele>
                <time>2010-11-14T09:43:34.000Z</time>
                <name>Position 295</name>
            </trkpt>
            <trkpt lon="11.35407398454845" lat="49.33084404096007">
                <ele>468.78</ele>
                <time>2010-11-14T09:43:35.000Z</time>
                <name>Position 296</name>
            </trkpt>
            <trkpt lon="11.354299038648605" lat="49.331043027341366">
                <ele>470.22</ele>
                <time>2010-11-14T09:43:36.000Z</time>
                <name>Position 297</name>
            </trkpt>
            <trkpt lon="11.354499030858278" lat="49.33126498013735">
                <ele>471.66</ele>
                <time>2010-11-14T09:43:37.000Z</time>
                <name>Position 298</name>
            </trkpt>
            <trkpt lon="11.35467303916812" lat="49.33151199482381">
                <ele>473.59</ele>
                <time>2010-11-14T09:43:38.000Z</time>
                <name>Position 299</name>
            </trkpt>
            <trkpt lon="11.354829026386142" lat="49.331773007288575">
                <ele>475.51</ele>
                <time>2010-11-14T09:43:39.000Z</time>
                <name>Position 300</name>
            </trkpt>
            <trkpt lon="11.35544802993536" lat="49.332824014127254">
                <ele>489.45</ele>
                <time>2010-11-14T09:43:44.000Z</time>
                <name>Position 301</name>
            </trkpt>
            <trkpt lon="11.355593036860228" lat="49.332972038537264">
                <ele>491.37</ele>
                <time>2010-11-14T09:43:45.000Z</time>
                <name>Position 302</name>
            </trkpt>
            <trkpt lon="11.355766039341688" lat="49.333107993006706">
                <ele>493.29</ele>
                <time>2010-11-14T09:43:46.000Z</time>
                <name>Position 303</name>
            </trkpt>
            <trkpt lon="11.355976006016135" lat="49.333236990496516">
                <ele>494.74</ele>
                <time>2010-11-14T09:43:47.000Z</time>
                <name>Position 304</name>
            </trkpt>
            <trkpt lon="11.356189996004105" lat="49.333364982157946">
                <ele>496.66</ele>
                <time>2010-11-14T09:43:48.000Z</time>
                <name>Position 305</name>
            </trkpt>
            <trkpt lon="11.356945037841797" lat="49.333793967962265">
                <ele>502.43</ele>
                <time>2010-11-14T09:43:52.000Z</time>
                <name>Position 306</name>
            </trkpt>
            <trkpt lon="11.357218958437443" lat="49.3339320179075">
                <ele>503.87</ele>
                <time>2010-11-14T09:43:54.000Z</time>
                <name>Position 307</name>
            </trkpt>
            <trkpt lon="11.357378968968987" lat="49.333945009857416">
                <ele>504.83</ele>
                <time>2010-11-14T09:43:55.000Z</time>
                <name>Position 308</name>
            </trkpt>
            <trkpt lon="11.35753596201539" lat="49.333921037614346">
                <ele>504.83</ele>
                <time>2010-11-14T09:43:56.000Z</time>
                <name>Position 309</name>
            </trkpt>
            <trkpt lon="11.357688009738922" lat="49.33386898599565">
                <ele>505.31</ele>
                <time>2010-11-14T09:43:57.000Z</time>
                <name>Position 310</name>
            </trkpt>
            <trkpt lon="11.357817007228732" lat="49.33382296934724">
                <ele>506.27</ele>
                <time>2010-11-14T09:43:58.000Z</time>
                <name>Position 311</name>
            </trkpt>
            <trkpt lon="11.357923960313201" lat="49.33380302041769">
                <ele>506.75</ele>
                <time>2010-11-14T09:43:59.000Z</time>
                <name>Position 312</name>
            </trkpt>
            <trkpt lon="11.358065027743578" lat="49.33380603790283">
                <ele>508.19</ele>
                <time>2010-11-14T09:44:00.000Z</time>
                <name>Position 313</name>
            </trkpt>
            <trkpt lon="11.358170974999666" lat="49.3338490370661">
                <ele>508.67</ele>
                <time>2010-11-14T09:44:01.000Z</time>
                <name>Position 314</name>
            </trkpt>
            <trkpt lon="11.358234006911516" lat="49.333921959623694">
                <ele>509.16</ele>
                <time>2010-11-14T09:44:02.000Z</time>
                <name>Position 315</name>
            </trkpt>
            <trkpt lon="11.35823903605342" lat="49.33402103371918">
                <ele>510.6</ele>
                <time>2010-11-14T09:44:03.000Z</time>
                <name>Position 316</name>
            </trkpt>
            <trkpt lon="11.358186984434724" lat="49.334134021773934">
                <ele>513.0</ele>
                <time>2010-11-14T09:44:04.000Z</time>
                <name>Position 317</name>
            </trkpt>
            <trkpt lon="11.358121018856764" lat="49.334262013435364">
                <ele>514.44</ele>
                <time>2010-11-14T09:44:05.000Z</time>
                <name>Position 318</name>
            </trkpt>
            <trkpt lon="11.357723968103528" lat="49.33502904139459">
                <ele>519.73</ele>
                <time>2010-11-14T09:44:11.000Z</time>
                <name>Position 319</name>
            </trkpt>
            <trkpt lon="11.357692033052444" lat="49.335143035277724">
                <ele>520.69</ele>
                <time>2010-11-14T09:44:12.000Z</time>
                <name>Position 320</name>
            </trkpt>
            <trkpt lon="11.35774701833725" lat="49.33526599779725">
                <ele>521.17</ele>
                <time>2010-11-14T09:44:13.000Z</time>
                <name>Position 321</name>
            </trkpt>
            <trkpt lon="11.35783402249217" lat="49.33539901860058">
                <ele>521.65</ele>
                <time>2010-11-14T09:44:14.000Z</time>
                <name>Position 322</name>
            </trkpt>
            <trkpt lon="11.358623011037707" lat="49.336458994075656">
                <ele>519.73</ele>
                <time>2010-11-14T09:44:21.000Z</time>
                <name>Position 323</name>
            </trkpt>
            <trkpt lon="11.358774974942207" lat="49.33673098683357">
                <ele>517.81</ele>
                <time>2010-11-14T09:44:23.000Z</time>
                <name>Position 324</name>
            </trkpt>
            <trkpt lon="11.358814034610987" lat="49.336884962394834">
                <ele>517.33</ele>
                <time>2010-11-14T09:44:24.000Z</time>
                <name>Position 325</name>
            </trkpt>
            <trkpt lon="11.358876982703805" lat="49.33724496513605">
                <ele>516.37</ele>
                <time>2010-11-14T09:44:26.000Z</time>
                <name>Position 326</name>
            </trkpt>
            <trkpt lon="11.35931703262031" lat="49.33794401586056">
                <ele>513.0</ele>
                <time>2010-11-14T09:44:30.000Z</time>
                <name>Position 327</name>
            </trkpt>
            <trkpt lon="11.360560990869999" lat="49.339033998548985">
                <ele>518.77</ele>
                <time>2010-11-14T09:44:36.000Z</time>
                <name>Position 328</name>
            </trkpt>
            <trkpt lon="11.362188002094626" lat="49.34039102867246">
                <ele>526.94</ele>
                <time>2010-11-14T09:44:45.000Z</time>
                <name>Position 329</name>
            </trkpt>
            <trkpt lon="11.3625399582088" lat="49.340622033923864">
                <ele>527.9</ele>
                <time>2010-11-14T09:44:47.000Z</time>
                <name>Position 330</name>
            </trkpt>
            <trkpt lon="11.362741962075233" lat="49.34069998562336">
                <ele>527.42</ele>
                <time>2010-11-14T09:44:48.000Z</time>
                <name>Position 331</name>
            </trkpt>
            <trkpt lon="11.36294698342681" lat="49.3407859839499">
                <ele>527.42</ele>
                <time>2010-11-14T09:44:49.000Z</time>
                <name>Position 332</name>
            </trkpt>
            <trkpt lon="11.363155022263527" lat="49.340854967013">
                <ele>527.42</ele>
                <time>2010-11-14T09:44:50.000Z</time>
                <name>Position 333</name>
            </trkpt>
            <trkpt lon="11.363365994766355" lat="49.340906012803316">
                <ele>527.42</ele>
                <time>2010-11-14T09:44:51.000Z</time>
                <name>Position 334</name>
            </trkpt>
            <trkpt lon="11.363603034988046" lat="49.34093300253153">
                <ele>527.9</ele>
                <time>2010-11-14T09:44:52.000Z</time>
                <name>Position 335</name>
            </trkpt>
            <trkpt lon="11.363860024139285" lat="49.34094197116792">
                <ele>528.38</ele>
                <time>2010-11-14T09:44:53.000Z</time>
                <name>Position 336</name>
            </trkpt>
            <trkpt lon="11.364138973876834" lat="49.34093400835991">
                <ele>529.34</ele>
                <time>2010-11-14T09:44:54.000Z</time>
                <name>Position 337</name>
            </trkpt>
            <trkpt lon="11.366532007232308" lat="49.3406149931252">
                <ele>529.82</ele>
                <time>2010-11-14T09:45:02.000Z</time>
                <name>Position 338</name>
            </trkpt>
            <trkpt lon="11.367476982995868" lat="49.340561013668776">
                <ele>526.94</ele>
                <time>2010-11-14T09:45:05.000Z</time>
                <name>Position 339</name>
            </trkpt>
            <trkpt lon="11.367789963260293" lat="49.340578028932214">
                <ele>526.46</ele>
                <time>2010-11-14T09:45:06.000Z</time>
                <name>Position 340</name>
            </trkpt>
            <trkpt lon="11.368090035393834" lat="49.3406149931252">
                <ele>525.98</ele>
                <time>2010-11-14T09:45:07.000Z</time>
                <name>Position 341</name>
            </trkpt>
            <trkpt lon="11.369876973330975" lat="49.34098396450281">
                <ele>523.58</ele>
                <time>2010-11-14T09:45:14.000Z</time>
                <name>Position 342</name>
            </trkpt>
            <trkpt lon="11.371270967647433" lat="49.341485034674406">
                <ele>517.81</ele>
                <time>2010-11-14T09:45:22.000Z</time>
                <name>Position 343</name>
            </trkpt>
            <trkpt lon="11.371983010321856" lat="49.341829027980566">
                <ele>514.44</ele>
                <time>2010-11-14T09:45:27.000Z</time>
                <name>Position 344</name>
            </trkpt>
            <trkpt lon="11.372163975611329" lat="49.34186398051679">
                <ele>513.96</ele>
                <time>2010-11-14T09:45:28.000Z</time>
                <name>Position 345</name>
            </trkpt>
            <trkpt lon="11.372362039983273" lat="49.34188602492213">
                <ele>513.0</ele>
                <time>2010-11-14T09:45:29.000Z</time>
                <name>Position 346</name>
            </trkpt>
            <trkpt lon="11.373311039060354" lat="49.34186599217355">
                <ele>510.6</ele>
                <time>2010-11-14T09:45:34.000Z</time>
                <name>Position 347</name>
            </trkpt>
            <trkpt lon="11.373469037935138" lat="49.34183699078858">
                <ele>510.12</ele>
                <time>2010-11-14T09:45:35.000Z</time>
                <name>Position 348</name>
            </trkpt>
            <trkpt lon="11.373812025412917" lat="49.3417479749769">
                <ele>509.64</ele>
                <time>2010-11-14T09:45:39.000Z</time>
                <name>Position 349</name>
            </trkpt>
            <trkpt lon="11.373872961848974" lat="49.34171302244067">
                <ele>509.64</ele>
                <time>2010-11-14T09:45:40.000Z</time>
                <name>Position 350</name>
            </trkpt>
            <trkpt lon="11.374130034819245" lat="49.34158897027373">
                <ele>510.12</ele>
                <time>2010-11-14T09:45:43.000Z</time>
                <name>Position 351</name>
            </trkpt>
            <trkpt lon="11.37422801926732" lat="49.34155896306038">
                <ele>510.12</ele>
                <time>2010-11-14T09:45:44.000Z</time>
                <name>Position 352</name>
            </trkpt>
            <trkpt lon="11.374340001493692" lat="49.34153499081731">
                <ele>510.6</ele>
                <time>2010-11-14T09:45:45.000Z</time>
                <name>Position 353</name>
            </trkpt>
            <trkpt lon="11.374456007033587" lat="49.34152099303901">
                <ele>510.6</ele>
                <time>2010-11-14T09:45:46.000Z</time>
                <name>Position 354</name>
            </trkpt>
            <trkpt lon="11.374577041715384" lat="49.34151596389711">
                <ele>510.12</ele>
                <time>2010-11-14T09:45:47.000Z</time>
                <name>Position 355</name>
            </trkpt>
            <trkpt lon="11.37470000423491" lat="49.34151101857424">
                <ele>510.12</ele>
                <time>2010-11-14T09:45:48.000Z</time>
                <name>Position 356</name>
            </trkpt>
            <trkpt lon="11.376241017132998" lat="49.34150003828108">
                <ele>505.79</ele>
                <time>2010-11-14T09:46:00.000Z</time>
                <name>Position 357</name>
            </trkpt>
            <trkpt lon="11.376432040706277" lat="49.34151101857424">
                <ele>506.27</ele>
                <time>2010-11-14T09:46:02.000Z</time>
                <name>Position 358</name>
            </trkpt>
            <trkpt lon="11.376510998234153" lat="49.341487968340516">
                <ele>505.79</ele>
                <time>2010-11-14T09:46:03.000Z</time>
                <name>Position 359</name>
            </trkpt>
            <trkpt lon="11.376586016267538" lat="49.34143398888409">
                <ele>505.79</ele>
                <time>2010-11-14T09:46:04.000Z</time>
                <name>Position 360</name>
            </trkpt>
            <trkpt lon="11.377272997051477" lat="49.340854967013">
                <ele>498.1</ele>
                <time>2010-11-14T09:46:11.000Z</time>
                <name>Position 361</name>
            </trkpt>
            <trkpt lon="11.37773098424077" lat="49.3405129853636">
                <ele>493.77</ele>
                <time>2010-11-14T09:46:16.000Z</time>
                <name>Position 362</name>
            </trkpt>
            <trkpt lon="11.377795021981001" lat="49.3404389731586">
                <ele>492.81</ele>
                <time>2010-11-14T09:46:17.000Z</time>
                <name>Position 363</name>
            </trkpt>
            <trkpt lon="11.377850007265806" lat="49.34035800397396">
                <ele>491.85</ele>
                <time>2010-11-14T09:46:18.000Z</time>
                <name>Position 364</name>
            </trkpt>
            <trkpt lon="11.377897029742599" lat="49.34027200564742">
                <ele>490.41</ele>
                <time>2010-11-14T09:46:19.000Z</time>
                <name>Position 365</name>
            </trkpt>
            <trkpt lon="11.377937011420727" lat="49.34017703868449">
                <ele>488.49</ele>
                <time>2010-11-14T09:46:20.000Z</time>
                <name>Position 366</name>
            </trkpt>
            <trkpt lon="11.378129962831736" lat="49.339745035395026">
                <ele>480.32</ele>
                <time>2010-11-14T09:46:24.000Z</time>
                <name>Position 367</name>
            </trkpt>
            <trkpt lon="11.378206992521882" lat="49.339635986834764">
                <ele>478.39</ele>
                <time>2010-11-14T09:46:25.000Z</time>
                <name>Position 368</name>
            </trkpt>
            <trkpt lon="11.379351038485765" lat="49.33816596865654">
                <ele>455.8</ele>
                <time>2010-11-14T09:46:38.000Z</time>
                <name>Position 369</name>
            </trkpt>
            <trkpt lon="11.379423961043358" lat="49.337982991710305">
                <ele>454.36</ele>
                <time>2010-11-14T09:46:39.000Z</time>
                <name>Position 370</name>
            </trkpt>
            <trkpt lon="11.379559999331832" lat="49.33760899119079">
                <ele>453.88</ele>
                <time>2010-11-14T09:46:41.000Z</time>
                <name>Position 371</name>
            </trkpt>
            <trkpt lon="11.379670975729823" lat="49.33743095956743">
                <ele>454.84</ele>
                <time>2010-11-14T09:46:42.000Z</time>
                <name>Position 372</name>
            </trkpt>
            <trkpt lon="11.379819000139832" lat="49.33726298622787">
                <ele>456.76</ele>
                <time>2010-11-14T09:46:43.000Z</time>
                <name>Position 373</name>
            </trkpt>
            <trkpt lon="11.379984961822629" lat="49.33711001649499">
                <ele>458.21</ele>
                <time>2010-11-14T09:46:44.000Z</time>
                <name>Position 374</name>
            </trkpt>
            <trkpt lon="11.38015603646636" lat="49.33697800152004">
                <ele>460.13</ele>
                <time>2010-11-14T09:46:45.000Z</time>
                <name>Position 375</name>
            </trkpt>
            <trkpt lon="11.380783002823591" lat="49.33658103458583">
                <ele>464.93</ele>
                <time>2010-11-14T09:46:49.000Z</time>
                <name>Position 376</name>
            </trkpt>
            <trkpt lon="11.380935972556472" lat="49.3365169968456">
                <ele>465.9</ele>
                <time>2010-11-14T09:46:50.000Z</time>
                <name>Position 377</name>
            </trkpt>
            <trkpt lon="11.381244007498026" lat="49.33639696799219">
                <ele>467.34</ele>
                <time>2010-11-14T09:46:52.000Z</time>
                <name>Position 378</name>
            </trkpt>
            <trkpt lon="11.381396977230906" lat="49.33631901629269">
                <ele>468.78</ele>
                <time>2010-11-14T09:46:53.000Z</time>
                <name>Position 379</name>
            </trkpt>
            <trkpt lon="11.381525974720716" lat="49.33622597716749">
                <ele>470.22</ele>
                <time>2010-11-14T09:46:54.000Z</time>
                <name>Position 380</name>
            </trkpt>
            <trkpt lon="11.381636029109359" lat="49.33612204156816">
                <ele>472.14</ele>
                <time>2010-11-14T09:46:55.000Z</time>
                <name>Position 381</name>
            </trkpt>
            <trkpt lon="11.381720015779138" lat="49.336005030199885">
                <ele>473.59</ele>
                <time>2010-11-14T09:46:56.000Z</time>
                <name>Position 382</name>
            </trkpt>
            <trkpt lon="11.381779024377465" lat="49.335879972204566">
                <ele>475.51</ele>
                <time>2010-11-14T09:46:57.000Z</time>
                <name>Position 383</name>
            </trkpt>
            <trkpt lon="11.381814982742071" lat="49.335750974714756">
                <ele>476.95</ele>
                <time>2010-11-14T09:46:58.000Z</time>
                <name>Position 384</name>
            </trkpt>
            <trkpt lon="11.382012041285634" lat="49.33519902639091">
                <ele>482.72</ele>
                <time>2010-11-14T09:47:03.000Z</time>
                <name>Position 385</name>
            </trkpt>
            <trkpt lon="11.38239299878478" lat="49.33463701978326">
                <ele>489.45</ele>
                <time>2010-11-14T09:47:09.000Z</time>
                <name>Position 386</name>
            </trkpt>
            <trkpt lon="11.382453013211489" lat="49.334568958729506">
                <ele>489.93</ele>
                <time>2010-11-14T09:47:10.000Z</time>
                <name>Position 387</name>
            </trkpt>
            <trkpt lon="11.382525013759732" lat="49.334501987323165">
                <ele>489.93</ele>
                <time>2010-11-14T09:47:11.000Z</time>
                <name>Position 388</name>
            </trkpt>
            <trkpt lon="11.383513994514942" lat="49.33381701819599">
                <ele>479.84</ele>
                <time>2010-11-14T09:47:20.000Z</time>
                <name>Position 389</name>
            </trkpt>
            <trkpt lon="11.384052028879523" lat="49.333493979647756">
                <ele>473.59</ele>
                <time>2010-11-14T09:47:24.000Z</time>
                <name>Position 390</name>
            </trkpt>
            <trkpt lon="11.384226037189364" lat="49.33343002572656">
                <ele>471.66</ele>
                <time>2010-11-14T09:47:25.000Z</time>
                <name>Position 391</name>
            </trkpt>
            <trkpt lon="11.384408008307219" lat="49.33337998576462">
                <ele>470.22</ele>
                <time>2010-11-14T09:47:26.000Z</time>
                <name>Position 392</name>
            </trkpt>
            <trkpt lon="11.384606994688511" lat="49.33334603905678">
                <ele>468.78</ele>
                <time>2010-11-14T09:47:27.000Z</time>
                <name>Position 393</name>
            </trkpt>
            <trkpt lon="11.384830959141254" lat="49.333322988823056">
                <ele>468.78</ele>
                <time>2010-11-14T09:47:28.000Z</time>
                <name>Position 394</name>
            </trkpt>
            <trkpt lon="11.385054001584649" lat="49.33332902379334">
                <ele>469.26</ele>
                <time>2010-11-14T09:47:29.000Z</time>
                <name>Position 395</name>
            </trkpt>
            <trkpt lon="11.385286012664437" lat="49.33333598077297">
                <ele>470.22</ele>
                <time>2010-11-14T09:47:30.000Z</time>
                <name>Position 396</name>
            </trkpt>
            <trkpt lon="11.385515006259084" lat="49.33333204127848">
                <ele>472.14</ele>
                <time>2010-11-14T09:47:31.000Z</time>
                <name>Position 397</name>
            </trkpt>
            <trkpt lon="11.38574399985373" lat="49.33330798521638">
                <ele>472.63</ele>
                <time>2010-11-14T09:47:32.000Z</time>
                <name>Position 398</name>
            </trkpt>
            <trkpt lon="11.385952960699797" lat="49.33326599188149">
                <ele>474.07</ele>
                <time>2010-11-14T09:47:33.000Z</time>
                <name>Position 399</name>
            </trkpt>
            <trkpt lon="11.386135015636683" lat="49.33322098106146">
                <ele>475.51</ele>
                <time>2010-11-14T09:47:34.000Z</time>
                <name>Position 400</name>
            </trkpt>
            <trkpt lon="11.387094995006919" lat="49.332977989688516">
                <ele>487.05</ele>
                <time>2010-11-14T09:47:41.000Z</time>
                <name>Position 401</name>
            </trkpt>
            <trkpt lon="11.387194991111755" lat="49.33298896998167">
                <ele>488.49</ele>
                <time>2010-11-14T09:47:42.000Z</time>
                <name>Position 402</name>
            </trkpt>
            <trkpt lon="11.387280989438295" lat="49.33303699828684">
                <ele>489.45</ele>
                <time>2010-11-14T09:47:43.000Z</time>
                <name>Position 403</name>
            </trkpt>
            <trkpt lon="11.387351984158158" lat="49.33311302214861">
                <ele>489.93</ele>
                <time>2010-11-14T09:47:44.000Z</time>
                <name>Position 404</name>
            </trkpt>
            <trkpt lon="11.38744200579822" lat="49.33319600299001">
                <ele>489.93</ele>
                <time>2010-11-14T09:47:45.000Z</time>
                <name>Position 405</name>
            </trkpt>
            <trkpt lon="11.387930000200868" lat="49.33353899046779">
                <ele>488.49</ele>
                <time>2010-11-14T09:47:49.000Z</time>
                <name>Position 406</name>
            </trkpt>
            <trkpt lon="11.388647994026542" lat="49.334091022610664">
                <ele>487.05</ele>
                <time>2010-11-14T09:47:55.000Z</time>
                <name>Position 407</name>
            </trkpt>
            <trkpt lon="11.388811022043228" lat="49.33416998013854">
                <ele>487.05</ele>
                <time>2010-11-14T09:47:56.000Z</time>
                <name>Position 408</name>
            </trkpt>
            <trkpt lon="11.389000033959746" lat="49.33423301205039">
                <ele>487.05</ele>
                <time>2010-11-14T09:47:57.000Z</time>
                <name>Position 409</name>
            </trkpt>
            <trkpt lon="11.389231039211154" lat="49.3342739995569">
                <ele>486.56</ele>
                <time>2010-11-14T09:47:58.000Z</time>
                <name>Position 410</name>
            </trkpt>
            <trkpt lon="11.389500014483929" lat="49.33428397402167">
                <ele>486.08</ele>
                <time>2010-11-14T09:47:59.000Z</time>
                <name>Position 411</name>
            </trkpt>
            <trkpt lon="11.38980302028358" lat="49.334263019263744">
                <ele>485.12</ele>
                <time>2010-11-14T09:48:00.000Z</time>
                <name>Position 412</name>
            </trkpt>
            <trkpt lon="11.390114994719625" lat="49.33423401787877">
                <ele>483.68</ele>
                <time>2010-11-14T09:48:01.000Z</time>
                <name>Position 413</name>
            </trkpt>
            <trkpt lon="11.39042898081243" lat="49.33421800844371">
                <ele>483.2</ele>
                <time>2010-11-14T09:48:02.000Z</time>
                <name>Position 414</name>
            </trkpt>
            <trkpt lon="11.390752019360662" lat="49.33422898873687">
                <ele>482.72</ele>
                <time>2010-11-14T09:48:03.000Z</time>
                <name>Position 415</name>
            </trkpt>
            <trkpt lon="11.3921470195055" lat="49.33428296819329">
                <ele>481.76</ele>
                <time>2010-11-14T09:48:08.000Z</time>
                <name>Position 416</name>
            </trkpt>
            <trkpt lon="11.392389005050063" lat="49.334246004000306">
                <ele>481.76</ele>
                <time>2010-11-14T09:48:09.000Z</time>
                <name>Position 417</name>
            </trkpt>
            <trkpt lon="11.392623027786613" lat="49.33420401066542">
                <ele>482.24</ele>
                <time>2010-11-14T09:48:10.000Z</time>
                <name>Position 418</name>
            </trkpt>
            <trkpt lon="11.39285797253251" lat="49.33418498374522">
                <ele>482.24</ele>
                <time>2010-11-14T09:48:11.000Z</time>
                <name>Position 419</name>
            </trkpt>
            <trkpt lon="11.393110016360879" lat="49.33419202454388">
                <ele>483.2</ele>
                <time>2010-11-14T09:48:12.000Z</time>
                <name>Position 420</name>
            </trkpt>
            <trkpt lon="11.393354013562202" lat="49.33421499095857">
                <ele>483.68</ele>
                <time>2010-11-14T09:48:13.000Z</time>
                <name>Position 421</name>
            </trkpt>
            <trkpt lon="11.393604967743158" lat="49.33425296097994">
                <ele>484.16</ele>
                <time>2010-11-14T09:48:14.000Z</time>
                <name>Position 422</name>
            </trkpt>
            <trkpt lon="11.3938669860363" lat="49.33429897762835">
                <ele>485.12</ele>
                <time>2010-11-14T09:48:15.000Z</time>
                <name>Position 423</name>
            </trkpt>
            <trkpt lon="11.395999006927013" lat="49.33443199843168">
                <ele>487.53</ele>
                <time>2010-11-14T09:48:22.000Z</time>
                <name>Position 424</name>
            </trkpt>
            <trkpt lon="11.399006014689803" lat="49.33423996903002">
                <ele>490.41</ele>
                <time>2010-11-14T09:48:31.000Z</time>
                <name>Position 425</name>
            </trkpt>
            <trkpt lon="11.40134196728468" lat="49.333984991535544">
                <ele>483.2</ele>
                <time>2010-11-14T09:48:40.000Z</time>
                <name>Position 426</name>
            </trkpt>
            <trkpt lon="11.402879040688276" lat="49.33376496657729">
                <ele>475.03</ele>
                <time>2010-11-14T09:48:47.000Z</time>
                <name>Position 427</name>
            </trkpt>
            <trkpt lon="11.403108034282923" lat="49.33369698934257">
                <ele>474.07</ele>
                <time>2010-11-14T09:48:48.000Z</time>
                <name>Position 428</name>
            </trkpt>
            <trkpt lon="11.403324035927653" lat="49.333620965480804">
                <ele>472.14</ele>
                <time>2010-11-14T09:48:49.000Z</time>
                <name>Position 429</name>
            </trkpt>
            <trkpt lon="11.40538196079433" lat="49.332913029938936">
                <ele>458.21</ele>
                <time>2010-11-14T09:48:57.000Z</time>
                <name>Position 430</name>
            </trkpt>
            <trkpt lon="11.406858013942838" lat="49.3326179869473">
                <ele>451.0</ele>
                <time>2010-11-14T09:49:04.000Z</time>
                <name>Position 431</name>
            </trkpt>
            <trkpt lon="11.406963961198926" lat="49.332611029967666">
                <ele>450.52</ele>
                <time>2010-11-14T09:49:05.000Z</time>
                <name>Position 432</name>
            </trkpt>
            <trkpt lon="11.407040990889072" lat="49.3326230160892">
                <ele>450.03</ele>
                <time>2010-11-14T09:49:06.000Z</time>
                <name>Position 433</name>
            </trkpt>
            <trkpt lon="11.407083990052342" lat="49.332652017474174">
                <ele>450.03</ele>
                <time>2010-11-14T09:49:07.000Z</time>
                <name>Position 434</name>
            </trkpt>
            <trkpt lon="11.407081978395581" lat="49.33270297944546">
                <ele>450.03</ele>
                <time>2010-11-14T09:49:08.000Z</time>
                <name>Position 435</name>
            </trkpt>
            <trkpt lon="11.407059011980891" lat="49.33276601135731">
                <ele>450.03</ele>
                <time>2010-11-14T09:49:09.000Z</time>
                <name>Position 436</name>
            </trkpt>
            <trkpt lon="11.40703403390944" lat="49.33284496888518">
                <ele>450.03</ele>
                <time>2010-11-14T09:49:10.000Z</time>
                <name>Position 437</name>
            </trkpt>
            <trkpt lon="11.407023975625634" lat="49.33294303715229">
                <ele>450.03</ele>
                <time>2010-11-14T09:49:11.000Z</time>
                <name>Position 438</name>
            </trkpt>
            <trkpt lon="11.407018024474382" lat="49.33306801132858">
                <ele>450.03</ele>
                <time>2010-11-14T09:49:12.000Z</time>
                <name>Position 439</name>
            </trkpt>
            <trkpt lon="11.406900007277727" lat="49.333790028467774">
                <ele>450.03</ele>
                <time>2010-11-14T09:49:16.000Z</time>
                <name>Position 440</name>
            </trkpt>
            <trkpt lon="11.406589960679412" lat="49.335212018340826">
                <ele>451.48</ele>
                <time>2010-11-14T09:49:24.000Z</time>
                <name>Position 441</name>
            </trkpt>
            <trkpt lon="11.406586021184921" lat="49.33561401441693">
                <ele>448.11</ele>
                <time>2010-11-14T09:49:27.000Z</time>
                <name>Position 442</name>
            </trkpt>
            <trkpt lon="11.406546039506793" lat="49.33573697693646">
                <ele>447.15</ele>
                <time>2010-11-14T09:49:28.000Z</time>
                <name>Position 443</name>
            </trkpt>
            <trkpt lon="11.40647697262466" lat="49.33586597442627">
                <ele>445.71</ele>
                <time>2010-11-14T09:49:29.000Z</time>
                <name>Position 444</name>
            </trkpt>
            <trkpt lon="11.406406983733177" lat="49.336008969694376">
                <ele>443.79</ele>
                <time>2010-11-14T09:49:30.000Z</time>
                <name>Position 445</name>
            </trkpt>
            <trkpt lon="11.40636901371181" lat="49.336175015196204">
                <ele>442.34</ele>
                <time>2010-11-14T09:49:31.000Z</time>
                <name>Position 446</name>
            </trkpt>
            <trkpt lon="11.406362978741527" lat="49.33636796660721">
                <ele>440.42</ele>
                <time>2010-11-14T09:49:32.000Z</time>
                <name>Position 447</name>
            </trkpt>
            <trkpt lon="11.40634998679161" lat="49.33658103458583">
                <ele>438.5</ele>
                <time>2010-11-14T09:49:33.000Z</time>
                <name>Position 448</name>
            </trkpt>
            <trkpt lon="11.406300030648708" lat="49.33679401874542">
                <ele>437.06</ele>
                <time>2010-11-14T09:49:34.000Z</time>
                <name>Position 449</name>
            </trkpt>
            <trkpt lon="11.406207997351885" lat="49.33699996210635">
                <ele>435.61</ele>
                <time>2010-11-14T09:49:35.000Z</time>
                <name>Position 450</name>
            </trkpt>
            <trkpt lon="11.405915971845388" lat="49.33824601583183">
                <ele>426.96</ele>
                <time>2010-11-14T09:49:41.000Z</time>
                <name>Position 451</name>
            </trkpt>
            <trkpt lon="11.405964000150561" lat="49.33906702324748">
                <ele>425.52</ele>
                <time>2010-11-14T09:49:46.000Z</time>
                <name>Position 452</name>
            </trkpt>
            <trkpt lon="11.405928963795304" lat="49.33921303600073">
                <ele>424.56</ele>
                <time>2010-11-14T09:49:47.000Z</time>
                <name>Position 453</name>
            </trkpt>
            <trkpt lon="11.40585402958095" lat="49.33936399407685">
                <ele>424.56</ele>
                <time>2010-11-14T09:49:48.000Z</time>
                <name>Position 454</name>
            </trkpt>
            <trkpt lon="11.405740035697818" lat="49.33952199295163">
                <ele>424.08</ele>
                <time>2010-11-14T09:49:49.000Z</time>
                <name>Position 455</name>
            </trkpt>
            <trkpt lon="11.405599974095821" lat="49.33969097211957">
                <ele>423.6</ele>
                <time>2010-11-14T09:49:50.000Z</time>
                <name>Position 456</name>
            </trkpt>
            <trkpt lon="11.405109968036413" lat="49.34032196179032">
                <ele>425.04</ele>
                <time>2010-11-14T09:49:54.000Z</time>
                <name>Position 457</name>
            </trkpt>
            <trkpt lon="11.405079960823059" lat="49.34046696871519">
                <ele>425.52</ele>
                <time>2010-11-14T09:49:55.000Z</time>
                <name>Position 458</name>
            </trkpt>
            <trkpt lon="11.40510099940002" lat="49.340602001175284">
                <ele>426.0</ele>
                <time>2010-11-14T09:49:56.000Z</time>
                <name>Position 459</name>
            </trkpt>
            <trkpt lon="11.405157996341586" lat="49.34072102420032">
                <ele>426.48</ele>
                <time>2010-11-14T09:49:57.000Z</time>
                <name>Position 460</name>
            </trkpt>
            <trkpt lon="11.405241983011365" lat="49.340818002820015">
                <ele>427.44</ele>
                <time>2010-11-14T09:49:58.000Z</time>
                <name>Position 461</name>
            </trkpt>
            <trkpt lon="11.405348014086485" lat="49.3408930208534">
                <ele>427.92</ele>
                <time>2010-11-14T09:49:59.000Z</time>
                <name>Position 462</name>
            </trkpt>
            <trkpt lon="11.40546502545476" lat="49.34095496311784">
                <ele>428.89</ele>
                <time>2010-11-14T09:50:00.000Z</time>
                <name>Position 463</name>
            </trkpt>
            <trkpt lon="11.405592011287808" lat="49.34100600890815">
                <ele>429.37</ele>
                <time>2010-11-14T09:50:01.000Z</time>
                <name>Position 464</name>
            </trkpt>
            <trkpt lon="11.405737018212676" lat="49.34104297310114">
                <ele>429.85</ele>
                <time>2010-11-14T09:50:02.000Z</time>
                <name>Position 465</name>
            </trkpt>
            <trkpt lon="11.40589996241033" lat="49.34106501750648">
                <ele>430.81</ele>
                <time>2010-11-14T09:50:03.000Z</time>
                <name>Position 466</name>
            </trkpt>
            <trkpt lon="11.406058967113495" lat="49.34108496643603">
                <ele>431.29</ele>
                <time>2010-11-14T09:50:04.000Z</time>
                <name>Position 467</name>
            </trkpt>
            <trkpt lon="11.407188009470701" lat="49.341224022209644">
                <ele>434.17</ele>
                <time>2010-11-14T09:50:12.000Z</time>
                <name>Position 468</name>
            </trkpt>
            <trkpt lon="11.408888027071953" lat="49.34151898138225">
                <ele>438.98</ele>
                <time>2010-11-14T09:50:19.000Z</time>
                <name>Position 469</name>
            </trkpt>
            <trkpt lon="11.411379966884851" lat="49.341784017160535">
                <ele>441.38</ele>
                <time>2010-11-14T09:50:27.000Z</time>
                <name>Position 470</name>
            </trkpt>
            <trkpt lon="11.413285005837679" lat="49.34179499745369">
                <ele>438.02</ele>
                <time>2010-11-14T09:50:34.000Z</time>
                <name>Position 471</name>
            </trkpt>
            <trkpt lon="11.414879998192191" lat="49.34149601496756">
                <ele>435.61</ele>
                <time>2010-11-14T09:50:40.000Z</time>
                <name>Position 472</name>
            </trkpt>
            <trkpt lon="11.415832014754415" lat="49.34121103025973">
                <ele>433.69</ele>
                <time>2010-11-14T09:50:46.000Z</time>
                <name>Position 473</name>
            </trkpt>
            <trkpt lon="11.415890017524362" lat="49.34121999889612">
                <ele>433.21</ele>
                <time>2010-11-14T09:50:47.000Z</time>
                <name>Position 474</name>
            </trkpt>
            <trkpt lon="11.415920024737716" lat="49.341245982795954">
                <ele>433.21</ele>
                <time>2010-11-14T09:50:48.000Z</time>
                <name>Position 475</name>
            </trkpt>
            <trkpt lon="11.415917007252574" lat="49.34128697030246">
                <ele>433.69</ele>
                <time>2010-11-14T09:50:49.000Z</time>
                <name>Position 476</name>
            </trkpt>
            <trkpt lon="11.415881970897317" lat="49.34134698472917">
                <ele>433.69</ele>
                <time>2010-11-14T09:50:50.000Z</time>
                <name>Position 477</name>
            </trkpt>
            <trkpt lon="11.415833020582795" lat="49.34143197722733">
                <ele>433.69</ele>
                <time>2010-11-14T09:50:51.000Z</time>
                <name>Position 478</name>
            </trkpt>
            <trkpt lon="11.415379978716373" lat="49.34233898296952">
                <ele>434.65</ele>
                <time>2010-11-14T09:50:57.000Z</time>
                <name>Position 479</name>
            </trkpt>
            <trkpt lon="11.414861977100372" lat="49.343416979536414">
                <ele>432.73</ele>
                <time>2010-11-14T09:51:03.000Z</time>
                <name>Position 480</name>
            </trkpt>
            <trkpt lon="11.414754018187523" lat="49.34355402365327">
                <ele>432.25</ele>
                <time>2010-11-14T09:51:04.000Z</time>
                <name>Position 481</name>
            </trkpt>
            <trkpt lon="11.414614962413907" lat="49.34368100948632">
                <ele>431.77</ele>
                <time>2010-11-14T09:51:05.000Z</time>
                <name>Position 482</name>
            </trkpt>
            <trkpt lon="11.414433997124434" lat="49.34379802085459">
                <ele>431.29</ele>
                <time>2010-11-14T09:51:06.000Z</time>
                <name>Position 483</name>
            </trkpt>
            <trkpt lon="11.414203997701406" lat="49.34389801695943">
                <ele>431.29</ele>
                <time>2010-11-14T09:51:07.000Z</time>
                <name>Position 484</name>
            </trkpt>
            <trkpt lon="11.413935022428632" lat="49.34399398975074">
                <ele>430.81</ele>
                <time>2010-11-14T09:51:08.000Z</time>
                <name>Position 485</name>
            </trkpt>
            <trkpt lon="11.411534026265144" lat="49.344709971919656">
                <ele>418.79</ele>
                <time>2010-11-14T09:51:17.000Z</time>
                <name>Position 486</name>
            </trkpt>
            <trkpt lon="11.411272007972002" lat="49.34474299661815">
                <ele>417.83</ele>
                <time>2010-11-14T09:51:18.000Z</time>
                <name>Position 487</name>
            </trkpt>
            <trkpt lon="11.410998003557324" lat="49.34476302936673">
                <ele>416.39</ele>
                <time>2010-11-14T09:51:19.000Z</time>
                <name>Position 488</name>
            </trkpt>
            <trkpt lon="11.410714024677873" lat="49.34476403519511">
                <ele>415.43</ele>
                <time>2010-11-14T09:51:20.000Z</time>
                <name>Position 489</name>
            </trkpt>
            <trkpt lon="11.410419987514615" lat="49.34474400244653">
                <ele>414.95</ele>
                <time>2010-11-14T09:51:21.000Z</time>
                <name>Position 490</name>
            </trkpt>
            <trkpt lon="11.410117987543344" lat="49.344705026596785">
                <ele>414.47</ele>
                <time>2010-11-14T09:51:22.000Z</time>
                <name>Position 491</name>
            </trkpt>
            <trkpt lon="11.409801989793777" lat="49.34465699829161">
                <ele>414.95</ele>
                <time>2010-11-14T09:51:23.000Z</time>
                <name>Position 492</name>
            </trkpt>
            <trkpt lon="11.407789997756481" lat="49.34443596750498">
                <ele>423.12</ele>
                <time>2010-11-14T09:51:28.000Z</time>
                <name>Position 493</name>
            </trkpt>
            <trkpt lon="11.404248978942633" lat="49.344429010525346">
                <ele>435.61</ele>
                <time>2010-11-14T09:51:36.000Z</time>
                <name>Position 494</name>
            </trkpt>
            <trkpt lon="11.401802971959114" lat="49.34459296055138">
                <ele>443.31</ele>
                <time>2010-11-14T09:51:42.000Z</time>
                <name>Position 495</name>
            </trkpt>
            <trkpt lon="11.399676986038685" lat="49.34452598914504">
                <ele>451.0</ele>
                <time>2010-11-14T09:51:49.000Z</time>
                <name>Position 496</name>
            </trkpt>
            <trkpt lon="11.398319033905864" lat="49.34446203522384">
                <ele>453.4</ele>
                <time>2010-11-14T09:51:56.000Z</time>
                <name>Position 497</name>
            </trkpt>
            <trkpt lon="11.396478032693267" lat="49.34463696554303">
                <ele>453.88</ele>
                <time>2010-11-14T09:52:09.000Z</time>
                <name>Position 498</name>
            </trkpt>
            <trkpt lon="11.396346017718315" lat="49.34468901716173">
                <ele>453.88</ele>
                <time>2010-11-14T09:52:10.000Z</time>
                <name>Position 499</name>
            </trkpt>
            <trkpt lon="11.396223977208138" lat="49.34476001188159">
                <ele>454.36</ele>
                <time>2010-11-14T09:52:11.000Z</time>
                <name>Position 500</name>
            </trkpt>
            <trkpt lon="11.396114006638527" lat="49.34485003352165">
                <ele>454.36</ele>
                <time>2010-11-14T09:52:12.000Z</time>
                <name>Position 501</name>
            </trkpt>
            <trkpt lon="11.396019961684942" lat="49.34495497494936">
                <ele>454.36</ele>
                <time>2010-11-14T09:52:13.000Z</time>
                <name>Position 502</name>
            </trkpt>
            <trkpt lon="11.395933963358402" lat="49.34506100602448">
                <ele>454.84</ele>
                <time>2010-11-14T09:52:14.000Z</time>
                <name>Position 503</name>
            </trkpt>
            <trkpt lon="11.395548982545733" lat="49.34555998072028">
                <ele>455.32</ele>
                <time>2010-11-14T09:52:19.000Z</time>
                <name>Position 504</name>
            </trkpt>
            <trkpt lon="11.395438006147742" lat="49.34563801623881">
                <ele>455.32</ele>
                <time>2010-11-14T09:52:20.000Z</time>
                <name>Position 505</name>
            </trkpt>
            <trkpt lon="11.395308002829552" lat="49.34570699930191">
                <ele>455.8</ele>
                <time>2010-11-14T09:52:21.000Z</time>
                <name>Position 506</name>
            </trkpt>
            <trkpt lon="11.393448980525136" lat="49.346448965370655">
                <ele>460.13</ele>
                <time>2010-11-14T09:52:32.000Z</time>
                <name>Position 507</name>
            </trkpt>
            <trkpt lon="11.39199597761035" lat="49.34694601222873">
                <ele>463.49</ele>
                <time>2010-11-14T09:52:37.000Z</time>
                <name>Position 508</name>
            </trkpt>
            <trkpt lon="11.391636980697513" lat="49.34702203609049">
                <ele>464.45</ele>
                <time>2010-11-14T09:52:38.000Z</time>
                <name>Position 509</name>
            </trkpt>
            <trkpt lon="11.389337992295623" lat="49.34763601049781">
                <ele>473.59</ele>
                <time>2010-11-14T09:52:45.000Z</time>
                <name>Position 510</name>
            </trkpt>
            <trkpt lon="11.387438988313079" lat="49.34820396825671">
                <ele>478.39</ele>
                <time>2010-11-14T09:52:52.000Z</time>
                <name>Position 511</name>
            </trkpt>
            <trkpt lon="11.384749989956617" lat="49.34867695905268">
                <ele>485.12</ele>
                <time>2010-11-14T09:53:00.000Z</time>
                <name>Position 512</name>
            </trkpt>
            <trkpt lon="11.382926004007459" lat="49.349134024232626">
                <ele>488.97</ele>
                <time>2010-11-14T09:53:07.000Z</time>
                <name>Position 513</name>
            </trkpt>
            <trkpt lon="11.381973987445235" lat="49.34954498894513">
                <ele>490.41</ele>
                <time>2010-11-14T09:53:12.000Z</time>
                <name>Position 514</name>
            </trkpt>
            <trkpt lon="11.381842978298664" lat="49.349648002535105">
                <ele>490.89</ele>
                <time>2010-11-14T09:53:13.000Z</time>
                <name>Position 515</name>
            </trkpt>
            <trkpt lon="11.381729990243912" lat="49.349757973104715">
                <ele>490.89</ele>
                <time>2010-11-14T09:53:14.000Z</time>
                <name>Position 516</name>
            </trkpt>
            <trkpt lon="11.381648015230894" lat="49.349885964766145">
                <ele>490.89</ele>
                <time>2010-11-14T09:53:15.000Z</time>
                <name>Position 517</name>
            </trkpt>
            <trkpt lon="11.381568973883986" lat="49.3500039819628">
                <ele>491.85</ele>
                <time>2010-11-14T09:53:16.000Z</time>
                <name>Position 518</name>
            </trkpt>
            <trkpt lon="11.381509965285659" lat="49.35011797584593">
                <ele>492.33</ele>
                <time>2010-11-14T09:53:17.000Z</time>
                <name>Position 519</name>
            </trkpt>
            <trkpt lon="11.381460009142756" lat="49.35022400692105">
                <ele>492.81</ele>
                <time>2010-11-14T09:53:18.000Z</time>
                <name>Position 520</name>
            </trkpt>
            <trkpt lon="11.381365964189172" lat="49.35053396970034">
                <ele>493.77</ele>
                <time>2010-11-14T09:53:21.000Z</time>
                <name>Position 521</name>
            </trkpt>
            <trkpt lon="11.381353978067636" lat="49.35074997134507">
                <ele>494.26</ele>
                <time>2010-11-14T09:53:23.000Z</time>
                <name>Position 522</name>
            </trkpt>
            <trkpt lon="11.38140200637281" lat="49.351345002651215">
                <ele>497.14</ele>
                <time>2010-11-14T09:53:29.000Z</time>
                <name>Position 523</name>
            </trkpt>
            <trkpt lon="11.381387002766132" lat="49.351670974865556">
                <ele>493.77</ele>
                <time>2010-11-14T09:53:33.000Z</time>
                <name>Position 524</name>
            </trkpt>
            <trkpt lon="11.381363030523062" lat="49.351945985108614">
                <ele>492.33</ele>
                <time>2010-11-14T09:53:36.000Z</time>
                <name>Position 525</name>
            </trkpt>
            <trkpt lon="11.381331011652946" lat="49.352033995091915">
                <ele>492.33</ele>
                <time>2010-11-14T09:53:37.000Z</time>
                <name>Position 526</name>
            </trkpt>
            <trkpt lon="11.380776967853308" lat="49.35287503525615">
                <ele>494.74</ele>
                <time>2010-11-14T09:53:48.000Z</time>
                <name>Position 527</name>
            </trkpt>
            <trkpt lon="11.380707984790206" lat="49.352932032197714">
                <ele>494.74</ele>
                <time>2010-11-14T09:53:49.000Z</time>
                <name>Position 528</name>
            </trkpt>
            <trkpt lon="11.380631038919091" lat="49.35299003496766">
                <ele>494.74</ele>
                <time>2010-11-14T09:53:50.000Z</time>
                <name>Position 529</name>
            </trkpt>
            <trkpt lon="11.379910027608275" lat="49.35356201604009">
                <ele>493.29</ele>
                <time>2010-11-14T09:53:58.000Z</time>
                <name>Position 530</name>
            </trkpt>
            <trkpt lon="11.379889994859695" lat="49.35362999327481">
                <ele>493.29</ele>
                <time>2010-11-14T09:53:59.000Z</time>
                <name>Position 531</name>
            </trkpt>
            <trkpt lon="11.379904998466372" lat="49.353689001873136">
                <ele>492.81</ele>
                <time>2010-11-14T09:54:00.000Z</time>
                <name>Position 532</name>
            </trkpt>
            <trkpt lon="11.379975993186235" lat="49.35376795940101">
                <ele>492.33</ele>
                <time>2010-11-14T09:54:01.000Z</time>
                <name>Position 533</name>
            </trkpt>
            <trkpt lon="11.380042964592576" lat="49.35382202267647">
                <ele>491.85</ele>
                <time>2010-11-14T09:54:02.000Z</time>
                <name>Position 534</name>
            </trkpt>
            <trkpt lon="11.380151007324457" lat="49.35386401601136">
                <ele>491.85</ele>
                <time>2010-11-14T09:54:03.000Z</time>
                <name>Position 535</name>
            </trkpt>
            <trkpt lon="11.380296014249325" lat="49.35389704070985">
                <ele>491.37</ele>
                <time>2010-11-14T09:54:04.000Z</time>
                <name>Position 536</name>
            </trkpt>
            <trkpt lon="11.380453007295728" lat="49.35393299907446">
                <ele>490.89</ele>
                <time>2010-11-14T09:54:05.000Z</time>
                <name>Position 537</name>
            </trkpt>
            <trkpt lon="11.380797000601888" lat="49.35402302071452">
                <ele>489.45</ele>
                <time>2010-11-14T09:54:07.000Z</time>
                <name>Position 538</name>
            </trkpt>
            <trkpt lon="11.380965979769826" lat="49.35410298407078">
                <ele>488.97</ele>
                <time>2010-11-14T09:54:08.000Z</time>
                <name>Position 539</name>
            </trkpt>
            <trkpt lon="11.381143005564809" lat="49.354202980175614">
                <ele>488.01</ele>
                <time>2010-11-14T09:54:09.000Z</time>
                <name>Position 540</name>
            </trkpt>
            <trkpt lon="11.381324976682663" lat="49.354334995150566">
                <ele>487.05</ele>
                <time>2010-11-14T09:54:10.000Z</time>
                <name>Position 541</name>
            </trkpt>
            <trkpt lon="11.381506025791168" lat="49.35448503121734">
                <ele>486.56</ele>
                <time>2010-11-14T09:54:11.000Z</time>
                <name>Position 542</name>
            </trkpt>
            <trkpt lon="11.381690008565784" lat="49.35462702065706">
                <ele>485.6</ele>
                <time>2010-11-14T09:54:12.000Z</time>
                <name>Position 543</name>
            </trkpt>
            <trkpt lon="11.382668009027839" lat="49.35552698560059">
                <ele>479.35</ele>
                <time>2010-11-14T09:54:18.000Z</time>
                <name>Position 544</name>
            </trkpt>
            <trkpt lon="11.383598987013102" lat="49.35644295997918">
                <ele>473.59</ele>
                <time>2010-11-14T09:54:25.000Z</time>
                <name>Position 545</name>
            </trkpt>
            <trkpt lon="11.383671993389726" lat="49.356565000489354">
                <ele>473.59</ele>
                <time>2010-11-14T09:54:26.000Z</time>
                <name>Position 546</name>
            </trkpt>
            <trkpt lon="11.383713986724615" lat="49.35670003294945">
                <ele>472.63</ele>
                <time>2010-11-14T09:54:27.000Z</time>
                <name>Position 547</name>
            </trkpt>
            <trkpt lon="11.383709041401744" lat="49.35683900490403">
                <ele>472.14</ele>
                <time>2010-11-14T09:54:28.000Z</time>
                <name>Position 548</name>
            </trkpt>
            <trkpt lon="11.383689008653164" lat="49.356972025707364">
                <ele>471.66</ele>
                <time>2010-11-14T09:54:29.000Z</time>
                <name>Position 549</name>
            </trkpt>
            <trkpt lon="11.383604016155005" lat="49.35711401514709">
                <ele>471.18</ele>
                <time>2010-11-14T09:54:30.000Z</time>
                <name>Position 550</name>
            </trkpt>
            <trkpt lon="11.383522041141987" lat="49.3572430126369">
                <ele>471.18</ele>
                <time>2010-11-14T09:54:31.000Z</time>
                <name>Position 551</name>
            </trkpt>
            <trkpt lon="11.383439982309937" lat="49.35737502761185">
                <ele>470.7</ele>
                <time>2010-11-14T09:54:32.000Z</time>
                <name>Position 552</name>
            </trkpt>
            <trkpt lon="11.383318025618792" lat="49.3575900234282">
                <ele>470.22</ele>
                <time>2010-11-14T09:54:34.000Z</time>
                <name>Position 553</name>
            </trkpt>
            <trkpt lon="11.383297992870212" lat="49.357705023139715">
                <ele>469.74</ele>
                <time>2010-11-14T09:54:35.000Z</time>
                <name>Position 554</name>
            </trkpt>
            <trkpt lon="11.38329396955669" lat="49.357815999537706">
                <ele>469.26</ele>
                <time>2010-11-14T09:54:36.000Z</time>
                <name>Position 555</name>
            </trkpt>
            <trkpt lon="11.383343003690243" lat="49.35795295983553">
                <ele>468.3</ele>
                <time>2010-11-14T09:54:37.000Z</time>
                <name>Position 556</name>
            </trkpt>
            <trkpt lon="11.383419027552009" lat="49.35809997841716">
                <ele>466.86</ele>
                <time>2010-11-14T09:54:38.000Z</time>
                <name>Position 557</name>
            </trkpt>
            <trkpt lon="11.383758997544646" lat="49.35879399999976">
                <ele>461.57</ele>
                <time>2010-11-14T09:54:43.000Z</time>
                <name>Position 558</name>
            </trkpt>
            <trkpt lon="11.383861005306244" lat="49.35889701358974">
                <ele>460.61</ele>
                <time>2010-11-14T09:54:44.000Z</time>
                <name>Position 559</name>
            </trkpt>
            <trkpt lon="11.383974999189377" lat="49.35899801552296">
                <ele>459.17</ele>
                <time>2010-11-14T09:54:45.000Z</time>
                <name>Position 560</name>
            </trkpt>
            <trkpt lon="11.384786032140255" lat="49.35953797772527">
                <ele>449.07</ele>
                <time>2010-11-14T09:54:52.000Z</time>
                <name>Position 561</name>
            </trkpt>
            <trkpt lon="11.38482199050486" lat="49.35963101685047">
                <ele>448.11</ele>
                <time>2010-11-14T09:54:53.000Z</time>
                <name>Position 562</name>
            </trkpt>
            <trkpt lon="11.384814027696848" lat="49.359727995470166">
                <ele>446.67</ele>
                <time>2010-11-14T09:54:54.000Z</time>
                <name>Position 563</name>
            </trkpt>
            <trkpt lon="11.384763987734914" lat="49.35982002876699">
                <ele>445.71</ele>
                <time>2010-11-14T09:54:55.000Z</time>
                <name>Position 564</name>
            </trkpt>
            <trkpt lon="11.384676983579993" lat="49.35990602709353">
                <ele>443.79</ele>
                <time>2010-11-14T09:54:56.000Z</time>
                <name>Position 565</name>
            </trkpt>
            <trkpt lon="11.384567013010383" lat="49.35998699627817">
                <ele>442.34</ele>
                <time>2010-11-14T09:54:57.000Z</time>
                <name>Position 566</name>
            </trkpt>
            <trkpt lon="11.384442038834095" lat="49.360068971291184">
                <ele>442.34</ele>
                <time>2010-11-14T09:54:58.000Z</time>
                <name>Position 567</name>
            </trkpt>
            <trkpt lon="11.383647015318274" lat="49.36066400259733">
                <ele>432.25</ele>
                <time>2010-11-14T09:55:06.000Z</time>
                <name>Position 568</name>
            </trkpt>
            <trkpt lon="11.38359596952796" lat="49.36072703450918">
                <ele>431.29</ele>
                <time>2010-11-14T09:55:07.000Z</time>
                <name>Position 569</name>
            </trkpt>
            <trkpt lon="11.383565040305257" lat="49.360800962895155">
                <ele>429.85</ele>
                <time>2010-11-14T09:55:08.000Z</time>
                <name>Position 570</name>
            </trkpt>
            <trkpt lon="11.383545007556677" lat="49.360883021727204">
                <ele>428.89</ele>
                <time>2010-11-14T09:55:09.000Z</time>
                <name>Position 571</name>
            </trkpt>
            <trkpt lon="11.383537966758013" lat="49.360970025882125">
                <ele>427.92</ele>
                <time>2010-11-14T09:55:10.000Z</time>
                <name>Position 572</name>
            </trkpt>
            <trkpt lon="11.383546013385057" lat="49.3610629811883">
                <ele>426.0</ele>
                <time>2010-11-14T09:55:11.000Z</time>
                <name>Position 573</name>
            </trkpt>
            <trkpt lon="11.383557999506593" lat="49.36115995980799">
                <ele>425.04</ele>
                <time>2010-11-14T09:55:12.000Z</time>
                <name>Position 574</name>
            </trkpt>
            <trkpt lon="11.38359496369958" lat="49.361897986382246">
                <ele>419.27</ele>
                <time>2010-11-14T09:55:19.000Z</time>
                <name>Position 575</name>
            </trkpt>
            <trkpt lon="11.383526986464858" lat="49.3620350304991">
                <ele>418.79</ele>
                <time>2010-11-14T09:55:20.000Z</time>
                <name>Position 576</name>
            </trkpt>
            <trkpt lon="11.383409975096583" lat="49.36218598857522">
                <ele>418.31</ele>
                <time>2010-11-14T09:55:21.000Z</time>
                <name>Position 577</name>
            </trkpt>
            <trkpt lon="11.38316203840077" lat="49.36251003295183">
                <ele>417.83</ele>
                <time>2010-11-14T09:55:23.000Z</time>
                <name>Position 578</name>
            </trkpt>
            <trkpt lon="11.383087020367384" lat="49.36269896104932">
                <ele>417.83</ele>
                <time>2010-11-14T09:55:24.000Z</time>
                <name>Position 579</name>
            </trkpt>
            <trkpt lon="11.383044021204114" lat="49.362905994057655">
                <ele>417.83</ele>
                <time>2010-11-14T09:55:25.000Z</time>
                <name>Position 580</name>
            </trkpt>
            <trkpt lon="11.383027005940676" lat="49.36312300153077">
                <ele>417.35</ele>
                <time>2010-11-14T09:55:26.000Z</time>
                <name>Position 581</name>
            </trkpt>
            <trkpt lon="11.383029017597437" lat="49.363335985690355">
                <ele>416.87</ele>
                <time>2010-11-14T09:55:27.000Z</time>
                <name>Position 582</name>
            </trkpt>
            <trkpt lon="11.383053995668888" lat="49.36354301869869">
                <ele>416.39</ele>
                <time>2010-11-14T09:55:28.000Z</time>
                <name>Position 583</name>
            </trkpt>
            <trkpt lon="11.3831000123173" lat="49.3637359701097">
                <ele>416.39</ele>
                <time>2010-11-14T09:55:29.000Z</time>
                <name>Position 584</name>
            </trkpt>
            <trkpt lon="11.383148962631822" lat="49.363912995904684">
                <ele>415.43</ele>
                <time>2010-11-14T09:55:30.000Z</time>
                <name>Position 585</name>
            </trkpt>
            <trkpt lon="11.383181987330317" lat="49.36408096924424">
                <ele>414.95</ele>
                <time>2010-11-14T09:55:31.000Z</time>
                <name>Position 586</name>
            </trkpt>
            <trkpt lon="11.383195985108614" lat="49.36424701474607">
                <ele>413.98</ele>
                <time>2010-11-14T09:55:32.000Z</time>
                <name>Position 587</name>
            </trkpt>
            <trkpt lon="11.383211994543672" lat="49.36551896855235">
                <ele>398.12</ele>
                <time>2010-11-14T09:55:41.000Z</time>
                <name>Position 588</name>
            </trkpt>
            <trkpt lon="11.383047038689256" lat="49.3663590028882">
                <ele>390.91</ele>
                <time>2010-11-14T09:55:50.000Z</time>
                <name>Position 589</name>
            </trkpt>
            <trkpt lon="11.383000016212463" lat="49.36641901731491">
                <ele>390.43</ele>
                <time>2010-11-14T09:55:51.000Z</time>
                <name>Position 590</name>
            </trkpt>
            <trkpt lon="11.382267018780112" lat="49.36695403419435">
                <ele>385.63</ele>
                <time>2010-11-14T09:56:00.000Z</time>
                <name>Position 591</name>
            </trkpt>
            <trkpt lon="11.38215403072536" lat="49.36698202975094">
                <ele>385.15</ele>
                <time>2010-11-14T09:56:01.000Z</time>
                <name>Position 592</name>
            </trkpt>
            <trkpt lon="11.38202402740717" lat="49.36697700060904">
                <ele>385.63</ele>
                <time>2010-11-14T09:56:02.000Z</time>
                <name>Position 593</name>
            </trkpt>
            <trkpt lon="11.381890000775456" lat="49.36694196425378">
                <ele>385.15</ele>
                <time>2010-11-14T09:56:03.000Z</time>
                <name>Position 594</name>
            </trkpt>
            <trkpt lon="11.38174801133573" lat="49.36689896509051">
                <ele>385.15</ele>
                <time>2010-11-14T09:56:04.000Z</time>
                <name>Position 595</name>
            </trkpt>
            <trkpt lon="11.381450034677982" lat="49.366838028654456">
                <ele>384.18</ele>
                <time>2010-11-14T09:56:06.000Z</time>
                <name>Position 596</name>
            </trkpt>
            <trkpt lon="11.38129698112607" lat="49.36682998202741">
                <ele>383.7</ele>
                <time>2010-11-14T09:56:07.000Z</time>
                <name>Position 597</name>
            </trkpt>
            <trkpt lon="11.381147028878331" lat="49.36684004031122">
                <ele>383.22</ele>
                <time>2010-11-14T09:56:08.000Z</time>
                <name>Position 598</name>
            </trkpt>
            <trkpt lon="11.381003027781844" lat="49.36686602421105">
                <ele>382.26</ele>
                <time>2010-11-14T09:56:09.000Z</time>
                <name>Position 599</name>
            </trkpt>
            <trkpt lon="11.380861960351467" lat="49.36689795926213">
                <ele>382.26</ele>
                <time>2010-11-14T09:56:10.000Z</time>
                <name>Position 600</name>
            </trkpt>
            <trkpt lon="11.380728017538786" lat="49.36693400144577">
                <ele>381.78</ele>
                <time>2010-11-14T09:56:11.000Z</time>
                <name>Position 601</name>
            </trkpt>
            <trkpt lon="11.380598014220595" lat="49.36697700060904">
                <ele>381.78</ele>
                <time>2010-11-14T09:56:12.000Z</time>
                <name>Position 602</name>
            </trkpt>
            <trkpt lon="11.380341025069356" lat="49.36704103834927">
                <ele>381.3</ele>
                <time>2010-11-14T09:56:14.000Z</time>
                <name>Position 603</name>
            </trkpt>
            <trkpt lon="11.379702994599938" lat="49.367134999483824">
                <ele>380.82</ele>
                <time>2010-11-14T09:56:19.000Z</time>
                <name>Position 604</name>
            </trkpt>
            <trkpt lon="11.379650020971894" lat="49.367156038060784">
                <ele>380.82</ele>
                <time>2010-11-14T09:56:20.000Z</time>
                <name>Position 605</name>
            </trkpt>
            <trkpt lon="11.379651026800275" lat="49.36719199642539">
                <ele>380.82</ele>
                <time>2010-11-14T09:56:21.000Z</time>
                <name>Position 606</name>
            </trkpt>
            <trkpt lon="11.379681034013629" lat="49.367247987538576">
                <ele>380.82</ele>
                <time>2010-11-14T09:56:22.000Z</time>
                <name>Position 607</name>
            </trkpt>
            <trkpt lon="11.379711041226983" lat="49.36731303110719">
                <ele>380.82</ele>
                <time>2010-11-14T09:56:23.000Z</time>
                <name>Position 608</name>
            </trkpt>
            <trkpt lon="11.37972998432815" lat="49.367501037195325">
                <ele>380.82</ele>
                <time>2010-11-14T09:56:25.000Z</time>
                <name>Position 609</name>
            </trkpt>
            <trkpt lon="11.379713974893093" lat="49.367607990279794">
                <ele>381.3</ele>
                <time>2010-11-14T09:56:26.000Z</time>
                <name>Position 610</name>
            </trkpt>
            <trkpt lon="11.379674999043345" lat="49.367714021354914">
                <ele>381.3</ele>
                <time>2010-11-14T09:56:27.000Z</time>
                <name>Position 611</name>
            </trkpt>
            <trkpt lon="11.379623031243682" lat="49.36781703494489">
                <ele>380.82</ele>
                <time>2010-11-14T09:56:28.000Z</time>
                <name>Position 612</name>
            </trkpt>
            <trkpt lon="11.379551030695438" lat="49.36791703104973">
                <ele>380.82</ele>
                <time>2010-11-14T09:56:29.000Z</time>
                <name>Position 613</name>
            </trkpt>
            <trkpt lon="11.379442987963557" lat="49.36801400966942">
                <ele>381.3</ele>
                <time>2010-11-14T09:56:30.000Z</time>
                <name>Position 614</name>
            </trkpt>
            <trkpt lon="11.379302004352212" lat="49.368101013824344">
                <ele>380.82</ele>
                <time>2010-11-14T09:56:31.000Z</time>
                <name>Position 615</name>
            </trkpt>
            <trkpt lon="11.379138976335526" lat="49.368189023807645">
                <ele>380.82</ele>
                <time>2010-11-14T09:56:32.000Z</time>
                <name>Position 616</name>
            </trkpt>
            <trkpt lon="11.378962034359574" lat="49.368277033790946">
                <ele>380.82</ele>
                <time>2010-11-14T09:56:33.000Z</time>
                <name>Position 617</name>
            </trkpt>
            <trkpt lon="11.377790998667479" lat="49.36882998794317">
                <ele>380.34</ele>
                <time>2010-11-14T09:56:41.000Z</time>
                <name>Position 618</name>
            </trkpt>
            <trkpt lon="11.377530992031097" lat="49.36903601512313">
                <ele>380.82</ele>
                <time>2010-11-14T09:56:47.000Z</time>
                <name>Position 619</name>
            </trkpt>
            <trkpt lon="11.377185992896557" lat="49.36933499760926">
                <ele>380.34</ele>
                <time>2010-11-14T09:56:52.000Z</time>
                <name>Position 620</name>
            </trkpt>
            <trkpt lon="11.37697602622211" lat="49.36960003338754">
                <ele>380.82</ele>
                <time>2010-11-14T09:56:54.000Z</time>
                <name>Position 621</name>
            </trkpt>
            <trkpt lon="11.376921040937304" lat="49.36974403448403">
                <ele>381.3</ele>
                <time>2010-11-14T09:56:55.000Z</time>
                <name>Position 622</name>
            </trkpt>
            <trkpt lon="11.376918023452163" lat="49.369887029752135">
                <ele>382.26</ele>
                <time>2010-11-14T09:56:56.000Z</time>
                <name>Position 623</name>
            </trkpt>
            <trkpt lon="11.376966973766685" lat="49.37002399004996">
                <ele>383.22</ele>
                <time>2010-11-14T09:56:57.000Z</time>
                <name>Position 624</name>
            </trkpt>
            <trkpt lon="11.377056995406747" lat="49.37015097588301">
                <ele>384.18</ele>
                <time>2010-11-14T09:56:58.000Z</time>
                <name>Position 625</name>
            </trkpt>
            <trkpt lon="11.377188004553318" lat="49.37026899307966">
                <ele>385.63</ele>
                <time>2010-11-14T09:56:59.000Z</time>
                <name>Position 626</name>
            </trkpt>
            <trkpt lon="11.377355977892876" lat="49.3703740183264">
                <ele>387.07</ele>
                <time>2010-11-14T09:57:00.000Z</time>
                <name>Position 627</name>
            </trkpt>
            <trkpt lon="11.377549013122916" lat="49.37045800499618">
                <ele>388.51</ele>
                <time>2010-11-14T09:57:01.000Z</time>
                <name>Position 628</name>
            </trkpt>
            <trkpt lon="11.377753028646111" lat="49.370532017201185">
                <ele>389.95</ele>
                <time>2010-11-14T09:57:02.000Z</time>
                <name>Position 629</name>
            </trkpt>
            <trkpt lon="11.378477979451418" lat="49.370808033272624">
                <ele>395.24</ele>
                <time>2010-11-14T09:57:06.000Z</time>
                <name>Position 630</name>
            </trkpt>
            <trkpt lon="11.37863103300333" lat="49.370895037427545">
                <ele>396.68</ele>
                <time>2010-11-14T09:57:07.000Z</time>
                <name>Position 631</name>
            </trkpt>
            <trkpt lon="11.378757013007998" lat="49.370994027704">
                <ele>397.64</ele>
                <time>2010-11-14T09:57:08.000Z</time>
                <name>Position 632</name>
            </trkpt>
            <trkpt lon="11.378856003284454" lat="49.37110299244523">
                <ele>398.12</ele>
                <time>2010-11-14T09:57:09.000Z</time>
                <name>Position 633</name>
            </trkpt>
            <trkpt lon="11.378922974690795" lat="49.37122402712703">
                <ele>399.57</ele>
                <time>2010-11-14T09:57:10.000Z</time>
                <name>Position 634</name>
            </trkpt>
            <trkpt lon="11.378966979682446" lat="49.37135201878846">
                <ele>400.53</ele>
                <time>2010-11-14T09:57:11.000Z</time>
                <name>Position 635</name>
            </trkpt>
            <trkpt lon="11.378979971632361" lat="49.37148696742952">
                <ele>401.97</ele>
                <time>2010-11-14T09:57:12.000Z</time>
                <name>Position 636</name>
            </trkpt>
            <trkpt lon="11.378958011046052" lat="49.37162401154637">
                <ele>402.93</ele>
                <time>2010-11-14T09:57:13.000Z</time>
                <name>Position 637</name>
            </trkpt>
            <trkpt lon="11.378900008276105" lat="49.371760971844196">
                <ele>404.37</ele>
                <time>2010-11-14T09:57:14.000Z</time>
                <name>Position 638</name>
            </trkpt>
            <trkpt lon="11.378808980807662" lat="49.37189499847591">
                <ele>405.33</ele>
                <time>2010-11-14T09:57:15.000Z</time>
                <name>Position 639</name>
            </trkpt>
            <trkpt lon="11.378686018288136" lat="49.37202801927924">
                <ele>406.29</ele>
                <time>2010-11-14T09:57:16.000Z</time>
                <name>Position 640</name>
            </trkpt>
            <trkpt lon="11.378536988049746" lat="49.37215802259743">
                <ele>407.26</ele>
                <time>2010-11-14T09:57:17.000Z</time>
                <name>Position 641</name>
            </trkpt>
            <trkpt lon="11.37837303802371" lat="49.37228601425886">
                <ele>408.7</ele>
                <time>2010-11-14T09:57:18.000Z</time>
                <name>Position 642</name>
            </trkpt>
            <trkpt lon="11.377785969525576" lat="49.37262103892863">
                <ele>412.54</ele>
                <time>2010-11-14T09:57:21.000Z</time>
                <name>Position 643</name>
            </trkpt>
            <trkpt lon="11.37637596577406" lat="49.37320098280907">
                <ele>421.68</ele>
                <time>2010-11-14T09:57:27.000Z</time>
                <name>Position 644</name>
            </trkpt>
            <trkpt lon="11.37607597745955" lat="49.373371973633766">
                <ele>424.08</ele>
                <time>2010-11-14T09:57:29.000Z</time>
                <name>Position 645</name>
            </trkpt>
            <trkpt lon="11.375955026596785" lat="49.37346501275897">
                <ele>425.04</ele>
                <time>2010-11-14T09:57:30.000Z</time>
                <name>Position 646</name>
            </trkpt>
            <trkpt lon="11.375856036320329" lat="49.373564003035426">
                <ele>426.0</ele>
                <time>2010-11-14T09:57:31.000Z</time>
                <name>Position 647</name>
            </trkpt>
            <trkpt lon="11.375056989490986" lat="49.3744580168277">
                <ele>427.92</ele>
                <time>2010-11-14T09:57:38.000Z</time>
                <name>Position 648</name>
            </trkpt>
            <trkpt lon="11.374153001233935" lat="49.37540198676288">
                <ele>428.4</ele>
                <time>2010-11-14T09:57:46.000Z</time>
                <name>Position 649</name>
            </trkpt>
            <trkpt lon="11.373444981873035" lat="49.37661803327501">
                <ele>426.96</ele>
                <time>2010-11-14T09:57:54.000Z</time>
                <name>Position 650</name>
            </trkpt>
            <trkpt lon="11.372784990817308" lat="49.377513974905014">
                <ele>426.48</ele>
                <time>2010-11-14T09:58:00.000Z</time>
                <name>Position 651</name>
            </trkpt>
            <trkpt lon="11.372605031356215" lat="49.377663005143404">
                <ele>426.48</ele>
                <time>2010-11-14T09:58:01.000Z</time>
                <name>Position 652</name>
            </trkpt>
            <trkpt lon="11.37242297641933" lat="49.37780499458313">
                <ele>426.48</ele>
                <time>2010-11-14T09:58:02.000Z</time>
                <name>Position 653</name>
            </trkpt>
            <trkpt lon="11.370906019583344" lat="49.37870001420379">
                <ele>429.37</ele>
                <time>2010-11-14T09:58:09.000Z</time>
                <name>Position 654</name>
            </trkpt>
            <trkpt lon="11.36889603920281" lat="49.379296973347664">
                <ele>432.25</ele>
                <time>2010-11-14T09:58:17.000Z</time>
                <name>Position 655</name>
            </trkpt>
            <trkpt lon="11.367409005761147" lat="49.37971699051559">
                <ele>431.77</ele>
                <time>2010-11-14T09:58:25.000Z</time>
                <name>Position 656</name>
            </trkpt>
            <trkpt lon="11.36679695919156" lat="49.37997599132359">
                <ele>431.29</ele>
                <time>2010-11-14T09:58:31.000Z</time>
                <name>Position 657</name>
            </trkpt>
            <trkpt lon="11.36674901470542" lat="49.38001496717334">
                <ele>431.29</ele>
                <time>2010-11-14T09:58:32.000Z</time>
                <name>Position 658</name>
            </trkpt>
            <trkpt lon="11.366720013320446" lat="49.38005897216499">
                <ele>430.81</ele>
                <time>2010-11-14T09:58:33.000Z</time>
                <name>Position 659</name>
            </trkpt>
            <trkpt lon="11.366704003885388" lat="49.38010297715664">
                <ele>430.81</ele>
                <time>2010-11-14T09:58:34.000Z</time>
                <name>Position 660</name>
            </trkpt>
            <trkpt lon="11.366702998057008" lat="49.380157040432096">
                <ele>430.33</ele>
                <time>2010-11-14T09:58:35.000Z</time>
                <name>Position 661</name>
            </trkpt>
            <trkpt lon="11.366722024977207" lat="49.38021898269653">
                <ele>430.33</ele>
                <time>2010-11-14T09:58:36.000Z</time>
                <name>Position 662</name>
            </trkpt>
            <trkpt lon="11.366778016090393" lat="49.380289977416396">
                <ele>429.85</ele>
                <time>2010-11-14T09:58:37.000Z</time>
                <name>Position 663</name>
            </trkpt>
            <trkpt lon="11.366868037730455" lat="49.38036197796464">
                <ele>429.37</ele>
                <time>2010-11-14T09:58:38.000Z</time>
                <name>Position 664</name>
            </trkpt>
            <trkpt lon="11.36698898859322" lat="49.380435990169644">
                <ele>428.89</ele>
                <time>2010-11-14T09:58:39.000Z</time>
                <name>Position 665</name>
            </trkpt>
            <trkpt lon="11.367119997739792" lat="49.38050799071789">
                <ele>428.89</ele>
                <time>2010-11-14T09:58:40.000Z</time>
                <name>Position 666</name>
            </trkpt>
            <trkpt lon="11.36726500466466" lat="49.38057202845812">
                <ele>428.4</ele>
                <time>2010-11-14T09:58:41.000Z</time>
                <name>Position 667</name>
            </trkpt>
            <trkpt lon="11.367426021024585" lat="49.380629025399685">
                <ele>427.92</ele>
                <time>2010-11-14T09:58:42.000Z</time>
                <name>Position 668</name>
            </trkpt>
            <trkpt lon="11.367603968828917" lat="49.380676969885826">
                <ele>427.44</ele>
                <time>2010-11-14T09:58:43.000Z</time>
                <name>Position 669</name>
            </trkpt>
            <trkpt lon="11.367798009887338" lat="49.380718963220716">
                <ele>426.96</ele>
                <time>2010-11-14T09:58:44.000Z</time>
                <name>Position 670</name>
            </trkpt>
            <trkpt lon="11.368015017360449" lat="49.38074796460569">
                <ele>426.0</ele>
                <time>2010-11-14T09:58:45.000Z</time>
                <name>Position 671</name>
            </trkpt>
            <trkpt lon="11.368240993469954" lat="49.38076699152589">
                <ele>425.52</ele>
                <time>2010-11-14T09:58:46.000Z</time>
                <name>Position 672</name>
            </trkpt>
            <trkpt lon="11.368460012599826" lat="49.380780989304185">
                <ele>425.04</ele>
                <time>2010-11-14T09:58:47.000Z</time>
                <name>Position 673</name>
            </trkpt>
            <trkpt lon="11.36947799474001" lat="49.38094301149249">
                <ele>422.64</ele>
                <time>2010-11-14T09:58:52.000Z</time>
                <name>Position 674</name>
            </trkpt>
            <trkpt lon="11.369655020534992" lat="49.38100403174758">
                <ele>422.64</ele>
                <time>2010-11-14T09:58:53.000Z</time>
                <name>Position 675</name>
            </trkpt>
            <trkpt lon="11.369813019409776" lat="49.3810720089823">
                <ele>423.12</ele>
                <time>2010-11-14T09:58:54.000Z</time>
                <name>Position 676</name>
            </trkpt>
            <trkpt lon="11.37040100991726" lat="49.38135498203337">
                <ele>425.04</ele>
                <time>2010-11-14T09:59:00.000Z</time>
                <name>Position 677</name>
            </trkpt>
            <trkpt lon="11.370626986026764" lat="49.38136696815491">
                <ele>425.04</ele>
                <time>2010-11-14T09:59:08.000Z</time>
                <name>Position 678</name>
            </trkpt>
            <trkpt lon="11.37067903764546" lat="49.38135297037661">
                <ele>425.04</ele>
                <time>2010-11-14T09:59:09.000Z</time>
                <name>Position 679</name>
            </trkpt>
            <trkpt lon="11.370748020708561" lat="49.381335033103824">
                <ele>425.04</ele>
                <time>2010-11-14T09:59:10.000Z</time>
                <name>Position 680</name>
            </trkpt>
            <trkpt lon="11.37152099981904" lat="49.38110997900367">
                <ele>424.56</ele>
                <time>2010-11-14T09:59:15.000Z</time>
                <name>Position 681</name>
            </trkpt>
            <trkpt lon="11.373243983834982" lat="49.38073497265577">
                <ele>422.64</ele>
                <time>2010-11-14T09:59:22.000Z</time>
                <name>Position 682</name>
            </trkpt>
            <trkpt lon="11.374725988134742" lat="49.380738995969296">
                <ele>421.19</ele>
                <time>2010-11-14T09:59:28.000Z</time>
                <name>Position 683</name>
            </trkpt>
            <trkpt lon="11.37697703205049" lat="49.38079498708248">
                <ele>418.31</ele>
                <time>2010-11-14T09:59:37.000Z</time>
                <name>Position 684</name>
            </trkpt>
            <trkpt lon="11.378851979970932" lat="49.38031302765012">
                <ele>415.43</ele>
                <time>2010-11-14T09:59:45.000Z</time>
                <name>Position 685</name>
            </trkpt>
            <trkpt lon="11.38089096173644" lat="49.37920703552663">
                <ele>410.14</ele>
                <time>2010-11-14T09:59:54.000Z</time>
                <name>Position 686</name>
            </trkpt>
            <trkpt lon="11.383137982338667" lat="49.37793700955808">
                <ele>406.29</ele>
                <time>2010-11-14T10:00:03.000Z</time>
                <name>Position 687</name>
            </trkpt>
            <trkpt lon="11.385258017107844" lat="49.37673303298652">
                <ele>403.89</ele>
                <time>2010-11-14T10:00:12.000Z</time>
                <name>Position 688</name>
            </trkpt>
            <trkpt lon="11.387631017714739" lat="49.37540299259126">
                <ele>399.57</ele>
                <time>2010-11-14T10:00:23.000Z</time>
                <name>Position 689</name>
            </trkpt>
            <trkpt lon="11.390357986092567" lat="49.37387597747147">
                <ele>396.68</ele>
                <time>2010-11-14T10:00:36.000Z</time>
                <name>Position 690</name>
            </trkpt>
            <trkpt lon="11.3917170278728" lat="49.37309696339071">
                <ele>392.36</ele>
                <time>2010-11-14T10:00:44.000Z</time>
                <name>Position 691</name>
            </trkpt>
            <trkpt lon="11.392015004530549" lat="49.37292697839439">
                <ele>391.39</ele>
                <time>2010-11-14T10:00:46.000Z</time>
                <name>Position 692</name>
            </trkpt>
            <trkpt lon="11.393631035462022" lat="49.37198099680245">
                <ele>387.07</ele>
                <time>2010-11-14T10:00:58.000Z</time>
                <name>Position 693</name>
            </trkpt>
            <trkpt lon="11.395142963156104" lat="49.37143198214471">
                <ele>379.86</ele>
                <time>2010-11-14T10:01:07.000Z</time>
                <name>Position 694</name>
            </trkpt>
            <trkpt lon="11.397628029808402" lat="49.370808033272624">
                <ele>378.42</ele>
                <time>2010-11-14T10:01:18.000Z</time>
                <name>Position 695</name>
            </trkpt>
            <trkpt lon="11.397965988144279" lat="49.37076000496745">
                <ele>378.42</ele>
                <time>2010-11-14T10:01:19.000Z</time>
                <name>Position 696</name>
            </trkpt>
            <trkpt lon="11.398322973400354" lat="49.37073703855276">
                <ele>378.9</ele>
                <time>2010-11-14T10:01:20.000Z</time>
                <name>Position 697</name>
            </trkpt>
            <trkpt lon="11.400736039504409" lat="49.37046496197581">
                <ele>381.3</ele>
                <time>2010-11-14T10:01:26.000Z</time>
                <name>Position 698</name>
            </trkpt>
            <trkpt lon="11.402763035148382" lat="49.37005500309169">
                <ele>388.03</ele>
                <time>2010-11-14T10:01:32.000Z</time>
                <name>Position 699</name>
            </trkpt>
            <trkpt lon="11.403041984885931" lat="49.37003002502024">
                <ele>388.99</ele>
                <time>2010-11-14T10:01:33.000Z</time>
                <name>Position 700</name>
            </trkpt>
            <trkpt lon="11.403343984857202" lat="49.37003396451473">
                <ele>389.95</ele>
                <time>2010-11-14T10:01:34.000Z</time>
                <name>Position 701</name>
            </trkpt>
            <trkpt lon="11.403656965121627" lat="49.37006900086999">
                <ele>390.91</ele>
                <time>2010-11-14T10:01:35.000Z</time>
                <name>Position 702</name>
            </trkpt>
            <trkpt lon="11.405802983790636" lat="49.370208978652954">
                <ele>400.05</ele>
                <time>2010-11-14T10:01:42.000Z</time>
                <name>Position 703</name>
            </trkpt>
            <trkpt lon="11.406051004305482" lat="49.37023404054344">
                <ele>401.01</ele>
                <time>2010-11-14T10:01:43.000Z</time>
                <name>Position 704</name>
            </trkpt>
            <trkpt lon="11.407794021070004" lat="49.37030796892941">
                <ele>413.5</ele>
                <time>2010-11-14T10:01:51.000Z</time>
                <name>Position 705</name>
            </trkpt>
            <trkpt lon="11.408585021272302" lat="49.370340993627906">
                <ele>418.79</ele>
                <time>2010-11-14T10:01:56.000Z</time>
                <name>Position 706</name>
            </trkpt>
            <trkpt lon="11.408701026812196" lat="49.37032297253609">
                <ele>419.27</ele>
                <time>2010-11-14T10:01:57.000Z</time>
                <name>Position 707</name>
            </trkpt>
            <trkpt lon="11.408812003210187" lat="49.37028500251472">
                <ele>419.27</ele>
                <time>2010-11-14T10:01:58.000Z</time>
                <name>Position 708</name>
            </trkpt>
            <trkpt lon="11.409710040315986" lat="49.36992198228836">
                <ele>422.16</ele>
                <time>2010-11-14T10:02:05.000Z</time>
                <name>Position 709</name>
            </trkpt>
            <trkpt lon="11.411167988553643" lat="49.36936198733747">
                <ele>424.08</ele>
                <time>2010-11-14T10:02:15.000Z</time>
                <name>Position 710</name>
            </trkpt>
            <trkpt lon="11.412732973694801" lat="49.36892897821963">
                <ele>427.44</ele>
                <time>2010-11-14T10:02:25.000Z</time>
                <name>Position 711</name>
            </trkpt>
            <trkpt lon="11.414076006039977" lat="49.368448024615645">
                <ele>426.96</ele>
                <time>2010-11-14T10:02:36.000Z</time>
                <name>Position 712</name>
            </trkpt>
            <trkpt lon="11.41498401761055" lat="49.368063965812325">
                <ele>425.52</ele>
                <time>2010-11-14T10:02:42.000Z</time>
                <name>Position 713</name>
            </trkpt>
            <trkpt lon="11.415116032585502" lat="49.367978973314166">
                <ele>425.52</ele>
                <time>2010-11-14T10:02:43.000Z</time>
                <name>Position 714</name>
            </trkpt>
            <trkpt lon="11.415274031460285" lat="49.3679079785943">
                <ele>425.52</ele>
                <time>2010-11-14T10:02:44.000Z</time>
                <name>Position 715</name>
            </trkpt>
            <trkpt lon="11.41560603864491" lat="49.367761965841055">
                <ele>425.52</ele>
                <time>2010-11-14T10:02:46.000Z</time>
                <name>Position 716</name>
            </trkpt>
            <trkpt lon="11.417182004079223" lat="49.3670619931072">
                <ele>419.27</ele>
                <time>2010-11-14T10:02:55.000Z</time>
                <name>Position 717</name>
            </trkpt>
            <trkpt lon="11.417985996231437" lat="49.36682403087616">
                <ele>416.87</ele>
                <time>2010-11-14T10:02:58.000Z</time>
                <name>Position 718</name>
            </trkpt>
            <trkpt lon="11.41874698922038" lat="49.366474002599716">
                <ele>413.98</ele>
                <time>2010-11-14T10:03:01.000Z</time>
                <name>Position 719</name>
            </trkpt>
            <trkpt lon="11.418971959501505" lat="49.366340981796384">
                <ele>412.54</ele>
                <time>2010-11-14T10:03:02.000Z</time>
                <name>Position 720</name>
            </trkpt>
            <trkpt lon="11.419179998338223" lat="49.36618197709322">
                <ele>411.1</ele>
                <time>2010-11-14T10:03:03.000Z</time>
                <name>Position 721</name>
            </trkpt>
            <trkpt lon="11.420582039281726" lat="49.36482897028327">
                <ele>401.01</ele>
                <time>2010-11-14T10:03:10.000Z</time>
                <name>Position 722</name>
            </trkpt>
            <trkpt lon="11.422297982499003" lat="49.36378902755678">
                <ele>396.2</ele>
                <time>2010-11-14T10:03:17.000Z</time>
                <name>Position 723</name>
            </trkpt>
            <trkpt lon="11.424250965937972" lat="49.362601982429624">
                <ele>394.76</ele>
                <time>2010-11-14T10:03:26.000Z</time>
                <name>Position 724</name>
            </trkpt>
            <trkpt lon="11.424968037754297" lat="49.36145600862801">
                <ele>395.72</ele>
                <time>2010-11-14T10:03:32.000Z</time>
                <name>Position 725</name>
            </trkpt>
            <trkpt lon="11.425218991935253" lat="49.36013602651656">
                <ele>399.08</ele>
                <time>2010-11-14T10:03:39.000Z</time>
                <name>Position 726</name>
            </trkpt>
            <trkpt lon="11.42573095858097" lat="49.358761981129646">
                <ele>399.08</ele>
                <time>2010-11-14T10:03:47.000Z</time>
                <name>Position 727</name>
            </trkpt>
            <trkpt lon="11.426633019000292" lat="49.357751961797476">
                <ele>395.72</ele>
                <time>2010-11-14T10:03:56.000Z</time>
                <name>Position 728</name>
            </trkpt>
            <trkpt lon="11.426895959302783" lat="49.357103034853935">
                <ele>393.8</ele>
                <time>2010-11-14T10:04:03.000Z</time>
                <name>Position 729</name>
            </trkpt>
            <trkpt lon="11.426894031465054" lat="49.356975965201855">
                <ele>393.8</ele>
                <time>2010-11-14T10:04:04.000Z</time>
                <name>Position 730</name>
            </trkpt>
            <trkpt lon="11.42678297124803" lat="49.355706023052335">
                <ele>393.8</ele>
                <time>2010-11-14T10:04:12.000Z</time>
                <name>Position 731</name>
            </trkpt>
            <trkpt lon="11.426852960139513" lat="49.35456298291683">
                <ele>395.24</ele>
                <time>2010-11-14T10:04:17.000Z</time>
                <name>Position 732</name>
            </trkpt>
            <trkpt lon="11.426546014845371" lat="49.35247999615967">
                <ele>401.01</ele>
                <time>2010-11-14T10:04:25.000Z</time>
                <name>Position 733</name>
            </trkpt>
            <trkpt lon="11.426670989021659" lat="49.35109103098512">
                <ele>405.33</ele>
                <time>2010-11-14T10:04:31.000Z</time>
                <name>Position 734</name>
            </trkpt>
            <trkpt lon="11.426785988733172" lat="49.35087603516877">
                <ele>406.29</ele>
                <time>2010-11-14T10:04:32.000Z</time>
                <name>Position 735</name>
            </trkpt>
            <trkpt lon="11.426928984001279" lat="49.35067000798881">
                <ele>406.77</ele>
                <time>2010-11-14T10:04:33.000Z</time>
                <name>Position 736</name>
            </trkpt>
            <trkpt lon="11.427099974825978" lat="49.35047303326428">
                <ele>407.74</ele>
                <time>2010-11-14T10:04:34.000Z</time>
                <name>Position 737</name>
            </trkpt>
            <trkpt lon="11.427297033369541" lat="49.35028502717614">
                <ele>408.22</ele>
                <time>2010-11-14T10:04:35.000Z</time>
                <name>Position 738</name>
            </trkpt>
            <trkpt lon="11.427520997822285" lat="49.35010699555278">
                <ele>408.7</ele>
                <time>2010-11-14T10:04:36.000Z</time>
                <name>Position 739</name>
            </trkpt>
            <trkpt lon="11.427763989195228" lat="49.34993298724294">
                <ele>409.18</ele>
                <time>2010-11-14T10:04:37.000Z</time>
                <name>Position 740</name>
            </trkpt>
            <trkpt lon="11.43017303198576" lat="49.348446037620306">
                <ele>408.7</ele>
                <time>2010-11-14T10:04:46.000Z</time>
                <name>Position 741</name>
            </trkpt>
            <trkpt lon="11.43275499343872" lat="49.34708498418331">
                <ele>401.97</ele>
                <time>2010-11-14T10:04:56.000Z</time>
                <name>Position 742</name>
            </trkpt>
            <trkpt lon="11.435728976503015" lat="49.34617999009788">
                <ele>398.12</ele>
                <time>2010-11-14T10:05:06.000Z</time>
                <name>Position 743</name>
            </trkpt>
            <trkpt lon="11.437618006020784" lat="49.34523400850594">
                <ele>397.64</ele>
                <time>2010-11-14T10:05:13.000Z</time>
                <name>Position 744</name>
            </trkpt>
            <trkpt lon="11.438836986199021" lat="49.34407998807728">
                <ele>398.12</ele>
                <time>2010-11-14T10:05:20.000Z</time>
                <name>Position 745</name>
            </trkpt>
            <trkpt lon="11.439479039981961" lat="49.342622039839625">
                <ele>399.08</ele>
                <time>2010-11-14T10:05:28.000Z</time>
                <name>Position 746</name>
            </trkpt>
            <trkpt lon="11.43951902166009" lat="49.34104699641466">
                <ele>399.08</ele>
                <time>2010-11-14T10:05:36.000Z</time>
                <name>Position 747</name>
            </trkpt>
            <trkpt lon="11.438802033662796" lat="49.33964696712792">
                <ele>402.45</ele>
                <time>2010-11-14T10:05:43.000Z</time>
                <name>Position 748</name>
            </trkpt>
            <trkpt lon="11.438130978494883" lat="49.33820703998208">
                <ele>406.77</ele>
                <time>2010-11-14T10:05:51.000Z</time>
                <name>Position 749</name>
            </trkpt>
            <trkpt lon="11.438269028440118" lat="49.33695402927697">
                <ele>407.26</ele>
                <time>2010-11-14T10:05:59.000Z</time>
                <name>Position 750</name>
            </trkpt>
            <trkpt lon="11.438688039779663" lat="49.33529198169708">
                <ele>406.77</ele>
                <time>2010-11-14T10:06:12.000Z</time>
                <name>Position 751</name>
            </trkpt>
            <trkpt lon="11.43870698288083" lat="49.33449201285839">
                <ele>405.33</ele>
                <time>2010-11-14T10:06:19.000Z</time>
                <name>Position 752</name>
            </trkpt>
            <trkpt lon="11.43872701562941" lat="49.334391010925174">
                <ele>405.33</ele>
                <time>2010-11-14T10:06:20.000Z</time>
                <name>Position 753</name>
            </trkpt>
            <trkpt lon="11.438760962337255" lat="49.334289003163576">
                <ele>404.85</ele>
                <time>2010-11-14T10:06:21.000Z</time>
                <name>Position 754</name>
            </trkpt>
            <trkpt lon="11.4389209728688" lat="49.33386596851051">
                <ele>403.89</ele>
                <time>2010-11-14T10:06:26.000Z</time>
                <name>Position 755</name>
            </trkpt>
            <trkpt lon="11.438904963433743" lat="49.333815006539226">
                <ele>403.89</ele>
                <time>2010-11-14T10:06:27.000Z</time>
                <name>Position 756</name>
            </trkpt>
            <trkpt lon="11.438862970098853" lat="49.33377997018397">
                <ele>404.37</ele>
                <time>2010-11-14T10:06:28.000Z</time>
                <name>Position 757</name>
            </trkpt>
            <trkpt lon="11.438814019784331" lat="49.33376203291118">
                <ele>404.37</ele>
                <time>2010-11-14T10:06:29.000Z</time>
                <name>Position 758</name>
            </trkpt>
            <trkpt lon="11.438774038106203" lat="49.33375901542604">
                <ele>404.85</ele>
                <time>2010-11-14T10:06:30.000Z</time>
                <name>Position 759</name>
            </trkpt>
            <trkpt lon="11.438728021457791" lat="49.333790028467774">
                <ele>404.85</ele>
                <time>2010-11-14T10:06:37.000Z</time>
                <name>Position 760</name>
            </trkpt>
            <trkpt lon="11.438717041164637" lat="49.333791034296155">
                <ele>404.85</ele>
                <time>2010-11-14T10:07:02.000Z</time>
                <name>Position 761</name>
            </trkpt>
            <trkpt lon="11.438713017851114" lat="49.33378801681101">
                <ele>404.85</ele>
                <time>2010-11-14T10:07:56.000Z</time>
                <name>Position 762</name>
            </trkpt>
            <trkpt lon="11.438629031181335" lat="49.33389002457261">
                <ele>394.76</ele>
                <time>2010-11-14T10:37:35.000Z</time>
                <name>Position 763</name>
            </trkpt>
            <trkpt lon="11.438659960404038" lat="49.33388499543071">
                <ele>396.68</ele>
                <time>2010-11-14T10:37:47.000Z</time>
                <name>Position 764</name>
            </trkpt>
            <trkpt lon="11.43870203755796" lat="49.33384099043906">
                <ele>398.12</ele>
                <time>2010-11-14T10:37:53.000Z</time>
                <name>Position 765</name>
            </trkpt>
            <trkpt lon="11.438866993412375" lat="49.33386102318764">
                <ele>398.6</ele>
                <time>2010-11-14T10:38:03.000Z</time>
                <name>Position 766</name>
            </trkpt>
            <trkpt lon="11.438872022554278" lat="49.333859011530876">
                <ele>398.6</ele>
                <time>2010-11-14T10:38:27.000Z</time>
                <name>Position 767</name>
            </trkpt>
            <trkpt lon="11.438908986747265" lat="49.33383101597428">
                <ele>398.6</ele>
                <time>2010-11-14T10:38:29.000Z</time>
                <name>Position 768</name>
            </trkpt>
            <trkpt lon="11.438938993960619" lat="49.33378399349749">
                <ele>398.6</ele>
                <time>2010-11-14T10:38:30.000Z</time>
                <name>Position 769</name>
            </trkpt>
            <trkpt lon="11.438956009224057" lat="49.33372196741402">
                <ele>398.6</ele>
                <time>2010-11-14T10:38:31.000Z</time>
                <name>Position 770</name>
            </trkpt>
            <trkpt lon="11.438973024487495" lat="49.33365197852254">
                <ele>398.6</ele>
                <time>2010-11-14T10:38:32.000Z</time>
                <name>Position 771</name>
            </trkpt>
            <trkpt lon="11.438996996730566" lat="49.33341099880636">
                <ele>399.08</ele>
                <time>2010-11-14T10:38:35.000Z</time>
                <name>Position 772</name>
            </trkpt>
            <trkpt lon="11.439045025035739" lat="49.332783026620746">
                <ele>399.57</ele>
                <time>2010-11-14T10:38:44.000Z</time>
                <name>Position 773</name>
            </trkpt>
            <trkpt lon="11.439096992835402" lat="49.33275402523577">
                <ele>399.57</ele>
                <time>2010-11-14T10:38:45.000Z</time>
                <name>Position 774</name>
            </trkpt>
            <trkpt lon="11.43915499560535" lat="49.33274799026549">
                <ele>400.05</ele>
                <time>2010-11-14T10:38:46.000Z</time>
                <name>Position 775</name>
            </trkpt>
            <trkpt lon="11.439210986718535" lat="49.33275100775063">
                <ele>400.53</ele>
                <time>2010-11-14T10:38:47.000Z</time>
                <name>Position 776</name>
            </trkpt>
            <trkpt lon="11.439277036115527" lat="49.33275301940739">
                <ele>401.01</ele>
                <time>2010-11-14T10:38:48.000Z</time>
                <name>Position 777</name>
            </trkpt>
            <trkpt lon="11.439492031931877" lat="49.33275000192225">
                <ele>401.49</ele>
                <time>2010-11-14T10:38:51.000Z</time>
                <name>Position 778</name>
            </trkpt>
            <trkpt lon="11.439554980024695" lat="49.332740027457476">
                <ele>401.49</ele>
                <time>2010-11-14T10:38:52.000Z</time>
                <name>Position 779</name>
            </trkpt>
            <trkpt lon="11.439902996644378" lat="49.33268495835364">
                <ele>402.93</ele>
                <time>2010-11-14T10:38:59.000Z</time>
                <name>Position 780</name>
            </trkpt>
            <trkpt lon="11.440114974975586" lat="49.33268001303077">
                <ele>403.89</ele>
                <time>2010-11-14T10:39:02.000Z</time>
                <name>Position 781</name>
            </trkpt>
            <trkpt lon="11.441171010956168" lat="49.332823008298874">
                <ele>401.49</ele>
                <time>2010-11-14T10:39:16.000Z</time>
                <name>Position 782</name>
            </trkpt>
            <trkpt lon="11.441256003454328" lat="49.33283901773393">
                <ele>401.49</ele>
                <time>2010-11-14T10:39:17.000Z</time>
                <name>Position 783</name>
            </trkpt>
            <trkpt lon="11.442212965339422" lat="49.3330530077219">
                <ele>401.01</ele>
                <time>2010-11-14T10:39:27.000Z</time>
                <name>Position 784</name>
            </trkpt>
            <trkpt lon="11.442307010293007" lat="49.33305099606514">
                <ele>401.01</ele>
                <time>2010-11-14T10:39:28.000Z</time>
                <name>Position 785</name>
            </trkpt>
            <trkpt lon="11.442389991134405" lat="49.333038004115224">
                <ele>401.01</ele>
                <time>2010-11-14T10:39:29.000Z</time>
                <name>Position 786</name>
            </trkpt>
            <trkpt lon="11.442458974197507" lat="49.33301000855863">
                <ele>400.53</ele>
                <time>2010-11-14T10:39:30.000Z</time>
                <name>Position 787</name>
            </trkpt>
            <trkpt lon="11.442523011937737" lat="49.33296298608184">
                <ele>400.53</ele>
                <time>2010-11-14T10:39:31.000Z</time>
                <name>Position 788</name>
            </trkpt>
            <trkpt lon="11.44259300082922" lat="49.33289903216064">
                <ele>400.05</ele>
                <time>2010-11-14T10:39:32.000Z</time>
                <name>Position 789</name>
            </trkpt>
            <trkpt lon="11.44302299246192" lat="49.332374995574355">
                <ele>399.57</ele>
                <time>2010-11-14T10:39:39.000Z</time>
                <name>Position 790</name>
            </trkpt>
            <trkpt lon="11.443056017160416" lat="49.332355968654156">
                <ele>399.57</ele>
                <time>2010-11-14T10:39:40.000Z</time>
                <name>Position 791</name>
            </trkpt>
            <trkpt lon="11.44310899078846" lat="49.332351023331285">
                <ele>399.57</ele>
                <time>2010-11-14T10:39:41.000Z</time>
                <name>Position 792</name>
            </trkpt>
            <trkpt lon="11.443186020478606" lat="49.332353034988046">
                <ele>399.57</ele>
                <time>2010-11-14T10:39:42.000Z</time>
                <name>Position 793</name>
            </trkpt>
            <trkpt lon="11.443506963551044" lat="49.332344988361">
                <ele>399.08</ele>
                <time>2010-11-14T10:39:45.000Z</time>
                <name>Position 794</name>
            </trkpt>
            <trkpt lon="11.444642040878534" lat="49.33223200030625">
                <ele>399.08</ele>
                <time>2010-11-14T10:39:53.000Z</time>
                <name>Position 795</name>
            </trkpt>
            <trkpt lon="11.444779001176357" lat="49.33223099447787">
                <ele>399.57</ele>
                <time>2010-11-14T10:39:54.000Z</time>
                <name>Position 796</name>
            </trkpt>
            <trkpt lon="11.44491596147418" lat="49.33223501779139">
                <ele>399.57</ele>
                <time>2010-11-14T10:39:55.000Z</time>
                <name>Position 797</name>
            </trkpt>
            <trkpt lon="11.445048982277513" lat="49.33225002139807">
                <ele>400.05</ele>
                <time>2010-11-14T10:39:56.000Z</time>
                <name>Position 798</name>
            </trkpt>
            <trkpt lon="11.445187032222748" lat="49.332269970327616">
                <ele>400.05</ele>
                <time>2010-11-14T10:39:57.000Z</time>
                <name>Position 799</name>
            </trkpt>
            <trkpt lon="11.445328015834093" lat="49.3322950322181">
                <ele>400.53</ele>
                <time>2010-11-14T10:39:58.000Z</time>
                <name>Position 800</name>
            </trkpt>
            <trkpt lon="11.44547201693058" lat="49.33232797309756">
                <ele>400.53</ele>
                <time>2010-11-14T10:39:59.000Z</time>
                <name>Position 801</name>
            </trkpt>
            <trkpt lon="11.445766976103187" lat="49.332419000566006">
                <ele>400.53</ele>
                <time>2010-11-14T10:40:01.000Z</time>
                <name>Position 802</name>
            </trkpt>
            <trkpt lon="11.445913994684815" lat="49.332483038306236">
                <ele>401.01</ele>
                <time>2010-11-14T10:40:02.000Z</time>
                <name>Position 803</name>
            </trkpt>
            <trkpt lon="11.446062019094825" lat="49.33255897834897">
                <ele>401.01</ele>
                <time>2010-11-14T10:40:03.000Z</time>
                <name>Position 804</name>
            </trkpt>
            <trkpt lon="11.44695796072483" lat="49.33310899883509">
                <ele>404.37</ele>
                <time>2010-11-14T10:40:09.000Z</time>
                <name>Position 805</name>
            </trkpt>
            <trkpt lon="11.447044964879751" lat="49.33320002630353">
                <ele>404.85</ele>
                <time>2010-11-14T10:40:10.000Z</time>
                <name>Position 806</name>
            </trkpt>
            <trkpt lon="11.447116965427995" lat="49.33328996412456">
                <ele>405.33</ele>
                <time>2010-11-14T10:40:11.000Z</time>
                <name>Position 807</name>
            </trkpt>
            <trkpt lon="11.447259960696101" lat="49.333533039316535">
                <ele>405.81</ele>
                <time>2010-11-14T10:40:14.000Z</time>
                <name>Position 808</name>
            </trkpt>
            <trkpt lon="11.44725400954485" lat="49.3336040340364">
                <ele>406.29</ele>
                <time>2010-11-14T10:40:15.000Z</time>
                <name>Position 809</name>
            </trkpt>
            <trkpt lon="11.447227019816637" lat="49.33367603458464">
                <ele>406.29</ele>
                <time>2010-11-14T10:40:16.000Z</time>
                <name>Position 810</name>
            </trkpt>
            <trkpt lon="11.44682401791215" lat="49.334608018398285">
                <ele>405.33</ele>
                <time>2010-11-14T10:40:25.000Z</time>
                <name>Position 811</name>
            </trkpt>
            <trkpt lon="11.446540961042047" lat="49.33522400446236">
                <ele>406.29</ele>
                <time>2010-11-14T10:40:32.000Z</time>
                <name>Position 812</name>
            </trkpt>
            <trkpt lon="11.446487987414002" lat="49.335253005847335">
                <ele>406.29</ele>
                <time>2010-11-14T10:40:33.000Z</time>
                <name>Position 813</name>
            </trkpt>
            <trkpt lon="11.446423027664423" lat="49.33526700362563">
                <ele>406.29</ele>
                <time>2010-11-14T10:40:34.000Z</time>
                <name>Position 814</name>
            </trkpt>
            <trkpt lon="11.446347003802657" lat="49.33526700362563">
                <ele>406.29</ele>
                <time>2010-11-14T10:40:35.000Z</time>
                <name>Position 815</name>
            </trkpt>
            <trkpt lon="11.44626603461802" lat="49.335252000018954">
                <ele>406.29</ele>
                <time>2010-11-14T10:40:36.000Z</time>
                <name>Position 816</name>
            </trkpt>
            <trkpt lon="11.446178024634719" lat="49.335232973098755">
                <ele>406.29</ele>
                <time>2010-11-14T10:40:37.000Z</time>
                <name>Position 817</name>
            </trkpt>
            <trkpt lon="11.445646025240421" lat="49.33514999225736">
                <ele>404.85</ele>
                <time>2010-11-14T10:40:42.000Z</time>
                <name>Position 818</name>
            </trkpt>
            <trkpt lon="11.445531025528908" lat="49.335146974772215">
                <ele>404.37</ele>
                <time>2010-11-14T10:40:43.000Z</time>
                <name>Position 819</name>
            </trkpt>
            <trkpt lon="11.445420971140265" lat="49.33515099808574">
                <ele>403.89</ele>
                <time>2010-11-14T10:40:44.000Z</time>
                <name>Position 820</name>
            </trkpt>
            <trkpt lon="11.445308988913894" lat="49.33515996672213">
                <ele>403.89</ele>
                <time>2010-11-14T10:40:45.000Z</time>
                <name>Position 821</name>
            </trkpt>
            <trkpt lon="11.445201030001044" lat="49.33517396450043">
                <ele>403.89</ele>
                <time>2010-11-14T10:40:46.000Z</time>
                <name>Position 822</name>
            </trkpt>
            <trkpt lon="11.443755989894271" lat="49.33541502803564">
                <ele>401.01</ele>
                <time>2010-11-14T10:40:57.000Z</time>
                <name>Position 823</name>
            </trkpt>
            <trkpt lon="11.441994030028582" lat="49.33545802719891">
                <ele>397.16</ele>
                <time>2010-11-14T10:41:08.000Z</time>
                <name>Position 824</name>
            </trkpt>
            <trkpt lon="11.441894033923745" lat="49.335468001663685">
                <ele>396.68</ele>
                <time>2010-11-14T10:41:09.000Z</time>
                <name>Position 825</name>
            </trkpt>
            <trkpt lon="11.441833013668656" lat="49.335491973906755">
                <ele>396.68</ele>
                <time>2010-11-14T10:41:10.000Z</time>
                <name>Position 826</name>
            </trkpt>
            <trkpt lon="11.441808035597205" lat="49.33552600443363">
                <ele>397.16</ele>
                <time>2010-11-14T10:41:11.000Z</time>
                <name>Position 827</name>
            </trkpt>
            <trkpt lon="11.441807029768825" lat="49.33556598611176">
                <ele>397.16</ele>
                <time>2010-11-14T10:41:12.000Z</time>
                <name>Position 828</name>
            </trkpt>
            <trkpt lon="11.441823961213231" lat="49.33560697361827">
                <ele>397.16</ele>
                <time>2010-11-14T10:41:13.000Z</time>
                <name>Position 829</name>
            </trkpt>
            <trkpt lon="11.441850028932095" lat="49.335659025236964">
                <ele>397.16</ele>
                <time>2010-11-14T10:41:14.000Z</time>
                <name>Position 830</name>
            </trkpt>
            <trkpt lon="11.44188397563994" lat="49.335791962221265">
                <ele>396.68</ele>
                <time>2010-11-14T10:41:16.000Z</time>
                <name>Position 831</name>
            </trkpt>
            <trkpt lon="11.441866960376501" lat="49.335874021053314">
                <ele>397.16</ele>
                <time>2010-11-14T10:41:17.000Z</time>
                <name>Position 832</name>
            </trkpt>
            <trkpt lon="11.441825972869992" lat="49.335964964702725">
                <ele>397.16</ele>
                <time>2010-11-14T10:41:18.000Z</time>
                <name>Position 833</name>
            </trkpt>
            <trkpt lon="11.441224990412593" lat="49.336927961558104">
                <ele>395.72</ele>
                <time>2010-11-14T10:41:26.000Z</time>
                <name>Position 834</name>
            </trkpt>
            <trkpt lon="11.44078703597188" lat="49.337511006742716">
                <ele>394.76</ele>
                <time>2010-11-14T10:41:31.000Z</time>
                <name>Position 835</name>
            </trkpt>
            <trkpt lon="11.440739007666707" lat="49.33762902393937">
                <ele>394.76</ele>
                <time>2010-11-14T10:41:32.000Z</time>
                <name>Position 836</name>
            </trkpt>
            <trkpt lon="11.440712017938495" lat="49.33775600977242">
                <ele>394.76</ele>
                <time>2010-11-14T10:41:33.000Z</time>
                <name>Position 837</name>
            </trkpt>
            <trkpt lon="11.440705982968211" lat="49.33788903057575">
                <ele>394.76</ele>
                <time>2010-11-14T10:41:34.000Z</time>
                <name>Position 838</name>
            </trkpt>
            <trkpt lon="11.440726015716791" lat="49.33803102001548">
                <ele>394.76</ele>
                <time>2010-11-14T10:41:35.000Z</time>
                <name>Position 839</name>
            </trkpt>
            <trkpt lon="11.440760968253016" lat="49.33818298391998">
                <ele>394.28</ele>
                <time>2010-11-14T10:41:36.000Z</time>
                <name>Position 840</name>
            </trkpt>
            <trkpt lon="11.441083000972867" lat="49.33949902653694">
                <ele>394.76</ele>
                <time>2010-11-14T10:41:44.000Z</time>
                <name>Position 841</name>
            </trkpt>
            <trkpt lon="11.441079983487725" lat="49.33964696712792">
                <ele>395.24</ele>
                <time>2010-11-14T10:41:45.000Z</time>
                <name>Position 842</name>
            </trkpt>
            <trkpt lon="11.441060034558177" lat="49.339787028729916">
                <ele>395.72</ele>
                <time>2010-11-14T10:41:46.000Z</time>
                <name>Position 843</name>
            </trkpt>
            <trkpt lon="11.44102499820292" lat="49.33992398902774">
                <ele>395.72</ele>
                <time>2010-11-14T10:41:47.000Z</time>
                <name>Position 844</name>
            </trkpt>
            <trkpt lon="11.440977975726128" lat="49.34005902148783">
                <ele>395.72</ele>
                <time>2010-11-14T10:41:48.000Z</time>
                <name>Position 845</name>
            </trkpt>
            <trkpt lon="11.440920978784561" lat="49.340191036462784">
                <ele>395.24</ele>
                <time>2010-11-14T10:41:49.000Z</time>
                <name>Position 846</name>
            </trkpt>
            <trkpt lon="11.440419992431998" lat="49.341785022988915">
                <ele>392.36</ele>
                <time>2010-11-14T10:42:01.000Z</time>
                <name>Position 847</name>
            </trkpt>
            <trkpt lon="11.440454022958875" lat="49.34291297569871">
                <ele>395.24</ele>
                <time>2010-11-14T10:42:09.000Z</time>
                <name>Position 848</name>
            </trkpt>
            <trkpt lon="11.44044203683734" lat="49.343157978728414">
                <ele>395.24</ele>
                <time>2010-11-14T10:42:12.000Z</time>
                <name>Position 849</name>
            </trkpt>
            <trkpt lon="11.440414041280746" lat="49.343547988682985">
                <ele>394.28</ele>
                <time>2010-11-14T10:42:17.000Z</time>
                <name>Position 850</name>
            </trkpt>
            <trkpt lon="11.44038101658225" lat="49.343634992837906">
                <ele>394.28</ele>
                <time>2010-11-14T10:42:18.000Z</time>
                <name>Position 851</name>
            </trkpt>
            <trkpt lon="11.43995102494955" lat="49.344512997195125">
                <ele>392.36</ele>
                <time>2010-11-14T10:42:25.000Z</time>
                <name>Position 852</name>
            </trkpt>
            <trkpt lon="11.43911300227046" lat="49.34680896811187">
                <ele>394.76</ele>
                <time>2010-11-14T10:42:40.000Z</time>
                <name>Position 853</name>
            </trkpt>
            <trkpt lon="11.439160024747252" lat="49.34791898354888">
                <ele>400.05</ele>
                <time>2010-11-14T10:42:47.000Z</time>
                <name>Position 854</name>
            </trkpt>
            <trkpt lon="11.439191959798336" lat="49.34824797324836">
                <ele>400.53</ele>
                <time>2010-11-14T10:42:50.000Z</time>
                <name>Position 855</name>
            </trkpt>
            <trkpt lon="11.43924099393189" lat="49.3483339715749">
                <ele>401.01</ele>
                <time>2010-11-14T10:42:51.000Z</time>
                <name>Position 856</name>
            </trkpt>
            <trkpt lon="11.439317017793655" lat="49.34841502457857">
                <ele>401.49</ele>
                <time>2010-11-14T10:42:52.000Z</time>
                <name>Position 857</name>
            </trkpt>
            <trkpt lon="11.439416008070111" lat="49.34848400764167">
                <ele>401.49</ele>
                <time>2010-11-14T10:42:53.000Z</time>
                <name>Position 858</name>
            </trkpt>
            <trkpt lon="11.439553974196315" lat="49.34854603372514">
                <ele>401.97</ele>
                <time>2010-11-14T10:42:54.000Z</time>
                <name>Position 859</name>
            </trkpt>
            <trkpt lon="11.43969202414155" lat="49.34861300513148">
                <ele>402.45</ele>
                <time>2010-11-14T10:42:55.000Z</time>
                <name>Position 860</name>
            </trkpt>
            <trkpt lon="11.44040398299694" lat="49.3488710001111">
                <ele>404.85</ele>
                <time>2010-11-14T10:42:59.000Z</time>
                <name>Position 861</name>
            </trkpt>
            <trkpt lon="11.440903041511774" lat="49.34903302229941">
                <ele>407.74</ele>
                <time>2010-11-14T10:43:02.000Z</time>
                <name>Position 862</name>
            </trkpt>
            <trkpt lon="11.440998008474708" lat="49.34912103228271">
                <ele>408.7</ele>
                <time>2010-11-14T10:43:03.000Z</time>
                <name>Position 863</name>
            </trkpt>
            <trkpt lon="11.441049976274371" lat="49.349242988973856">
                <ele>409.18</ele>
                <time>2010-11-14T10:43:04.000Z</time>
                <name>Position 864</name>
            </trkpt>
            <trkpt lon="11.441094987094402" lat="49.34948396869004">
                <ele>411.1</ele>
                <time>2010-11-14T10:43:06.000Z</time>
                <name>Position 865</name>
            </trkpt>
            <trkpt lon="11.441103033721447" lat="49.34963400475681">
                <ele>412.54</ele>
                <time>2010-11-14T10:43:07.000Z</time>
                <name>Position 866</name>
            </trkpt>
            <trkpt lon="11.441170005127788" lat="49.35002099722624">
                <ele>416.87</ele>
                <time>2010-11-14T10:43:10.000Z</time>
                <name>Position 867</name>
            </trkpt>
            <trkpt lon="11.441247034817934" lat="49.35013901442289">
                <ele>418.31</ele>
                <time>2010-11-14T10:43:11.000Z</time>
                <name>Position 868</name>
            </trkpt>
            <trkpt lon="11.441365974023938" lat="49.35027798637748">
                <ele>418.31</ele>
                <time>2010-11-14T10:43:12.000Z</time>
                <name>Position 869</name>
            </trkpt>
            <trkpt lon="11.441681971773505" lat="49.350635977461934">
                <ele>421.68</ele>
                <time>2010-11-14T10:43:15.000Z</time>
                <name>Position 870</name>
            </trkpt>
            <trkpt lon="11.44192798063159" lat="49.35082599520683">
                <ele>423.6</ele>
                <time>2010-11-14T10:43:17.000Z</time>
                <name>Position 871</name>
            </trkpt>
            <trkpt lon="11.442071981728077" lat="49.35090403072536">
                <ele>423.6</ele>
                <time>2010-11-14T10:43:18.000Z</time>
                <name>Position 872</name>
            </trkpt>
            <trkpt lon="11.442209025844932" lat="49.35096899047494">
                <ele>424.56</ele>
                <time>2010-11-14T10:43:19.000Z</time>
                <name>Position 873</name>
            </trkpt>
            <trkpt lon="11.442349003627896" lat="49.35099497437477">
                <ele>425.52</ele>
                <time>2010-11-14T10:43:20.000Z</time>
                <name>Position 874</name>
            </trkpt>
            <trkpt lon="11.442517982795835" lat="49.350982988253236">
                <ele>426.0</ele>
                <time>2010-11-14T10:43:21.000Z</time>
                <name>Position 875</name>
            </trkpt>
            <trkpt lon="11.442686961963773" lat="49.350893972441554">
                <ele>426.48</ele>
                <time>2010-11-14T10:43:22.000Z</time>
                <name>Position 876</name>
            </trkpt>
            <trkpt lon="11.442877985537052" lat="49.350807974115014">
                <ele>428.89</ele>
                <time>2010-11-14T10:43:23.000Z</time>
                <name>Position 877</name>
            </trkpt>
            <trkpt lon="11.443071020767093" lat="49.35073597356677">
                <ele>430.33</ele>
                <time>2010-11-14T10:43:24.000Z</time>
                <name>Position 878</name>
            </trkpt>
            <trkpt lon="11.443217033520341" lat="49.35071099549532">
                <ele>431.29</ele>
                <time>2010-11-14T10:43:25.000Z</time>
                <name>Position 879</name>
            </trkpt>
            <trkpt lon="11.44334401935339" lat="49.3507170304656">
                <ele>433.21</ele>
                <time>2010-11-14T10:43:26.000Z</time>
                <name>Position 880</name>
            </trkpt>
            <trkpt lon="11.44347201101482" lat="49.35075399465859">
                <ele>434.17</ele>
                <time>2010-11-14T10:43:27.000Z</time>
                <name>Position 881</name>
            </trkpt>
            <trkpt lon="11.443588016554713" lat="49.35081702657044">
                <ele>436.58</ele>
                <time>2010-11-14T10:43:28.000Z</time>
                <name>Position 882</name>
            </trkpt>
            <trkpt lon="11.443664040416479" lat="49.35090000741184">
                <ele>438.5</ele>
                <time>2010-11-14T10:43:29.000Z</time>
                <name>Position 883</name>
            </trkpt>
            <trkpt lon="11.443691030144691" lat="49.35099396854639">
                <ele>440.42</ele>
                <time>2010-11-14T10:43:30.000Z</time>
                <name>Position 884</name>
            </trkpt>
            <trkpt lon="11.443676026538014" lat="49.35109899379313">
                <ele>441.86</ele>
                <time>2010-11-14T10:43:31.000Z</time>
                <name>Position 885</name>
            </trkpt>
            <trkpt lon="11.44364501349628" lat="49.35120200738311">
                <ele>443.79</ele>
                <time>2010-11-14T10:43:32.000Z</time>
                <name>Position 886</name>
            </trkpt>
            <trkpt lon="11.443606037646532" lat="49.35129999183118">
                <ele>445.23</ele>
                <time>2010-11-14T10:43:33.000Z</time>
                <name>Position 887</name>
            </trkpt>
            <trkpt lon="11.443491959944367" lat="49.3515220284462">
                <ele>450.52</ele>
                <time>2010-11-14T10:43:36.000Z</time>
                <name>Position 888</name>
            </trkpt>
            <trkpt lon="11.443510986864567" lat="49.35159201733768">
                <ele>452.44</ele>
                <time>2010-11-14T10:43:37.000Z</time>
                <name>Position 889</name>
            </trkpt>
            <trkpt lon="11.443567983806133" lat="49.35165102593601">
                <ele>453.88</ele>
                <time>2010-11-14T10:43:38.000Z</time>
                <name>Position 890</name>
            </trkpt>
            <trkpt lon="11.443674014881253" lat="49.35167499817908">
                <ele>453.88</ele>
                <time>2010-11-14T10:43:39.000Z</time>
                <name>Position 891</name>
            </trkpt>
            <trkpt lon="11.44379798322916" lat="49.35168002732098">
                <ele>455.32</ele>
                <time>2010-11-14T10:43:40.000Z</time>
                <name>Position 892</name>
            </trkpt>
            <trkpt lon="11.443951958790421" lat="49.3516739923507">
                <ele>456.76</ele>
                <time>2010-11-14T10:43:41.000Z</time>
                <name>Position 893</name>
            </trkpt>
            <trkpt lon="11.44435596652329" lat="49.35166200622916">
                <ele>462.05</ele>
                <time>2010-11-14T10:43:44.000Z</time>
                <name>Position 894</name>
            </trkpt>
            <trkpt lon="11.444449005648494" lat="49.35166401788592">
                <ele>463.49</ele>
                <time>2010-11-14T10:43:45.000Z</time>
                <name>Position 895</name>
            </trkpt>
            <trkpt lon="11.44452997483313" lat="49.351670974865556">
                <ele>464.93</ele>
                <time>2010-11-14T10:43:46.000Z</time>
                <name>Position 896</name>
            </trkpt>
            <trkpt lon="11.444562999531627" lat="49.35169503092766">
                <ele>466.38</ele>
                <time>2010-11-14T10:43:47.000Z</time>
                <name>Position 897</name>
            </trkpt>
            <trkpt lon="11.444543972611427" lat="49.35172000899911">
                <ele>467.82</ele>
                <time>2010-11-14T10:43:48.000Z</time>
                <name>Position 898</name>
            </trkpt>
            <trkpt lon="11.444510025903583" lat="49.351757979020476">
                <ele>468.78</ele>
                <time>2010-11-14T10:43:49.000Z</time>
                <name>Position 899</name>
            </trkpt>
            <trkpt lon="11.444452023133636" lat="49.35181003063917">
                <ele>470.22</ele>
                <time>2010-11-14T10:43:50.000Z</time>
                <name>Position 900</name>
            </trkpt>
            <trkpt lon="11.444220012053847" lat="49.352144971489906">
                <ele>474.55</ele>
                <time>2010-11-14T10:43:54.000Z</time>
                <name>Position 901</name>
            </trkpt>
            <trkpt lon="11.444218000397086" lat="49.35221403837204">
                <ele>475.99</ele>
                <time>2010-11-14T10:43:55.000Z</time>
                <name>Position 902</name>
            </trkpt>
            <trkpt lon="11.444254964590073" lat="49.352268017828465">
                <ele>476.95</ele>
                <time>2010-11-14T10:43:56.000Z</time>
                <name>Position 903</name>
            </trkpt>
            <trkpt lon="11.444330988451838" lat="49.35231504030526">
                <ele>478.39</ele>
                <time>2010-11-14T10:43:57.000Z</time>
                <name>Position 904</name>
            </trkpt>
            <trkpt lon="11.444429978728294" lat="49.35235099866986">
                <ele>479.35</ele>
                <time>2010-11-14T10:43:58.000Z</time>
                <name>Position 905</name>
            </trkpt>
            <trkpt lon="11.444553025066853" lat="49.35237002559006">
                <ele>479.84</ele>
                <time>2010-11-14T10:43:59.000Z</time>
                <name>Position 906</name>
            </trkpt>
            <trkpt lon="11.444683028385043" lat="49.352375976741314">
                <ele>480.8</ele>
                <time>2010-11-14T10:44:00.000Z</time>
                <name>Position 907</name>
            </trkpt>
            <trkpt lon="11.444837003946304" lat="49.35238100588322">
                <ele>481.28</ele>
                <time>2010-11-14T10:44:01.000Z</time>
                <name>Position 908</name>
            </trkpt>
            <trkpt lon="11.445140009745955" lat="49.352402966469526">
                <ele>481.76</ele>
                <time>2010-11-14T10:44:03.000Z</time>
                <name>Position 909</name>
            </trkpt>
            <trkpt lon="11.445298008620739" lat="49.35242802836001">
                <ele>481.76</ele>
                <time>2010-11-14T10:44:04.000Z</time>
                <name>Position 910</name>
            </trkpt>
            <trkpt lon="11.445744009688497" lat="49.352547973394394">
                <ele>479.35</ele>
                <time>2010-11-14T10:44:07.000Z</time>
                <name>Position 911</name>
            </trkpt>
            <trkpt lon="11.446784036234021" lat="49.35301199555397">
                <ele>474.55</ele>
                <time>2010-11-14T10:44:15.000Z</time>
                <name>Position 912</name>
            </trkpt>
            <trkpt lon="11.447227019816637" lat="49.353234032168984">
                <ele>470.7</ele>
                <time>2010-11-14T10:44:19.000Z</time>
                <name>Position 913</name>
            </trkpt>
            <trkpt lon="11.447627004235983" lat="49.35358598828316">
                <ele>471.18</ele>
                <time>2010-11-14T10:44:23.000Z</time>
                <name>Position 914</name>
            </trkpt>
            <trkpt lon="11.447691963985562" lat="49.353690007701516">
                <ele>471.18</ele>
                <time>2010-11-14T10:44:24.000Z</time>
                <name>Position 915</name>
            </trkpt>
            <trkpt lon="11.4477280061692" lat="49.35380299575627">
                <ele>471.66</ele>
                <time>2010-11-14T10:44:25.000Z</time>
                <name>Position 916</name>
            </trkpt>
            <trkpt lon="11.447736974805593" lat="49.353926964104176">
                <ele>471.66</ele>
                <time>2010-11-14T10:44:26.000Z</time>
                <name>Position 917</name>
            </trkpt>
            <trkpt lon="11.447736974805593" lat="49.35404498130083">
                <ele>471.66</ele>
                <time>2010-11-14T10:44:27.000Z</time>
                <name>Position 918</name>
            </trkpt>
            <trkpt lon="11.447697998955846" lat="49.35447497293353">
                <ele>466.38</ele>
                <time>2010-11-14T10:44:31.000Z</time>
                <name>Position 919</name>
            </trkpt>
            <trkpt lon="11.447734963148832" lat="49.354569017887115">
                <ele>465.42</ele>
                <time>2010-11-14T10:44:32.000Z</time>
                <name>Position 920</name>
            </trkpt>
            <trkpt lon="11.447806963697076" lat="49.354654010385275">
                <ele>464.93</ele>
                <time>2010-11-14T10:44:33.000Z</time>
                <name>Position 921</name>
            </trkpt>
            <trkpt lon="11.447918023914099" lat="49.35472500510514">
                <ele>463.01</ele>
                <time>2010-11-14T10:44:34.000Z</time>
                <name>Position 922</name>
            </trkpt>
            <trkpt lon="11.448044003918767" lat="49.35478803701699">
                <ele>462.05</ele>
                <time>2010-11-14T10:44:35.000Z</time>
                <name>Position 923</name>
            </trkpt>
            <trkpt lon="11.448194961994886" lat="49.35483899898827">
                <ele>460.61</ele>
                <time>2010-11-14T10:44:36.000Z</time>
                <name>Position 924</name>
            </trkpt>
            <trkpt lon="11.448375005275011" lat="49.354890966787934">
                <ele>459.65</ele>
                <time>2010-11-14T10:44:37.000Z</time>
                <name>Position 925</name>
            </trkpt>
            <trkpt lon="11.449992964044213" lat="49.35539396479726">
                <ele>450.03</ele>
                <time>2010-11-14T10:44:44.000Z</time>
                <name>Position 926</name>
            </trkpt>
            <trkpt lon="11.450840961188078" lat="49.355664029717445">
                <ele>446.19</ele>
                <time>2010-11-14T10:44:49.000Z</time>
                <name>Position 927</name>
            </trkpt>
            <trkpt lon="11.45095000974834" lat="49.35573401860893">
                <ele>445.71</ele>
                <time>2010-11-14T10:44:50.000Z</time>
                <name>Position 928</name>
            </trkpt>
            <trkpt lon="11.451028967276216" lat="49.35582102276385">
                <ele>445.23</ele>
                <time>2010-11-14T10:44:51.000Z</time>
                <name>Position 929</name>
            </trkpt>
            <trkpt lon="11.451073978096247" lat="49.35590500943363">
                <ele>444.75</ele>
                <time>2010-11-14T10:44:52.000Z</time>
                <name>Position 930</name>
            </trkpt>
            <trkpt lon="11.451094010844827" lat="49.35599997639656">
                <ele>443.79</ele>
                <time>2010-11-14T10:44:53.000Z</time>
                <name>Position 931</name>
            </trkpt>
            <trkpt lon="11.451002983376384" lat="49.35615001246333">
                <ele>443.79</ele>
                <time>2010-11-14T10:44:54.000Z</time>
                <name>Position 932</name>
            </trkpt>
            <trkpt lon="11.450941041111946" lat="49.35629803687334">
                <ele>443.31</ele>
                <time>2010-11-14T10:44:55.000Z</time>
                <name>Position 933</name>
            </trkpt>
            <trkpt lon="11.450856970623136" lat="49.35644497163594">
                <ele>442.82</ele>
                <time>2010-11-14T10:44:56.000Z</time>
                <name>Position 934</name>
            </trkpt>
            <trkpt lon="11.450756974518299" lat="49.35659400187433">
                <ele>442.34</ele>
                <time>2010-11-14T10:44:57.000Z</time>
                <name>Position 935</name>
            </trkpt>
            <trkpt lon="11.450449023395777" lat="49.35760502703488">
                <ele>434.17</ele>
                <time>2010-11-14T10:45:03.000Z</time>
                <name>Position 936</name>
            </trkpt>
            <trkpt lon="11.45041398704052" lat="49.357881965115666">
                <ele>431.77</ele>
                <time>2010-11-14T10:45:05.000Z</time>
                <name>Position 937</name>
            </trkpt>
            <trkpt lon="11.450442988425493" lat="49.35800199396908">
                <ele>430.81</ele>
                <time>2010-11-14T10:45:06.000Z</time>
                <name>Position 938</name>
            </trkpt>
            <trkpt lon="11.450527980923653" lat="49.35811799950898">
                <ele>429.85</ele>
                <time>2010-11-14T10:45:07.000Z</time>
                <name>Position 939</name>
            </trkpt>
            <trkpt lon="11.450669970363379" lat="49.3582409620285">
                <ele>428.89</ele>
                <time>2010-11-14T10:45:08.000Z</time>
                <name>Position 940</name>
            </trkpt>
            <trkpt lon="11.450831992551684" lat="49.35838001780212">
                <ele>427.44</ele>
                <time>2010-11-14T10:45:09.000Z</time>
                <name>Position 941</name>
            </trkpt>
            <trkpt lon="11.450988985598087" lat="49.358543967828155">
                <ele>426.48</ele>
                <time>2010-11-14T10:45:10.000Z</time>
                <name>Position 942</name>
            </trkpt>
            <trkpt lon="11.45112401805818" lat="49.35873197391629">
                <ele>424.56</ele>
                <time>2010-11-14T10:45:11.000Z</time>
                <name>Position 943</name>
            </trkpt>
            <trkpt lon="11.451223008334637" lat="49.358927020803094">
                <ele>423.6</ele>
                <time>2010-11-14T10:45:12.000Z</time>
                <name>Position 944</name>
            </trkpt>
            <trkpt lon="11.451278999447823" lat="49.35911402106285">
                <ele>422.64</ele>
                <time>2010-11-14T10:45:13.000Z</time>
                <name>Position 945</name>
            </trkpt>
            <trkpt lon="11.451309006661177" lat="49.3593049608171">
                <ele>421.68</ele>
                <time>2010-11-14T10:45:14.000Z</time>
                <name>Position 946</name>
            </trkpt>
            <trkpt lon="11.45133800804615" lat="49.35949799604714">
                <ele>420.23</ele>
                <time>2010-11-14T10:45:15.000Z</time>
                <name>Position 947</name>
            </trkpt>
            <trkpt lon="11.45165802910924" lat="49.36049200594425">
                <ele>413.02</ele>
                <time>2010-11-14T10:45:21.000Z</time>
                <name>Position 948</name>
            </trkpt>
            <trkpt lon="11.451905965805054" lat="49.36086902394891">
                <ele>413.02</ele>
                <time>2010-11-14T10:45:24.000Z</time>
                <name>Position 949</name>
            </trkpt>
            <trkpt lon="11.452324977144599" lat="49.36162599362433">
                <ele>412.54</ele>
                <time>2010-11-14T10:45:32.000Z</time>
                <name>Position 950</name>
            </trkpt>
            <trkpt lon="11.452360013499856" lat="49.361721966415644">
                <ele>412.06</ele>
                <time>2010-11-14T10:45:37.000Z</time>
                <name>Position 951</name>
            </trkpt>
            <trkpt lon="11.452361019328237" lat="49.36171601526439">
                <ele>411.58</ele>
                <time>2010-11-14T10:45:54.000Z</time>
                <name>Position 952</name>
            </trkpt>
            <trkpt lon="11.452397983521223" lat="49.36173495836556">
                <ele>411.58</ele>
                <time>2010-11-14T10:45:55.000Z</time>
                <name>Position 953</name>
            </trkpt>
            <trkpt lon="11.452471995726228" lat="49.3617570027709">
                <ele>412.06</ele>
                <time>2010-11-14T10:45:56.000Z</time>
                <name>Position 954</name>
            </trkpt>
            <trkpt lon="11.452574003487825" lat="49.36177502386272">
                <ele>412.06</ele>
                <time>2010-11-14T10:45:57.000Z</time>
                <name>Position 955</name>
            </trkpt>
            <trkpt lon="11.452686991542578" lat="49.361789021641016">
                <ele>412.06</ele>
                <time>2010-11-14T10:45:58.000Z</time>
                <name>Position 956</name>
            </trkpt>
            <trkpt lon="11.45436898805201" lat="49.36207903549075">
                <ele>414.47</ele>
                <time>2010-11-14T10:46:11.000Z</time>
                <name>Position 957</name>
            </trkpt>
            <trkpt lon="11.45587102510035" lat="49.36254498548806">
                <ele>415.91</ele>
                <time>2010-11-14T10:46:23.000Z</time>
                <name>Position 958</name>
            </trkpt>
            <trkpt lon="11.457329979166389" lat="49.3628569599241">
                <ele>421.68</ele>
                <time>2010-11-14T10:46:34.000Z</time>
                <name>Position 959</name>
            </trkpt>
            <trkpt lon="11.45761001855135" lat="49.362925020977855">
                <ele>423.6</ele>
                <time>2010-11-14T10:46:36.000Z</time>
                <name>Position 960</name>
            </trkpt>
            <trkpt lon="11.45774396136403" lat="49.36296097934246">
                <ele>425.04</ele>
                <time>2010-11-14T10:46:37.000Z</time>
                <name>Position 961</name>
            </trkpt>
            <trkpt lon="11.458012014627457" lat="49.36300498433411">
                <ele>426.48</ele>
                <time>2010-11-14T10:46:39.000Z</time>
                <name>Position 962</name>
            </trkpt>
            <trkpt lon="11.458543008193374" lat="49.36306499876082">
                <ele>427.92</ele>
                <time>2010-11-14T10:46:43.000Z</time>
                <name>Position 963</name>
            </trkpt>
            <trkpt lon="11.458957996219397" lat="49.363097017630935">
                <ele>429.85</ele>
                <time>2010-11-14T10:46:46.000Z</time>
                <name>Position 964</name>
            </trkpt>
            <trkpt lon="11.4590959623456" lat="49.36312702484429">
                <ele>430.81</ele>
                <time>2010-11-14T10:46:47.000Z</time>
                <name>Position 965</name>
            </trkpt>
            <trkpt lon="11.459238035604358" lat="49.36317496933043">
                <ele>431.29</ele>
                <time>2010-11-14T10:46:48.000Z</time>
                <name>Position 966</name>
            </trkpt>
            <trkpt lon="11.45971898920834" lat="49.363314025104046">
                <ele>432.73</ele>
                <time>2010-11-14T10:46:51.000Z</time>
                <name>Position 967</name>
            </trkpt>
            <trkpt lon="11.460629012435675" lat="49.36345500871539">
                <ele>431.29</ele>
                <time>2010-11-14T10:46:59.000Z</time>
                <name>Position 968</name>
            </trkpt>
            <trkpt lon="11.46070696413517" lat="49.36347302980721">
                <ele>429.85</ele>
                <time>2010-11-14T10:47:00.000Z</time>
                <name>Position 969</name>
            </trkpt>
            <trkpt lon="11.460775025188923" lat="49.36351301148534">
                <ele>429.85</ele>
                <time>2010-11-14T10:47:01.000Z</time>
                <name>Position 970</name>
            </trkpt>
            <trkpt lon="11.460827998816967" lat="49.36356196179986">
                <ele>429.85</ele>
                <time>2010-11-14T10:47:02.000Z</time>
                <name>Position 971</name>
            </trkpt>
            <trkpt lon="11.46109496243298" lat="49.36375600285828">
                <ele>430.81</ele>
                <time>2010-11-14T10:47:05.000Z</time>
                <name>Position 972</name>
            </trkpt>
            <trkpt lon="11.461631990969181" lat="49.364064959809184">
                <ele>434.65</ele>
                <time>2010-11-14T10:47:09.000Z</time>
                <name>Position 973</name>
            </trkpt>
            <trkpt lon="11.461793007329106" lat="49.364127991721034">
                <ele>436.1</ele>
                <time>2010-11-14T10:47:10.000Z</time>
                <name>Position 974</name>
            </trkpt>
            <trkpt lon="11.461982019245625" lat="49.36418297700584">
                <ele>437.54</ele>
                <time>2010-11-14T10:47:11.000Z</time>
                <name>Position 975</name>
            </trkpt>
            <trkpt lon="11.462871003895998" lat="49.36446796171367">
                <ele>444.75</ele>
                <time>2010-11-14T10:47:15.000Z</time>
                <name>Position 976</name>
            </trkpt>
            <trkpt lon="11.463081976398826" lat="49.364578016102314">
                <ele>447.15</ele>
                <time>2010-11-14T10:47:16.000Z</time>
                <name>Position 977</name>
            </trkpt>
            <trkpt lon="11.46328398026526" lat="49.36470500193536">
                <ele>449.07</ele>
                <time>2010-11-14T10:47:17.000Z</time>
                <name>Position 978</name>
            </trkpt>
            <trkpt lon="11.46347500383854" lat="49.36486400663853">
                <ele>451.48</ele>
                <time>2010-11-14T10:47:18.000Z</time>
                <name>Position 979</name>
            </trkpt>
            <trkpt lon="11.463645994663239" lat="49.365034997463226">
                <ele>453.4</ele>
                <time>2010-11-14T10:47:19.000Z</time>
                <name>Position 980</name>
            </trkpt>
            <trkpt lon="11.46380097605288" lat="49.365206994116306">
                <ele>455.8</ele>
                <time>2010-11-14T10:47:20.000Z</time>
                <name>Position 981</name>
            </trkpt>
            <trkpt lon="11.46414203569293" lat="49.36551896855235">
                <ele>460.13</ele>
                <time>2010-11-14T10:47:22.000Z</time>
                <name>Position 982</name>
            </trkpt>
            <trkpt lon="11.464349990710616" lat="49.365655006840825">
                <ele>462.05</ele>
                <time>2010-11-14T10:47:23.000Z</time>
                <name>Position 983</name>
            </trkpt>
            <trkpt lon="11.464585019275546" lat="49.36577696353197">
                <ele>464.45</ele>
                <time>2010-11-14T10:47:24.000Z</time>
                <name>Position 984</name>
            </trkpt>
            <trkpt lon="11.464842008426785" lat="49.36588400043547">
                <ele>466.38</ele>
                <time>2010-11-14T10:47:25.000Z</time>
                <name>Position 985</name>
            </trkpt>
            <trkpt lon="11.465119030326605" lat="49.365976033732295">
                <ele>468.78</ele>
                <time>2010-11-14T10:47:26.000Z</time>
                <name>Position 986</name>
            </trkpt>
            <trkpt lon="11.465406026691198" lat="49.36605499126017">
                <ele>471.18</ele>
                <time>2010-11-14T10:47:27.000Z</time>
                <name>Position 987</name>
            </trkpt>
            <trkpt lon="11.467380970716476" lat="49.366557989269495">
                <ele>488.49</ele>
                <time>2010-11-14T10:47:34.000Z</time>
                <name>Position 988</name>
            </trkpt>
            <trkpt lon="11.468213964253664" lat="49.36688899062574">
                <ele>495.7</ele>
                <time>2010-11-14T10:47:38.000Z</time>
                <name>Position 989</name>
            </trkpt>
            <trkpt lon="11.468365006148815" lat="49.366985969245434">
                <ele>497.14</ele>
                <time>2010-11-14T10:47:39.000Z</time>
                <name>Position 990</name>
            </trkpt>
            <trkpt lon="11.468495009467006" lat="49.36710901558399">
                <ele>498.58</ele>
                <time>2010-11-14T10:47:40.000Z</time>
                <name>Position 991</name>
            </trkpt>
            <trkpt lon="11.468615960329771" lat="49.36724295839667">
                <ele>499.54</ele>
                <time>2010-11-14T10:47:41.000Z</time>
                <name>Position 992</name>
            </trkpt>
            <trkpt lon="11.468706987798214" lat="49.367413027212024">
                <ele>500.98</ele>
                <time>2010-11-14T10:47:42.000Z</time>
                <name>Position 993</name>
            </trkpt>
            <trkpt lon="11.468793991953135" lat="49.36758401803672">
                <ele>502.43</ele>
                <time>2010-11-14T10:47:43.000Z</time>
                <name>Position 994</name>
            </trkpt>
            <trkpt lon="11.469316016882658" lat="49.3682829849422">
                <ele>509.16</ele>
                <time>2010-11-14T10:47:47.000Z</time>
                <name>Position 995</name>
            </trkpt>
            <trkpt lon="11.46951299160719" lat="49.368447018787265">
                <ele>511.08</ele>
                <time>2010-11-14T10:47:48.000Z</time>
                <name>Position 996</name>
            </trkpt>
            <trkpt lon="11.470971023663878" lat="49.369440022856">
                <ele>526.46</ele>
                <time>2010-11-14T10:47:55.000Z</time>
                <name>Position 997</name>
            </trkpt>
            <trkpt lon="11.471205968409777" lat="49.36953800730407">
                <ele>529.34</ele>
                <time>2010-11-14T10:47:56.000Z</time>
                <name>Position 998</name>
            </trkpt>
            <trkpt lon="11.471465975046158" lat="49.369607996195555">
                <ele>532.23</ele>
                <time>2010-11-14T10:47:57.000Z</time>
                <name>Position 999</name>
            </trkpt>
            <trkpt lon="11.4717279933393" lat="49.369672033935785">
                <ele>534.15</ele>
                <time>2010-11-14T10:47:58.000Z</time>
                <name>Position 1000</name>
            </trkpt>
            <trkpt lon="11.471978025510907" lat="49.36972802504897">
                <ele>536.55</ele>
                <time>2010-11-14T10:47:59.000Z</time>
                <name>Position 1001</name>
            </trkpt>
            <trkpt lon="11.472382033243775" lat="49.369803965091705">
                <ele>537.99</ele>
                <time>2010-11-14T10:48:01.000Z</time>
                <name>Position 1002</name>
            </trkpt>
            <trkpt lon="11.47252201102674" lat="49.36985501088202">
                <ele>538.48</ele>
                <time>2010-11-14T10:48:02.000Z</time>
                <name>Position 1003</name>
            </trkpt>
            <trkpt lon="11.472627958282828" lat="49.36992097645998">
                <ele>539.92</ele>
                <time>2010-11-14T10:48:03.000Z</time>
                <name>Position 1004</name>
            </trkpt>
            <trkpt lon="11.472685039043427" lat="49.37000404112041">
                <ele>540.88</ele>
                <time>2010-11-14T10:48:04.000Z</time>
                <name>Position 1005</name>
            </trkpt>
            <trkpt lon="11.472706999629736" lat="49.370105965062976">
                <ele>542.32</ele>
                <time>2010-11-14T10:48:05.000Z</time>
                <name>Position 1006</name>
            </trkpt>
            <trkpt lon="11.472702976316214" lat="49.37021501362324">
                <ele>542.8</ele>
                <time>2010-11-14T10:48:06.000Z</time>
                <name>Position 1007</name>
            </trkpt>
            <trkpt lon="11.47269300185144" lat="49.370341999456286">
                <ele>543.76</ele>
                <time>2010-11-14T10:48:07.000Z</time>
                <name>Position 1008</name>
            </trkpt>
            <trkpt lon="11.472632987424731" lat="49.370894031599164">
                <ele>548.57</ele>
                <time>2010-11-14T10:48:12.000Z</time>
                <name>Position 1009</name>
            </trkpt>
            <trkpt lon="11.472599040716887" lat="49.370964020490646">
                <ele>549.53</ele>
                <time>2010-11-14T10:48:13.000Z</time>
                <name>Position 1010</name>
            </trkpt>
            <trkpt lon="11.472551012411714" lat="49.37103099189699">
                <ele>549.05</ele>
                <time>2010-11-14T10:48:14.000Z</time>
                <name>Position 1011</name>
            </trkpt>
            <trkpt lon="11.472473982721567" lat="49.37108103185892">
                <ele>549.05</ele>
                <time>2010-11-14T10:48:15.000Z</time>
                <name>Position 1012</name>
            </trkpt>
            <trkpt lon="11.472380021587014" lat="49.37112302519381">
                <ele>549.05</ele>
                <time>2010-11-14T10:48:16.000Z</time>
                <name>Position 1013</name>
            </trkpt>
            <trkpt lon="11.47228698246181" lat="49.3711650185287">
                <ele>549.05</ele>
                <time>2010-11-14T10:48:17.000Z</time>
                <name>Position 1014</name>
            </trkpt>
            <trkpt lon="11.472081961110234" lat="49.37124598771334">
                <ele>549.05</ele>
                <time>2010-11-14T10:48:19.000Z</time>
                <name>Position 1015</name>
            </trkpt>
            <trkpt lon="11.471968973055482" lat="49.37125998549163">
                <ele>549.05</ele>
                <time>2010-11-14T10:48:20.000Z</time>
                <name>Position 1016</name>
            </trkpt>
            <trkpt lon="11.471849028021097" lat="49.37125202268362">
                <ele>549.05</ele>
                <time>2010-11-14T10:48:21.000Z</time>
                <name>Position 1017</name>
            </trkpt>
            <trkpt lon="11.471410989761353" lat="49.37120902352035">
                <ele>548.57</ele>
                <time>2010-11-14T10:48:25.000Z</time>
                <name>Position 1018</name>
            </trkpt>
            <trkpt lon="11.471351981163025" lat="49.37122503295541">
                <ele>548.57</ele>
                <time>2010-11-14T10:48:26.000Z</time>
                <name>Position 1019</name>
            </trkpt>
            <trkpt lon="11.471305964514613" lat="49.37125202268362">
                <ele>549.05</ele>
                <time>2010-11-14T10:48:27.000Z</time>
                <name>Position 1020</name>
            </trkpt>
            <trkpt lon="11.47127503529191" lat="49.37128898687661">
                <ele>549.05</ele>
                <time>2010-11-14T10:48:28.000Z</time>
                <name>Position 1021</name>
            </trkpt>
            <trkpt lon="11.471251985058188" lat="49.37134003266692">
                <ele>548.57</ele>
                <time>2010-11-14T10:48:29.000Z</time>
                <name>Position 1022</name>
            </trkpt>
            <trkpt lon="11.471229018643498" lat="49.37140599824488">
                <ele>548.57</ele>
                <time>2010-11-14T10:48:30.000Z</time>
                <name>Position 1023</name>
            </trkpt>
            <trkpt lon="11.47121200338006" lat="49.37149400822818">
                <ele>549.05</ele>
                <time>2010-11-14T10:48:31.000Z</time>
                <name>Position 1024</name>
            </trkpt>
            <trkpt lon="11.471052998676896" lat="49.37228802591562">
                <ele>548.09</ele>
                <time>2010-11-14T10:48:36.000Z</time>
                <name>Position 1025</name>
            </trkpt>
            <trkpt lon="11.470702970400453" lat="49.37390003353357">
                <ele>552.41</ele>
                <time>2010-11-14T10:48:44.000Z</time>
                <name>Position 1026</name>
            </trkpt>
            <trkpt lon="11.470472970977426" lat="49.37471500597894">
                <ele>557.22</ele>
                <time>2010-11-14T10:48:50.000Z</time>
                <name>Position 1027</name>
            </trkpt>
            <trkpt lon="11.470386972650886" lat="49.37479102984071">
                <ele>557.7</ele>
                <time>2010-11-14T10:48:51.000Z</time>
                <name>Position 1028</name>
            </trkpt>
            <trkpt lon="11.4702670276165" lat="49.37484299764037">
                <ele>558.66</ele>
                <time>2010-11-14T10:48:52.000Z</time>
                <name>Position 1029</name>
            </trkpt>
            <trkpt lon="11.470121014863253" lat="49.37488197349012">
                <ele>559.62</ele>
                <time>2010-11-14T10:48:53.000Z</time>
                <name>Position 1030</name>
            </trkpt>
            <trkpt lon="11.469953041523695" lat="49.3749070353806">
                <ele>560.59</ele>
                <time>2010-11-14T10:48:54.000Z</time>
                <name>Position 1031</name>
            </trkpt>
            <trkpt lon="11.469766041263938" lat="49.3749210331589">
                <ele>561.55</ele>
                <time>2010-11-14T10:48:55.000Z</time>
                <name>Position 1032</name>
            </trkpt>
            <trkpt lon="11.469566971063614" lat="49.37491801567376">
                <ele>562.99</ele>
                <time>2010-11-14T10:48:56.000Z</time>
                <name>Position 1033</name>
            </trkpt>
            <trkpt lon="11.469358010217547" lat="49.374895971268415">
                <ele>563.47</ele>
                <time>2010-11-14T10:48:57.000Z</time>
                <name>Position 1034</name>
            </trkpt>
            <trkpt lon="11.469139996916056" lat="49.37486303038895">
                <ele>564.91</ele>
                <time>2010-11-14T10:48:58.000Z</time>
                <name>Position 1035</name>
            </trkpt>
            <trkpt lon="11.46824799478054" lat="49.37466697767377">
                <ele>568.28</ele>
                <time>2010-11-14T10:49:03.000Z</time>
                <name>Position 1036</name>
            </trkpt>
            <trkpt lon="11.468128971755505" lat="49.37466102652252">
                <ele>568.76</ele>
                <time>2010-11-14T10:49:04.000Z</time>
                <name>Position 1037</name>
            </trkpt>
            <trkpt lon="11.468034004792571" lat="49.37466798350215">
                <ele>568.76</ele>
                <time>2010-11-14T10:49:05.000Z</time>
                <name>Position 1038</name>
            </trkpt>
            <trkpt lon="11.467956975102425" lat="49.37468701042235">
                <ele>569.24</ele>
                <time>2010-11-14T10:49:06.000Z</time>
                <name>Position 1039</name>
            </trkpt>
            <trkpt lon="11.467888997867703" lat="49.37470796518028">
                <ele>569.24</ele>
                <time>2010-11-14T10:49:07.000Z</time>
                <name>Position 1040</name>
            </trkpt>
            <trkpt lon="11.467824038118124" lat="49.37471400015056">
                <ele>569.72</ele>
                <time>2010-11-14T10:49:08.000Z</time>
                <name>Position 1041</name>
            </trkpt>
            <trkpt lon="11.467780033126473" lat="49.37469597905874">
                <ele>569.72</ele>
                <time>2010-11-14T10:49:09.000Z</time>
                <name>Position 1042</name>
            </trkpt>
            <trkpt lon="11.467767041176558" lat="49.37466102652252">
                <ele>570.2</ele>
                <time>2010-11-14T10:49:10.000Z</time>
                <name>Position 1043</name>
            </trkpt>
            <trkpt lon="11.467856978997588" lat="49.37460503540933">
                <ele>570.2</ele>
                <time>2010-11-14T10:49:12.000Z</time>
                <name>Position 1044</name>
            </trkpt>
            <trkpt lon="11.467943983152509" lat="49.37459698878229">
                <ele>570.2</ele>
                <time>2010-11-14T10:49:13.000Z</time>
                <name>Position 1045</name>
            </trkpt>
            <trkpt lon="11.468044985085726" lat="49.37459900043905">
                <ele>570.2</ele>
                <time>2010-11-14T10:49:14.000Z</time>
                <name>Position 1046</name>
            </trkpt>
            <trkpt lon="11.468161996454" lat="49.374614004045725">
                <ele>569.72</ele>
                <time>2010-11-14T10:49:15.000Z</time>
                <name>Position 1047</name>
            </trkpt>
            <trkpt lon="11.468312032520771" lat="49.3746430054307">
                <ele>569.72</ele>
                <time>2010-11-14T10:49:16.000Z</time>
                <name>Position 1048</name>
            </trkpt>
            <trkpt lon="11.468496015295386" lat="49.37468600459397">
                <ele>569.24</ele>
                <time>2010-11-14T10:49:17.000Z</time>
                <name>Position 1049</name>
            </trkpt>
            <trkpt lon="11.469822032377124" lat="49.37486596405506">
                <ele>563.47</ele>
                <time>2010-11-14T10:49:24.000Z</time>
                <name>Position 1050</name>
            </trkpt>
            <trkpt lon="11.469957986846566" lat="49.374850038439035">
                <ele>562.99</ele>
                <time>2010-11-14T10:49:25.000Z</time>
                <name>Position 1051</name>
            </trkpt>
            <trkpt lon="11.470082039013505" lat="49.374827994033694">
                <ele>562.03</ele>
                <time>2010-11-14T10:49:26.000Z</time>
                <name>Position 1052</name>
            </trkpt>
            <trkpt lon="11.47018102928996" lat="49.37480301596224">
                <ele>561.55</ele>
                <time>2010-11-14T10:49:27.000Z</time>
                <name>Position 1053</name>
            </trkpt>
            <trkpt lon="11.470258980989456" lat="49.374783989042044">
                <ele>561.07</ele>
                <time>2010-11-14T10:49:28.000Z</time>
                <name>Position 1054</name>
            </trkpt>
            <trkpt lon="11.470323018729687" lat="49.37478197738528">
                <ele>561.07</ele>
                <time>2010-11-14T10:49:29.000Z</time>
                <name>Position 1055</name>
            </trkpt>
            <trkpt lon="11.470371969044209" lat="49.37479698099196">
                <ele>560.59</ele>
                <time>2010-11-14T10:49:30.000Z</time>
                <name>Position 1056</name>
            </trkpt>
            <trkpt lon="11.470401976257563" lat="49.37482296489179">
                <ele>560.59</ele>
                <time>2010-11-14T10:49:31.000Z</time>
                <name>Position 1057</name>
            </trkpt>
            <trkpt lon="11.470409017056227" lat="49.37485800124705">
                <ele>560.59</ele>
                <time>2010-11-14T10:49:32.000Z</time>
                <name>Position 1058</name>
            </trkpt>
            <trkpt lon="11.470397030934691" lat="49.37490804120898">
                <ele>561.55</ele>
                <time>2010-11-14T10:49:33.000Z</time>
                <name>Position 1059</name>
            </trkpt>
            <trkpt lon="11.470367023721337" lat="49.374980963766575">
                <ele>562.03</ele>
                <time>2010-11-14T10:49:34.000Z</time>
                <name>Position 1060</name>
            </trkpt>
            <trkpt lon="11.47004901431501" lat="49.37582300975919">
                <ele>564.43</ele>
                <time>2010-11-14T10:49:42.000Z</time>
                <name>Position 1061</name>
            </trkpt>
            <trkpt lon="11.469446020200849" lat="49.377410961315036">
                <ele>558.66</ele>
                <time>2010-11-14T10:49:57.000Z</time>
                <name>Position 1062</name>
            </trkpt>
            <trkpt lon="11.469315011054277" lat="49.3782970122993">
                <ele>555.78</ele>
                <time>2010-11-14T10:50:04.000Z</time>
                <name>Position 1063</name>
            </trkpt>
            <trkpt lon="11.46914896555245" lat="49.37976501882076">
                <ele>550.01</ele>
                <time>2010-11-14T10:50:11.000Z</time>
                <name>Position 1064</name>
            </trkpt>
            <trkpt lon="11.468947967514396" lat="49.3816090375185">
                <ele>542.8</ele>
                <time>2010-11-14T10:50:21.000Z</time>
                <name>Position 1065</name>
            </trkpt>
            <trkpt lon="11.468810001388192" lat="49.38285802491009">
                <ele>543.28</ele>
                <time>2010-11-14T10:50:31.000Z</time>
                <name>Position 1066</name>
            </trkpt>
            <trkpt lon="11.468715034425259" lat="49.38366604037583">
                <ele>536.07</ele>
                <time>2010-11-14T10:50:40.000Z</time>
                <name>Position 1067</name>
            </trkpt>
            <trkpt lon="11.46867597475648" lat="49.38372898846865">
                <ele>535.11</ele>
                <time>2010-11-14T10:50:41.000Z</time>
                <name>Position 1068</name>
            </trkpt>
            <trkpt lon="11.46861202083528" lat="49.38378104008734">
                <ele>534.63</ele>
                <time>2010-11-14T10:50:42.000Z</time>
                <name>Position 1069</name>
            </trkpt>
            <trkpt lon="11.468433989211917" lat="49.38386997207999">
                <ele>534.15</ele>
                <time>2010-11-14T10:50:44.000Z</time>
                <name>Position 1070</name>
            </trkpt>
            <trkpt lon="11.468327958136797" lat="49.383896039798856">
                <ele>533.67</ele>
                <time>2010-11-14T10:50:45.000Z</time>
                <name>Position 1071</name>
            </trkpt>
            <trkpt lon="11.468194015324116" lat="49.383919006213546">
                <ele>533.67</ele>
                <time>2010-11-14T10:50:46.000Z</time>
                <name>Position 1072</name>
            </trkpt>
            <trkpt lon="11.468036016449332" lat="49.383938033133745">
                <ele>533.19</ele>
                <time>2010-11-14T10:50:47.000Z</time>
                <name>Position 1073</name>
            </trkpt>
            <trkpt lon="11.467842981219292" lat="49.38396602869034">
                <ele>533.19</ele>
                <time>2010-11-14T10:50:48.000Z</time>
                <name>Position 1074</name>
            </trkpt>
            <trkpt lon="11.467634020373225" lat="49.38399603590369">
                <ele>532.71</ele>
                <time>2010-11-14T10:50:49.000Z</time>
                <name>Position 1075</name>
            </trkpt>
            <trkpt lon="11.467433022335172" lat="49.38401799649">
                <ele>531.75</ele>
                <time>2010-11-14T10:50:50.000Z</time>
                <name>Position 1076</name>
            </trkpt>
            <trkpt lon="11.465736022219062" lat="49.38422301784158">
                <ele>524.54</ele>
                <time>2010-11-14T10:50:59.000Z</time>
                <name>Position 1077</name>
            </trkpt>
            <trkpt lon="11.464721979573369" lat="49.384305998682976">
                <ele>518.77</ele>
                <time>2010-11-14T10:51:05.000Z</time>
                <name>Position 1078</name>
            </trkpt>
            <trkpt lon="11.463544992730021" lat="49.384151017293334">
                <ele>508.19</ele>
                <time>2010-11-14T10:51:12.000Z</time>
                <name>Position 1079</name>
            </trkpt>
            <trkpt lon="11.463442984968424" lat="49.38412201590836">
                <ele>505.31</ele>
                <time>2010-11-14T10:51:13.000Z</time>
                <name>Position 1080</name>
            </trkpt>
            <trkpt lon="11.463360004127026" lat="49.38408396206796">
                <ele>503.87</ele>
                <time>2010-11-14T10:51:14.000Z</time>
                <name>Position 1081</name>
            </trkpt>
            <trkpt lon="11.46330300718546" lat="49.38403903506696">
                <ele>502.91</ele>
                <time>2010-11-14T10:51:15.000Z</time>
                <name>Position 1082</name>
            </trkpt>
            <trkpt lon="11.463237963616848" lat="49.38399301841855">
                <ele>502.43</ele>
                <time>2010-11-14T10:51:16.000Z</time>
                <name>Position 1083</name>
            </trkpt>
            <trkpt lon="11.463194964453578" lat="49.383919006213546">
                <ele>501.46</ele>
                <time>2010-11-14T10:51:17.000Z</time>
                <name>Position 1084</name>
            </trkpt>
            <trkpt lon="11.463165963068604" lat="49.383854968473315">
                <ele>500.5</ele>
                <time>2010-11-14T10:51:18.000Z</time>
                <name>Position 1085</name>
            </trkpt>
            <trkpt lon="11.463142996653914" lat="49.3837920203805">
                <ele>499.06</ele>
                <time>2010-11-14T10:51:19.000Z</time>
                <name>Position 1086</name>
            </trkpt>
            <trkpt lon="11.463165041059256" lat="49.38371599651873">
                <ele>497.14</ele>
                <time>2010-11-14T10:51:20.000Z</time>
                <name>Position 1087</name>
            </trkpt>
            <trkpt lon="11.463233018293977" lat="49.38342195935547">
                <ele>489.93</ele>
                <time>2010-11-14T10:51:23.000Z</time>
                <name>Position 1088</name>
            </trkpt>
            <trkpt lon="11.463376013562083" lat="49.38302298076451">
                <ele>482.24</ele>
                <time>2010-11-14T10:51:29.000Z</time>
                <name>Position 1089</name>
            </trkpt>
            <trkpt lon="11.463289009407163" lat="49.3830700032413">
                <ele>479.84</ele>
                <time>2010-11-14T10:51:31.000Z</time>
                <name>Position 1090</name>
            </trkpt>
            <trkpt lon="11.463216003030539" lat="49.38309799879789">
                <ele>478.87</ele>
                <time>2010-11-14T10:51:32.000Z</time>
                <name>Position 1091</name>
            </trkpt>
            <trkpt lon="11.463140984997153" lat="49.38313798047602">
                <ele>477.91</ele>
                <time>2010-11-14T10:51:33.000Z</time>
                <name>Position 1092</name>
            </trkpt>
            <trkpt lon="11.463060015812516" lat="49.38317796215415">
                <ele>476.95</ele>
                <time>2010-11-14T10:51:34.000Z</time>
                <name>Position 1093</name>
            </trkpt>
            <trkpt lon="11.46298198029399" lat="49.38317402265966">
                <ele>476.47</ele>
                <time>2010-11-14T10:51:35.000Z</time>
                <name>Position 1094</name>
            </trkpt>
            <trkpt lon="11.462620971724391" lat="49.38333202153444">
                <ele>470.22</ele>
                <time>2010-11-14T10:51:38.000Z</time>
                <name>Position 1095</name>
            </trkpt>
            <trkpt lon="11.46132797934115" lat="49.38381901010871">
                <ele>464.45</ele>
                <time>2010-11-14T10:51:48.000Z</time>
                <name>Position 1096</name>
            </trkpt>
            <trkpt lon="11.460128026083112" lat="49.38478301279247">
                <ele>451.0</ele>
                <time>2010-11-14T10:51:59.000Z</time>
                <name>Position 1097</name>
            </trkpt>
            <trkpt lon="11.460020989179611" lat="49.38487697392702">
                <ele>450.03</ele>
                <time>2010-11-14T10:52:00.000Z</time>
                <name>Position 1098</name>
            </trkpt>
            <trkpt lon="11.459898026660085" lat="49.384948974475265">
                <ele>449.55</ele>
                <time>2010-11-14T10:52:01.000Z</time>
                <name>Position 1099</name>
            </trkpt>
            <trkpt lon="11.459734998643398" lat="49.38501996919513">
                <ele>449.07</ele>
                <time>2010-11-14T10:52:02.000Z</time>
                <name>Position 1100</name>
            </trkpt>
            <trkpt lon="11.458673011511564" lat="49.38545297831297">
                <ele>449.07</ele>
                <time>2010-11-14T10:52:08.000Z</time>
                <name>Position 1101</name>
            </trkpt>
            <trkpt lon="11.458500009030104" lat="49.385486003011465">
                <ele>449.55</ele>
                <time>2010-11-14T10:52:09.000Z</time>
                <name>Position 1102</name>
            </trkpt>
            <trkpt lon="11.457751002162695" lat="49.38562899827957">
                <ele>450.52</ele>
                <time>2010-11-14T10:52:14.000Z</time>
                <name>Position 1103</name>
            </trkpt>
            <trkpt lon="11.457497030496597" lat="49.3855809699744">
                <ele>451.0</ele>
                <time>2010-11-14T10:52:16.000Z</time>
                <name>Position 1104</name>
            </trkpt>
            <trkpt lon="11.457382030785084" lat="49.38552497886121">
                <ele>451.0</ele>
                <time>2010-11-14T10:52:17.000Z</time>
                <name>Position 1105</name>
            </trkpt>
            <trkpt lon="11.456791022792459" lat="49.38517101109028">
                <ele>451.48</ele>
                <time>2010-11-14T10:52:22.000Z</time>
                <name>Position 1106</name>
            </trkpt>
            <trkpt lon="11.456678034737706" lat="49.38509398140013">
                <ele>451.48</ele>
                <time>2010-11-14T10:52:23.000Z</time>
                <name>Position 1107</name>
            </trkpt>
            <trkpt lon="11.455669021233916" lat="49.384475983679295">
                <ele>447.15</ele>
                <time>2010-11-14T10:52:31.000Z</time>
                <name>Position 1108</name>
            </trkpt>
            <trkpt lon="11.454186011105776" lat="49.38315097242594">
                <ele>440.42</ele>
                <time>2010-11-14T10:52:44.000Z</time>
                <name>Position 1109</name>
            </trkpt>
            <trkpt lon="11.454038992524147" lat="49.38306698575616">
                <ele>439.94</ele>
                <time>2010-11-14T10:52:45.000Z</time>
                <name>Position 1110</name>
            </trkpt>
            <trkpt lon="11.452550031244755" lat="49.382454017177224">
                <ele>438.02</ele>
                <time>2010-11-14T10:52:56.000Z</time>
                <name>Position 1111</name>
            </trkpt>
            <trkpt lon="11.452366970479488" lat="49.38241504132748">
                <ele>438.02</ele>
                <time>2010-11-14T10:52:58.000Z</time>
                <name>Position 1112</name>
            </trkpt>
            <trkpt lon="11.45221701823175" lat="49.38242099247873">
                <ele>438.02</ele>
                <time>2010-11-14T10:53:01.000Z</time>
                <name>Position 1113</name>
            </trkpt>
            <trkpt lon="11.452186005190015" lat="49.3824690207839">
                <ele>438.02</ele>
                <time>2010-11-14T10:53:02.000Z</time>
                <name>Position 1114</name>
            </trkpt>
            <trkpt lon="11.452177036553621" lat="49.382541021332145">
                <ele>437.06</ele>
                <time>2010-11-14T10:53:03.000Z</time>
                <name>Position 1115</name>
            </trkpt>
            <trkpt lon="11.451797001063824" lat="49.383036978542805">
                <ele>440.9</ele>
                <time>2010-11-14T10:53:10.000Z</time>
                <name>Position 1116</name>
            </trkpt>
            <trkpt lon="11.451411014422774" lat="49.38332104124129">
                <ele>442.82</ele>
                <time>2010-11-14T10:53:15.000Z</time>
                <name>Position 1117</name>
            </trkpt>
            <trkpt lon="11.45133800804615" lat="49.38332003541291">
                <ele>443.79</ele>
                <time>2010-11-14T10:53:16.000Z</time>
                <name>Position 1118</name>
            </trkpt>
            <trkpt lon="11.451262990012765" lat="49.38330402597785">
                <ele>444.27</ele>
                <time>2010-11-14T10:53:17.000Z</time>
                <name>Position 1119</name>
            </trkpt>
            <trkpt lon="11.451177997514606" lat="49.38326999545097">
                <ele>444.27</ele>
                <time>2010-11-14T10:53:18.000Z</time>
                <name>Position 1120</name>
            </trkpt>
            <trkpt lon="11.451070960611105" lat="49.38321802765131">
                <ele>445.23</ele>
                <time>2010-11-14T10:53:19.000Z</time>
                <name>Position 1121</name>
            </trkpt>
            <trkpt lon="11.450772983953357" lat="49.38311099074781">
                <ele>448.11</ele>
                <time>2010-11-14T10:53:21.000Z</time>
                <name>Position 1122</name>
            </trkpt>
            <trkpt lon="11.450602998957038" lat="49.38307201489806">
                <ele>449.55</ele>
                <time>2010-11-14T10:53:22.000Z</time>
                <name>Position 1123</name>
            </trkpt>
            <trkpt lon="11.450427984818816" lat="49.38304502516985">
                <ele>450.52</ele>
                <time>2010-11-14T10:53:23.000Z</time>
                <name>Position 1124</name>
            </trkpt>
            <trkpt lon="11.449849968776107" lat="49.38290202990174">
                <ele>454.84</ele>
                <time>2010-11-14T10:53:27.000Z</time>
                <name>Position 1125</name>
            </trkpt>
            <trkpt lon="11.449743015691638" lat="49.38281896524131">
                <ele>456.28</ele>
                <time>2010-11-14T10:53:28.000Z</time>
                <name>Position 1126</name>
            </trkpt>
            <trkpt lon="11.449655005708337" lat="49.38270295970142">
                <ele>456.76</ele>
                <time>2010-11-14T10:53:29.000Z</time>
                <name>Position 1127</name>
            </trkpt>
            <trkpt lon="11.44959700293839" lat="49.3825710285455">
                <ele>457.72</ele>
                <time>2010-11-14T10:53:30.000Z</time>
                <name>Position 1128</name>
            </trkpt>
            <trkpt lon="11.449560038745403" lat="49.38242199830711">
                <ele>458.69</ele>
                <time>2010-11-14T10:53:31.000Z</time>
                <name>Position 1129</name>
            </trkpt>
            <trkpt lon="11.449526008218527" lat="49.38226802274585">
                <ele>459.65</ele>
                <time>2010-11-14T10:53:32.000Z</time>
                <name>Position 1130</name>
            </trkpt>
            <trkpt lon="11.449480997398496" lat="49.38212603330612">
                <ele>460.13</ele>
                <time>2010-11-14T10:53:33.000Z</time>
                <name>Position 1131</name>
            </trkpt>
            <trkpt lon="11.449389969930053" lat="49.38199996948242">
                <ele>460.13</ele>
                <time>2010-11-14T10:53:34.000Z</time>
                <name>Position 1132</name>
            </trkpt>
            <trkpt lon="11.449257032945752" lat="49.381900979205966">
                <ele>459.65</ele>
                <time>2010-11-14T10:53:35.000Z</time>
                <name>Position 1133</name>
            </trkpt>
            <trkpt lon="11.449113031849265" lat="49.381835013628006">
                <ele>459.65</ele>
                <time>2010-11-14T10:53:36.000Z</time>
                <name>Position 1134</name>
            </trkpt>
            <trkpt lon="11.44895201548934" lat="49.38179603777826">
                <ele>459.65</ele>
                <time>2010-11-14T10:53:37.000Z</time>
                <name>Position 1135</name>
            </trkpt>
            <trkpt lon="11.448769038543105" lat="49.38178296200931">
                <ele>460.61</ele>
                <time>2010-11-14T10:53:38.000Z</time>
                <name>Position 1136</name>
            </trkpt>
            <trkpt lon="11.448558988049626" lat="49.38180299475789">
                <ele>461.09</ele>
                <time>2010-11-14T10:53:39.000Z</time>
                <name>Position 1137</name>
            </trkpt>
            <trkpt lon="11.448332006111741" lat="49.38184096477926">
                <ele>462.05</ele>
                <time>2010-11-14T10:53:40.000Z</time>
                <name>Position 1138</name>
            </trkpt>
            <trkpt lon="11.448079962283373" lat="49.381897039711475">
                <ele>463.01</ele>
                <time>2010-11-14T10:53:41.000Z</time>
                <name>Position 1139</name>
            </trkpt>
            <trkpt lon="11.447807969525456" lat="49.38196996226907">
                <ele>464.45</ele>
                <time>2010-11-14T10:53:42.000Z</time>
                <name>Position 1140</name>
            </trkpt>
            <trkpt lon="11.447528013959527" lat="49.38206400722265">
                <ele>465.9</ele>
                <time>2010-11-14T10:53:43.000Z</time>
                <name>Position 1141</name>
            </trkpt>
            <trkpt lon="11.447241017594934" lat="49.38218504190445">
                <ele>467.34</ele>
                <time>2010-11-14T10:53:44.000Z</time>
                <name>Position 1142</name>
            </trkpt>
            <trkpt lon="11.44695796072483" lat="49.382328037172556">
                <ele>469.26</ele>
                <time>2010-11-14T10:53:45.000Z</time>
                <name>Position 1143</name>
            </trkpt>
            <trkpt lon="11.446678005158901" lat="49.38247497193515">
                <ele>472.14</ele>
                <time>2010-11-14T10:53:46.000Z</time>
                <name>Position 1144</name>
            </trkpt>
            <trkpt lon="11.444960972294211" lat="49.38329899683595">
                <ele>488.49</ele>
                <time>2010-11-14T10:53:53.000Z</time>
                <name>Position 1145</name>
            </trkpt>
            <trkpt lon="11.444354960694909" lat="49.383553974330425">
                <ele>492.81</ele>
                <time>2010-11-14T10:53:56.000Z</time>
                <name>Position 1146</name>
            </trkpt>
            <trkpt lon="11.444164020940661" lat="49.38367199152708">
                <ele>493.77</ele>
                <time>2010-11-14T10:53:57.000Z</time>
                <name>Position 1147</name>
            </trkpt>
            <trkpt lon="11.443632021546364" lat="49.38399603590369">
                <ele>496.18</ele>
                <time>2010-11-14T10:54:00.000Z</time>
                <name>Position 1148</name>
            </trkpt>
            <trkpt lon="11.443460024893284" lat="49.38404096290469">
                <ele>496.66</ele>
                <time>2010-11-14T10:54:01.000Z</time>
                <name>Position 1149</name>
            </trkpt>
            <trkpt lon="11.443288028240204" lat="49.384065018966794">
                <ele>498.1</ele>
                <time>2010-11-14T10:54:02.000Z</time>
                <name>Position 1150</name>
            </trkpt>
            <trkpt lon="11.443074960261583" lat="49.384044986218214">
                <ele>500.02</ele>
                <time>2010-11-14T10:54:03.000Z</time>
                <name>Position 1151</name>
            </trkpt>
            <trkpt lon="11.442847978323698" lat="49.3840129673481">
                <ele>501.46</ele>
                <time>2010-11-14T10:54:04.000Z</time>
                <name>Position 1152</name>
            </trkpt>
            <trkpt lon="11.442395020276308" lat="49.38396896235645">
                <ele>504.35</ele>
                <time>2010-11-14T10:54:06.000Z</time>
                <name>Position 1153</name>
            </trkpt>
            <trkpt lon="11.442144988104701" lat="49.38395798206329">
                <ele>506.27</ele>
                <time>2010-11-14T10:54:07.000Z</time>
                <name>Position 1154</name>
            </trkpt>
            <trkpt lon="11.441892022266984" lat="49.38396996818483">
                <ele>507.23</ele>
                <time>2010-11-14T10:54:08.000Z</time>
                <name>Position 1155</name>
            </trkpt>
            <trkpt lon="11.441159024834633" lat="49.383982960134745">
                <ele>511.56</ele>
                <time>2010-11-14T10:54:11.000Z</time>
                <name>Position 1156</name>
            </trkpt>
            <trkpt lon="11.440869010984898" lat="49.38394499011338">
                <ele>513.96</ele>
                <time>2010-11-14T10:54:13.000Z</time>
                <name>Position 1157</name>
            </trkpt>
            <trkpt lon="11.440668012946844" lat="49.38395395874977">
                <ele>515.4</ele>
                <time>2010-11-14T10:54:16.000Z</time>
                <name>Position 1158</name>
            </trkpt>
            <trkpt lon="11.44066197797656" lat="49.3839490134269">
                <ele>517.33</ele>
                <time>2010-11-14T10:54:20.000Z</time>
                <name>Position 1159</name>
            </trkpt>
            <trkpt lon="11.440690979361534" lat="49.383982960134745">
                <ele>518.77</ele>
                <time>2010-11-14T10:54:21.000Z</time>
                <name>Position 1160</name>
            </trkpt>
            <trkpt lon="11.440750993788242" lat="49.38403400592506">
                <ele>519.25</ele>
                <time>2010-11-14T10:54:22.000Z</time>
                <name>Position 1161</name>
            </trkpt>
            <trkpt lon="11.441478040069342" lat="49.3845690228045">
                <ele>525.5</ele>
                <time>2010-11-14T10:54:28.000Z</time>
                <name>Position 1162</name>
            </trkpt>
            <trkpt lon="11.44252996891737" lat="49.385596979409456">
                <ele>534.15</ele>
                <time>2010-11-14T10:54:35.000Z</time>
                <name>Position 1163</name>
            </trkpt>
            <trkpt lon="11.443707961589098" lat="49.38672199845314">
                <ele>541.36</ele>
                <time>2010-11-14T10:54:41.000Z</time>
                <name>Position 1164</name>
            </trkpt>
            <trkpt lon="11.445955988019705" lat="49.38824901357293">
                <ele>546.17</ele>
                <time>2010-11-14T10:54:50.000Z</time>
                <name>Position 1165</name>
            </trkpt>
            <trkpt lon="11.448423033580184" lat="49.38930597156286">
                <ele>548.57</ele>
                <time>2010-11-14T10:54:59.000Z</time>
                <name>Position 1166</name>
            </trkpt>
            <trkpt lon="11.451503969728947" lat="49.39033702947199">
                <ele>550.97</ele>
                <time>2010-11-14T10:55:10.000Z</time>
                <name>Position 1167</name>
            </trkpt>
            <trkpt lon="11.454426990821958" lat="49.39130497165024">
                <ele>550.49</ele>
                <time>2010-11-14T10:55:18.000Z</time>
                <name>Position 1168</name>
            </trkpt>
            <trkpt lon="11.459507010877132" lat="49.39298998564482">
                <ele>547.13</ele>
                <time>2010-11-14T10:55:31.000Z</time>
                <name>Position 1169</name>
            </trkpt>
            <trkpt lon="11.462997989729047" lat="49.39415196888149">
                <ele>545.2</ele>
                <time>2010-11-14T10:55:42.000Z</time>
                <name>Position 1170</name>
            </trkpt>
            <trkpt lon="11.466285036876798" lat="49.39516902901232">
                <ele>543.76</ele>
                <time>2010-11-14T10:55:54.000Z</time>
                <name>Position 1171</name>
            </trkpt>
            <trkpt lon="11.467484990134835" lat="49.395411014556885">
                <ele>543.76</ele>
                <time>2010-11-14T10:56:01.000Z</time>
                <name>Position 1172</name>
            </trkpt>
            <trkpt lon="11.467530000954866" lat="49.3954570312053">
                <ele>543.28</ele>
                <time>2010-11-14T10:56:02.000Z</time>
                <name>Position 1173</name>
            </trkpt>
            <trkpt lon="11.467528995126486" lat="49.39551000483334">
                <ele>543.76</ele>
                <time>2010-11-14T10:56:03.000Z</time>
                <name>Position 1174</name>
            </trkpt>
            <trkpt lon="11.467502005398273" lat="49.39557102508843">
                <ele>543.76</ele>
                <time>2010-11-14T10:56:04.000Z</time>
                <name>Position 1175</name>
            </trkpt>
            <trkpt lon="11.467461017891765" lat="49.39563900232315">
                <ele>543.76</ele>
                <time>2010-11-14T10:56:05.000Z</time>
                <name>Position 1176</name>
            </trkpt>
            <trkpt lon="11.467078970745206" lat="49.39625398255885">
                <ele>541.36</ele>
                <time>2010-11-14T10:56:10.000Z</time>
                <name>Position 1177</name>
            </trkpt>
            <trkpt lon="11.46682701073587" lat="49.39660803414881">
                <ele>540.88</ele>
                <time>2010-11-14T10:56:12.000Z</time>
                <name>Position 1178</name>
            </trkpt>
            <trkpt lon="11.466653002426028" lat="49.39677902497351">
                <ele>540.88</ele>
                <time>2010-11-14T10:56:13.000Z</time>
                <name>Position 1179</name>
            </trkpt>
            <trkpt lon="11.466427026316524" lat="49.396939035505056">
                <ele>541.36</ele>
                <time>2010-11-14T10:56:14.000Z</time>
                <name>Position 1180</name>
            </trkpt>
            <trkpt lon="11.466158973053098" lat="49.39709200523794">
                <ele>541.84</ele>
                <time>2010-11-14T10:56:15.000Z</time>
                <name>Position 1181</name>
            </trkpt>
            <trkpt lon="11.465874994173646" lat="49.39724899828434">
                <ele>541.84</ele>
                <time>2010-11-14T10:56:16.000Z</time>
                <name>Position 1182</name>
            </trkpt>
            <trkpt lon="11.463104020804167" lat="49.39871499314904">
                <ele>542.8</ele>
                <time>2010-11-14T10:56:25.000Z</time>
                <name>Position 1183</name>
            </trkpt>
            <trkpt lon="11.462184023112059" lat="49.39929401502013">
                <ele>543.76</ele>
                <time>2010-11-14T10:56:29.000Z</time>
                <name>Position 1184</name>
            </trkpt>
            <trkpt lon="11.462009008973837" lat="49.39946098253131">
                <ele>544.24</ele>
                <time>2010-11-14T10:56:30.000Z</time>
                <name>Position 1185</name>
            </trkpt>
            <trkpt lon="11.461859978735447" lat="49.399643959477544">
                <ele>544.24</ele>
                <time>2010-11-14T10:56:31.000Z</time>
                <name>Position 1186</name>
            </trkpt>
            <trkpt lon="11.461741039529443" lat="49.399835988879204">
                <ele>544.72</ele>
                <time>2010-11-14T10:56:32.000Z</time>
                <name>Position 1187</name>
            </trkpt>
            <trkpt lon="11.46165101788938" lat="49.400034975260496">
                <ele>545.2</ele>
                <time>2010-11-14T10:56:33.000Z</time>
                <name>Position 1188</name>
            </trkpt>
            <trkpt lon="11.461571976542473" lat="49.400223987177014">
                <ele>545.2</ele>
                <time>2010-11-14T10:56:34.000Z</time>
                <name>Position 1189</name>
            </trkpt>
            <trkpt lon="11.461401991546154" lat="49.40055197104812">
                <ele>546.17</ele>
                <time>2010-11-14T10:56:36.000Z</time>
                <name>Position 1190</name>
            </trkpt>
            <trkpt lon="11.461295038461685" lat="49.40068499185145">
                <ele>546.17</ele>
                <time>2010-11-14T10:56:37.000Z</time>
                <name>Position 1191</name>
            </trkpt>
            <trkpt lon="11.461165035143495" lat="49.40079496242106">
                <ele>546.65</ele>
                <time>2010-11-14T10:56:38.000Z</time>
                <name>Position 1192</name>
            </trkpt>
            <trkpt lon="11.461019022390246" lat="49.40087299793959">
                <ele>546.65</ele>
                <time>2010-11-14T10:56:39.000Z</time>
                <name>Position 1193</name>
            </trkpt>
            <trkpt lon="11.460862029343843" lat="49.400932006537914">
                <ele>546.17</ele>
                <time>2010-11-14T10:56:40.000Z</time>
                <name>Position 1194</name>
            </trkpt>
            <trkpt lon="11.460720039904118" lat="49.4009689707309">
                <ele>546.17</ele>
                <time>2010-11-14T10:56:41.000Z</time>
                <name>Position 1195</name>
            </trkpt>
            <trkpt lon="11.460581989958882" lat="49.40099202096462">
                <ele>545.69</ele>
                <time>2010-11-14T10:56:42.000Z</time>
                <name>Position 1196</name>
            </trkpt>
            <trkpt lon="11.460432037711143" lat="49.401000989601016">
                <ele>545.69</ele>
                <time>2010-11-14T10:56:43.000Z</time>
                <name>Position 1197</name>
            </trkpt>
            <trkpt lon="11.460262974724174" lat="49.400999983772635">
                <ele>545.2</ele>
                <time>2010-11-14T10:56:44.000Z</time>
                <name>Position 1198</name>
            </trkpt>
            <trkpt lon="11.460075974464417" lat="49.4010019954294">
                <ele>545.2</ele>
                <time>2010-11-14T10:56:45.000Z</time>
                <name>Position 1199</name>
            </trkpt>
            <trkpt lon="11.458724979311228" lat="49.40101196989417">
                <ele>543.76</ele>
                <time>2010-11-14T10:56:51.000Z</time>
                <name>Position 1200</name>
            </trkpt>
            <trkpt lon="11.458521969616413" lat="49.4009879976511">
                <ele>543.28</ele>
                <time>2010-11-14T10:56:52.000Z</time>
                <name>Position 1201</name>
            </trkpt>
            <trkpt lon="11.458332035690546" lat="49.40096695907414">
                <ele>543.28</ele>
                <time>2010-11-14T10:56:53.000Z</time>
                <name>Position 1202</name>
            </trkpt>
            <trkpt lon="11.458157021552324" lat="49.40096301957965">
                <ele>542.8</ele>
                <time>2010-11-14T10:56:54.000Z</time>
                <name>Position 1203</name>
            </trkpt>
            <trkpt lon="11.458004973828793" lat="49.400956984609365">
                <ele>542.8</ele>
                <time>2010-11-14T10:56:55.000Z</time>
                <name>Position 1204</name>
            </trkpt>
            <trkpt lon="11.457423018291593" lat="49.40092395991087">
                <ele>542.32</ele>
                <time>2010-11-14T10:57:00.000Z</time>
                <name>Position 1205</name>
            </trkpt>
            <trkpt lon="11.457300977781415" lat="49.40090199932456">
                <ele>542.32</ele>
                <time>2010-11-14T10:57:01.000Z</time>
                <name>Position 1206</name>
            </trkpt>
            <trkpt lon="11.456961007788777" lat="49.4008119776845">
                <ele>542.32</ele>
                <time>2010-11-14T10:57:04.000Z</time>
                <name>Position 1207</name>
            </trkpt>
            <trkpt lon="11.456871991977096" lat="49.40075598657131">
                <ele>542.32</ele>
                <time>2010-11-14T10:57:05.000Z</time>
                <name>Position 1208</name>
            </trkpt>
            <trkpt lon="11.456819018349051" lat="49.40068800933659">
                <ele>541.84</ele>
                <time>2010-11-14T10:57:06.000Z</time>
                <name>Position 1209</name>
            </trkpt>
            <trkpt lon="11.45679202862084" lat="49.40062397159636">
                <ele>541.36</ele>
                <time>2010-11-14T10:57:07.000Z</time>
                <name>Position 1210</name>
            </trkpt>
            <trkpt lon="11.45679697394371" lat="49.40056202933192">
                <ele>541.36</ele>
                <time>2010-11-14T10:57:08.000Z</time>
                <name>Position 1211</name>
            </trkpt>
            <trkpt lon="11.4568389672786" lat="49.40050000324845">
                <ele>540.88</ele>
                <time>2010-11-14T10:57:09.000Z</time>
                <name>Position 1212</name>
            </trkpt>
            <trkpt lon="11.45690401084721" lat="49.40042900852859">
                <ele>540.88</ele>
                <time>2010-11-14T10:57:10.000Z</time>
                <name>Position 1213</name>
            </trkpt>
            <trkpt lon="11.457021022215486" lat="49.40027100965381">
                <ele>539.92</ele>
                <time>2010-11-14T10:57:12.000Z</time>
                <name>Position 1214</name>
            </trkpt>
            <trkpt lon="11.457059998065233" lat="49.40019599162042">
                <ele>539.44</ele>
                <time>2010-11-14T10:57:13.000Z</time>
                <name>Position 1215</name>
            </trkpt>
            <trkpt lon="11.457168962806463" lat="49.40000304020941">
                <ele>537.03</ele>
                <time>2010-11-14T10:57:16.000Z</time>
                <name>Position 1216</name>
            </trkpt>
            <trkpt lon="11.45724599249661" lat="49.39993497915566">
                <ele>536.55</ele>
                <time>2010-11-14T10:57:17.000Z</time>
                <name>Position 1217</name>
            </trkpt>
            <trkpt lon="11.457857033237815" lat="49.39936802722514">
                <ele>530.79</ele>
                <time>2010-11-14T10:57:24.000Z</time>
                <name>Position 1218</name>
            </trkpt>
            <trkpt lon="11.457901038229465" lat="49.39932502806187">
                <ele>530.3</ele>
                <time>2010-11-14T10:57:25.000Z</time>
                <name>Position 1219</name>
            </trkpt>
            <trkpt lon="11.457877987995744" lat="49.39929099753499">
                <ele>529.82</ele>
                <time>2010-11-14T10:57:26.000Z</time>
                <name>Position 1220</name>
            </trkpt>
            <trkpt lon="11.457841023802757" lat="49.39927398227155">
                <ele>529.34</ele>
                <time>2010-11-14T10:57:27.000Z</time>
                <name>Position 1221</name>
            </trkpt>
            <trkpt lon="11.457791989669204" lat="49.39927096478641">
                <ele>528.86</ele>
                <time>2010-11-14T10:57:28.000Z</time>
                <name>Position 1222</name>
            </trkpt>
            <trkpt lon="11.45769601687789" lat="49.39928798004985">
                <ele>528.86</ele>
                <time>2010-11-14T10:57:29.000Z</time>
                <name>Position 1223</name>
            </trkpt>
            <trkpt lon="11.45758998580277" lat="49.399323016405106">
                <ele>527.9</ele>
                <time>2010-11-14T10:57:30.000Z</time>
                <name>Position 1224</name>
            </trkpt>
            <trkpt lon="11.457470962777734" lat="49.39937699586153">
                <ele>527.42</ele>
                <time>2010-11-14T10:57:31.000Z</time>
                <name>Position 1225</name>
            </trkpt>
            <trkpt lon="11.457339031621814" lat="49.39944203943014">
                <ele>526.94</ele>
                <time>2010-11-14T10:57:32.000Z</time>
                <name>Position 1226</name>
            </trkpt>
            <trkpt lon="11.457041976973414" lat="49.399556033313274">
                <ele>525.98</ele>
                <time>2010-11-14T10:57:34.000Z</time>
                <name>Position 1227</name>
            </trkpt>
            <trkpt lon="11.456736037507653" lat="49.39963197335601">
                <ele>524.54</ele>
                <time>2010-11-14T10:57:36.000Z</time>
                <name>Position 1228</name>
            </trkpt>
            <trkpt lon="11.456219041720033" lat="49.39986800774932">
                <ele>522.61</ele>
                <time>2010-11-14T10:57:40.000Z</time>
                <name>Position 1229</name>
            </trkpt>
            <trkpt lon="11.455293009057641" lat="49.40060100518167">
                <ele>517.81</ele>
                <time>2010-11-14T10:57:47.000Z</time>
                <name>Position 1230</name>
            </trkpt>
            <trkpt lon="11.455169040709734" lat="49.40064400434494">
                <ele>517.33</ele>
                <time>2010-11-14T10:57:48.000Z</time>
                <name>Position 1231</name>
            </trkpt>
            <trkpt lon="11.455022022128105" lat="49.40070502460003">
                <ele>516.85</ele>
                <time>2010-11-14T10:57:49.000Z</time>
                <name>Position 1232</name>
            </trkpt>
            <trkpt lon="11.454876009374857" lat="49.40076897852123">
                <ele>516.37</ele>
                <time>2010-11-14T10:57:50.000Z</time>
                <name>Position 1233</name>
            </trkpt>
            <trkpt lon="11.454638969153166" lat="49.40089303068817">
                <ele>515.88</ele>
                <time>2010-11-14T10:57:52.000Z</time>
                <name>Position 1234</name>
            </trkpt>
            <trkpt lon="11.454565040767193" lat="49.40091800875962">
                <ele>515.4</ele>
                <time>2010-11-14T10:57:53.000Z</time>
                <name>Position 1235</name>
            </trkpt>
            <trkpt lon="11.454104958102107" lat="49.400976011529565">
                <ele>514.92</ele>
                <time>2010-11-14T10:58:01.000Z</time>
                <name>Position 1236</name>
            </trkpt>
            <trkpt lon="11.453761970624328" lat="49.40100300125778">
                <ele>513.48</ele>
                <time>2010-11-14T10:58:04.000Z</time>
                <name>Position 1237</name>
            </trkpt>
            <trkpt lon="11.453649988397956" lat="49.401039965450764">
                <ele>513.96</ele>
                <time>2010-11-14T10:58:05.000Z</time>
                <name>Position 1238</name>
            </trkpt>
            <trkpt lon="11.45318697206676" lat="49.40120198763907">
                <ele>512.52</ele>
                <time>2010-11-14T10:58:09.000Z</time>
                <name>Position 1239</name>
            </trkpt>
            <trkpt lon="11.452909028157592" lat="49.40122302621603">
                <ele>511.08</ele>
                <time>2010-11-14T10:58:11.000Z</time>
                <name>Position 1240</name>
            </trkpt>
            <trkpt lon="11.452727979049087" lat="49.401213973760605">
                <ele>509.64</ele>
                <time>2010-11-14T10:58:12.000Z</time>
                <name>Position 1241</name>
            </trkpt>
            <trkpt lon="11.452441988512874" lat="49.40122897736728">
                <ele>507.71</ele>
                <time>2010-11-14T10:58:14.000Z</time>
                <name>Position 1242</name>
            </trkpt>
            <trkpt lon="11.452297987416387" lat="49.40124800428748">
                <ele>506.75</ele>
                <time>2010-11-14T10:58:15.000Z</time>
                <name>Position 1243</name>
            </trkpt>
            <trkpt lon="11.45099401473999" lat="49.401363003998995">
                <ele>500.02</ele>
                <time>2010-11-14T10:58:22.000Z</time>
                <name>Position 1244</name>
            </trkpt>
            <trkpt lon="11.450088014826179" lat="49.40134598873556">
                <ele>496.66</ele>
                <time>2010-11-14T10:58:27.000Z</time>
                <name>Position 1245</name>
            </trkpt>
            <trkpt lon="11.449584010988474" lat="49.40137700177729">
                <ele>495.22</ele>
                <time>2010-11-14T10:58:30.000Z</time>
                <name>Position 1246</name>
            </trkpt>
            <trkpt lon="11.449392987415195" lat="49.401383958756924">
                <ele>494.74</ele>
                <time>2010-11-14T10:58:31.000Z</time>
                <name>Position 1247</name>
            </trkpt>
            <trkpt lon="11.448767026886344" lat="49.40141103230417">
                <ele>493.29</ele>
                <time>2010-11-14T10:58:35.000Z</time>
                <name>Position 1248</name>
            </trkpt>
            <trkpt lon="11.447765976190567" lat="49.40165100619197">
                <ele>488.49</ele>
                <time>2010-11-14T10:58:42.000Z</time>
                <name>Position 1249</name>
            </trkpt>
            <trkpt lon="11.446796022355556" lat="49.40195300616324">
                <ele>486.08</ele>
                <time>2010-11-14T10:58:49.000Z</time>
                <name>Position 1250</name>
            </trkpt>
            <trkpt lon="11.446508020162582" lat="49.40210103057325">
                <ele>485.12</ele>
                <time>2010-11-14T10:58:52.000Z</time>
                <name>Position 1251</name>
            </trkpt>
            <trkpt lon="11.446399977430701" lat="49.40214897505939">
                <ele>483.68</ele>
                <time>2010-11-14T10:58:53.000Z</time>
                <name>Position 1252</name>
            </trkpt>
            <trkpt lon="11.446248013526201" lat="49.4022280164063">
                <ele>482.72</ele>
                <time>2010-11-14T10:58:55.000Z</time>
                <name>Position 1253</name>
            </trkpt>
            <trkpt lon="11.446206020191312" lat="49.40228903666139">
                <ele>482.24</ele>
                <time>2010-11-14T10:58:56.000Z</time>
                <name>Position 1254</name>
            </trkpt>
            <trkpt lon="11.446164026856422" lat="49.40233203582466">
                <ele>482.72</ele>
                <time>2010-11-14T10:58:57.000Z</time>
                <name>Position 1255</name>
            </trkpt>
            <trkpt lon="11.446119016036391" lat="49.402376962825656">
                <ele>482.72</ele>
                <time>2010-11-14T10:58:58.000Z</time>
                <name>Position 1256</name>
            </trkpt>
            <trkpt lon="11.446080962195992" lat="49.402439994737506">
                <ele>482.72</ele>
                <time>2010-11-14T10:58:59.000Z</time>
                <name>Position 1257</name>
            </trkpt>
            <trkpt lon="11.44605103880167" lat="49.40249196253717">
                <ele>482.72</ele>
                <time>2010-11-14T10:59:00.000Z</time>
                <name>Position 1258</name>
            </trkpt>
            <trkpt lon="11.445956993848085" lat="49.40311498939991">
                <ele>488.01</ele>
                <time>2010-11-14T10:59:08.000Z</time>
                <name>Position 1259</name>
            </trkpt>
            <trkpt lon="11.446006027981639" lat="49.403320010751486">
                <ele>491.37</ele>
                <time>2010-11-14T10:59:11.000Z</time>
                <name>Position 1260</name>
            </trkpt>
            <trkpt lon="11.445971997454762" lat="49.403703985735774">
                <ele>500.02</ele>
                <time>2010-11-14T10:59:17.000Z</time>
                <name>Position 1261</name>
            </trkpt>
            <trkpt lon="11.445927992463112" lat="49.40377799794078">
                <ele>499.54</ele>
                <time>2010-11-14T10:59:18.000Z</time>
                <name>Position 1262</name>
            </trkpt>
            <trkpt lon="11.445853980258107" lat="49.40385201014578">
                <ele>499.54</ele>
                <time>2010-11-14T10:59:19.000Z</time>
                <name>Position 1263</name>
            </trkpt>
            <trkpt lon="11.445614006370306" lat="49.403985030949116">
                <ele>500.98</ele>
                <time>2010-11-14T10:59:22.000Z</time>
                <name>Position 1264</name>
            </trkpt>
            <trkpt lon="11.445553991943598" lat="49.40403901040554">
                <ele>497.62</ele>
                <time>2010-11-14T10:59:23.000Z</time>
                <name>Position 1265</name>
            </trkpt>
            <trkpt lon="11.445498000830412" lat="49.404068011790514">
                <ele>494.74</ele>
                <time>2010-11-14T10:59:24.000Z</time>
                <name>Position 1266</name>
            </trkpt>
            <trkpt lon="11.445403033867478" lat="49.404068011790514">
                <ele>495.22</ele>
                <time>2010-11-14T10:59:25.000Z</time>
                <name>Position 1267</name>
            </trkpt>
            <trkpt lon="11.445336984470487" lat="49.40408402122557">
                <ele>491.37</ele>
                <time>2010-11-14T10:59:26.000Z</time>
                <name>Position 1268</name>
            </trkpt>
            <trkpt lon="11.445242017507553" lat="49.40406700596213">
                <ele>490.89</ele>
                <time>2010-11-14T10:59:27.000Z</time>
                <name>Position 1269</name>
            </trkpt>
            <trkpt lon="11.445145038887858" lat="49.40403901040554">
                <ele>491.37</ele>
                <time>2010-11-14T10:59:28.000Z</time>
                <name>Position 1270</name>
            </trkpt>
            <trkpt lon="11.445061974227428" lat="49.40401000902057">
                <ele>491.37</ele>
                <time>2010-11-14T10:59:29.000Z</time>
                <name>Position 1271</name>
            </trkpt>
            <trkpt lon="11.444954015314579" lat="49.40395200625062">
                <ele>491.37</ele>
                <time>2010-11-14T10:59:30.000Z</time>
                <name>Position 1272</name>
            </trkpt>
            <trkpt lon="11.444843038916588" lat="49.403897020965815">
                <ele>491.85</ele>
                <time>2010-11-14T10:59:31.000Z</time>
                <name>Position 1273</name>
            </trkpt>
            <trkpt lon="11.444624019786716" lat="49.40379702486098">
                <ele>492.81</ele>
                <time>2010-11-14T10:59:33.000Z</time>
                <name>Position 1274</name>
            </trkpt>
            <trkpt lon="11.444317996501923" lat="49.40369602292776">
                <ele>494.26</ele>
                <time>2010-11-14T10:59:36.000Z</time>
                <name>Position 1275</name>
            </trkpt>
            <trkpt lon="11.444153040647507" lat="49.40352201461792">
                <ele>498.1</ele>
                <time>2010-11-14T10:59:39.000Z</time>
                <name>Position 1276</name>
            </trkpt>
            <trkpt lon="11.443698992952704" lat="49.40287099219859">
                <ele>498.1</ele>
                <time>2010-11-14T10:59:47.000Z</time>
                <name>Position 1277</name>
            </trkpt>
            <trkpt lon="11.443584999069571" lat="49.40279899165034">
                <ele>496.18</ele>
                <time>2010-11-14T10:59:48.000Z</time>
                <name>Position 1278</name>
            </trkpt>
            <trkpt lon="11.442715963348746" lat="49.40242096781731">
                <ele>494.26</ele>
                <time>2010-11-14T10:59:56.000Z</time>
                <name>Position 1279</name>
            </trkpt>
            <trkpt lon="11.442598029971123" lat="49.40240001305938">
                <ele>495.22</ele>
                <time>2010-11-14T10:59:57.000Z</time>
                <name>Position 1280</name>
            </trkpt>
            <trkpt lon="11.44248403608799" lat="49.4023850094527">
                <ele>495.22</ele>
                <time>2010-11-14T10:59:58.000Z</time>
                <name>Position 1281</name>
            </trkpt>
            <trkpt lon="11.442071981728077" lat="49.40234703943133">
                <ele>494.74</ele>
                <time>2010-11-14T11:00:02.000Z</time>
                <name>Position 1282</name>
            </trkpt>
            <trkpt lon="11.441981960088015" lat="49.40234502777457">
                <ele>495.7</ele>
                <time>2010-11-14T11:00:03.000Z</time>
                <name>Position 1283</name>
            </trkpt>
            <trkpt lon="11.441854974254966" lat="49.402333963662386">
                <ele>496.18</ele>
                <time>2010-11-14T11:00:04.000Z</time>
                <name>Position 1284</name>
            </trkpt>
            <trkpt lon="11.441765958443284" lat="49.402353996410966">
                <ele>497.14</ele>
                <time>2010-11-14T11:00:05.000Z</time>
                <name>Position 1285</name>
            </trkpt>
            <trkpt lon="11.44166897982359" lat="49.402373023331165">
                <ele>494.74</ele>
                <time>2010-11-14T11:00:06.000Z</time>
                <name>Position 1286</name>
            </trkpt>
            <trkpt lon="11.441587004810572" lat="49.40236003138125">
                <ele>494.74</ele>
                <time>2010-11-14T11:00:07.000Z</time>
                <name>Position 1287</name>
            </trkpt>
            <trkpt lon="11.441489020362496" lat="49.40233203582466">
                <ele>492.81</ele>
                <time>2010-11-14T11:00:08.000Z</time>
                <name>Position 1288</name>
            </trkpt>
            <trkpt lon="11.441375026479363" lat="49.40231200307608">
                <ele>492.81</ele>
                <time>2010-11-14T11:00:09.000Z</time>
                <name>Position 1289</name>
            </trkpt>
            <trkpt lon="11.44087202847004" lat="49.402289958670735">
                <ele>496.66</ele>
                <time>2010-11-14T11:00:13.000Z</time>
                <name>Position 1290</name>
            </trkpt>
            <trkpt lon="11.440393002703786" lat="49.40236103720963">
                <ele>499.54</ele>
                <time>2010-11-14T11:00:18.000Z</time>
                <name>Position 1291</name>
            </trkpt>
            <trkpt lon="11.440313961356878" lat="49.40240101888776">
                <ele>500.98</ele>
                <time>2010-11-14T11:00:19.000Z</time>
                <name>Position 1292</name>
            </trkpt>
            <trkpt lon="11.439991006627679" lat="49.40259103663266">
                <ele>501.95</ele>
                <time>2010-11-14T11:00:23.000Z</time>
                <name>Position 1293</name>
            </trkpt>
            <trkpt lon="11.439880030229688" lat="49.40263302996755">
                <ele>503.87</ele>
                <time>2010-11-14T11:00:24.000Z</time>
                <name>Position 1294</name>
            </trkpt>
            <trkpt lon="11.439389018341899" lat="49.402735037729144">
                <ele>507.71</ele>
                <time>2010-11-14T11:00:28.000Z</time>
                <name>Position 1295</name>
            </trkpt>
            <trkpt lon="11.439293967559934" lat="49.402735037729144">
                <ele>507.23</ele>
                <time>2010-11-14T11:00:29.000Z</time>
                <name>Position 1296</name>
            </trkpt>
            <trkpt lon="11.439187014475465" lat="49.40270000137389">
                <ele>509.64</ele>
                <time>2010-11-14T11:00:30.000Z</time>
                <name>Position 1297</name>
            </trkpt>
            <trkpt lon="11.4390919636935" lat="49.40266697667539">
                <ele>510.6</ele>
                <time>2010-11-14T11:00:31.000Z</time>
                <name>Position 1298</name>
            </trkpt>
            <trkpt lon="11.439021974802017" lat="49.402650967240334">
                <ele>511.56</ele>
                <time>2010-11-14T11:00:32.000Z</time>
                <name>Position 1299</name>
            </trkpt>
            <trkpt lon="11.438957015052438" lat="49.40264996141195">
                <ele>512.52</ele>
                <time>2010-11-14T11:00:33.000Z</time>
                <name>Position 1300</name>
            </trkpt>
            <trkpt lon="11.438900018110871" lat="49.40268198028207">
                <ele>512.52</ele>
                <time>2010-11-14T11:00:34.000Z</time>
                <name>Position 1301</name>
            </trkpt>
            <trkpt lon="11.438860036432743" lat="49.40271399915218">
                <ele>513.96</ele>
                <time>2010-11-14T11:00:35.000Z</time>
                <name>Position 1302</name>
            </trkpt>
            <trkpt lon="11.438832962885499" lat="49.402760015800595">
                <ele>514.92</ele>
                <time>2010-11-14T11:00:36.000Z</time>
                <name>Position 1303</name>
            </trkpt>
            <trkpt lon="11.43881100229919" lat="49.4028200302273">
                <ele>514.92</ele>
                <time>2010-11-14T11:00:37.000Z</time>
                <name>Position 1304</name>
            </trkpt>
            <trkpt lon="11.438654009252787" lat="49.403171986341476">
                <ele>519.25</ele>
                <time>2010-11-14T11:00:42.000Z</time>
                <name>Position 1305</name>
            </trkpt>
            <trkpt lon="11.438590977340937" lat="49.40322697162628">
                <ele>520.21</ele>
                <time>2010-11-14T11:00:43.000Z</time>
                <name>Position 1306</name>
            </trkpt>
            <trkpt lon="11.438504979014397" lat="49.40327097661793">
                <ele>520.69</ele>
                <time>2010-11-14T11:00:44.000Z</time>
                <name>Position 1307</name>
            </trkpt>
            <trkpt lon="11.438398025929928" lat="49.403298972174525">
                <ele>520.21</ele>
                <time>2010-11-14T11:00:45.000Z</time>
                <name>Position 1308</name>
            </trkpt>
            <trkpt lon="11.438282020390034" lat="49.40330400131643">
                <ele>520.69</ele>
                <time>2010-11-14T11:00:46.000Z</time>
                <name>Position 1309</name>
            </trkpt>
            <trkpt lon="11.438164003193378" lat="49.403296038508415">
                <ele>521.17</ele>
                <time>2010-11-14T11:00:47.000Z</time>
                <name>Position 1310</name>
            </trkpt>
            <trkpt lon="11.438055038452148" lat="49.403273994103074">
                <ele>522.61</ele>
                <time>2010-11-14T11:00:48.000Z</time>
                <name>Position 1311</name>
            </trkpt>
            <trkpt lon="11.437950013205409" lat="49.40324298106134">
                <ele>523.58</ele>
                <time>2010-11-14T11:00:49.000Z</time>
                <name>Position 1312</name>
            </trkpt>
            <trkpt lon="11.437859991565347" lat="49.40322403796017">
                <ele>523.09</ele>
                <time>2010-11-14T11:00:50.000Z</time>
                <name>Position 1313</name>
            </trkpt>
            <trkpt lon="11.437667040154338" lat="49.403187995776534">
                <ele>525.98</ele>
                <time>2010-11-14T11:00:52.000Z</time>
                <name>Position 1314</name>
            </trkpt>
            <trkpt lon="11.437578024342656" lat="49.40318397246301">
                <ele>526.46</ele>
                <time>2010-11-14T11:00:53.000Z</time>
                <name>Position 1315</name>
            </trkpt>
            <trkpt lon="11.437489008530974" lat="49.40318497829139">
                <ele>527.42</ele>
                <time>2010-11-14T11:00:54.000Z</time>
                <name>Position 1316</name>
            </trkpt>
            <trkpt lon="11.43739697523415" lat="49.40319696441293">
                <ele>527.9</ele>
                <time>2010-11-14T11:00:55.000Z</time>
                <name>Position 1317</name>
            </trkpt>
            <trkpt lon="11.437318017706275" lat="49.40322303213179">
                <ele>528.38</ele>
                <time>2010-11-14T11:00:56.000Z</time>
                <name>Position 1318</name>
            </trkpt>
            <trkpt lon="11.437253979966044" lat="49.403251027688384">
                <ele>528.38</ele>
                <time>2010-11-14T11:00:57.000Z</time>
                <name>Position 1319</name>
            </trkpt>
            <trkpt lon="11.437197988852859" lat="49.40327902324498">
                <ele>528.86</ele>
                <time>2010-11-14T11:00:58.000Z</time>
                <name>Position 1320</name>
            </trkpt>
            <trkpt lon="11.437153983861208" lat="49.40330601297319">
                <ele>528.86</ele>
                <time>2010-11-14T11:00:59.000Z</time>
                <name>Position 1321</name>
            </trkpt>
            <trkpt lon="11.437146021053195" lat="49.403360998257995">
                <ele>528.86</ele>
                <time>2010-11-14T11:01:00.000Z</time>
                <name>Position 1322</name>
            </trkpt>
            <trkpt lon="11.437153983861208" lat="49.403428975492716">
                <ele>529.34</ele>
                <time>2010-11-14T11:01:01.000Z</time>
                <name>Position 1323</name>
            </trkpt>
            <trkpt lon="11.437181979417801" lat="49.40350701101124">
                <ele>528.38</ele>
                <time>2010-11-14T11:01:02.000Z</time>
                <name>Position 1324</name>
            </trkpt>
            <trkpt lon="11.437206035479903" lat="49.403595020994544">
                <ele>527.9</ele>
                <time>2010-11-14T11:01:03.000Z</time>
                <name>Position 1325</name>
            </trkpt>
            <trkpt lon="11.4372200332582" lat="49.40369300544262">
                <ele>527.9</ele>
                <time>2010-11-14T11:01:04.000Z</time>
                <name>Position 1326</name>
            </trkpt>
            <trkpt lon="11.437141997739673" lat="49.40453203395009">
                <ele>532.71</ele>
                <time>2010-11-14T11:01:13.000Z</time>
                <name>Position 1327</name>
            </trkpt>
            <trkpt lon="11.437098998576403" lat="49.40458903089166">
                <ele>534.63</ele>
                <time>2010-11-14T11:01:15.000Z</time>
                <name>Position 1328</name>
            </trkpt>
            <trkpt lon="11.436962960287929" lat="49.4046369753778">
                <ele>533.67</ele>
                <time>2010-11-14T11:01:18.000Z</time>
                <name>Position 1329</name>
            </trkpt>
            <trkpt lon="11.436849972233176" lat="49.404630018398166">
                <ele>533.67</ele>
                <time>2010-11-14T11:01:19.000Z</time>
                <name>Position 1330</name>
            </trkpt>
            <trkpt lon="11.435749009251595" lat="49.40453102812171">
                <ele>533.67</ele>
                <time>2010-11-14T11:01:26.000Z</time>
                <name>Position 1331</name>
            </trkpt>
            <trkpt lon="11.435398980975151" lat="49.404479982331395">
                <ele>533.67</ele>
                <time>2010-11-14T11:01:28.000Z</time>
                <name>Position 1332</name>
            </trkpt>
            <trkpt lon="11.43502900376916" lat="49.4044850114733">
                <ele>532.71</ele>
                <time>2010-11-14T11:01:30.000Z</time>
                <name>Position 1333</name>
            </trkpt>
            <trkpt lon="11.43485901877284" lat="49.40450697205961">
                <ele>532.71</ele>
                <time>2010-11-14T11:01:31.000Z</time>
                <name>Position 1334</name>
            </trkpt>
            <trkpt lon="11.434696996584535" lat="49.4045590236783">
                <ele>532.23</ele>
                <time>2010-11-14T11:01:32.000Z</time>
                <name>Position 1335</name>
            </trkpt>
            <trkpt lon="11.43455802462995" lat="49.40461702644825">
                <ele>532.23</ele>
                <time>2010-11-14T11:01:33.000Z</time>
                <name>Position 1336</name>
            </trkpt>
            <trkpt lon="11.434432966634631" lat="49.40467997454107">
                <ele>532.23</ele>
                <time>2010-11-14T11:01:34.000Z</time>
                <name>Position 1337</name>
            </trkpt>
            <trkpt lon="11.43333300948143" lat="49.40535304136574">
                <ele>532.23</ele>
                <time>2010-11-14T11:01:41.000Z</time>
                <name>Position 1338</name>
            </trkpt>
            <trkpt lon="11.431776992976665" lat="49.40643799491227">
                <ele>537.03</ele>
                <time>2010-11-14T11:01:47.000Z</time>
                <name>Position 1339</name>
            </trkpt>
            <trkpt lon="11.430548960343003" lat="49.40714802592993">
                <ele>540.88</ele>
                <time>2010-11-14T11:01:52.000Z</time>
                <name>Position 1340</name>
            </trkpt>
            <trkpt lon="11.430270010605454" lat="49.40724500454962">
                <ele>541.36</ele>
                <time>2010-11-14T11:01:53.000Z</time>
                <name>Position 1341</name>
            </trkpt>
            <trkpt lon="11.429969016462564" lat="49.407333014532924">
                <ele>541.36</ele>
                <time>2010-11-14T11:01:54.000Z</time>
                <name>Position 1342</name>
            </trkpt>
            <trkpt lon="11.426838962361217" lat="49.40807799808681">
                <ele>537.51</ele>
                <time>2010-11-14T11:02:03.000Z</time>
                <name>Position 1343</name>
            </trkpt>
            <trkpt lon="11.423696000128984" lat="49.40880403853953">
                <ele>537.03</ele>
                <time>2010-11-14T11:02:12.000Z</time>
                <name>Position 1344</name>
            </trkpt>
            <trkpt lon="11.42125703394413" lat="49.40929597243667">
                <ele>535.11</ele>
                <time>2010-11-14T11:02:20.000Z</time>
                <name>Position 1345</name>
            </trkpt>
            <trkpt lon="11.419394994154572" lat="49.409828977659345">
                <ele>527.9</ele>
                <time>2010-11-14T11:02:27.000Z</time>
                <name>Position 1346</name>
            </trkpt>
            <trkpt lon="11.419112021103501" lat="49.409848004579544">
                <ele>526.94</ele>
                <time>2010-11-14T11:02:28.000Z</time>
                <name>Position 1347</name>
            </trkpt>
            <trkpt lon="11.41880901530385" lat="49.4098449870944">
                <ele>525.98</ele>
                <time>2010-11-14T11:02:29.000Z</time>
                <name>Position 1348</name>
            </trkpt>
            <trkpt lon="11.41786596737802" lat="49.40980299375951">
                <ele>521.65</ele>
                <time>2010-11-14T11:02:32.000Z</time>
                <name>Position 1349</name>
            </trkpt>
            <trkpt lon="11.417558016255498" lat="49.409830989316106">
                <ele>520.69</ele>
                <time>2010-11-14T11:02:33.000Z</time>
                <name>Position 1350</name>
            </trkpt>
            <trkpt lon="11.417251992970705" lat="49.40988899208605">
                <ele>519.25</ele>
                <time>2010-11-14T11:02:34.000Z</time>
                <name>Position 1351</name>
            </trkpt>
            <trkpt lon="11.416949992999434" lat="49.40997197292745">
                <ele>517.81</ele>
                <time>2010-11-14T11:02:35.000Z</time>
                <name>Position 1352</name>
            </trkpt>
            <trkpt lon="11.416666014119983" lat="49.410063000395894">
                <ele>516.37</ele>
                <time>2010-11-14T11:02:36.000Z</time>
                <name>Position 1353</name>
            </trkpt>
            <trkpt lon="11.4159070327878" lat="49.41026802174747">
                <ele>513.48</ele>
                <time>2010-11-14T11:02:39.000Z</time>
                <name>Position 1354</name>
            </trkpt>
            <trkpt lon="11.415636967867613" lat="49.41029199399054">
                <ele>513.48</ele>
                <time>2010-11-14T11:02:40.000Z</time>
                <name>Position 1355</name>
            </trkpt>
            <trkpt lon="11.415343014523387" lat="49.41028503701091">
                <ele>513.48</ele>
                <time>2010-11-14T11:02:41.000Z</time>
                <name>Position 1356</name>
            </trkpt>
            <trkpt lon="11.415035985410213" lat="49.41025301814079">
                <ele>513.96</ele>
                <time>2010-11-14T11:02:42.000Z</time>
                <name>Position 1357</name>
            </trkpt>
            <trkpt lon="11.414716970175505" lat="49.4102110248059">
                <ele>514.44</ele>
                <time>2010-11-14T11:02:43.000Z</time>
                <name>Position 1358</name>
            </trkpt>
            <trkpt lon="11.412693997845054" lat="49.409917993471026">
                <ele>512.04</ele>
                <time>2010-11-14T11:02:50.000Z</time>
                <name>Position 1359</name>
            </trkpt>
            <trkpt lon="11.412438014522195" lat="49.40993903204799">
                <ele>511.56</ele>
                <time>2010-11-14T11:02:51.000Z</time>
                <name>Position 1360</name>
            </trkpt>
            <trkpt lon="11.412198962643743" lat="49.40998898819089">
                <ele>510.6</ele>
                <time>2010-11-14T11:02:52.000Z</time>
                <name>Position 1361</name>
            </trkpt>
            <trkpt lon="11.411815993487835" lat="49.410174982622266">
                <ele>508.67</ele>
                <time>2010-11-14T11:02:54.000Z</time>
                <name>Position 1362</name>
            </trkpt>
            <trkpt lon="11.411686995998025" lat="49.41030900925398">
                <ele>508.19</ele>
                <time>2010-11-14T11:02:55.000Z</time>
                <name>Position 1363</name>
            </trkpt>
            <trkpt lon="11.411607032641768" lat="49.410454016178846">
                <ele>507.23</ele>
                <time>2010-11-14T11:02:56.000Z</time>
                <name>Position 1364</name>
            </trkpt>
            <trkpt lon="11.41144098713994" lat="49.41098400391638">
                <ele>505.31</ele>
                <time>2010-11-14T11:03:00.000Z</time>
                <name>Position 1365</name>
            </trkpt>
            <trkpt lon="11.411352977156639" lat="49.41104401834309">
                <ele>504.83</ele>
                <time>2010-11-14T11:03:01.000Z</time>
                <name>Position 1366</name>
            </trkpt>
            <trkpt lon="11.411218028515577" lat="49.41108098253608">
                <ele>504.35</ele>
                <time>2010-11-14T11:03:02.000Z</time>
                <name>Position 1367</name>
            </trkpt>
            <trkpt lon="11.411068998277187" lat="49.41108299419284">
                <ele>503.87</ele>
                <time>2010-11-14T11:03:03.000Z</time>
                <name>Position 1368</name>
            </trkpt>
            <trkpt lon="11.41092298552394" lat="49.411032032221556">
                <ele>503.87</ele>
                <time>2010-11-14T11:03:04.000Z</time>
                <name>Position 1369</name>
            </trkpt>
            <trkpt lon="11.410779990255833" lat="49.41093999892473">
                <ele>503.87</ele>
                <time>2010-11-14T11:03:05.000Z</time>
                <name>Position 1370</name>
            </trkpt>
            <trkpt lon="11.410661973059177" lat="49.410837991163135">
                <ele>503.39</ele>
                <time>2010-11-14T11:03:06.000Z</time>
                <name>Position 1371</name>
            </trkpt>
            <trkpt lon="11.410389980301261" lat="49.41065199673176">
                <ele>501.46</ele>
                <time>2010-11-14T11:03:08.000Z</time>
                <name>Position 1372</name>
            </trkpt>
            <trkpt lon="11.410225024446845" lat="49.41056901589036">
                <ele>500.5</ele>
                <time>2010-11-14T11:03:09.000Z</time>
                <name>Position 1373</name>
            </trkpt>
            <trkpt lon="11.41004003584385" lat="49.41049902699888">
                <ele>499.54</ele>
                <time>2010-11-14T11:03:10.000Z</time>
                <name>Position 1374</name>
            </trkpt>
            <trkpt lon="11.408292995765805" lat="49.41011496819556">
                <ele>488.97</ele>
                <time>2010-11-14T11:03:18.000Z</time>
                <name>Position 1375</name>
            </trkpt>
            <trkpt lon="11.406938983127475" lat="49.40975496545434">
                <ele>482.72</ele>
                <time>2010-11-14T11:03:25.000Z</time>
                <name>Position 1376</name>
            </trkpt>
            <trkpt lon="11.406763968989253" lat="49.40968598239124">
                <ele>482.72</ele>
                <time>2010-11-14T11:03:26.000Z</time>
                <name>Position 1377</name>
            </trkpt>
            <trkpt lon="11.406569005921483" lat="49.409613981842995">
                <ele>482.24</ele>
                <time>2010-11-14T11:03:27.000Z</time>
                <name>Position 1378</name>
            </trkpt>
            <trkpt lon="11.406128033995628" lat="49.40950199961662">
                <ele>481.28</ele>
                <time>2010-11-14T11:03:29.000Z</time>
                <name>Position 1379</name>
            </trkpt>
            <trkpt lon="11.405602991580963" lat="49.40943201072514">
                <ele>480.32</ele>
                <time>2010-11-14T11:03:31.000Z</time>
                <name>Position 1380</name>
            </trkpt>
            <trkpt lon="11.404126016423106" lat="49.40930603072047">
                <ele>475.99</ele>
                <time>2010-11-14T11:03:36.000Z</time>
                <name>Position 1381</name>
            </trkpt>
            <trkpt lon="11.402267999947071" lat="49.40900000743568">
                <ele>467.34</ele>
                <time>2010-11-14T11:03:42.000Z</time>
                <name>Position 1382</name>
            </trkpt>
            <trkpt lon="11.400816002860665" lat="49.4087209738791">
                <ele>459.65</ele>
                <time>2010-11-14T11:03:48.000Z</time>
                <name>Position 1383</name>
            </trkpt>
            <trkpt lon="11.400581980124116" lat="49.40857697278261">
                <ele>458.69</ele>
                <time>2010-11-14T11:03:49.000Z</time>
                <name>Position 1384</name>
            </trkpt>
            <trkpt lon="11.40037695877254" lat="49.408473959192634">
                <ele>457.72</ele>
                <time>2010-11-14T11:03:50.000Z</time>
                <name>Position 1385</name>
            </trkpt>
            <trkpt lon="11.40016196295619" lat="49.40832995809615">
                <ele>456.28</ele>
                <time>2010-11-14T11:03:51.000Z</time>
                <name>Position 1386</name>
            </trkpt>
            <trkpt lon="11.39994302764535" lat="49.40818000584841">
                <ele>454.84</ele>
                <time>2010-11-14T11:03:52.000Z</time>
                <name>Position 1387</name>
            </trkpt>
            <trkpt lon="11.398842986673117" lat="49.40710703842342">
                <ele>450.03</ele>
                <time>2010-11-14T11:03:57.000Z</time>
                <name>Position 1388</name>
            </trkpt>
            <trkpt lon="11.39868096448481" lat="49.40689698792994">
                <ele>449.55</ele>
                <time>2010-11-14T11:03:58.000Z</time>
                <name>Position 1389</name>
            </trkpt>
            <trkpt lon="11.39854702167213" lat="49.40667998045683">
                <ele>448.59</ele>
                <time>2010-11-14T11:03:59.000Z</time>
                <name>Position 1390</name>
            </trkpt>
            <trkpt lon="11.398430010303855" lat="49.406456016004086">
                <ele>448.11</ele>
                <time>2010-11-14T11:04:00.000Z</time>
                <name>Position 1391</name>
            </trkpt>
            <trkpt lon="11.398320961743593" lat="49.4062240049243">
                <ele>447.15</ele>
                <time>2010-11-14T11:04:01.000Z</time>
                <name>Position 1392</name>
            </trkpt>
            <trkpt lon="11.397305997088552" lat="49.40450898371637">
                <ele>442.34</ele>
                <time>2010-11-14T11:04:09.000Z</time>
                <name>Position 1393</name>
            </trkpt>
            <trkpt lon="11.396027002483606" lat="49.40341296605766">
                <ele>439.94</ele>
                <time>2010-11-14T11:04:16.000Z</time>
                <name>Position 1394</name>
            </trkpt>
            <trkpt lon="11.395507995039225" lat="49.40293997526169">
                <ele>436.1</ele>
                <time>2010-11-14T11:04:20.000Z</time>
                <name>Position 1395</name>
            </trkpt>
            <trkpt lon="11.39543398283422" lat="49.4028200302273">
                <ele>434.17</ele>
                <time>2010-11-14T11:04:21.000Z</time>
                <name>Position 1396</name>
            </trkpt>
            <trkpt lon="11.39539098367095" lat="49.402697989717126">
                <ele>432.25</ele>
                <time>2010-11-14T11:04:22.000Z</time>
                <name>Position 1397</name>
            </trkpt>
            <trkpt lon="11.395385032519698" lat="49.40257100388408">
                <ele>430.81</ele>
                <time>2010-11-14T11:04:23.000Z</time>
                <name>Position 1398</name>
            </trkpt>
            <trkpt lon="11.395417973399162" lat="49.40244502387941">
                <ele>430.33</ele>
                <time>2010-11-14T11:04:24.000Z</time>
                <name>Position 1399</name>
            </trkpt>
            <trkpt lon="11.395458960905671" lat="49.402329018339515">
                <ele>430.33</ele>
                <time>2010-11-14T11:04:25.000Z</time>
                <name>Position 1400</name>
            </trkpt>
            <trkpt lon="11.395461978390813" lat="49.40221896395087">
                <ele>429.37</ele>
                <time>2010-11-14T11:04:26.000Z</time>
                <name>Position 1401</name>
            </trkpt>
            <trkpt lon="11.3954349886626" lat="49.402114022523165">
                <ele>428.89</ele>
                <time>2010-11-14T11:04:27.000Z</time>
                <name>Position 1402</name>
            </trkpt>
            <trkpt lon="11.395383020862937" lat="49.40202098339796">
                <ele>428.4</ele>
                <time>2010-11-14T11:04:28.000Z</time>
                <name>Position 1403</name>
            </trkpt>
            <trkpt lon="11.395329041406512" lat="49.40193699672818">
                <ele>427.44</ele>
                <time>2010-11-14T11:04:29.000Z</time>
                <name>Position 1404</name>
            </trkpt>
            <trkpt lon="11.395253017544746" lat="49.401857033371925">
                <ele>427.92</ele>
                <time>2010-11-14T11:04:30.000Z</time>
                <name>Position 1405</name>
            </trkpt>
            <trkpt lon="11.395166013389826" lat="49.40177698619664">
                <ele>427.92</ele>
                <time>2010-11-14T11:04:31.000Z</time>
                <name>Position 1406</name>
            </trkpt>
            <trkpt lon="11.394888991490006" lat="49.40153801813722">
                <ele>426.96</ele>
                <time>2010-11-14T11:04:34.000Z</time>
                <name>Position 1407</name>
            </trkpt>
            <trkpt lon="11.39481003396213" lat="49.401449002325535">
                <ele>426.96</ele>
                <time>2010-11-14T11:04:35.000Z</time>
                <name>Position 1408</name>
            </trkpt>
            <trkpt lon="11.394449025392532" lat="49.40085103735328">
                <ele>424.56</ele>
                <time>2010-11-14T11:04:42.000Z</time>
                <name>Position 1409</name>
            </trkpt>
            <trkpt lon="11.394374007359147" lat="49.40077199600637">
                <ele>424.56</ele>
                <time>2010-11-14T11:04:43.000Z</time>
                <name>Position 1410</name>
            </trkpt>
            <trkpt lon="11.394278034567833" lat="49.40070200711489">
                <ele>424.56</ele>
                <time>2010-11-14T11:04:44.000Z</time>
                <name>Position 1411</name>
            </trkpt>
            <trkpt lon="11.3941640406847" lat="49.40064501017332">
                <ele>424.56</ele>
                <time>2010-11-14T11:04:45.000Z</time>
                <name>Position 1412</name>
            </trkpt>
            <trkpt lon="11.394032025709748" lat="49.40060896798968">
                <ele>424.08</ele>
                <time>2010-11-14T11:04:46.000Z</time>
                <name>Position 1413</name>
            </trkpt>
            <trkpt lon="11.393890036270022" lat="49.40057896077633">
                <ele>423.6</ele>
                <time>2010-11-14T11:04:47.000Z</time>
                <name>Position 1414</name>
            </trkpt>
            <trkpt lon="11.393752992153168" lat="49.40057602711022">
                <ele>423.12</ele>
                <time>2010-11-14T11:04:48.000Z</time>
                <name>Position 1415</name>
            </trkpt>
            <trkpt lon="11.393622988834977" lat="49.40058398991823">
                <ele>423.6</ele>
                <time>2010-11-14T11:04:49.000Z</time>
                <name>Position 1416</name>
            </trkpt>
            <trkpt lon="11.393395001068711" lat="49.400587007403374">
                <ele>424.08</ele>
                <time>2010-11-14T11:04:51.000Z</time>
                <name>Position 1417</name>
            </trkpt>
            <trkpt lon="11.393298022449017" lat="49.40056001767516">
                <ele>423.6</ele>
                <time>2010-11-14T11:04:52.000Z</time>
                <name>Position 1418</name>
            </trkpt>
            <trkpt lon="11.393223004415631" lat="49.40051400102675">
                <ele>423.6</ele>
                <time>2010-11-14T11:04:53.000Z</time>
                <name>Position 1419</name>
            </trkpt>
            <trkpt lon="11.393163995817304" lat="49.400460021570325">
                <ele>423.12</ele>
                <time>2010-11-14T11:04:54.000Z</time>
                <name>Position 1420</name>
            </trkpt>
            <trkpt lon="11.393105993047357" lat="49.40041199326515">
                <ele>423.12</ele>
                <time>2010-11-14T11:04:55.000Z</time>
                <name>Position 1421</name>
            </trkpt>
            <trkpt lon="11.393042961135507" lat="49.40040302462876">
                <ele>421.68</ele>
                <time>2010-11-14T11:04:56.000Z</time>
                <name>Position 1422</name>
            </trkpt>
            <trkpt lon="11.392980013042688" lat="49.40042599104345">
                <ele>420.71</ele>
                <time>2010-11-14T11:04:57.000Z</time>
                <name>Position 1423</name>
            </trkpt>
            <trkpt lon="11.392916981130838" lat="49.400464966893196">
                <ele>420.23</ele>
                <time>2010-11-14T11:04:58.000Z</time>
                <name>Position 1424</name>
            </trkpt>
            <trkpt lon="11.392860990017653" lat="49.400521041825414">
                <ele>420.23</ele>
                <time>2010-11-14T11:04:59.000Z</time>
                <name>Position 1425</name>
            </trkpt>
            <trkpt lon="11.392820002511144" lat="49.400590024888515">
                <ele>419.75</ele>
                <time>2010-11-14T11:05:00.000Z</time>
                <name>Position 1426</name>
            </trkpt>
            <trkpt lon="11.392782032489777" lat="49.400650039315224">
                <ele>419.27</ele>
                <time>2010-11-14T11:05:01.000Z</time>
                <name>Position 1427</name>
            </trkpt>
            <trkpt lon="11.392750013619661" lat="49.400717010721564">
                <ele>419.75</ele>
                <time>2010-11-14T11:05:02.000Z</time>
                <name>Position 1428</name>
            </trkpt>
            <trkpt lon="11.392723023891449" lat="49.400822035968304">
                <ele>419.75</ele>
                <time>2010-11-14T11:05:03.000Z</time>
                <name>Position 1429</name>
            </trkpt>
            <trkpt lon="11.392687987536192" lat="49.400933012366295">
                <ele>419.75</ele>
                <time>2010-11-14T11:05:04.000Z</time>
                <name>Position 1430</name>
            </trkpt>
            <trkpt lon="11.39263803139329" lat="49.40104600042105">
                <ele>419.27</ele>
                <time>2010-11-14T11:05:05.000Z</time>
                <name>Position 1431</name>
            </trkpt>
            <trkpt lon="11.391854993999004" lat="49.4018720369786">
                <ele>418.31</ele>
                <time>2010-11-14T11:05:13.000Z</time>
                <name>Position 1432</name>
            </trkpt>
            <trkpt lon="11.391206989064813" lat="49.40235902555287">
                <ele>420.23</ele>
                <time>2010-11-14T11:05:19.000Z</time>
                <name>Position 1433</name>
            </trkpt>
            <trkpt lon="11.391124008223414" lat="49.40247201360762">
                <ele>419.75</ele>
                <time>2010-11-14T11:05:20.000Z</time>
                <name>Position 1434</name>
            </trkpt>
            <trkpt lon="11.391076985746622" lat="49.402610985562205">
                <ele>420.23</ele>
                <time>2010-11-14T11:05:21.000Z</time>
                <name>Position 1435</name>
            </trkpt>
            <trkpt lon="11.391058964654803" lat="49.40276596695185">
                <ele>420.23</ele>
                <time>2010-11-14T11:05:22.000Z</time>
                <name>Position 1436</name>
            </trkpt>
            <trkpt lon="11.391058964654803" lat="49.40293704159558">
                <ele>421.68</ele>
                <time>2010-11-14T11:05:23.000Z</time>
                <name>Position 1437</name>
            </trkpt>
            <trkpt lon="11.391066005453467" lat="49.40309998579323">
                <ele>422.16</ele>
                <time>2010-11-14T11:05:24.000Z</time>
                <name>Position 1438</name>
            </trkpt>
            <trkpt lon="11.391057958826423" lat="49.40338899381459">
                <ele>423.6</ele>
                <time>2010-11-14T11:05:26.000Z</time>
                <name>Position 1439</name>
            </trkpt>
            <trkpt lon="11.390988975763321" lat="49.403535006567836">
                <ele>423.12</ele>
                <time>2010-11-14T11:05:27.000Z</time>
                <name>Position 1440</name>
            </trkpt>
            <trkpt lon="11.390885962173343" lat="49.4036749843508">
                <ele>423.6</ele>
                <time>2010-11-14T11:05:28.000Z</time>
                <name>Position 1441</name>
            </trkpt>
            <trkpt lon="11.390260001644492" lat="49.404694978147745">
                <ele>426.96</ele>
                <time>2010-11-14T11:05:34.000Z</time>
                <name>Position 1442</name>
            </trkpt>
            <trkpt lon="11.389938974753022" lat="49.405254973098636">
                <ele>432.73</ele>
                <time>2010-11-14T11:05:37.000Z</time>
                <name>Position 1443</name>
            </trkpt>
            <trkpt lon="11.389776030555367" lat="49.405425963923335">
                <ele>434.17</ele>
                <time>2010-11-14T11:05:38.000Z</time>
                <name>Position 1444</name>
            </trkpt>
            <trkpt lon="11.388501981273293" lat="49.406693978235126">
                <ele>446.67</ele>
                <time>2010-11-14T11:05:45.000Z</time>
                <name>Position 1445</name>
            </trkpt>
            <trkpt lon="11.387756997719407" lat="49.407423958182335">
                <ele>454.84</ele>
                <time>2010-11-14T11:05:51.000Z</time>
                <name>Position 1446</name>
            </trkpt>
            <trkpt lon="11.38722700998187" lat="49.40785403363407">
                <ele>458.69</ele>
                <time>2010-11-14T11:05:56.000Z</time>
                <name>Position 1447</name>
            </trkpt>
            <trkpt lon="11.386567018926144" lat="49.4082270283252">
                <ele>460.13</ele>
                <time>2010-11-14T11:06:00.000Z</time>
                <name>Position 1448</name>
            </trkpt>
            <trkpt lon="11.386461993679404" lat="49.408325012773275">
                <ele>460.13</ele>
                <time>2010-11-14T11:06:01.000Z</time>
                <name>Position 1449</name>
            </trkpt>
            <trkpt lon="11.386381024494767" lat="49.408430960029364">
                <ele>460.61</ele>
                <time>2010-11-14T11:06:02.000Z</time>
                <name>Position 1450</name>
            </trkpt>
            <trkpt lon="11.38632201589644" lat="49.40854302607477">
                <ele>460.61</ele>
                <time>2010-11-14T11:06:03.000Z</time>
                <name>Position 1451</name>
            </trkpt>
            <trkpt lon="11.38628396205604" lat="49.40866297110915">
                <ele>461.57</ele>
                <time>2010-11-14T11:06:04.000Z</time>
                <name>Position 1452</name>
            </trkpt>
            <trkpt lon="11.386266024783254" lat="49.40878903493285">
                <ele>462.05</ele>
                <time>2010-11-14T11:06:05.000Z</time>
                <name>Position 1453</name>
            </trkpt>
            <trkpt lon="11.38626099564135" lat="49.408923983573914">
                <ele>462.53</ele>
                <time>2010-11-14T11:06:06.000Z</time>
                <name>Position 1454</name>
            </trkpt>
            <trkpt lon="11.386291002854705" lat="49.40953301265836">
                <ele>463.97</ele>
                <time>2010-11-14T11:06:11.000Z</time>
                <name>Position 1455</name>
            </trkpt>
            <trkpt lon="11.386297959834337" lat="49.40960903652012">
                <ele>466.86</ele>
                <time>2010-11-14T11:06:12.000Z</time>
                <name>Position 1456</name>
            </trkpt>
            <trkpt lon="11.386282034218311" lat="49.40968598239124">
                <ele>467.82</ele>
                <time>2010-11-14T11:06:13.000Z</time>
                <name>Position 1457</name>
            </trkpt>
            <trkpt lon="11.386222019791603" lat="49.409872982650995">
                <ele>469.74</ele>
                <time>2010-11-14T11:06:16.000Z</time>
                <name>Position 1458</name>
            </trkpt>
            <trkpt lon="11.38617399148643" lat="49.40991899929941">
                <ele>469.74</ele>
                <time>2010-11-14T11:06:17.000Z</time>
                <name>Position 1459</name>
            </trkpt>
            <trkpt lon="11.386106014251709" lat="49.4099419657141">
                <ele>470.22</ele>
                <time>2010-11-14T11:06:18.000Z</time>
                <name>Position 1460</name>
            </trkpt>
            <trkpt lon="11.385881965979934" lat="49.41009300760925">
                <ele>471.66</ele>
                <time>2010-11-14T11:06:21.000Z</time>
                <name>Position 1461</name>
            </trkpt>
            <trkpt lon="11.385065987706184" lat="49.41088501363993">
                <ele>479.35</ele>
                <time>2010-11-14T11:06:30.000Z</time>
                <name>Position 1462</name>
            </trkpt>
            <trkpt lon="11.384962974116206" lat="49.41096103750169">
                <ele>480.32</ele>
                <time>2010-11-14T11:06:31.000Z</time>
                <name>Position 1463</name>
            </trkpt>
            <trkpt lon="11.384858032688498" lat="49.411030020564795">
                <ele>481.28</ele>
                <time>2010-11-14T11:06:32.000Z</time>
                <name>Position 1464</name>
            </trkpt>
            <trkpt lon="11.38462400995195" lat="49.4111489597708">
                <ele>483.2</ele>
                <time>2010-11-14T11:06:34.000Z</time>
                <name>Position 1465</name>
            </trkpt>
            <trkpt lon="11.38447699137032" lat="49.411202017217875">
                <ele>484.16</ele>
                <time>2010-11-14T11:06:35.000Z</time>
                <name>Position 1466</name>
            </trkpt>
            <trkpt lon="11.38402202166617" lat="49.41133797168732">
                <ele>487.05</ele>
                <time>2010-11-14T11:06:38.000Z</time>
                <name>Position 1467</name>
            </trkpt>
            <trkpt lon="11.383879026398063" lat="49.41136403940618">
                <ele>487.53</ele>
                <time>2010-11-14T11:06:39.000Z</time>
                <name>Position 1468</name>
            </trkpt>
            <trkpt lon="11.383458003401756" lat="49.411418018862605">
                <ele>489.93</ele>
                <time>2010-11-14T11:06:42.000Z</time>
                <name>Position 1469</name>
            </trkpt>
            <trkpt lon="11.383330011740327" lat="49.411440985277295">
                <ele>491.37</ele>
                <time>2010-11-14T11:06:43.000Z</time>
                <name>Position 1470</name>
            </trkpt>
            <trkpt lon="11.383215012028813" lat="49.41147803328931">
                <ele>492.33</ele>
                <time>2010-11-14T11:06:44.000Z</time>
                <name>Position 1471</name>
            </trkpt>
            <trkpt lon="11.383125996217132" lat="49.41153603605926">
                <ele>493.29</ele>
                <time>2010-11-14T11:06:45.000Z</time>
                <name>Position 1472</name>
            </trkpt>
            <trkpt lon="11.38305600732565" lat="49.4115979783237">
                <ele>493.29</ele>
                <time>2010-11-14T11:06:46.000Z</time>
                <name>Position 1473</name>
            </trkpt>
            <trkpt lon="11.38301300816238" lat="49.41166897304356">
                <ele>493.77</ele>
                <time>2010-11-14T11:06:47.000Z</time>
                <name>Position 1474</name>
            </trkpt>
            <trkpt lon="11.383010996505618" lat="49.4117549713701">
                <ele>493.77</ele>
                <time>2010-11-14T11:06:48.000Z</time>
                <name>Position 1475</name>
            </trkpt>
            <trkpt lon="11.383046032860875" lat="49.411849016323686">
                <ele>494.26</ele>
                <time>2010-11-14T11:06:49.000Z</time>
                <name>Position 1476</name>
            </trkpt>
            <trkpt lon="11.383096994832158" lat="49.41192897967994">
                <ele>494.26</ele>
                <time>2010-11-14T11:06:50.000Z</time>
                <name>Position 1477</name>
            </trkpt>
            <trkpt lon="11.383183998987079" lat="49.411998968571424">
                <ele>495.7</ele>
                <time>2010-11-14T11:06:51.000Z</time>
                <name>Position 1478</name>
            </trkpt>
            <trkpt lon="11.383310984820127" lat="49.41204599104822">
                <ele>497.62</ele>
                <time>2010-11-14T11:06:52.000Z</time>
                <name>Position 1479</name>
            </trkpt>
            <trkpt lon="11.383461020886898" lat="49.412083039060235">
                <ele>498.58</ele>
                <time>2010-11-14T11:06:53.000Z</time>
                <name>Position 1480</name>
            </trkpt>
            <trkpt lon="11.383630000054836" lat="49.412107011303306">
                <ele>499.06</ele>
                <time>2010-11-14T11:06:54.000Z</time>
                <name>Position 1481</name>
            </trkpt>
            <trkpt lon="11.383804008364677" lat="49.412130983546376">
                <ele>500.02</ele>
                <time>2010-11-14T11:06:55.000Z</time>
                <name>Position 1482</name>
            </trkpt>
            <trkpt lon="11.384101985022426" lat="49.412190997973084">
                <ele>501.46</ele>
                <time>2010-11-14T11:06:57.000Z</time>
                <name>Position 1483</name>
            </trkpt>
            <trkpt lon="11.384235005825758" lat="49.412233997136354">
                <ele>502.43</ele>
                <time>2010-11-14T11:06:58.000Z</time>
                <name>Position 1484</name>
            </trkpt>
            <trkpt lon="11.384351011365652" lat="49.41228898242116">
                <ele>503.39</ele>
                <time>2010-11-14T11:06:59.000Z</time>
                <name>Position 1485</name>
            </trkpt>
            <trkpt lon="11.384436003863811" lat="49.41235796548426">
                <ele>503.87</ele>
                <time>2010-11-14T11:07:00.000Z</time>
                <name>Position 1486</name>
            </trkpt>
            <trkpt lon="11.384500041604042" lat="49.41244203597307">
                <ele>504.35</ele>
                <time>2010-11-14T11:07:01.000Z</time>
                <name>Position 1487</name>
            </trkpt>
            <trkpt lon="11.384532982483506" lat="49.41254102624953">
                <ele>505.31</ele>
                <time>2010-11-14T11:07:02.000Z</time>
                <name>Position 1488</name>
            </trkpt>
            <trkpt lon="11.384535999968648" lat="49.41265703178942">
                <ele>506.27</ele>
                <time>2010-11-14T11:07:03.000Z</time>
                <name>Position 1489</name>
            </trkpt>
            <trkpt lon="11.384503981098533" lat="49.4127909746021">
                <ele>506.27</ele>
                <time>2010-11-14T11:07:04.000Z</time>
                <name>Position 1490</name>
            </trkpt>
            <trkpt lon="11.384447989985347" lat="49.412925001233816">
                <ele>507.71</ele>
                <time>2010-11-14T11:07:05.000Z</time>
                <name>Position 1491</name>
            </trkpt>
            <trkpt lon="11.384160993620753" lat="49.413633020594716">
                <ele>512.52</ele>
                <time>2010-11-14T11:07:10.000Z</time>
                <name>Position 1492</name>
            </trkpt>
            <trkpt lon="11.384140038862824" lat="49.413781967014074">
                <ele>513.48</ele>
                <time>2010-11-14T11:07:11.000Z</time>
                <name>Position 1493</name>
            </trkpt>
            <trkpt lon="11.384148001670837" lat="49.41393502056599">
                <ele>514.44</ele>
                <time>2010-11-14T11:07:12.000Z</time>
                <name>Position 1494</name>
            </trkpt>
            <trkpt lon="11.384179014712572" lat="49.41408698447049">
                <ele>515.88</ele>
                <time>2010-11-14T11:07:13.000Z</time>
                <name>Position 1495</name>
            </trkpt>
            <trkpt lon="11.384215978905559" lat="49.414230985566974">
                <ele>517.33</ele>
                <time>2010-11-14T11:07:14.000Z</time>
                <name>Position 1496</name>
            </trkpt>
            <trkpt lon="11.384307006374002" lat="49.414663994684815">
                <ele>521.65</ele>
                <time>2010-11-14T11:07:18.000Z</time>
                <name>Position 1497</name>
            </trkpt>
            <trkpt lon="11.384292002767324" lat="49.41474203020334">
                <ele>524.06</ele>
                <time>2010-11-14T11:07:19.000Z</time>
                <name>Position 1498</name>
            </trkpt>
            <trkpt lon="11.384250009432435" lat="49.41482501104474">
                <ele>525.5</ele>
                <time>2010-11-14T11:07:20.000Z</time>
                <name>Position 1499</name>
            </trkpt>
            <trkpt lon="11.384170968085527" lat="49.41490799188614">
                <ele>525.98</ele>
                <time>2010-11-14T11:07:21.000Z</time>
                <name>Position 1500</name>
            </trkpt>
            <trkpt lon="11.384054040536284" lat="49.41497999243438">
                <ele>527.42</ele>
                <time>2010-11-14T11:07:22.000Z</time>
                <name>Position 1501</name>
            </trkpt>
            <trkpt lon="11.383914984762669" lat="49.41505702212453">
                <ele>527.9</ele>
                <time>2010-11-14T11:07:23.000Z</time>
                <name>Position 1502</name>
            </trkpt>
            <trkpt lon="11.382437003776431" lat="49.41586202010512">
                <ele>536.55</ele>
                <time>2010-11-14T11:07:31.000Z</time>
                <name>Position 1503</name>
            </trkpt>
            <trkpt lon="11.381692020222545" lat="49.41629100590944">
                <ele>540.4</ele>
                <time>2010-11-14T11:07:35.000Z</time>
                <name>Position 1504</name>
            </trkpt>
            <trkpt lon="11.38159696944058" lat="49.41639200784266">
                <ele>541.36</ele>
                <time>2010-11-14T11:07:36.000Z</time>
                <name>Position 1505</name>
            </trkpt>
            <trkpt lon="11.381549024954438" lat="49.416510025039315">
                <ele>542.32</ele>
                <time>2010-11-14T11:07:37.000Z</time>
                <name>Position 1506</name>
            </trkpt>
            <trkpt lon="11.38144601136446" lat="49.416789980605245">
                <ele>543.76</ele>
                <time>2010-11-14T11:07:39.000Z</time>
                <name>Position 1507</name>
            </trkpt>
            <trkpt lon="11.38133604079485" lat="49.416944961994886">
                <ele>544.72</ele>
                <time>2010-11-14T11:07:40.000Z</time>
                <name>Position 1508</name>
            </trkpt>
            <trkpt lon="11.380418976768851" lat="49.4179630279541">
                <ele>552.41</ele>
                <time>2010-11-14T11:07:46.000Z</time>
                <name>Position 1509</name>
            </trkpt>
            <trkpt lon="11.379489004611969" lat="49.419131968170404">
                <ele>557.7</ele>
                <time>2010-11-14T11:07:54.000Z</time>
                <name>Position 1510</name>
            </trkpt>
            <trkpt lon="11.378516033291817" lat="49.42005900666118">
                <ele>554.82</ele>
                <time>2010-11-14T11:08:01.000Z</time>
                <name>Position 1511</name>
            </trkpt>
            <trkpt lon="11.378392986953259" lat="49.42020200192928">
                <ele>554.34</ele>
                <time>2010-11-14T11:08:02.000Z</time>
                <name>Position 1512</name>
            </trkpt>
            <trkpt lon="11.377487992867827" lat="49.42118897102773">
                <ele>554.82</ele>
                <time>2010-11-14T11:08:08.000Z</time>
                <name>Position 1513</name>
            </trkpt>
            <trkpt lon="11.377306021749973" lat="49.42131897434592">
                <ele>555.3</ele>
                <time>2010-11-14T11:08:09.000Z</time>
                <name>Position 1514</name>
            </trkpt>
            <trkpt lon="11.377096977084875" lat="49.421427017077804">
                <ele>556.26</ele>
                <time>2010-11-14T11:08:10.000Z</time>
                <name>Position 1515</name>
            </trkpt>
            <trkpt lon="11.376708978787065" lat="49.42160798236728">
                <ele>558.66</ele>
                <time>2010-11-14T11:08:12.000Z</time>
                <name>Position 1516</name>
            </trkpt>
            <trkpt lon="11.376555003225803" lat="49.42170496098697">
                <ele>559.14</ele>
                <time>2010-11-14T11:08:13.000Z</time>
                <name>Position 1517</name>
            </trkpt>
            <trkpt lon="11.376428017392755" lat="49.4218020234257">
                <ele>560.11</ele>
                <time>2010-11-14T11:08:14.000Z</time>
                <name>Position 1518</name>
            </trkpt>
            <trkpt lon="11.37633003294468" lat="49.421904031187296">
                <ele>560.59</ele>
                <time>2010-11-14T11:08:15.000Z</time>
                <name>Position 1519</name>
            </trkpt>
            <trkpt lon="11.376275969669223" lat="49.42202397622168">
                <ele>561.55</ele>
                <time>2010-11-14T11:08:16.000Z</time>
                <name>Position 1520</name>
            </trkpt>
            <trkpt lon="11.376250991597772" lat="49.422160014510155">
                <ele>562.51</ele>
                <time>2010-11-14T11:08:17.000Z</time>
                <name>Position 1521</name>
            </trkpt>
            <trkpt lon="11.376234982162714" lat="49.422311978414655">
                <ele>562.99</ele>
                <time>2010-11-14T11:08:18.000Z</time>
                <name>Position 1522</name>
            </trkpt>
            <trkpt lon="11.375942034646869" lat="49.42318403162062">
                <ele>564.43</ele>
                <time>2010-11-14T11:08:25.000Z</time>
                <name>Position 1523</name>
            </trkpt>
            <trkpt lon="11.375801973044872" lat="49.423600025475025">
                <ele>562.99</ele>
                <time>2010-11-14T11:08:30.000Z</time>
                <name>Position 1524</name>
            </trkpt>
            <trkpt lon="11.37581697665155" lat="49.42367102019489">
                <ele>562.51</ele>
                <time>2010-11-14T11:08:31.000Z</time>
                <name>Position 1525</name>
            </trkpt>
            <trkpt lon="11.375867016613483" lat="49.42373497411609">
                <ele>562.51</ele>
                <time>2010-11-14T11:08:32.000Z</time>
                <name>Position 1526</name>
            </trkpt>
            <trkpt lon="11.375953014940023" lat="49.423793982714415">
                <ele>562.51</ele>
                <time>2010-11-14T11:08:33.000Z</time>
                <name>Position 1527</name>
            </trkpt>
            <trkpt lon="11.376072959974408" lat="49.423858020454645">
                <ele>562.03</ele>
                <time>2010-11-14T11:08:34.000Z</time>
                <name>Position 1528</name>
            </trkpt>
            <trkpt lon="11.377107035368681" lat="49.424406029284">
                <ele>561.07</ele>
                <time>2010-11-14T11:08:40.000Z</time>
                <name>Position 1529</name>
            </trkpt>
            <trkpt lon="11.379179041832685" lat="49.425386963412166">
                <ele>560.59</ele>
                <time>2010-11-14T11:08:50.000Z</time>
                <name>Position 1530</name>
            </trkpt>
            <trkpt lon="11.380169028416276" lat="49.42590798251331">
                <ele>560.59</ele>
                <time>2010-11-14T11:08:56.000Z</time>
                <name>Position 1531</name>
            </trkpt>
            <trkpt lon="11.380257960408926" lat="49.426008984446526">
                <ele>560.11</ele>
                <time>2010-11-14T11:08:57.000Z</time>
                <name>Position 1532</name>
            </trkpt>
            <trkpt lon="11.38030900619924" lat="49.42612398415804">
                <ele>560.59</ele>
                <time>2010-11-14T11:08:58.000Z</time>
                <name>Position 1533</name>
            </trkpt>
            <trkpt lon="11.380325015634298" lat="49.42625096999109">
                <ele>560.59</ele>
                <time>2010-11-14T11:08:59.000Z</time>
                <name>Position 1534</name>
            </trkpt>
            <trkpt lon="11.380323003977537" lat="49.42637896165252">
                <ele>560.59</ele>
                <time>2010-11-14T11:09:00.000Z</time>
                <name>Position 1535</name>
            </trkpt>
            <trkpt lon="11.380317974835634" lat="49.426498990505934">
                <ele>561.07</ele>
                <time>2010-11-14T11:09:01.000Z</time>
                <name>Position 1536</name>
            </trkpt>
            <trkpt lon="11.380311017856002" lat="49.4267129804939">
                <ele>561.07</ele>
                <time>2010-11-14T11:09:03.000Z</time>
                <name>Position 1537</name>
            </trkpt>
            <trkpt lon="11.38033197261393" lat="49.426804007962346">
                <ele>561.55</ele>
                <time>2010-11-14T11:09:04.000Z</time>
                <name>Position 1538</name>
            </trkpt>
            <trkpt lon="11.380380000919104" lat="49.42688195966184">
                <ele>562.03</ele>
                <time>2010-11-14T11:09:05.000Z</time>
                <name>Position 1539</name>
            </trkpt>
            <trkpt lon="11.380445966497064" lat="49.426949014887214">
                <ele>562.03</ele>
                <time>2010-11-14T11:09:06.000Z</time>
                <name>Position 1540</name>
            </trkpt>
            <trkpt lon="11.380530958995223" lat="49.42700902931392">
                <ele>562.03</ele>
                <time>2010-11-14T11:09:07.000Z</time>
                <name>Position 1541</name>
            </trkpt>
            <trkpt lon="11.380654005333781" lat="49.42706602625549">
                <ele>561.55</ele>
                <time>2010-11-14T11:09:08.000Z</time>
                <name>Position 1542</name>
            </trkpt>
            <trkpt lon="11.380814015865326" lat="49.427124029025435">
                <ele>561.55</ele>
                <time>2010-11-14T11:09:09.000Z</time>
                <name>Position 1543</name>
            </trkpt>
            <trkpt lon="11.381007973104715" lat="49.427189994603395">
                <ele>561.55</ele>
                <time>2010-11-14T11:09:10.000Z</time>
                <name>Position 1544</name>
            </trkpt>
            <trkpt lon="11.38237003237009" lat="49.427704978734255">
                <ele>561.55</ele>
                <time>2010-11-14T11:09:15.000Z</time>
                <name>Position 1545</name>
            </trkpt>
            <trkpt lon="11.383847007527947" lat="49.428415009751916">
                <ele>563.95</ele>
                <time>2010-11-14T11:09:21.000Z</time>
                <name>Position 1546</name>
            </trkpt>
            <trkpt lon="11.383996037766337" lat="49.42853403277695">
                <ele>563.95</ele>
                <time>2010-11-14T11:09:22.000Z</time>
                <name>Position 1547</name>
            </trkpt>
            <trkpt lon="11.384100979194045" lat="49.428668981418014">
                <ele>563.95</ele>
                <time>2010-11-14T11:09:23.000Z</time>
                <name>Position 1548</name>
            </trkpt>
            <trkpt lon="11.384165016934276" lat="49.428821029141545">
                <ele>563.95</ele>
                <time>2010-11-14T11:09:24.000Z</time>
                <name>Position 1549</name>
            </trkpt>
            <trkpt lon="11.38419896364212" lat="49.42898799665272">
                <ele>564.43</ele>
                <time>2010-11-14T11:09:25.000Z</time>
                <name>Position 1550</name>
            </trkpt>
            <trkpt lon="11.3842189963907" lat="49.429165022447705">
                <ele>563.95</ele>
                <time>2010-11-14T11:09:26.000Z</time>
                <name>Position 1551</name>
            </trkpt>
            <trkpt lon="11.384535999968648" lat="49.43134599365294">
                <ele>552.41</ele>
                <time>2010-11-14T11:09:38.000Z</time>
                <name>Position 1552</name>
            </trkpt>
            <trkpt lon="11.384770022705197" lat="49.43242600187659">
                <ele>545.69</ele>
                <time>2010-11-14T11:09:45.000Z</time>
                <name>Position 1553</name>
            </trkpt>
            <trkpt lon="11.38473297469318" lat="49.43256497383118">
                <ele>545.2</ele>
                <time>2010-11-14T11:09:46.000Z</time>
                <name>Position 1554</name>
            </trkpt>
            <trkpt lon="11.384663991630077" lat="49.43269397132099">
                <ele>544.72</ele>
                <time>2010-11-14T11:09:47.000Z</time>
                <name>Position 1555</name>
            </trkpt>
            <trkpt lon="11.384546980261803" lat="49.43293302319944">
                <ele>544.24</ele>
                <time>2010-11-14T11:09:49.000Z</time>
                <name>Position 1556</name>
            </trkpt>
            <trkpt lon="11.384549997746944" lat="49.43304399959743">
                <ele>544.24</ele>
                <time>2010-11-14T11:09:50.000Z</time>
                <name>Position 1557</name>
            </trkpt>
            <trkpt lon="11.38458101078868" lat="49.433139972388744">
                <ele>544.24</ele>
                <time>2010-11-14T11:09:51.000Z</time>
                <name>Position 1558</name>
            </trkpt>
            <trkpt lon="11.384633984416723" lat="49.43319596350193">
                <ele>544.72</ele>
                <time>2010-11-14T11:09:52.000Z</time>
                <name>Position 1559</name>
            </trkpt>
            <trkpt lon="11.384715037420392" lat="49.43322102539241">
                <ele>543.76</ele>
                <time>2010-11-14T11:09:53.000Z</time>
                <name>Position 1560</name>
            </trkpt>
            <trkpt lon="11.384822996333241" lat="49.43321901373565">
                <ele>543.28</ele>
                <time>2010-11-14T11:09:54.000Z</time>
                <name>Position 1561</name>
            </trkpt>
            <trkpt lon="11.384957022964954" lat="49.43319001235068">
                <ele>542.8</ele>
                <time>2010-11-14T11:09:55.000Z</time>
                <name>Position 1562</name>
            </trkpt>
            <trkpt lon="11.385116027668118" lat="49.43314902484417">
                <ele>541.84</ele>
                <time>2010-11-14T11:09:56.000Z</time>
                <name>Position 1563</name>
            </trkpt>
            <trkpt lon="11.385299004614353" lat="49.43311097100377">
                <ele>540.4</ele>
                <time>2010-11-14T11:09:57.000Z</time>
                <name>Position 1564</name>
            </trkpt>
            <trkpt lon="11.385496985167265" lat="49.4330869987607">
                <ele>538.48</ele>
                <time>2010-11-14T11:09:58.000Z</time>
                <name>Position 1565</name>
            </trkpt>
            <trkpt lon="11.385708963498473" lat="49.43307903595269">
                <ele>536.55</ele>
                <time>2010-11-14T11:09:59.000Z</time>
                <name>Position 1566</name>
            </trkpt>
            <trkpt lon="11.38593502342701" lat="49.43308901041746">
                <ele>534.15</ele>
                <time>2010-11-14T11:10:00.000Z</time>
                <name>Position 1567</name>
            </trkpt>
            <trkpt lon="11.386159993708134" lat="49.43310895934701">
                <ele>532.71</ele>
                <time>2010-11-14T11:10:01.000Z</time>
                <name>Position 1568</name>
            </trkpt>
            <trkpt lon="11.386380018666387" lat="49.433138966560364">
                <ele>531.75</ele>
                <time>2010-11-14T11:10:02.000Z</time>
                <name>Position 1569</name>
            </trkpt>
            <trkpt lon="11.388029996305704" lat="49.433545991778374">
                <ele>521.17</ele>
                <time>2010-11-14T11:10:09.000Z</time>
                <name>Position 1570</name>
            </trkpt>
            <trkpt lon="11.389830010011792" lat="49.43389803171158">
                <ele>507.71</ele>
                <time>2010-11-14T11:10:16.000Z</time>
                <name>Position 1571</name>
            </trkpt>
            <trkpt lon="11.390313981100917" lat="49.43398302420974">
                <ele>503.39</ele>
                <time>2010-11-14T11:10:18.000Z</time>
                <name>Position 1572</name>
            </trkpt>
            <trkpt lon="11.391120990738273" lat="49.434086959809065">
                <ele>498.58</ele>
                <time>2010-11-14T11:10:21.000Z</time>
                <name>Position 1573</name>
            </trkpt>
            <trkpt lon="11.392424963414669" lat="49.43437496200204">
                <ele>494.26</ele>
                <time>2010-11-14T11:10:26.000Z</time>
                <name>Position 1574</name>
            </trkpt>
            <trkpt lon="11.393598010763526" lat="49.434796990826726">
                <ele>488.97</ele>
                <time>2010-11-14T11:10:32.000Z</time>
                <name>Position 1575</name>
            </trkpt>
            <trkpt lon="11.394585985690355" lat="49.435031013563275">
                <ele>484.16</ele>
                <time>2010-11-14T11:10:38.000Z</time>
                <name>Position 1576</name>
            </trkpt>
            <trkpt lon="11.395511012524366" lat="49.43538296967745">
                <ele>479.35</ele>
                <time>2010-11-14T11:10:45.000Z</time>
                <name>Position 1577</name>
            </trkpt>
            <trkpt lon="11.39562701806426" lat="49.435395039618015">
                <ele>478.39</ele>
                <time>2010-11-14T11:10:46.000Z</time>
                <name>Position 1578</name>
            </trkpt>
            <trkpt lon="11.395980985835195" lat="49.43544700741768">
                <ele>477.43</ele>
                <time>2010-11-14T11:10:49.000Z</time>
                <name>Position 1579</name>
            </trkpt>
            <trkpt lon="11.396488007158041" lat="49.4355340115726">
                <ele>475.51</ele>
                <time>2010-11-14T11:10:53.000Z</time>
                <name>Position 1580</name>
            </trkpt>
            <trkpt lon="11.39807696454227" lat="49.43577096797526">
                <ele>472.14</ele>
                <time>2010-11-14T11:11:02.000Z</time>
                <name>Position 1581</name>
            </trkpt>
            <trkpt lon="11.400035982951522" lat="49.4360660109669">
                <ele>466.86</ele>
                <time>2010-11-14T11:11:11.000Z</time>
                <name>Position 1582</name>
            </trkpt>
            <trkpt lon="11.401699958369136" lat="49.43590097129345">
                <ele>459.65</ele>
                <time>2010-11-14T11:11:17.000Z</time>
                <name>Position 1583</name>
            </trkpt>
            <trkpt lon="11.403399975970387" lat="49.435269981622696">
                <ele>452.92</ele>
                <time>2010-11-14T11:11:23.000Z</time>
                <name>Position 1584</name>
            </trkpt>
            <trkpt lon="11.40561799518764" lat="49.43424001336098">
                <ele>446.67</ele>
                <time>2010-11-14T11:11:30.000Z</time>
                <name>Position 1585</name>
            </trkpt>
            <trkpt lon="11.40630698762834" lat="49.433829970657825">
                <ele>444.75</ele>
                <time>2010-11-14T11:11:33.000Z</time>
                <name>Position 1586</name>
            </trkpt>
            <trkpt lon="11.406514020636678" lat="49.433658979833126">
                <ele>443.79</ele>
                <time>2010-11-14T11:11:34.000Z</time>
                <name>Position 1587</name>
            </trkpt>
            <trkpt lon="11.407794021070004" lat="49.43247604183853">
                <ele>436.1</ele>
                <time>2010-11-14T11:11:40.000Z</time>
                <name>Position 1588</name>
            </trkpt>
            <trkpt lon="11.408952986821532" lat="49.43149896338582">
                <ele>427.44</ele>
                <time>2010-11-14T11:11:46.000Z</time>
                <name>Position 1589</name>
            </trkpt>
            <trkpt lon="11.410548985004425" lat="49.43051501177251">
                <ele>422.16</ele>
                <time>2010-11-14T11:11:53.000Z</time>
                <name>Position 1590</name>
            </trkpt>
            <trkpt lon="11.410846961662173" lat="49.430325999855995">
                <ele>422.64</ele>
                <time>2010-11-14T11:11:56.000Z</time>
                <name>Position 1591</name>
            </trkpt>
            <trkpt lon="11.410891972482204" lat="49.43029004149139">
                <ele>423.12</ele>
                <time>2010-11-14T11:11:57.000Z</time>
                <name>Position 1592</name>
            </trkpt>
            <trkpt lon="11.411029016599059" lat="49.43020597100258">
                <ele>423.6</ele>
                <time>2010-11-14T11:12:01.000Z</time>
                <name>Position 1593</name>
            </trkpt>
            <trkpt lon="11.411114009097219" lat="49.43020102567971">
                <ele>423.6</ele>
                <time>2010-11-14T11:12:02.000Z</time>
                <name>Position 1594</name>
            </trkpt>
            <trkpt lon="11.411228002980351" lat="49.43020303733647">
                <ele>423.12</ele>
                <time>2010-11-14T11:12:03.000Z</time>
                <name>Position 1595</name>
            </trkpt>
            <trkpt lon="11.412460980936885" lat="49.43023497238755">
                <ele>420.71</ele>
                <time>2010-11-14T11:12:10.000Z</time>
                <name>Position 1596</name>
            </trkpt>
            <trkpt lon="11.41384701244533" lat="49.430345026776195">
                <ele>418.79</ele>
                <time>2010-11-14T11:12:17.000Z</time>
                <name>Position 1597</name>
            </trkpt>
            <trkpt lon="11.415002960711718" lat="49.43059296347201">
                <ele>417.83</ele>
                <time>2010-11-14T11:12:22.000Z</time>
                <name>Position 1598</name>
            </trkpt>
            <trkpt lon="11.415215022861958" lat="49.430607967078686">
                <ele>417.83</ele>
                <time>2010-11-14T11:12:23.000Z</time>
                <name>Position 1599</name>
            </trkpt>
            <trkpt lon="11.415430018678308" lat="49.43060000427067">
                <ele>417.83</ele>
                <time>2010-11-14T11:12:24.000Z</time>
                <name>Position 1600</name>
            </trkpt>
            <trkpt lon="11.415636967867613" lat="49.430563962087035">
                <ele>417.83</ele>
                <time>2010-11-14T11:12:25.000Z</time>
                <name>Position 1601</name>
            </trkpt>
            <trkpt lon="11.415827991440892" lat="49.43051300011575">
                <ele>417.83</ele>
                <time>2010-11-14T11:12:26.000Z</time>
                <name>Position 1602</name>
            </trkpt>
            <trkpt lon="11.416000993922353" lat="49.43046798929572">
                <ele>417.35</ele>
                <time>2010-11-14T11:12:27.000Z</time>
                <name>Position 1603</name>
            </trkpt>
            <trkpt lon="11.416180031374097" lat="49.43044602870941">
                <ele>417.35</ele>
                <time>2010-11-14T11:12:28.000Z</time>
                <name>Position 1604</name>
            </trkpt>
            <trkpt lon="11.416351022198796" lat="49.43044703453779">
                <ele>417.35</ele>
                <time>2010-11-14T11:12:29.000Z</time>
                <name>Position 1605</name>
            </trkpt>
            <trkpt lon="11.416500974446535" lat="49.43046203814447">
                <ele>416.87</ele>
                <time>2010-11-14T11:12:30.000Z</time>
                <name>Position 1606</name>
            </trkpt>
            <trkpt lon="11.416619997471571" lat="49.43048500455916">
                <ele>416.87</ele>
                <time>2010-11-14T11:12:31.000Z</time>
                <name>Position 1607</name>
            </trkpt>
            <trkpt lon="11.416713036596775" lat="49.430520962923765">
                <ele>416.87</ele>
                <time>2010-11-14T11:12:32.000Z</time>
                <name>Position 1608</name>
            </trkpt>
            <trkpt lon="11.416777996346354" lat="49.43057502619922">
                <ele>416.39</ele>
                <time>2010-11-14T11:12:33.000Z</time>
                <name>Position 1609</name>
            </trkpt>
            <trkpt lon="11.416815966367722" lat="49.4306399859488">
                <ele>415.91</ele>
                <time>2010-11-14T11:12:34.000Z</time>
                <name>Position 1610</name>
            </trkpt>
            <trkpt lon="11.416828958317637" lat="49.430713998153806">
                <ele>415.91</ele>
                <time>2010-11-14T11:12:35.000Z</time>
                <name>Position 1611</name>
            </trkpt>
            <trkpt lon="11.416824012994766" lat="49.430798990651965">
                <ele>415.43</ele>
                <time>2010-11-14T11:12:36.000Z</time>
                <name>Position 1612</name>
            </trkpt>
            <trkpt lon="11.416814038529992" lat="49.430884988978505">
                <ele>415.43</ele>
                <time>2010-11-14T11:12:37.000Z</time>
                <name>Position 1613</name>
            </trkpt>
            <trkpt lon="11.416800962761045" lat="49.43115698173642">
                <ele>414.95</ele>
                <time>2010-11-14T11:12:40.000Z</time>
                <name>Position 1614</name>
            </trkpt>
            <trkpt lon="11.416817978024483" lat="49.43124499171972">
                <ele>414.95</ele>
                <time>2010-11-14T11:12:41.000Z</time>
                <name>Position 1615</name>
            </trkpt>
            <trkpt lon="11.416851002722979" lat="49.43131900392473">
                <ele>414.95</ele>
                <time>2010-11-14T11:12:42.000Z</time>
                <name>Position 1616</name>
            </trkpt>
            <trkpt lon="11.41691797412932" lat="49.43137398920953">
                <ele>415.43</ele>
                <time>2010-11-14T11:12:43.000Z</time>
                <name>Position 1617</name>
            </trkpt>
            <trkpt lon="11.41696197912097" lat="49.431440038606524">
                <ele>415.91</ele>
                <time>2010-11-14T11:12:44.000Z</time>
                <name>Position 1618</name>
            </trkpt>
            <trkpt lon="11.416978994384408" lat="49.4315139669925">
                <ele>416.39</ele>
                <time>2010-11-14T11:12:45.000Z</time>
                <name>Position 1619</name>
            </trkpt>
            <trkpt lon="11.416954016312957" lat="49.431592002511024">
                <ele>417.83</ele>
                <time>2010-11-14T11:12:46.000Z</time>
                <name>Position 1620</name>
            </trkpt>
            <trkpt lon="11.416945969685912" lat="49.43166299723089">
                <ele>418.31</ele>
                <time>2010-11-14T11:12:47.000Z</time>
                <name>Position 1621</name>
            </trkpt>
            <trkpt lon="11.416967008262873" lat="49.431762993335724">
                <ele>417.35</ele>
                <time>2010-11-14T11:12:48.000Z</time>
                <name>Position 1622</name>
            </trkpt>
            <trkpt lon="11.417012019082904" lat="49.43185402080417">
                <ele>417.35</ele>
                <time>2010-11-14T11:12:49.000Z</time>
                <name>Position 1623</name>
            </trkpt>
            <trkpt lon="11.417083013802767" lat="49.431939013302326">
                <ele>417.83</ele>
                <time>2010-11-14T11:12:50.000Z</time>
                <name>Position 1624</name>
            </trkpt>
            <trkpt lon="11.417165994644165" lat="49.43203096278012">
                <ele>417.35</ele>
                <time>2010-11-14T11:12:51.000Z</time>
                <name>Position 1625</name>
            </trkpt>
            <trkpt lon="11.417249981313944" lat="49.43211402744055">
                <ele>416.87</ele>
                <time>2010-11-14T11:12:52.000Z</time>
                <name>Position 1626</name>
            </trkpt>
            <trkpt lon="11.417354000732303" lat="49.43217999301851">
                <ele>416.39</ele>
                <time>2010-11-14T11:12:53.000Z</time>
                <name>Position 1627</name>
            </trkpt>
            <trkpt lon="11.417464977130294" lat="49.432239001616836">
                <ele>416.39</ele>
                <time>2010-11-14T11:12:54.000Z</time>
                <name>Position 1628</name>
            </trkpt>
            <trkpt lon="11.417925981804729" lat="49.43244704045355">
                <ele>417.35</ele>
                <time>2010-11-14T11:12:58.000Z</time>
                <name>Position 1629</name>
            </trkpt>
            <trkpt lon="11.417983984574676" lat="49.43250403739512">
                <ele>417.35</ele>
                <time>2010-11-14T11:12:59.000Z</time>
                <name>Position 1630</name>
            </trkpt>
            <trkpt lon="11.417987002059817" lat="49.4325880240649">
                <ele>417.35</ele>
                <time>2010-11-14T11:13:00.000Z</time>
                <name>Position 1631</name>
            </trkpt>
            <trkpt lon="11.41794802621007" lat="49.43269103765488">
                <ele>417.35</ele>
                <time>2010-11-14T11:13:01.000Z</time>
                <name>Position 1632</name>
            </trkpt>
            <trkpt lon="11.417902009561658" lat="49.4328089710325">
                <ele>417.83</ele>
                <time>2010-11-14T11:13:02.000Z</time>
                <name>Position 1633</name>
            </trkpt>
            <trkpt lon="11.417875019833446" lat="49.432923970744014">
                <ele>418.31</ele>
                <time>2010-11-14T11:13:03.000Z</time>
                <name>Position 1634</name>
            </trkpt>
            <trkpt lon="11.417869990691543" lat="49.43307199515402">
                <ele>418.79</ele>
                <time>2010-11-14T11:13:04.000Z</time>
                <name>Position 1635</name>
            </trkpt>
            <trkpt lon="11.417942997068167" lat="49.43351598456502">
                <ele>420.71</ele>
                <time>2010-11-14T11:13:08.000Z</time>
                <name>Position 1636</name>
            </trkpt>
            <trkpt lon="11.418008962646127" lat="49.4339609798044">
                <ele>419.27</ele>
                <time>2010-11-14T11:13:12.000Z</time>
                <name>Position 1637</name>
            </trkpt>
            <trkpt lon="11.417979961261153" lat="49.43409701809287">
                <ele>418.79</ele>
                <time>2010-11-14T11:13:13.000Z</time>
                <name>Position 1638</name>
            </trkpt>
            <trkpt lon="11.417852975428104" lat="49.43492095917463">
                <ele>415.43</ele>
                <time>2010-11-14T11:13:17.000Z</time>
                <name>Position 1639</name>
            </trkpt>
            <trkpt lon="11.417603027075529" lat="49.436170030385256">
                <ele>409.66</ele>
                <time>2010-11-14T11:13:22.000Z</time>
                <name>Position 1640</name>
            </trkpt>
            <trkpt lon="11.417317036539316" lat="49.43745598196983">
                <ele>405.33</ele>
                <time>2010-11-14T11:13:28.000Z</time>
                <name>Position 1641</name>
            </trkpt>
            <trkpt lon="11.417378978803754" lat="49.437805004417896">
                <ele>404.37</ele>
                <time>2010-11-14T11:13:30.000Z</time>
                <name>Position 1642</name>
            </trkpt>
            <trkpt lon="11.417450979351997" lat="49.43798203021288">
                <ele>403.89</ele>
                <time>2010-11-14T11:13:31.000Z</time>
                <name>Position 1643</name>
            </trkpt>
            <trkpt lon="11.417545024305582" lat="49.43815302103758">
                <ele>403.41</ele>
                <time>2010-11-14T11:13:32.000Z</time>
                <name>Position 1644</name>
            </trkpt>
            <trkpt lon="11.417666980996728" lat="49.438318982720375">
                <ele>403.41</ele>
                <time>2010-11-14T11:13:33.000Z</time>
                <name>Position 1645</name>
            </trkpt>
            <trkpt lon="11.41780000180006" lat="49.4384939968586">
                <ele>402.93</ele>
                <time>2010-11-14T11:13:34.000Z</time>
                <name>Position 1646</name>
            </trkpt>
            <trkpt lon="11.418264023959637" lat="49.43906396627426">
                <ele>401.49</ele>
                <time>2010-11-14T11:13:37.000Z</time>
                <name>Position 1647</name>
            </trkpt>
            <trkpt lon="11.418393021449447" lat="49.4392570015043">
                <ele>401.49</ele>
                <time>2010-11-14T11:13:38.000Z</time>
                <name>Position 1648</name>
            </trkpt>
            <trkpt lon="11.418496035039425" lat="49.439502004534006">
                <ele>399.08</ele>
                <time>2010-11-14T11:13:39.000Z</time>
                <name>Position 1649</name>
            </trkpt>
            <trkpt lon="11.418755035847425" lat="49.44084101356566">
                <ele>397.16</ele>
                <time>2010-11-14T11:13:44.000Z</time>
                <name>Position 1650</name>
            </trkpt>
            <trkpt lon="11.418925020843744" lat="49.44206301122904">
                <ele>394.76</ele>
                <time>2010-11-14T11:13:50.000Z</time>
                <name>Position 1651</name>
            </trkpt>
            <trkpt lon="11.419040020555258" lat="49.44221396930516">
                <ele>394.76</ele>
                <time>2010-11-14T11:13:51.000Z</time>
                <name>Position 1652</name>
            </trkpt>
            <trkpt lon="11.41921897418797" lat="49.442354030907154">
                <ele>394.28</ele>
                <time>2010-11-14T11:13:52.000Z</time>
                <name>Position 1653</name>
            </trkpt>
            <trkpt lon="11.41943397000432" lat="49.442485962063074">
                <ele>394.76</ele>
                <time>2010-11-14T11:13:53.000Z</time>
                <name>Position 1654</name>
            </trkpt>
            <trkpt lon="11.419665981084108" lat="49.44262099452317">
                <ele>394.76</ele>
                <time>2010-11-14T11:13:54.000Z</time>
                <name>Position 1655</name>
            </trkpt>
            <trkpt lon="11.420309962704778" lat="49.44301502779126">
                <ele>396.2</ele>
                <time>2010-11-14T11:13:57.000Z</time>
                <name>Position 1656</name>
            </trkpt>
            <trkpt lon="11.42046402208507" lat="49.4431700091809">
                <ele>396.2</ele>
                <time>2010-11-14T11:13:58.000Z</time>
                <name>Position 1657</name>
            </trkpt>
            <trkpt lon="11.420577010139823" lat="49.443348962813616">
                <ele>396.2</ele>
                <time>2010-11-14T11:13:59.000Z</time>
                <name>Position 1658</name>
            </trkpt>
            <trkpt lon="11.420648004859686" lat="49.44354300387204">
                <ele>396.68</ele>
                <time>2010-11-14T11:14:00.000Z</time>
                <name>Position 1659</name>
            </trkpt>
            <trkpt lon="11.420713970437646" lat="49.4437350332737">
                <ele>396.2</ele>
                <time>2010-11-14T11:14:01.000Z</time>
                <name>Position 1660</name>
            </trkpt>
            <trkpt lon="11.42080801539123" lat="49.44391599856317">
                <ele>396.2</ele>
                <time>2010-11-14T11:14:02.000Z</time>
                <name>Position 1661</name>
            </trkpt>
            <trkpt lon="11.420921003445983" lat="49.44408598355949">
                <ele>396.2</ele>
                <time>2010-11-14T11:14:03.000Z</time>
                <name>Position 1662</name>
            </trkpt>
            <trkpt lon="11.421081013977528" lat="49.4444049987942">
                <ele>396.68</ele>
                <time>2010-11-14T11:14:05.000Z</time>
                <name>Position 1663</name>
            </trkpt>
            <trkpt lon="11.421081013977528" lat="49.444568026810884">
                <ele>395.72</ele>
                <time>2010-11-14T11:14:06.000Z</time>
                <name>Position 1664</name>
            </trkpt>
            <trkpt lon="11.421028040349483" lat="49.444743040949106">
                <ele>392.84</ele>
                <time>2010-11-14T11:14:07.000Z</time>
                <name>Position 1665</name>
            </trkpt>
            <trkpt lon="11.42091698013246" lat="49.44489802233875">
                <ele>391.39</ele>
                <time>2010-11-14T11:14:08.000Z</time>
                <name>Position 1666</name>
            </trkpt>
            <trkpt lon="11.420735009014606" lat="49.44502903148532">
                <ele>392.84</ele>
                <time>2010-11-14T11:14:09.000Z</time>
                <name>Position 1667</name>
            </trkpt>
            <trkpt lon="11.420500986278057" lat="49.44516096264124">
                <ele>393.32</ele>
                <time>2010-11-14T11:14:10.000Z</time>
                <name>Position 1668</name>
            </trkpt>
            <trkpt lon="11.420225976034999" lat="49.44529297761619">
                <ele>393.8</ele>
                <time>2010-11-14T11:14:11.000Z</time>
                <name>Position 1669</name>
            </trkpt>
            <trkpt lon="11.419938979670405" lat="49.44543798454106">
                <ele>393.32</ele>
                <time>2010-11-14T11:14:12.000Z</time>
                <name>Position 1670</name>
            </trkpt>
            <trkpt lon="11.417936962097883" lat="49.446697030216455">
                <ele>389.47</ele>
                <time>2010-11-14T11:14:20.000Z</time>
                <name>Position 1671</name>
            </trkpt>
            <trkpt lon="11.417040014639497" lat="49.44740395992994">
                <ele>388.51</ele>
                <time>2010-11-14T11:14:26.000Z</time>
                <name>Position 1672</name>
            </trkpt>
            <trkpt lon="11.416053967550397" lat="49.44795096293092">
                <ele>387.55</ele>
                <time>2010-11-14T11:14:34.000Z</time>
                <name>Position 1673</name>
            </trkpt>
            <trkpt lon="11.41595397144556" lat="49.448026986792684">
                <ele>386.59</ele>
                <time>2010-11-14T11:14:35.000Z</time>
                <name>Position 1674</name>
            </trkpt>
            <trkpt lon="11.415856992825866" lat="49.448113990947604">
                <ele>386.11</ele>
                <time>2010-11-14T11:14:36.000Z</time>
                <name>Position 1675</name>
            </trkpt>
            <trkpt lon="11.415550969541073" lat="49.448395958170295">
                <ele>385.15</ele>
                <time>2010-11-14T11:14:39.000Z</time>
                <name>Position 1676</name>
            </trkpt>
            <trkpt lon="11.415416020900011" lat="49.44846703670919">
                <ele>385.15</ele>
                <time>2010-11-14T11:14:40.000Z</time>
                <name>Position 1677</name>
            </trkpt>
            <trkpt lon="11.413786998018622" lat="49.44944595918059">
                <ele>383.7</ele>
                <time>2010-11-14T11:14:52.000Z</time>
                <name>Position 1678</name>
            </trkpt>
            <trkpt lon="11.413619024679065" lat="49.44951502606273">
                <ele>383.7</ele>
                <time>2010-11-14T11:14:53.000Z</time>
                <name>Position 1679</name>
            </trkpt>
            <trkpt lon="11.412830036133528" lat="49.44982498884201">
                <ele>383.7</ele>
                <time>2010-11-14T11:14:58.000Z</time>
                <name>Position 1680</name>
            </trkpt>
            <trkpt lon="11.412738002836704" lat="49.44991199299693">
                <ele>383.22</ele>
                <time>2010-11-14T11:14:59.000Z</time>
                <name>Position 1681</name>
            </trkpt>
            <trkpt lon="11.41268502920866" lat="49.45001098327339">
                <ele>383.7</ele>
                <time>2010-11-14T11:15:00.000Z</time>
                <name>Position 1682</name>
            </trkpt>
            <trkpt lon="11.412658039480448" lat="49.450092958286405">
                <ele>383.22</ele>
                <time>2010-11-14T11:15:01.000Z</time>
                <name>Position 1683</name>
            </trkpt>
            <trkpt lon="11.412683017551899" lat="49.45016303099692">
                <ele>383.22</ele>
                <time>2010-11-14T11:15:02.000Z</time>
                <name>Position 1684</name>
            </trkpt>
            <trkpt lon="11.412732973694801" lat="49.45023201406002">
                <ele>383.22</ele>
                <time>2010-11-14T11:15:03.000Z</time>
                <name>Position 1685</name>
            </trkpt>
            <trkpt lon="11.41279298812151" lat="49.45031398907304">
                <ele>383.22</ele>
                <time>2010-11-14T11:15:04.000Z</time>
                <name>Position 1686</name>
            </trkpt>
            <trkpt lon="11.412784019485116" lat="49.4503989815712">
                <ele>383.22</ele>
                <time>2010-11-14T11:15:05.000Z</time>
                <name>Position 1687</name>
            </trkpt>
            <trkpt lon="11.41270799562335" lat="49.45050903595984">
                <ele>383.22</ele>
                <time>2010-11-14T11:15:06.000Z</time>
                <name>Position 1688</name>
            </trkpt>
            <trkpt lon="11.412504985928535" lat="49.450713973492384">
                <ele>384.18</ele>
                <time>2010-11-14T11:15:08.000Z</time>
                <name>Position 1689</name>
            </trkpt>
            <trkpt lon="11.412371965125203" lat="49.45078999735415">
                <ele>384.18</ele>
                <time>2010-11-14T11:15:09.000Z</time>
                <name>Position 1690</name>
            </trkpt>
            <trkpt lon="11.412207009270787" lat="49.45085403509438">
                <ele>384.18</ele>
                <time>2010-11-14T11:15:10.000Z</time>
                <name>Position 1691</name>
            </trkpt>
            <trkpt lon="11.4120439812541" lat="49.45091798901558">
                <ele>384.18</ele>
                <time>2010-11-14T11:15:11.000Z</time>
                <name>Position 1692</name>
            </trkpt>
            <trkpt lon="11.411880031228065" lat="49.450969034805894">
                <ele>383.7</ele>
                <time>2010-11-14T11:15:12.000Z</time>
                <name>Position 1693</name>
            </trkpt>
            <trkpt lon="11.411731000989676" lat="49.45103198289871">
                <ele>383.7</ele>
                <time>2010-11-14T11:15:13.000Z</time>
                <name>Position 1694</name>
            </trkpt>
            <trkpt lon="11.411606026813388" lat="49.451100965961814">
                <ele>383.7</ele>
                <time>2010-11-14T11:15:14.000Z</time>
                <name>Position 1695</name>
            </trkpt>
            <trkpt lon="11.411506030708551" lat="49.451190987601876">
                <ele>383.22</ele>
                <time>2010-11-14T11:15:15.000Z</time>
                <name>Position 1696</name>
            </trkpt>
            <trkpt lon="11.4108369871974" lat="49.45166599005461">
                <ele>383.22</ele>
                <time>2010-11-14T11:15:20.000Z</time>
                <name>Position 1697</name>
            </trkpt>
            <trkpt lon="11.409301003441215" lat="49.45235003717244">
                <ele>382.74</ele>
                <time>2010-11-14T11:15:26.000Z</time>
                <name>Position 1698</name>
            </trkpt>
            <trkpt lon="11.407183986157179" lat="49.45360195823014">
                <ele>378.9</ele>
                <time>2010-11-14T11:15:34.000Z</time>
                <name>Position 1699</name>
            </trkpt>
            <trkpt lon="11.40568203292787" lat="49.454925963655114">
                <ele>377.45</ele>
                <time>2010-11-14T11:15:40.000Z</time>
                <name>Position 1700</name>
            </trkpt>
            <trkpt lon="11.40445601195097" lat="49.45678599178791">
                <ele>375.53</ele>
                <time>2010-11-14T11:15:47.000Z</time>
                <name>Position 1701</name>
            </trkpt>
            <trkpt lon="11.403484968468547" lat="49.45880603045225">
                <ele>375.53</ele>
                <time>2010-11-14T11:15:55.000Z</time>
                <name>Position 1702</name>
            </trkpt>
            <trkpt lon="11.402048980817199" lat="49.46056698448956">
                <ele>371.21</ele>
                <time>2010-11-14T11:16:03.000Z</time>
                <name>Position 1703</name>
            </trkpt>
            <trkpt lon="11.401377003639936" lat="49.46198696270585">
                <ele>369.76</ele>
                <time>2010-11-14T11:16:09.000Z</time>
                <name>Position 1704</name>
            </trkpt>
            <trkpt lon="11.401437018066645" lat="49.463306022807956">
                <ele>370.24</ele>
                <time>2010-11-14T11:16:15.000Z</time>
                <name>Position 1705</name>
            </trkpt>
            <trkpt lon="11.4021179638803" lat="49.46471703238785">
                <ele>368.32</ele>
                <time>2010-11-14T11:16:22.000Z</time>
                <name>Position 1706</name>
            </trkpt>
            <trkpt lon="11.40290996991098" lat="49.46656599640846">
                <ele>366.88</ele>
                <time>2010-11-14T11:16:30.000Z</time>
                <name>Position 1707</name>
            </trkpt>
            <trkpt lon="11.403115997090936" lat="49.46775798685849">
                <ele>366.88</ele>
                <time>2010-11-14T11:16:36.000Z</time>
                <name>Position 1708</name>
            </trkpt>
            <trkpt lon="11.403077021241188" lat="49.46795403957367">
                <ele>366.88</ele>
                <time>2010-11-14T11:16:37.000Z</time>
                <name>Position 1709</name>
            </trkpt>
            <trkpt lon="11.403010971844196" lat="49.4681459851563">
                <ele>366.88</ele>
                <time>2010-11-14T11:16:38.000Z</time>
                <name>Position 1710</name>
            </trkpt>
            <trkpt lon="11.402916004881263" lat="49.46832896210253">
                <ele>366.88</ele>
                <time>2010-11-14T11:16:39.000Z</time>
                <name>Position 1711</name>
            </trkpt>
            <trkpt lon="11.402796981856227" lat="49.46849903091788">
                <ele>366.88</ele>
                <time>2010-11-14T11:16:40.000Z</time>
                <name>Position 1712</name>
            </trkpt>
            <trkpt lon="11.4026740193367" lat="49.46866197511554">
                <ele>366.88</ele>
                <time>2010-11-14T11:16:41.000Z</time>
                <name>Position 1713</name>
            </trkpt>
            <trkpt lon="11.402103966102004" lat="49.46933797560632">
                <ele>365.92</ele>
                <time>2010-11-14T11:16:46.000Z</time>
                <name>Position 1714</name>
            </trkpt>
            <trkpt lon="11.401955019682646" lat="49.46943797171116">
                <ele>365.92</ele>
                <time>2010-11-14T11:16:47.000Z</time>
                <name>Position 1715</name>
            </trkpt>
            <trkpt lon="11.401338027790189" lat="49.469818007200956">
                <ele>366.4</ele>
                <time>2010-11-14T11:16:51.000Z</time>
                <name>Position 1716</name>
            </trkpt>
            <trkpt lon="11.401215987280011" lat="49.46991800330579">
                <ele>366.4</ele>
                <time>2010-11-14T11:16:52.000Z</time>
                <name>Position 1717</name>
            </trkpt>
            <trkpt lon="11.401047008112073" lat="49.47012696415186">
                <ele>366.4</ele>
                <time>2010-11-14T11:16:54.000Z</time>
                <name>Position 1718</name>
            </trkpt>
            <trkpt lon="11.401024963706732" lat="49.470244981348515">
                <ele>366.88</ele>
                <time>2010-11-14T11:16:55.000Z</time>
                <name>Position 1719</name>
            </trkpt>
            <trkpt lon="11.401022030040622" lat="49.47036299854517">
                <ele>366.88</ele>
                <time>2010-11-14T11:16:56.000Z</time>
                <name>Position 1720</name>
            </trkpt>
            <trkpt lon="11.40102001838386" lat="49.47058201767504">
                <ele>367.36</ele>
                <time>2010-11-14T11:16:58.000Z</time>
                <name>Position 1721</name>
            </trkpt>
            <trkpt lon="11.400993028655648" lat="49.47068796493113">
                <ele>367.36</ele>
                <time>2010-11-14T11:16:59.000Z</time>
                <name>Position 1722</name>
            </trkpt>
            <trkpt lon="11.400949023663998" lat="49.47079399600625">
                <ele>367.36</ele>
                <time>2010-11-14T11:17:00.000Z</time>
                <name>Position 1723</name>
            </trkpt>
            <trkpt lon="11.400666972622275" lat="49.471236979588866">
                <ele>367.84</ele>
                <time>2010-11-14T11:17:04.000Z</time>
                <name>Position 1724</name>
            </trkpt>
            <trkpt lon="11.40054501593113" lat="49.471320966258645">
                <ele>367.84</ele>
                <time>2010-11-14T11:17:05.000Z</time>
                <name>Position 1725</name>
            </trkpt>
            <trkpt lon="11.399550000205636" lat="49.47186302393675">
                <ele>366.4</ele>
                <time>2010-11-14T11:17:14.000Z</time>
                <name>Position 1726</name>
            </trkpt>
            <trkpt lon="11.399433994665742" lat="49.47190803475678">
                <ele>365.92</ele>
                <time>2010-11-14T11:17:15.000Z</time>
                <name>Position 1727</name>
            </trkpt>
            <trkpt lon="11.399313965812325" lat="49.47194701060653">
                <ele>365.44</ele>
                <time>2010-11-14T11:17:16.000Z</time>
                <name>Position 1728</name>
            </trkpt>
            <trkpt lon="11.399068040773273" lat="49.47199998423457">
                <ele>364.48</ele>
                <time>2010-11-14T11:17:18.000Z</time>
                <name>Position 1729</name>
            </trkpt>
            <trkpt lon="11.398948011919856" lat="49.47201800532639">
                <ele>364.0</ele>
                <time>2010-11-14T11:17:19.000Z</time>
                <name>Position 1730</name>
            </trkpt>
            <trkpt lon="11.398822031915188" lat="49.47202496230602">
                <ele>363.52</ele>
                <time>2010-11-14T11:17:20.000Z</time>
                <name>Position 1731</name>
            </trkpt>
            <trkpt lon="11.398052992299199" lat="49.471963020041585">
                <ele>364.48</ele>
                <time>2010-11-14T11:17:26.000Z</time>
                <name>Position 1732</name>
            </trkpt>
            <trkpt lon="11.397932963445783" lat="49.47188699617982">
                <ele>364.48</ele>
                <time>2010-11-14T11:17:27.000Z</time>
                <name>Position 1733</name>
            </trkpt>
            <trkpt lon="11.397831961512566" lat="49.471813989803195">
                <ele>364.96</ele>
                <time>2010-11-14T11:17:28.000Z</time>
                <name>Position 1734</name>
            </trkpt>
            <trkpt lon="11.397735988721251" lat="49.471726985648274">
                <ele>364.96</ele>
                <time>2010-11-14T11:17:29.000Z</time>
                <name>Position 1735</name>
            </trkpt>
            <trkpt lon="11.397649990394711" lat="49.471641993150115">
                <ele>365.44</ele>
                <time>2010-11-14T11:17:30.000Z</time>
                <name>Position 1736</name>
            </trkpt>
            <trkpt lon="11.397529039531946" lat="49.471575021743774">
                <ele>364.96</ele>
                <time>2010-11-14T11:17:31.000Z</time>
                <name>Position 1737</name>
            </trkpt>
            <trkpt lon="11.397394007071853" lat="49.47152498178184">
                <ele>364.48</ele>
                <time>2010-11-14T11:17:32.000Z</time>
                <name>Position 1738</name>
            </trkpt>
            <trkpt lon="11.396640976890922" lat="49.47119498625398">
                <ele>361.59</ele>
                <time>2010-11-14T11:17:39.000Z</time>
                <name>Position 1739</name>
            </trkpt>
            <trkpt lon="11.396519020199776" lat="49.47122298181057">
                <ele>360.63</ele>
                <time>2010-11-14T11:17:40.000Z</time>
                <name>Position 1740</name>
            </trkpt>
            <trkpt lon="11.396397985517979" lat="49.4712629634887">
                <ele>360.63</ele>
                <time>2010-11-14T11:17:41.000Z</time>
                <name>Position 1741</name>
            </trkpt>
            <trkpt lon="11.396289020776749" lat="49.471317026764154">
                <ele>360.15</ele>
                <time>2010-11-14T11:17:42.000Z</time>
                <name>Position 1742</name>
            </trkpt>
            <trkpt lon="11.396217020228505" lat="49.471408976241946">
                <ele>360.15</ele>
                <time>2010-11-14T11:17:43.000Z</time>
                <name>Position 1743</name>
            </trkpt>
            <trkpt lon="11.396134039387107" lat="49.47148500010371">
                <ele>360.63</ele>
                <time>2010-11-14T11:17:44.000Z</time>
                <name>Position 1744</name>
            </trkpt>
            <trkpt lon="11.396070001646876" lat="49.47158197872341">
                <ele>359.67</ele>
                <time>2010-11-14T11:17:45.000Z</time>
                <name>Position 1745</name>
            </trkpt>
            <trkpt lon="11.395987020805478" lat="49.47167803533375">
                <ele>360.15</ele>
                <time>2010-11-14T11:17:46.000Z</time>
                <name>Position 1746</name>
            </trkpt>
            <trkpt lon="11.395297022536397" lat="49.472804982215166">
                <ele>360.15</ele>
                <time>2010-11-14T11:17:56.000Z</time>
                <name>Position 1747</name>
            </trkpt>
            <trkpt lon="11.39423101209104" lat="49.47417098097503">
                <ele>357.75</ele>
                <time>2010-11-14T11:18:05.000Z</time>
                <name>Position 1748</name>
            </trkpt>
            <trkpt lon="11.39294195920229" lat="49.476021034643054">
                <ele>353.42</ele>
                <time>2010-11-14T11:18:13.000Z</time>
                <name>Position 1749</name>
            </trkpt>
            <trkpt lon="11.39201601035893" lat="49.47736599482596">
                <ele>351.5</ele>
                <time>2010-11-14T11:18:20.000Z</time>
                <name>Position 1750</name>
            </trkpt>
            <trkpt lon="11.391100035980344" lat="49.47891597636044">
                <ele>351.5</ele>
                <time>2010-11-14T11:18:30.000Z</time>
                <name>Position 1751</name>
            </trkpt>
            <trkpt lon="11.391061982139945" lat="49.479034999385476">
                <ele>351.98</ele>
                <time>2010-11-14T11:18:31.000Z</time>
                <name>Position 1752</name>
            </trkpt>
            <trkpt lon="11.390992999076843" lat="49.479309003800154">
                <ele>355.83</ele>
                <time>2010-11-14T11:18:34.000Z</time>
                <name>Position 1753</name>
            </trkpt>
            <trkpt lon="11.390923010185361" lat="49.47936901822686">
                <ele>355.34</ele>
                <time>2010-11-14T11:18:35.000Z</time>
                <name>Position 1754</name>
            </trkpt>
            <trkpt lon="11.390803987160325" lat="49.4794359896332">
                <ele>355.83</ele>
                <time>2010-11-14T11:18:36.000Z</time>
                <name>Position 1755</name>
            </trkpt>
            <trkpt lon="11.390645988285542" lat="49.47951201349497">
                <ele>356.79</ele>
                <time>2010-11-14T11:18:37.000Z</time>
                <name>Position 1756</name>
            </trkpt>
            <trkpt lon="11.39049000106752" lat="49.47960899211466">
                <ele>357.75</ele>
                <time>2010-11-14T11:18:38.000Z</time>
                <name>Position 1757</name>
            </trkpt>
            <trkpt lon="11.390313981100917" lat="49.47972399182618">
                <ele>358.23</ele>
                <time>2010-11-14T11:18:39.000Z</time>
                <name>Position 1758</name>
            </trkpt>
            <trkpt lon="11.389623982831836" lat="49.48013504035771">
                <ele>359.19</ele>
                <time>2010-11-14T11:18:43.000Z</time>
                <name>Position 1759</name>
            </trkpt>
            <trkpt lon="11.389436982572079" lat="49.480213997885585">
                <ele>359.19</ele>
                <time>2010-11-14T11:18:44.000Z</time>
                <name>Position 1760</name>
            </trkpt>
            <trkpt lon="11.388819990679622" lat="49.48039999231696">
                <ele>356.79</ele>
                <time>2010-11-14T11:18:47.000Z</time>
                <name>Position 1761</name>
            </trkpt>
            <trkpt lon="11.388563001528382" lat="49.48043704032898">
                <ele>355.83</ele>
                <time>2010-11-14T11:18:48.000Z</time>
                <name>Position 1762</name>
            </trkpt>
            <trkpt lon="11.38827801682055" lat="49.4804669637233">
                <ele>353.9</ele>
                <time>2010-11-14T11:18:49.000Z</time>
                <name>Position 1763</name>
            </trkpt>
            <trkpt lon="11.386960968375206" lat="49.48062697425485">
                <ele>351.98</ele>
                <time>2010-11-14T11:18:54.000Z</time>
                <name>Position 1764</name>
            </trkpt>
            <trkpt lon="11.386751001700759" lat="49.480600990355015">
                <ele>352.46</ele>
                <time>2010-11-14T11:18:55.000Z</time>
                <name>Position 1765</name>
            </trkpt>
            <trkpt lon="11.386550003662705" lat="49.48054801672697">
                <ele>353.42</ele>
                <time>2010-11-14T11:18:56.000Z</time>
                <name>Position 1766</name>
            </trkpt>
            <trkpt lon="11.386349005624652" lat="49.480471992865205">
                <ele>353.9</ele>
                <time>2010-11-14T11:18:57.000Z</time>
                <name>Position 1767</name>
            </trkpt>
            <trkpt lon="11.38615102507174" lat="49.48039596900344">
                <ele>354.38</ele>
                <time>2010-11-14T11:18:58.000Z</time>
                <name>Position 1768</name>
            </trkpt>
            <trkpt lon="11.38595899567008" lat="49.48033302091062">
                <ele>354.38</ele>
                <time>2010-11-14T11:18:59.000Z</time>
                <name>Position 1769</name>
            </trkpt>
            <trkpt lon="11.38576302677393" lat="49.48031298816204">
                <ele>355.34</ele>
                <time>2010-11-14T11:19:00.000Z</time>
                <name>Position 1770</name>
            </trkpt>
            <trkpt lon="11.385539984330535" lat="49.48033302091062">
                <ele>356.31</ele>
                <time>2010-11-14T11:19:01.000Z</time>
                <name>Position 1771</name>
            </trkpt>
            <trkpt lon="11.384804975241423" lat="49.48042396456003">
                <ele>360.15</ele>
                <time>2010-11-14T11:19:04.000Z</time>
                <name>Position 1772</name>
            </trkpt>
            <trkpt lon="11.384568018838763" lat="49.4804170075804">
                <ele>361.11</ele>
                <time>2010-11-14T11:19:05.000Z</time>
                <name>Position 1773</name>
            </trkpt>
            <trkpt lon="11.384336007758975" lat="49.48039596900344">
                <ele>362.55</ele>
                <time>2010-11-14T11:19:06.000Z</time>
                <name>Position 1774</name>
            </trkpt>
            <trkpt lon="11.383309978991747" lat="49.480281975120306">
                <ele>363.04</ele>
                <time>2010-11-14T11:19:10.000Z</time>
                <name>Position 1775</name>
            </trkpt>
            <trkpt lon="11.383038992062211" lat="49.480278035625815">
                <ele>364.0</ele>
                <time>2010-11-14T11:19:11.000Z</time>
                <name>Position 1776</name>
            </trkpt>
            <trkpt lon="11.382762975990772" lat="49.48028700426221">
                <ele>364.0</ele>
                <time>2010-11-14T11:19:12.000Z</time>
                <name>Position 1777</name>
            </trkpt>
            <trkpt lon="11.382487965747714" lat="49.480321034789085">
                <ele>364.96</ele>
                <time>2010-11-14T11:19:13.000Z</time>
                <name>Position 1778</name>
            </trkpt>
            <trkpt lon="11.382236005738378" lat="49.48037099093199">
                <ele>365.92</ele>
                <time>2010-11-14T11:19:14.000Z</time>
                <name>Position 1779</name>
            </trkpt>
            <trkpt lon="11.382011035457253" lat="49.48042002506554">
                <ele>367.84</ele>
                <time>2010-11-14T11:19:15.000Z</time>
                <name>Position 1780</name>
            </trkpt>
            <trkpt lon="11.381401000544429" lat="49.4805740006268">
                <ele>370.73</ele>
                <time>2010-11-14T11:19:18.000Z</time>
                <name>Position 1781</name>
            </trkpt>
            <trkpt lon="11.380184032022953" lat="49.48100499808788">
                <ele>376.01</ele>
                <time>2010-11-14T11:19:24.000Z</time>
                <name>Position 1782</name>
            </trkpt>
            <trkpt lon="11.379907010123134" lat="49.48109099641442">
                <ele>377.45</ele>
                <time>2010-11-14T11:19:26.000Z</time>
                <name>Position 1783</name>
            </trkpt>
            <trkpt lon="11.379537032917142" lat="49.48115101084113">
                <ele>379.86</ele>
                <time>2010-11-14T11:19:29.000Z</time>
                <name>Position 1784</name>
            </trkpt>
            <trkpt lon="11.379436030983925" lat="49.48112603276968">
                <ele>378.9</ele>
                <time>2010-11-14T11:19:30.000Z</time>
                <name>Position 1785</name>
            </trkpt>
            <trkpt lon="11.379251964390278" lat="49.48106802999973">
                <ele>379.38</ele>
                <time>2010-11-14T11:19:33.000Z</time>
                <name>Position 1786</name>
            </trkpt>
            <trkpt lon="11.378995981067419" lat="49.48093601502478">
                <ele>376.49</ele>
                <time>2010-11-14T11:19:36.000Z</time>
                <name>Position 1787</name>
            </trkpt>
            <trkpt lon="11.378879975527525" lat="49.48089896701276">
                <ele>376.01</ele>
                <time>2010-11-14T11:19:37.000Z</time>
                <name>Position 1788</name>
            </trkpt>
            <trkpt lon="11.37876296415925" lat="49.48087499476969">
                <ele>375.05</ele>
                <time>2010-11-14T11:19:38.000Z</time>
                <name>Position 1789</name>
            </trkpt>
            <trkpt lon="11.378628015518188" lat="49.48086300864816">
                <ele>374.57</ele>
                <time>2010-11-14T11:19:39.000Z</time>
                <name>Position 1790</name>
            </trkpt>
            <trkpt lon="11.37846096418798" lat="49.48085596784949">
                <ele>373.13</ele>
                <time>2010-11-14T11:19:40.000Z</time>
                <name>Position 1791</name>
            </trkpt>
            <trkpt lon="11.37820397503674" lat="49.48086300864816">
                <ele>370.24</ele>
                <time>2010-11-14T11:19:41.000Z</time>
                <name>Position 1792</name>
            </trkpt>
            <trkpt lon="11.377903986722231" lat="49.48082897812128">
                <ele>369.28</ele>
                <time>2010-11-14T11:19:42.000Z</time>
                <name>Position 1793</name>
            </trkpt>
            <trkpt lon="11.377602992579341" lat="49.48080601170659">
                <ele>368.32</ele>
                <time>2010-11-14T11:19:43.000Z</time>
                <name>Position 1794</name>
            </trkpt>
            <trkpt lon="11.376797994598746" lat="49.48067802004516">
                <ele>364.48</ele>
                <time>2010-11-14T11:19:46.000Z</time>
                <name>Position 1795</name>
            </trkpt>
            <trkpt lon="11.376559026539326" lat="49.480619011446834">
                <ele>363.52</ele>
                <time>2010-11-14T11:19:47.000Z</time>
                <name>Position 1796</name>
            </trkpt>
            <trkpt lon="11.375703988596797" lat="49.48039999231696">
                <ele>361.11</ele>
                <time>2010-11-14T11:19:51.000Z</time>
                <name>Position 1797</name>
            </trkpt>
            <trkpt lon="11.37551698833704" lat="49.48038297705352">
                <ele>361.11</ele>
                <time>2010-11-14T11:19:52.000Z</time>
                <name>Position 1798</name>
            </trkpt>
            <trkpt lon="11.375338034704328" lat="49.48039697483182">
                <ele>360.63</ele>
                <time>2010-11-14T11:19:53.000Z</time>
                <name>Position 1799</name>
            </trkpt>
            <trkpt lon="11.375137036666274" lat="49.48042002506554">
                <ele>360.63</ele>
                <time>2010-11-14T11:19:54.000Z</time>
                <name>Position 1800</name>
            </trkpt>
            <trkpt lon="11.374912988394499" lat="49.48046503588557">
                <ele>359.19</ele>
                <time>2010-11-14T11:19:55.000Z</time>
                <name>Position 1801</name>
            </trkpt>
            <trkpt lon="11.374648036435246" lat="49.48051800951362">
                <ele>359.19</ele>
                <time>2010-11-14T11:19:56.000Z</time>
                <name>Position 1802</name>
            </trkpt>
            <trkpt lon="11.373616978526115" lat="49.48092604056001">
                <ele>356.79</ele>
                <time>2010-11-14T11:20:00.000Z</time>
                <name>Position 1803</name>
            </trkpt>
            <trkpt lon="11.372534958645701" lat="49.48150799609721">
                <ele>358.23</ele>
                <time>2010-11-14T11:20:05.000Z</time>
                <name>Position 1804</name>
            </trkpt>
            <trkpt lon="11.372330021113157" lat="49.48158100247383">
                <ele>358.71</ele>
                <time>2010-11-14T11:20:06.000Z</time>
                <name>Position 1805</name>
            </trkpt>
            <trkpt lon="11.371071981266141" lat="49.482172010466456">
                <ele>353.9</ele>
                <time>2010-11-14T11:20:14.000Z</time>
                <name>Position 1806</name>
            </trkpt>
            <trkpt lon="11.37085396796465" lat="49.482322968542576">
                <ele>352.46</ele>
                <time>2010-11-14T11:20:16.000Z</time>
                <name>Position 1807</name>
            </trkpt>
            <trkpt lon="11.370008988305926" lat="49.48307801038027">
                <ele>349.1</ele>
                <time>2010-11-14T11:20:26.000Z</time>
                <name>Position 1808</name>
            </trkpt>
            <trkpt lon="11.369912009686232" lat="49.48318202979863">
                <ele>348.62</ele>
                <time>2010-11-14T11:20:29.000Z</time>
                <name>Position 1809</name>
            </trkpt>
            <trkpt lon="11.369767002761364" lat="49.48342200368643">
                <ele>348.13</ele>
                <time>2010-11-14T11:20:33.000Z</time>
                <name>Position 1810</name>
            </trkpt>
            <trkpt lon="11.36975803412497" lat="49.483498027548194">
                <ele>347.65</ele>
                <time>2010-11-14T11:20:34.000Z</time>
                <name>Position 1811</name>
            </trkpt>
            <trkpt lon="11.369785023853183" lat="49.48356298729777">
                <ele>347.17</ele>
                <time>2010-11-14T11:20:35.000Z</time>
                <name>Position 1812</name>
            </trkpt>
            <trkpt lon="11.369888037443161" lat="49.48361897841096">
                <ele>347.17</ele>
                <time>2010-11-14T11:20:36.000Z</time>
                <name>Position 1813</name>
            </trkpt>
            <trkpt lon="11.370020974427462" lat="49.483650997281075">
                <ele>346.21</ele>
                <time>2010-11-14T11:20:37.000Z</time>
                <name>Position 1814</name>
            </trkpt>
            <trkpt lon="11.370159024372697" lat="49.48366298340261">
                <ele>345.73</ele>
                <time>2010-11-14T11:20:38.000Z</time>
                <name>Position 1815</name>
            </trkpt>
            <trkpt lon="11.3702969904989" lat="49.48368100449443">
                <ele>346.21</ele>
                <time>2010-11-14T11:20:39.000Z</time>
                <name>Position 1816</name>
            </trkpt>
            <trkpt lon="11.370440991595387" lat="49.48373297229409">
                <ele>345.73</ele>
                <time>2010-11-14T11:20:40.000Z</time>
                <name>Position 1817</name>
            </trkpt>
            <trkpt lon="11.370576024055481" lat="49.48382802307606">
                <ele>345.73</ele>
                <time>2010-11-14T11:20:41.000Z</time>
                <name>Position 1818</name>
            </trkpt>
            <trkpt lon="11.370689012110233" lat="49.483931036666036">
                <ele>344.77</ele>
                <time>2010-11-14T11:20:42.000Z</time>
                <name>Position 1819</name>
            </trkpt>
            <trkpt lon="11.370785990729928" lat="49.484061961993575">
                <ele>344.29</ele>
                <time>2010-11-14T11:20:43.000Z</time>
                <name>Position 1820</name>
            </trkpt>
            <trkpt lon="11.370882969349623" lat="49.48421400971711">
                <ele>344.77</ele>
                <time>2010-11-14T11:20:44.000Z</time>
                <name>Position 1821</name>
            </trkpt>
            <trkpt lon="11.371662989258766" lat="49.48518597520888">
                <ele>349.58</ele>
                <time>2010-11-14T11:20:49.000Z</time>
                <name>Position 1822</name>
            </trkpt>
            <trkpt lon="11.372608970850706" lat="49.486079989001155">
                <ele>353.9</ele>
                <time>2010-11-14T11:20:55.000Z</time>
                <name>Position 1823</name>
            </trkpt>
            <trkpt lon="11.372846011072397" lat="49.48632599785924">
                <ele>353.9</ele>
                <time>2010-11-14T11:20:58.000Z</time>
                <name>Position 1824</name>
            </trkpt>
            <trkpt lon="11.372840981930494" lat="49.48639598675072">
                <ele>353.9</ele>
                <time>2010-11-14T11:20:59.000Z</time>
                <name>Position 1825</name>
            </trkpt>
            <trkpt lon="11.372793037444353" lat="49.48652699589729">
                <ele>354.38</ele>
                <time>2010-11-14T11:21:01.000Z</time>
                <name>Position 1826</name>
            </trkpt>
            <trkpt lon="11.372823966667056" lat="49.486594973132014">
                <ele>354.38</ele>
                <time>2010-11-14T11:21:02.000Z</time>
                <name>Position 1827</name>
            </trkpt>
            <trkpt lon="11.372914994135499" lat="49.48666596785188">
                <ele>353.9</ele>
                <time>2010-11-14T11:21:03.000Z</time>
                <name>Position 1828</name>
            </trkpt>
            <trkpt lon="11.37306796386838" lat="49.486744003370404">
                <ele>352.46</ele>
                <time>2010-11-14T11:21:04.000Z</time>
                <name>Position 1829</name>
            </trkpt>
            <trkpt lon="11.373250018805265" lat="49.48683503083885">
                <ele>351.98</ele>
                <time>2010-11-14T11:21:05.000Z</time>
                <name>Position 1830</name>
            </trkpt>
            <trkpt lon="11.373420003801584" lat="49.486941983923316">
                <ele>351.02</ele>
                <time>2010-11-14T11:21:06.000Z</time>
                <name>Position 1831</name>
            </trkpt>
            <trkpt lon="11.373564004898071" lat="49.48704902082682">
                <ele>350.06</ele>
                <time>2010-11-14T11:21:07.000Z</time>
                <name>Position 1832</name>
            </trkpt>
            <trkpt lon="11.373684033751488" lat="49.487150022760034">
                <ele>349.58</ele>
                <time>2010-11-14T11:21:08.000Z</time>
                <name>Position 1833</name>
            </trkpt>
            <trkpt lon="11.373765002936125" lat="49.48725597001612">
                <ele>349.1</ele>
                <time>2010-11-14T11:21:09.000Z</time>
                <name>Position 1834</name>
            </trkpt>
            <trkpt lon="11.373786963522434" lat="49.487369041889906">
                <ele>349.1</ele>
                <time>2010-11-14T11:21:10.000Z</time>
                <name>Position 1835</name>
            </trkpt>
            <trkpt lon="11.373771959915757" lat="49.48748496361077">
                <ele>348.13</ele>
                <time>2010-11-14T11:21:11.000Z</time>
                <name>Position 1836</name>
            </trkpt>
            <trkpt lon="11.373694008216262" lat="49.48759803548455">
                <ele>347.65</ele>
                <time>2010-11-14T11:21:12.000Z</time>
                <name>Position 1837</name>
            </trkpt>
            <trkpt lon="11.37356199324131" lat="49.48770800605416">
                <ele>346.21</ele>
                <time>2010-11-14T11:21:13.000Z</time>
                <name>Position 1838</name>
            </trkpt>
            <trkpt lon="11.373405000194907" lat="49.487817976623774">
                <ele>345.73</ele>
                <time>2010-11-14T11:21:14.000Z</time>
                <name>Position 1839</name>
            </trkpt>
            <trkpt lon="11.373257981613278" lat="49.4879290368408">
                <ele>344.77</ele>
                <time>2010-11-14T11:21:15.000Z</time>
                <name>Position 1840</name>
            </trkpt>
            <trkpt lon="11.37313300743699" lat="49.48804596439004">
                <ele>344.29</ele>
                <time>2010-11-14T11:21:16.000Z</time>
                <name>Position 1841</name>
            </trkpt>
            <trkpt lon="11.373050026595592" lat="49.48817596770823">
                <ele>343.33</ele>
                <time>2010-11-14T11:21:17.000Z</time>
                <name>Position 1842</name>
            </trkpt>
            <trkpt lon="11.3730030041188" lat="49.48831996880472">
                <ele>343.81</ele>
                <time>2010-11-14T11:21:18.000Z</time>
                <name>Position 1843</name>
            </trkpt>
            <trkpt lon="11.372978026047349" lat="49.4884779676795">
                <ele>343.81</ele>
                <time>2010-11-14T11:21:19.000Z</time>
                <name>Position 1844</name>
            </trkpt>
            <trkpt lon="11.372886998578906" lat="49.48910401202738">
                <ele>341.41</ele>
                <time>2010-11-14T11:21:23.000Z</time>
                <name>Position 1845</name>
            </trkpt>
            <trkpt lon="11.372822038829327" lat="49.4891999848187">
                <ele>339.96</ele>
                <time>2010-11-14T11:21:24.000Z</time>
                <name>Position 1846</name>
            </trkpt>
            <trkpt lon="11.372710978612304" lat="49.48928698897362">
                <ele>339.96</ele>
                <time>2010-11-14T11:21:25.000Z</time>
                <name>Position 1847</name>
            </trkpt>
            <trkpt lon="11.372547028586268" lat="49.489366030320525">
                <ele>339.0</ele>
                <time>2010-11-14T11:21:26.000Z</time>
                <name>Position 1848</name>
            </trkpt>
            <trkpt lon="11.372321974486113" lat="49.489451022818685">
                <ele>339.0</ele>
                <time>2010-11-14T11:21:27.000Z</time>
                <name>Position 1849</name>
            </trkpt>
            <trkpt lon="11.371715040877461" lat="49.489687979221344">
                <ele>338.04</ele>
                <time>2010-11-14T11:21:30.000Z</time>
                <name>Position 1850</name>
            </trkpt>
            <trkpt lon="11.371076004579663" lat="49.48983499780297">
                <ele>341.41</ele>
                <time>2010-11-14T11:21:34.000Z</time>
                <name>Position 1851</name>
            </trkpt>
            <trkpt lon="11.370215015485883" lat="49.48985100723803">
                <ele>345.25</ele>
                <time>2010-11-14T11:21:38.000Z</time>
                <name>Position 1852</name>
            </trkpt>
            <trkpt lon="11.369941011071205" lat="49.48982896283269">
                <ele>347.17</ele>
                <time>2010-11-14T11:21:39.000Z</time>
                <name>Position 1853</name>
            </trkpt>
            <trkpt lon="11.369151016697288" lat="49.48975000530481">
                <ele>351.5</ele>
                <time>2010-11-14T11:21:42.000Z</time>
                <name>Position 1854</name>
            </trkpt>
            <trkpt lon="11.368922023102641" lat="49.489753022789955">
                <ele>352.46</ele>
                <time>2010-11-14T11:21:43.000Z</time>
                <name>Position 1855</name>
            </trkpt>
            <trkpt lon="11.368695041164756" lat="49.48978202417493">
                <ele>353.42</ele>
                <time>2010-11-14T11:21:44.000Z</time>
                <name>Position 1856</name>
            </trkpt>
            <trkpt lon="11.368479039520025" lat="49.48985100723803">
                <ele>353.9</ele>
                <time>2010-11-14T11:21:45.000Z</time>
                <name>Position 1857</name>
            </trkpt>
            <trkpt lon="11.368278041481972" lat="49.48995502665639">
                <ele>354.38</ele>
                <time>2010-11-14T11:21:46.000Z</time>
                <name>Position 1858</name>
            </trkpt>
            <trkpt lon="11.368087017908692" lat="49.49008301831782">
                <ele>354.86</ele>
                <time>2010-11-14T11:21:47.000Z</time>
                <name>Position 1859</name>
            </trkpt>
            <trkpt lon="11.367905968800187" lat="49.49022098444402">
                <ele>355.34</ele>
                <time>2010-11-14T11:21:48.000Z</time>
                <name>Position 1860</name>
            </trkpt>
            <trkpt lon="11.367144975811243" lat="49.4907349627465">
                <ele>351.98</ele>
                <time>2010-11-14T11:21:53.000Z</time>
                <name>Position 1861</name>
            </trkpt>
            <trkpt lon="11.366975996643305" lat="49.49080000631511">
                <ele>351.02</ele>
                <time>2010-11-14T11:21:54.000Z</time>
                <name>Position 1862</name>
            </trkpt>
            <trkpt lon="11.366790002211928" lat="49.49085700325668">
                <ele>350.54</ele>
                <time>2010-11-14T11:21:55.000Z</time>
                <name>Position 1863</name>
            </trkpt>
            <trkpt lon="11.36522501707077" lat="49.49132898822427">
                <ele>349.1</ele>
                <time>2010-11-14T11:22:03.000Z</time>
                <name>Position 1864</name>
            </trkpt>
            <trkpt lon="11.365001974627376" lat="49.49137198738754">
                <ele>349.58</ele>
                <time>2010-11-14T11:22:04.000Z</time>
                <name>Position 1865</name>
            </trkpt>
            <trkpt lon="11.364771975204349" lat="49.49140300042927">
                <ele>349.58</ele>
                <time>2010-11-14T11:22:05.000Z</time>
                <name>Position 1866</name>
            </trkpt>
            <trkpt lon="11.363469008356333" lat="49.49142102152109">
                <ele>350.54</ele>
                <time>2010-11-14T11:22:12.000Z</time>
                <name>Position 1867</name>
            </trkpt>
            <trkpt lon="11.363100036978722" lat="49.49141398072243">
                <ele>350.06</ele>
                <time>2010-11-14T11:22:15.000Z</time>
                <name>Position 1868</name>
            </trkpt>
            <trkpt lon="11.36299098841846" lat="49.491428984329104">
                <ele>350.06</ele>
                <time>2010-11-14T11:22:16.000Z</time>
                <name>Position 1869</name>
            </trkpt>
            <trkpt lon="11.362885041162372" lat="49.49145304039121">
                <ele>349.58</ele>
                <time>2010-11-14T11:22:17.000Z</time>
                <name>Position 1870</name>
            </trkpt>
            <trkpt lon="11.362786972895265" lat="49.49148799292743">
                <ele>350.06</ele>
                <time>2010-11-14T11:22:18.000Z</time>
                <name>Position 1871</name>
            </trkpt>
            <trkpt lon="11.362717989832163" lat="49.49154800735414">
                <ele>349.1</ele>
                <time>2010-11-14T11:22:19.000Z</time>
                <name>Position 1872</name>
            </trkpt>
            <trkpt lon="11.362652024254203" lat="49.49160500429571">
                <ele>349.1</ele>
                <time>2010-11-14T11:22:20.000Z</time>
                <name>Position 1873</name>
            </trkpt>
            <trkpt lon="11.362597960978746" lat="49.49167096987367">
                <ele>348.62</ele>
                <time>2010-11-14T11:22:21.000Z</time>
                <name>Position 1874</name>
            </trkpt>
            <trkpt lon="11.362558985128999" lat="49.49174196459353">
                <ele>349.1</ele>
                <time>2010-11-14T11:22:22.000Z</time>
                <name>Position 1875</name>
            </trkpt>
            <trkpt lon="11.3625399582088" lat="49.491817988455296">
                <ele>349.1</ele>
                <time>2010-11-14T11:22:23.000Z</time>
                <name>Position 1876</name>
            </trkpt>
            <trkpt lon="11.362529983744025" lat="49.49189501814544">
                <ele>349.1</ele>
                <time>2010-11-14T11:22:24.000Z</time>
                <name>Position 1877</name>
            </trkpt>
            <trkpt lon="11.36268898844719" lat="49.492763970047235">
                <ele>350.06</ele>
                <time>2010-11-14T11:22:34.000Z</time>
                <name>Position 1878</name>
            </trkpt>
            <trkpt lon="11.362876994535327" lat="49.49343401938677">
                <ele>353.42</ele>
                <time>2010-11-14T11:22:40.000Z</time>
                <name>Position 1879</name>
            </trkpt>
            <trkpt lon="11.3629059959203" lat="49.493941962718964">
                <ele>357.75</ele>
                <time>2010-11-14T11:22:44.000Z</time>
                <name>Position 1880</name>
            </trkpt>
            <trkpt lon="11.36279501952231" lat="49.49436197988689">
                <ele>361.59</ele>
                <time>2010-11-14T11:22:48.000Z</time>
                <name>Position 1881</name>
            </trkpt>
            <trkpt lon="11.362724024802446" lat="49.49444403871894">
                <ele>362.07</ele>
                <time>2010-11-14T11:22:49.000Z</time>
                <name>Position 1882</name>
            </trkpt>
            <trkpt lon="11.362614976242185" lat="49.49451402761042">
                <ele>362.55</ele>
                <time>2010-11-14T11:22:50.000Z</time>
                <name>Position 1883</name>
            </trkpt>
            <trkpt lon="11.361945010721684" lat="49.49496103450656">
                <ele>364.0</ele>
                <time>2010-11-14T11:22:55.000Z</time>
                <name>Position 1884</name>
            </trkpt>
            <trkpt lon="11.361821964383125" lat="49.49509900063276">
                <ele>365.92</ele>
                <time>2010-11-14T11:22:56.000Z</time>
                <name>Position 1885</name>
            </trkpt>
            <trkpt lon="11.360790990293026" lat="49.496135003864765">
                <ele>369.28</ele>
                <time>2010-11-14T11:23:02.000Z</time>
                <name>Position 1886</name>
            </trkpt>
            <trkpt lon="11.359546026214957" lat="49.497186010703444">
                <ele>367.84</ele>
                <time>2010-11-14T11:23:10.000Z</time>
                <name>Position 1887</name>
            </trkpt>
            <trkpt lon="11.358954012393951" lat="49.497683979570866">
                <ele>364.0</ele>
                <time>2010-11-14T11:23:15.000Z</time>
                <name>Position 1888</name>
            </trkpt>
            <trkpt lon="11.358786039054394" lat="49.49774298816919">
                <ele>364.0</ele>
                <time>2010-11-14T11:23:16.000Z</time>
                <name>Position 1889</name>
            </trkpt>
            <trkpt lon="11.358567019924521" lat="49.4977839756757">
                <ele>363.52</ele>
                <time>2010-11-14T11:23:17.000Z</time>
                <name>Position 1890</name>
            </trkpt>
            <trkpt lon="11.358300978317857" lat="49.497811971232295">
                <ele>362.55</ele>
                <time>2010-11-14T11:23:18.000Z</time>
                <name>Position 1891</name>
            </trkpt>
            <trkpt lon="11.358020016923547" lat="49.49782898649573">
                <ele>361.59</ele>
                <time>2010-11-14T11:23:19.000Z</time>
                <name>Position 1892</name>
            </trkpt>
            <trkpt lon="11.357236979529262" lat="49.49792898260057">
                <ele>358.23</ele>
                <time>2010-11-14T11:23:22.000Z</time>
                <name>Position 1893</name>
            </trkpt>
            <trkpt lon="11.357020977884531" lat="49.4979930203408">
                <ele>357.75</ele>
                <time>2010-11-14T11:23:23.000Z</time>
                <name>Position 1894</name>
            </trkpt>
            <trkpt lon="11.356834983453155" lat="49.4980810303241">
                <ele>357.27</ele>
                <time>2010-11-14T11:23:24.000Z</time>
                <name>Position 1895</name>
            </trkpt>
            <trkpt lon="11.356662986800075" lat="49.498177003115416">
                <ele>356.79</ele>
                <time>2010-11-14T11:23:25.000Z</time>
                <name>Position 1896</name>
            </trkpt>
            <trkpt lon="11.356491995975375" lat="49.49827197007835">
                <ele>355.83</ele>
                <time>2010-11-14T11:23:26.000Z</time>
                <name>Position 1897</name>
            </trkpt>
            <trkpt lon="11.356322010979056" lat="49.49837598949671">
                <ele>354.86</ele>
                <time>2010-11-14T11:23:27.000Z</time>
                <name>Position 1898</name>
            </trkpt>
            <trkpt lon="11.356123024597764" lat="49.49844698421657">
                <ele>353.9</ele>
                <time>2010-11-14T11:23:28.000Z</time>
                <name>Position 1899</name>
            </trkpt>
            <trkpt lon="11.355906017124653" lat="49.49851001612842">
                <ele>352.46</ele>
                <time>2010-11-14T11:23:29.000Z</time>
                <name>Position 1900</name>
            </trkpt>
            <trkpt lon="11.355679035186768" lat="49.49855603277683">
                <ele>351.02</ele>
                <time>2010-11-14T11:23:30.000Z</time>
                <name>Position 1901</name>
            </trkpt>
            <trkpt lon="11.355456998571754" lat="49.49859802611172">
                <ele>349.58</ele>
                <time>2010-11-14T11:23:31.000Z</time>
                <name>Position 1902</name>
            </trkpt>
            <trkpt lon="11.355242002755404" lat="49.49865896254778">
                <ele>349.58</ele>
                <time>2010-11-14T11:23:32.000Z</time>
                <name>Position 1903</name>
            </trkpt>
            <trkpt lon="11.355036981403828" lat="49.4987509958446">
                <ele>348.13</ele>
                <time>2010-11-14T11:23:33.000Z</time>
                <name>Position 1904</name>
            </trkpt>
            <trkpt lon="11.354826008901" lat="49.498859038576484">
                <ele>346.69</ele>
                <time>2010-11-14T11:23:34.000Z</time>
                <name>Position 1905</name>
            </trkpt>
            <trkpt lon="11.354427030310035" lat="49.499078979715705">
                <ele>344.77</ele>
                <time>2010-11-14T11:23:36.000Z</time>
                <name>Position 1906</name>
            </trkpt>
            <trkpt lon="11.354258973151445" lat="49.49921501800418">
                <ele>343.33</ele>
                <time>2010-11-14T11:23:37.000Z</time>
                <name>Position 1907</name>
            </trkpt>
            <trkpt lon="11.354110026732087" lat="49.499335968866944">
                <ele>341.89</ele>
                <time>2010-11-14T11:23:38.000Z</time>
                <name>Position 1908</name>
            </trkpt>
            <trkpt lon="11.353414999321103" lat="49.50048403814435">
                <ele>336.6</ele>
                <time>2010-11-14T11:23:46.000Z</time>
                <name>Position 1909</name>
            </trkpt>
            <trkpt lon="11.3534289970994" lat="49.500644970685244">
                <ele>335.64</ele>
                <time>2010-11-14T11:23:47.000Z</time>
                <name>Position 1910</name>
            </trkpt>
            <trkpt lon="11.353467972949147" lat="49.50080699287355">
                <ele>335.16</ele>
                <time>2010-11-14T11:23:48.000Z</time>
                <name>Position 1911</name>
            </trkpt>
            <trkpt lon="11.353525975719094" lat="49.50097303837538">
                <ele>334.68</ele>
                <time>2010-11-14T11:23:49.000Z</time>
                <name>Position 1912</name>
            </trkpt>
            <trkpt lon="11.35360199958086" lat="49.50113003142178">
                <ele>334.68</ele>
                <time>2010-11-14T11:23:50.000Z</time>
                <name>Position 1913</name>
            </trkpt>
            <trkpt lon="11.35370995849371" lat="49.5012949872762">
                <ele>335.64</ele>
                <time>2010-11-14T11:23:51.000Z</time>
                <name>Position 1914</name>
            </trkpt>
            <trkpt lon="11.35383803397417" lat="49.50145801529288">
                <ele>336.12</ele>
                <time>2010-11-14T11:23:52.000Z</time>
                <name>Position 1915</name>
            </trkpt>
            <trkpt lon="11.354429963976145" lat="49.502385975793004">
                <ele>335.64</ele>
                <time>2010-11-14T11:23:58.000Z</time>
                <name>Position 1916</name>
            </trkpt>
            <trkpt lon="11.354495007544756" lat="49.50264003127813">
                <ele>335.16</ele>
                <time>2010-11-14T11:24:00.000Z</time>
                <name>Position 1917</name>
            </trkpt>
            <trkpt lon="11.354471035301685" lat="49.50287103652954">
                <ele>333.71</ele>
                <time>2010-11-14T11:24:02.000Z</time>
                <name>Position 1918</name>
            </trkpt>
            <trkpt lon="11.354416972026229" lat="49.50299601070583">
                <ele>333.23</ele>
                <time>2010-11-14T11:24:03.000Z</time>
                <name>Position 1919</name>
            </trkpt>
            <trkpt lon="11.35433197952807" lat="49.50313498266041">
                <ele>332.27</ele>
                <time>2010-11-14T11:24:04.000Z</time>
                <name>Position 1920</name>
            </trkpt>
            <trkpt lon="11.353631000965834" lat="49.50409001670778">
                <ele>326.99</ele>
                <time>2010-11-14T11:24:11.000Z</time>
                <name>Position 1921</name>
            </trkpt>
            <trkpt lon="11.353482976555824" lat="49.50437902472913">
                <ele>324.58</ele>
                <time>2010-11-14T11:24:13.000Z</time>
                <name>Position 1922</name>
            </trkpt>
            <trkpt lon="11.353376023471355" lat="49.504512967541814">
                <ele>323.14</ele>
                <time>2010-11-14T11:24:14.000Z</time>
                <name>Position 1923</name>
            </trkpt>
            <trkpt lon="11.35302297770977" lat="49.50490599498153">
                <ele>320.26</ele>
                <time>2010-11-14T11:24:17.000Z</time>
                <name>Position 1924</name>
            </trkpt>
            <trkpt lon="11.352717960253358" lat="49.50523397885263">
                <ele>317.37</ele>
                <time>2010-11-14T11:24:20.000Z</time>
                <name>Position 1925</name>
            </trkpt>
            <trkpt lon="11.352575970813632" lat="49.5054669957608">
                <ele>315.93</ele>
                <time>2010-11-14T11:24:23.000Z</time>
                <name>Position 1926</name>
            </trkpt>
            <trkpt lon="11.352386958897114" lat="49.505694983527064">
                <ele>314.97</ele>
                <time>2010-11-14T11:24:26.000Z</time>
                <name>Position 1927</name>
            </trkpt>
            <trkpt lon="11.351715987548232" lat="49.50643502175808">
                <ele>315.93</ele>
                <time>2010-11-14T11:24:33.000Z</time>
                <name>Position 1928</name>
            </trkpt>
            <trkpt lon="11.351600987836719" lat="49.50650601647794">
                <ele>316.89</ele>
                <time>2010-11-14T11:24:34.000Z</time>
                <name>Position 1929</name>
            </trkpt>
            <trkpt lon="11.351471990346909" lat="49.50658497400582">
                <ele>318.33</ele>
                <time>2010-11-14T11:24:35.000Z</time>
                <name>Position 1930</name>
            </trkpt>
            <trkpt lon="11.351335030049086" lat="49.506641970947385">
                <ele>318.33</ele>
                <time>2010-11-14T11:24:36.000Z</time>
                <name>Position 1931</name>
            </trkpt>
            <trkpt lon="11.351202009245753" lat="49.506702991202474">
                <ele>318.81</ele>
                <time>2010-11-14T11:24:37.000Z</time>
                <name>Position 1932</name>
            </trkpt>
            <trkpt lon="11.349488999694586" lat="49.50722401030362">
                <ele>324.1</ele>
                <time>2010-11-14T11:24:50.000Z</time>
                <name>Position 1933</name>
            </trkpt>
            <trkpt lon="11.349251959472895" lat="49.507284024730325">
                <ele>323.14</ele>
                <time>2010-11-14T11:24:52.000Z</time>
                <name>Position 1934</name>
            </trkpt>
            <trkpt lon="11.34766903705895" lat="49.5076740346849">
                <ele>323.62</ele>
                <time>2010-11-14T11:25:03.000Z</time>
                <name>Position 1935</name>
            </trkpt>
            <trkpt lon="11.346329022198915" lat="49.5084129832685">
                <ele>322.66</ele>
                <time>2010-11-14T11:25:13.000Z</time>
                <name>Position 1936</name>
            </trkpt>
            <trkpt lon="11.34599600918591" lat="49.50863401405513">
                <ele>323.14</ele>
                <time>2010-11-14T11:25:16.000Z</time>
                <name>Position 1937</name>
            </trkpt>
            <trkpt lon="11.345731979236007" lat="49.508834006264806">
                <ele>323.62</ele>
                <time>2010-11-14T11:25:19.000Z</time>
                <name>Position 1938</name>
            </trkpt>
            <trkpt lon="11.344353994354606" lat="49.509733971208334">
                <ele>324.1</ele>
                <time>2010-11-14T11:25:32.000Z</time>
                <name>Position 1939</name>
            </trkpt>
            <trkpt lon="11.343583026900887" lat="49.51008500531316">
                <ele>323.62</ele>
                <time>2010-11-14T11:25:38.000Z</time>
                <name>Position 1940</name>
            </trkpt>
            <trkpt lon="11.343442965298891" lat="49.510118030011654">
                <ele>323.62</ele>
                <time>2010-11-14T11:25:39.000Z</time>
                <name>Position 1941</name>
            </trkpt>
            <trkpt lon="11.343297958374023" lat="49.51013999059796">
                <ele>324.1</ele>
                <time>2010-11-14T11:25:40.000Z</time>
                <name>Position 1942</name>
            </trkpt>
            <trkpt lon="11.343035018071532" lat="49.51016002334654">
                <ele>323.62</ele>
                <time>2010-11-14T11:25:42.000Z</time>
                <name>Position 1943</name>
            </trkpt>
            <trkpt lon="11.342911971732974" lat="49.51014703139663">
                <ele>323.62</ele>
                <time>2010-11-14T11:25:43.000Z</time>
                <name>Position 1944</name>
            </trkpt>
            <trkpt lon="11.342782974243164" lat="49.510122975334525">
                <ele>323.62</ele>
                <time>2010-11-14T11:25:44.000Z</time>
                <name>Position 1945</name>
            </trkpt>
            <trkpt lon="11.34170196019113" lat="49.50994100421667">
                <ele>325.54</ele>
                <time>2010-11-14T11:25:51.000Z</time>
                <name>Position 1946</name>
            </trkpt>
            <trkpt lon="11.341465003788471" lat="49.50989599339664">
                <ele>326.02</ele>
                <time>2010-11-14T11:25:53.000Z</time>
                <name>Position 1947</name>
            </trkpt>
            <trkpt lon="11.34135503321886" lat="49.5098929759115">
                <ele>326.5</ele>
                <time>2010-11-14T11:25:54.000Z</time>
                <name>Position 1948</name>
            </trkpt>
            <trkpt lon="11.340670986101031" lat="49.5098929759115">
                <ele>324.58</ele>
                <time>2010-11-14T11:26:00.000Z</time>
                <name>Position 1949</name>
            </trkpt>
            <trkpt lon="11.340292040258646" lat="49.50996103696525">
                <ele>324.1</ele>
                <time>2010-11-14T11:26:04.000Z</time>
                <name>Position 1950</name>
            </trkpt>
            <trkpt lon="11.340247029438615" lat="49.509992972016335">
                <ele>323.62</ele>
                <time>2010-11-14T11:26:05.000Z</time>
                <name>Position 1951</name>
            </trkpt>
            <trkpt lon="11.340244011953473" lat="49.51005298644304">
                <ele>323.62</ele>
                <time>2010-11-14T11:26:06.000Z</time>
                <name>Position 1952</name>
            </trkpt>
            <trkpt lon="11.340163964778185" lat="49.51068598777056">
                <ele>323.14</ele>
                <time>2010-11-14T11:26:14.000Z</time>
                <name>Position 1953</name>
            </trkpt>
            <trkpt lon="11.339956009760499" lat="49.51139300130308">
                <ele>321.22</ele>
                <time>2010-11-14T11:26:21.000Z</time>
                <name>Position 1954</name>
            </trkpt>
            <trkpt lon="11.339837992563844" lat="49.511471036821604">
                <ele>321.22</ele>
                <time>2010-11-14T11:26:22.000Z</time>
                <name>Position 1955</name>
            </trkpt>
            <trkpt lon="11.339694997295737" lat="49.5115299616009">
                <ele>321.22</ele>
                <time>2010-11-14T11:26:23.000Z</time>
                <name>Position 1956</name>
            </trkpt>
            <trkpt lon="11.339092003181577" lat="49.511732971295714">
                <ele>322.66</ele>
                <time>2010-11-14T11:26:27.000Z</time>
                <name>Position 1957</name>
            </trkpt>
            <trkpt lon="11.338974991813302" lat="49.51183296740055">
                <ele>322.66</ele>
                <time>2010-11-14T11:26:28.000Z</time>
                <name>Position 1958</name>
            </trkpt>
            <trkpt lon="11.338873989880085" lat="49.511948972940445">
                <ele>322.18</ele>
                <time>2010-11-14T11:26:29.000Z</time>
                <name>Position 1959</name>
            </trkpt>
            <trkpt lon="11.338787991553545" lat="49.5120669901371">
                <ele>322.18</ele>
                <time>2010-11-14T11:26:30.000Z</time>
                <name>Position 1960</name>
            </trkpt>
            <trkpt lon="11.338724959641695" lat="49.51219196431339">
                <ele>321.7</ele>
                <time>2010-11-14T11:26:31.000Z</time>
                <name>Position 1961</name>
            </trkpt>
            <trkpt lon="11.338680032640696" lat="49.51231601648033">
                <ele>321.22</ele>
                <time>2010-11-14T11:26:32.000Z</time>
                <name>Position 1962</name>
            </trkpt>
            <trkpt lon="11.3386470079422" lat="49.512440990656614">
                <ele>320.74</ele>
                <time>2010-11-14T11:26:33.000Z</time>
                <name>Position 1963</name>
            </trkpt>
            <trkpt lon="11.338629992678761" lat="49.512570993974805">
                <ele>321.22</ele>
                <time>2010-11-14T11:26:34.000Z</time>
                <name>Position 1964</name>
            </trkpt>
            <trkpt lon="11.338620018213987" lat="49.512699991464615">
                <ele>321.7</ele>
                <time>2010-11-14T11:26:35.000Z</time>
                <name>Position 1965</name>
            </trkpt>
            <trkpt lon="11.33862404152751" lat="49.51283602975309">
                <ele>321.7</ele>
                <time>2010-11-14T11:26:36.000Z</time>
                <name>Position 1966</name>
            </trkpt>
            <trkpt lon="11.338601997122169" lat="49.51386499218643">
                <ele>324.1</ele>
                <time>2010-11-14T11:26:44.000Z</time>
                <name>Position 1967</name>
            </trkpt>
            <trkpt lon="11.338440980762243" lat="49.51424301601946">
                <ele>323.14</ele>
                <time>2010-11-14T11:26:47.000Z</time>
                <name>Position 1968</name>
            </trkpt>
            <trkpt lon="11.338342996314168" lat="49.51436799019575">
                <ele>322.66</ele>
                <time>2010-11-14T11:26:48.000Z</time>
                <name>Position 1969</name>
            </trkpt>
            <trkpt lon="11.338210981339216" lat="49.51449397020042">
                <ele>323.14</ele>
                <time>2010-11-14T11:26:49.000Z</time>
                <name>Position 1970</name>
            </trkpt>
            <trkpt lon="11.338048037141562" lat="49.51462598517537">
                <ele>323.62</ele>
                <time>2010-11-14T11:26:50.000Z</time>
                <name>Position 1971</name>
            </trkpt>
            <trkpt lon="11.337836980819702" lat="49.514762023463845">
                <ele>323.14</ele>
                <time>2010-11-14T11:26:51.000Z</time>
                <name>Position 1972</name>
            </trkpt>
            <trkpt lon="11.33757596835494" lat="49.514889009296894">
                <ele>323.14</ele>
                <time>2010-11-14T11:26:52.000Z</time>
                <name>Position 1973</name>
            </trkpt>
            <trkpt lon="11.33727497421205" lat="49.5150129776448">
                <ele>323.14</ele>
                <time>2010-11-14T11:26:53.000Z</time>
                <name>Position 1974</name>
            </trkpt>
            <trkpt lon="11.3366680406034" lat="49.51526200398803">
                <ele>322.66</ele>
                <time>2010-11-14T11:26:55.000Z</time>
                <name>Position 1975</name>
            </trkpt>
            <trkpt lon="11.336405016481876" lat="49.515404999256134">
                <ele>322.66</ele>
                <time>2010-11-14T11:26:56.000Z</time>
                <name>Position 1976</name>
            </trkpt>
            <trkpt lon="11.336164036765695" lat="49.515555035322905">
                <ele>322.66</ele>
                <time>2010-11-14T11:26:57.000Z</time>
                <name>Position 1977</name>
            </trkpt>
            <trkpt lon="11.33596496656537" lat="49.515709010884166">
                <ele>322.66</ele>
                <time>2010-11-14T11:26:58.000Z</time>
                <name>Position 1978</name>
            </trkpt>
            <trkpt lon="11.335803028196096" lat="49.51586600393057">
                <ele>323.14</ele>
                <time>2010-11-14T11:26:59.000Z</time>
                <name>Position 1979</name>
            </trkpt>
            <trkpt lon="11.335672019049525" lat="49.51601696200669">
                <ele>323.14</ele>
                <time>2010-11-14T11:27:00.000Z</time>
                <name>Position 1980</name>
            </trkpt>
            <trkpt lon="11.335571017116308" lat="49.516159035265446">
                <ele>323.14</ele>
                <time>2010-11-14T11:27:01.000Z</time>
                <name>Position 1981</name>
            </trkpt>
            <trkpt lon="11.335031976923347" lat="49.51681500300765">
                <ele>324.1</ele>
                <time>2010-11-14T11:27:08.000Z</time>
                <name>Position 1982</name>
            </trkpt>
            <trkpt lon="11.334900967776775" lat="49.51694601215422">
                <ele>324.58</ele>
                <time>2010-11-14T11:27:12.000Z</time>
                <name>Position 1983</name>
            </trkpt>
            <trkpt lon="11.334873978048563" lat="49.51699202880263">
                <ele>324.58</ele>
                <time>2010-11-14T11:27:13.000Z</time>
                <name>Position 1984</name>
            </trkpt>
            <trkpt lon="11.33488998748362" lat="49.51704500243068">
                <ele>324.58</ele>
                <time>2010-11-14T11:27:14.000Z</time>
                <name>Position 1985</name>
            </trkpt>
            <trkpt lon="11.334965005517006" lat="49.51710803434253">
                <ele>324.1</ele>
                <time>2010-11-14T11:27:15.000Z</time>
                <name>Position 1986</name>
            </trkpt>
            <trkpt lon="11.335055027157068" lat="49.51715799048543">
                <ele>324.1</ele>
                <time>2010-11-14T11:27:16.000Z</time>
                <name>Position 1987</name>
            </trkpt>
            <trkpt lon="11.335153011605144" lat="49.517211969941854">
                <ele>324.1</ele>
                <time>2010-11-14T11:27:17.000Z</time>
                <name>Position 1988</name>
            </trkpt>
            <trkpt lon="11.336121959611773" lat="49.517769031226635">
                <ele>325.06</ele>
                <time>2010-11-14T11:27:24.000Z</time>
                <name>Position 1989</name>
            </trkpt>
            <trkpt lon="11.337114041671157" lat="49.51832299120724">
                <ele>324.58</ele>
                <time>2010-11-14T11:27:32.000Z</time>
                <name>Position 1990</name>
            </trkpt>
            <trkpt lon="11.33716500364244" lat="49.51838803477585">
                <ele>324.1</ele>
                <time>2010-11-14T11:27:33.000Z</time>
                <name>Position 1991</name>
            </trkpt>
            <trkpt lon="11.337155029177666" lat="49.51846900396049">
                <ele>324.1</ele>
                <time>2010-11-14T11:27:34.000Z</time>
                <name>Position 1992</name>
            </trkpt>
            <trkpt lon="11.337112030014396" lat="49.518561037257314">
                <ele>324.1</ele>
                <time>2010-11-14T11:27:35.000Z</time>
                <name>Position 1993</name>
            </trkpt>
            <trkpt lon="11.337070958688855" lat="49.51866799034178">
                <ele>324.1</ele>
                <time>2010-11-14T11:27:36.000Z</time>
                <name>Position 1994</name>
            </trkpt>
            <trkpt lon="11.337007004767656" lat="49.519016006961465">
                <ele>324.1</ele>
                <time>2010-11-14T11:27:39.000Z</time>
                <name>Position 1995</name>
            </trkpt>
            <trkpt lon="11.337007004767656" lat="49.51914098113775">
                <ele>324.1</ele>
                <time>2010-11-14T11:27:40.000Z</time>
                <name>Position 1996</name>
            </trkpt>
            <trkpt lon="11.337192999199033" lat="49.5206150226295">
                <ele>325.06</ele>
                <time>2010-11-14T11:27:50.000Z</time>
                <name>Position 1997</name>
            </trkpt>
            <trkpt lon="11.33783002384007" lat="49.522238010540605">
                <ele>324.1</ele>
                <time>2010-11-14T11:28:00.000Z</time>
                <name>Position 1998</name>
            </trkpt>
            <trkpt lon="11.33884297683835" lat="49.52366704121232">
                <ele>326.5</ele>
                <time>2010-11-14T11:28:10.000Z</time>
                <name>Position 1999</name>
            </trkpt>
            <trkpt lon="11.339993979781866" lat="49.52508601360023">
                <ele>326.5</ele>
                <time>2010-11-14T11:28:23.000Z</time>
                <name>Position 2000</name>
            </trkpt>
            <trkpt lon="11.341002993285656" lat="49.52670296654105">
                <ele>327.47</ele>
                <time>2010-11-14T11:28:38.000Z</time>
                <name>Position 2001</name>
            </trkpt>
            <trkpt lon="11.341189993545413" lat="49.52723303809762">
                <ele>325.06</ele>
                <time>2010-11-14T11:28:43.000Z</time>
                <name>Position 2002</name>
            </trkpt>
            <trkpt lon="11.341063007712364" lat="49.52844598330557">
                <ele>329.87</ele>
                <time>2010-11-14T11:28:55.000Z</time>
                <name>Position 2003</name>
            </trkpt>
            <trkpt lon="11.341025037690997" lat="49.52852100133896">
                <ele>330.35</ele>
                <time>2010-11-14T11:28:56.000Z</time>
                <name>Position 2004</name>
            </trkpt>
            <trkpt lon="11.340996958315372" lat="49.52858596108854">
                <ele>330.83</ele>
                <time>2010-11-14T11:28:57.000Z</time>
                <name>Position 2005</name>
            </trkpt>
            <trkpt lon="11.341027971357107" lat="49.52862996608019">
                <ele>331.31</ele>
                <time>2010-11-14T11:28:58.000Z</time>
                <name>Position 2006</name>
            </trkpt>
            <trkpt lon="11.341126039624214" lat="49.528661984950304">
                <ele>330.83</ele>
                <time>2010-11-14T11:28:59.000Z</time>
                <name>Position 2007</name>
            </trkpt>
            <trkpt lon="11.341256964951754" lat="49.52868000604212">
                <ele>331.31</ele>
                <time>2010-11-14T11:29:00.000Z</time>
                <name>Position 2008</name>
            </trkpt>
            <trkpt lon="11.341403983533382" lat="49.52867397107184">
                <ele>332.27</ele>
                <time>2010-11-14T11:29:01.000Z</time>
                <name>Position 2009</name>
            </trkpt>
            <trkpt lon="11.341559970751405" lat="49.528641030192375">
                <ele>333.23</ele>
                <time>2010-11-14T11:29:02.000Z</time>
                <name>Position 2010</name>
            </trkpt>
            <trkpt lon="11.341716041788459" lat="49.528599036857486">
                <ele>333.71</ele>
                <time>2010-11-14T11:29:03.000Z</time>
                <name>Position 2011</name>
            </trkpt>
            <trkpt lon="11.342121977359056" lat="49.52856500633061">
                <ele>333.71</ele>
                <time>2010-11-14T11:29:06.000Z</time>
                <name>Position 2012</name>
            </trkpt>
            <trkpt lon="11.342231025919318" lat="49.52861697413027">
                <ele>333.71</ele>
                <time>2010-11-14T11:29:07.000Z</time>
                <name>Position 2013</name>
            </trkpt>
            <trkpt lon="11.342675015330315" lat="49.528899025171995">
                <ele>332.75</ele>
                <time>2010-11-14T11:29:11.000Z</time>
                <name>Position 2014</name>
            </trkpt>
            <trkpt lon="11.342813987284899" lat="49.528944035992026">
                <ele>334.2</ele>
                <time>2010-11-14T11:29:12.000Z</time>
                <name>Position 2015</name>
            </trkpt>
            <trkpt lon="11.344581982120872" lat="49.52951601706445">
                <ele>342.37</ele>
                <time>2010-11-14T11:29:24.000Z</time>
                <name>Position 2016</name>
            </trkpt>
            <trkpt lon="11.344703016802669" lat="49.52958097681403">
                <ele>341.89</ele>
                <time>2010-11-14T11:29:25.000Z</time>
                <name>Position 2017</name>
            </trkpt>
            <trkpt lon="11.344816004857421" lat="49.52964995987713">
                <ele>341.89</ele>
                <time>2010-11-14T11:29:26.000Z</time>
                <name>Position 2018</name>
            </trkpt>
            <trkpt lon="11.345109036192298" lat="49.52988197095692">
                <ele>341.41</ele>
                <time>2010-11-14T11:29:29.000Z</time>
                <name>Position 2019</name>
            </trkpt>
            <trkpt lon="11.345249013975263" lat="49.53005497343838">
                <ele>341.41</ele>
                <time>2010-11-14T11:29:31.000Z</time>
                <name>Position 2020</name>
            </trkpt>
            <trkpt lon="11.345295030623674" lat="49.53015002422035">
                <ele>340.92</ele>
                <time>2010-11-14T11:29:32.000Z</time>
                <name>Position 2021</name>
            </trkpt>
            <trkpt lon="11.345297964289784" lat="49.530250020325184">
                <ele>340.44</ele>
                <time>2010-11-14T11:29:33.000Z</time>
                <name>Position 2022</name>
            </trkpt>
            <trkpt lon="11.345272986218333" lat="49.53034498728812">
                <ele>340.44</ele>
                <time>2010-11-14T11:29:34.000Z</time>
                <name>Position 2023</name>
            </trkpt>
            <trkpt lon="11.345219006761909" lat="49.53043802641332">
                <ele>339.96</ele>
                <time>2010-11-14T11:29:35.000Z</time>
                <name>Position 2024</name>
            </trkpt>
            <trkpt lon="11.345162009820342" lat="49.53054497949779">
                <ele>339.48</ele>
                <time>2010-11-14T11:29:36.000Z</time>
                <name>Position 2025</name>
            </trkpt>
            <trkpt lon="11.345087997615337" lat="49.53063600696623">
                <ele>339.96</ele>
                <time>2010-11-14T11:29:37.000Z</time>
                <name>Position 2026</name>
            </trkpt>
            <trkpt lon="11.345012979581952" lat="49.530726028606296">
                <ele>339.48</ele>
                <time>2010-11-14T11:29:38.000Z</time>
                <name>Position 2027</name>
            </trkpt>
            <trkpt lon="11.344410991296172" lat="49.53144796192646">
                <ele>340.92</ele>
                <time>2010-11-14T11:29:47.000Z</time>
                <name>Position 2028</name>
            </trkpt>
            <trkpt lon="11.344373021274805" lat="49.53155097551644">
                <ele>340.92</ele>
                <time>2010-11-14T11:29:48.000Z</time>
                <name>Position 2029</name>
            </trkpt>
            <trkpt lon="11.344359023496509" lat="49.53166396357119">
                <ele>340.92</ele>
                <time>2010-11-14T11:29:49.000Z</time>
                <name>Position 2030</name>
            </trkpt>
            <trkpt lon="11.344371009618044" lat="49.531778963282704">
                <ele>341.89</ele>
                <time>2010-11-14T11:29:50.000Z</time>
                <name>Position 2031</name>
            </trkpt>
            <trkpt lon="11.344395987689495" lat="49.53189102932811">
                <ele>342.37</ele>
                <time>2010-11-14T11:29:51.000Z</time>
                <name>Position 2032</name>
            </trkpt>
            <trkpt lon="11.344443010166287" lat="49.5320020057261">
                <ele>342.85</ele>
                <time>2010-11-14T11:29:52.000Z</time>
                <name>Position 2033</name>
            </trkpt>
            <trkpt lon="11.344519034028053" lat="49.53211097046733">
                <ele>342.85</ele>
                <time>2010-11-14T11:29:53.000Z</time>
                <name>Position 2034</name>
            </trkpt>
            <trkpt lon="11.344621963799" lat="49.53221498988569">
                <ele>343.33</ele>
                <time>2010-11-14T11:29:54.000Z</time>
                <name>Position 2035</name>
            </trkpt>
            <trkpt lon="11.344756996259093" lat="49.532336024567485">
                <ele>344.29</ele>
                <time>2010-11-14T11:29:55.000Z</time>
                <name>Position 2036</name>
            </trkpt>
            <trkpt lon="11.345819989219308" lat="49.53328804112971">
                <ele>349.58</ele>
                <time>2010-11-14T11:30:01.000Z</time>
                <name>Position 2037</name>
            </trkpt>
            <trkpt lon="11.346536977216601" lat="49.53435497358441">
                <ele>353.42</ele>
                <time>2010-11-14T11:30:08.000Z</time>
                <name>Position 2038</name>
            </trkpt>
            <trkpt lon="11.34700401686132" lat="49.53602297231555">
                <ele>352.46</ele>
                <time>2010-11-14T11:30:17.000Z</time>
                <name>Position 2039</name>
            </trkpt>
            <trkpt lon="11.347517995163798" lat="49.53672403469682">
                <ele>351.02</ele>
                <time>2010-11-14T11:30:22.000Z</time>
                <name>Position 2040</name>
            </trkpt>
            <trkpt lon="11.347883027046919" lat="49.53697297722101">
                <ele>349.1</ele>
                <time>2010-11-14T11:30:24.000Z</time>
                <name>Position 2041</name>
            </trkpt>
            <trkpt lon="11.348105985671282" lat="49.537085965275764">
                <ele>349.1</ele>
                <time>2010-11-14T11:30:25.000Z</time>
                <name>Position 2042</name>
            </trkpt>
            <trkpt lon="11.35024999268353" lat="49.538052985444665">
                <ele>347.17</ele>
                <time>2010-11-14T11:30:33.000Z</time>
                <name>Position 2043</name>
            </trkpt>
            <trkpt lon="11.352314036339521" lat="49.5390129648149">
                <ele>351.02</ele>
                <time>2010-11-14T11:30:41.000Z</time>
                <name>Position 2044</name>
            </trkpt>
            <trkpt lon="11.354518979787827" lat="49.54003497026861">
                <ele>355.34</ele>
                <time>2010-11-14T11:30:53.000Z</time>
                <name>Position 2045</name>
            </trkpt>
            <trkpt lon="11.354950983077288" lat="49.54023697413504">
                <ele>356.79</ele>
                <time>2010-11-14T11:30:56.000Z</time>
                <name>Position 2046</name>
            </trkpt>
            <trkpt lon="11.3559449929744" lat="49.54066595993936">
                <ele>358.71</ele>
                <time>2010-11-14T11:31:03.000Z</time>
                <name>Position 2047</name>
            </trkpt>
            <trkpt lon="11.356902960687876" lat="49.54109201207757">
                <ele>359.19</ele>
                <time>2010-11-14T11:31:11.000Z</time>
                <name>Position 2048</name>
            </trkpt>
            <trkpt lon="11.357606034725904" lat="49.54145201481879">
                <ele>360.63</ele>
                <time>2010-11-14T11:31:21.000Z</time>
                <name>Position 2049</name>
            </trkpt>
            <trkpt lon="11.358408015221357" lat="49.541961969807744">
                <ele>361.11</ele>
                <time>2010-11-14T11:31:33.000Z</time>
                <name>Position 2050</name>
            </trkpt>
            <trkpt lon="11.358556039631367" lat="49.542088033631444">
                <ele>360.63</ele>
                <time>2010-11-14T11:31:35.000Z</time>
                <name>Position 2051</name>
            </trkpt>
            <trkpt lon="11.358626028522849" lat="49.542133966460824">
                <ele>360.63</ele>
                <time>2010-11-14T11:31:36.000Z</time>
                <name>Position 2052</name>
            </trkpt>
            <trkpt lon="11.358812022954226" lat="49.54225902445614">
                <ele>360.63</ele>
                <time>2010-11-14T11:31:39.000Z</time>
                <name>Position 2053</name>
            </trkpt>
            <trkpt lon="11.35886700823903" lat="49.54229095950723">
                <ele>362.07</ele>
                <time>2010-11-14T11:31:40.000Z</time>
                <name>Position 2054</name>
            </trkpt>
            <trkpt lon="11.359330024570227" lat="49.54244996421039">
                <ele>361.11</ele>
                <time>2010-11-14T11:31:48.000Z</time>
                <name>Position 2055</name>
            </trkpt>
            <trkpt lon="11.35942398570478" lat="49.5424600224942">
                <ele>361.11</ele>
                <time>2010-11-14T11:31:49.000Z</time>
                <name>Position 2056</name>
            </trkpt>
            <trkpt lon="11.359522975981236" lat="49.542455999180675">
                <ele>361.59</ele>
                <time>2010-11-14T11:31:50.000Z</time>
                <name>Position 2057</name>
            </trkpt>
            <trkpt lon="11.359598999843001" lat="49.542434960603714">
                <ele>361.11</ele>
                <time>2010-11-14T11:31:51.000Z</time>
                <name>Position 2058</name>
            </trkpt>
            <trkpt lon="11.359662031754851" lat="49.5424079708755">
                <ele>361.11</ele>
                <time>2010-11-14T11:31:52.000Z</time>
                <name>Position 2059</name>
            </trkpt>
            <trkpt lon="11.359721962362528" lat="49.54237997531891">
                <ele>361.11</ele>
                <time>2010-11-14T11:31:53.000Z</time>
                <name>Position 2060</name>
            </trkpt>
            <trkpt lon="11.359991021454334" lat="49.54229699447751">
                <ele>360.15</ele>
                <time>2010-11-14T11:31:58.000Z</time>
                <name>Position 2061</name>
            </trkpt>
            <trkpt lon="11.360062016174197" lat="49.54229095950723">
                <ele>360.15</ele>
                <time>2010-11-14T11:31:59.000Z</time>
                <name>Position 2062</name>
            </trkpt>
            <trkpt lon="11.360322022810578" lat="49.54227696172893">
                <ele>359.67</ele>
                <time>2010-11-14T11:32:02.000Z</time>
                <name>Position 2063</name>
            </trkpt>
            <trkpt lon="11.361301029101014" lat="49.54233303666115">
                <ele>360.63</ele>
                <time>2010-11-14T11:32:12.000Z</time>
                <name>Position 2064</name>
            </trkpt>
            <trkpt lon="11.361388033255935" lat="49.54231903888285">
                <ele>361.11</ele>
                <time>2010-11-14T11:32:13.000Z</time>
                <name>Position 2065</name>
            </trkpt>
            <trkpt lon="11.361475037410855" lat="49.54229699447751">
                <ele>361.59</ele>
                <time>2010-11-14T11:32:14.000Z</time>
                <name>Position 2066</name>
            </trkpt>
            <trkpt lon="11.361562041565776" lat="49.5422700047493">
                <ele>361.59</ele>
                <time>2010-11-14T11:32:15.000Z</time>
                <name>Position 2067</name>
            </trkpt>
            <trkpt lon="11.361648039892316" lat="49.54223396256566">
                <ele>362.55</ele>
                <time>2010-11-14T11:32:16.000Z</time>
                <name>Position 2068</name>
            </trkpt>
            <trkpt lon="11.362833995372057" lat="49.54171596094966">
                <ele>369.76</ele>
                <time>2010-11-14T11:32:26.000Z</time>
                <name>Position 2069</name>
            </trkpt>
            <trkpt lon="11.363879973068833" lat="49.5412699598819">
                <ele>374.57</ele>
                <time>2010-11-14T11:32:34.000Z</time>
                <name>Position 2070</name>
            </trkpt>
            <trkpt lon="11.365177994593978" lat="49.54074198380113">
                <ele>382.74</ele>
                <time>2010-11-14T11:32:45.000Z</time>
                <name>Position 2071</name>
            </trkpt>
            <trkpt lon="11.366307036951184" lat="49.540435038506985">
                <ele>388.51</ele>
                <time>2010-11-14T11:32:53.000Z</time>
                <name>Position 2072</name>
            </trkpt>
            <trkpt lon="11.367250001057982" lat="49.53999498859048">
                <ele>392.84</ele>
                <time>2010-11-14T11:33:01.000Z</time>
                <name>Position 2073</name>
            </trkpt>
            <trkpt lon="11.36737204156816" lat="49.53995098359883">
                <ele>393.32</ele>
                <time>2010-11-14T11:33:02.000Z</time>
                <name>Position 2074</name>
            </trkpt>
            <trkpt lon="11.367488969117403" lat="49.53991896472871">
                <ele>393.8</ele>
                <time>2010-11-14T11:33:03.000Z</time>
                <name>Position 2075</name>
            </trkpt>
            <trkpt lon="11.367602963000536" lat="49.53990203328431">
                <ele>393.8</ele>
                <time>2010-11-14T11:33:04.000Z</time>
                <name>Position 2076</name>
            </trkpt>
            <trkpt lon="11.367721986025572" lat="49.5398919750005">
                <ele>394.28</ele>
                <time>2010-11-14T11:33:05.000Z</time>
                <name>Position 2077</name>
            </trkpt>
            <trkpt lon="11.36784897185862" lat="49.53988401219249">
                <ele>394.76</ele>
                <time>2010-11-14T11:33:06.000Z</time>
                <name>Position 2078</name>
            </trkpt>
            <trkpt lon="11.367979981005192" lat="49.53987001441419">
                <ele>395.72</ele>
                <time>2010-11-14T11:33:07.000Z</time>
                <name>Position 2079</name>
            </trkpt>
            <trkpt lon="11.368109984323382" lat="49.53984797000885">
                <ele>396.68</ele>
                <time>2010-11-14T11:33:08.000Z</time>
                <name>Position 2080</name>
            </trkpt>
            <trkpt lon="11.368241999298334" lat="49.53981896862388">
                <ele>397.16</ele>
                <time>2010-11-14T11:33:09.000Z</time>
                <name>Position 2081</name>
            </trkpt>
            <trkpt lon="11.368785984814167" lat="49.53962702304125">
                <ele>401.01</ele>
                <time>2010-11-14T11:33:14.000Z</time>
                <name>Position 2082</name>
            </trkpt>
            <trkpt lon="11.368881035596132" lat="49.53957103192806">
                <ele>401.49</ele>
                <time>2010-11-14T11:33:15.000Z</time>
                <name>Position 2083</name>
            </trkpt>
            <trkpt lon="11.368978014215827" lat="49.53950297087431">
                <ele>401.97</ele>
                <time>2010-11-14T11:33:16.000Z</time>
                <name>Position 2084</name>
            </trkpt>
            <trkpt lon="11.36907298117876" lat="49.539427030831575">
                <ele>402.93</ele>
                <time>2010-11-14T11:33:17.000Z</time>
                <name>Position 2085</name>
            </trkpt>
            <trkpt lon="11.369165014475584" lat="49.539338015019894">
                <ele>403.89</ele>
                <time>2010-11-14T11:33:18.000Z</time>
                <name>Position 2086</name>
            </trkpt>
            <trkpt lon="11.369257969781756" lat="49.53923701308668">
                <ele>404.85</ele>
                <time>2010-11-14T11:33:19.000Z</time>
                <name>Position 2087</name>
            </trkpt>
            <trkpt lon="11.369354026392102" lat="49.539124025031924">
                <ele>405.81</ele>
                <time>2010-11-14T11:33:20.000Z</time>
                <name>Position 2088</name>
            </trkpt>
            <trkpt lon="11.370035978034139" lat="49.53828197903931">
                <ele>413.5</ele>
                <time>2010-11-14T11:33:26.000Z</time>
                <name>Position 2089</name>
            </trkpt>
            <trkpt lon="11.370248962193727" lat="49.53791996464133">
                <ele>416.39</ele>
                <time>2010-11-14T11:33:30.000Z</time>
                <name>Position 2090</name>
            </trkpt>
            <trkpt lon="11.370333032682538" lat="49.53786497935653">
                <ele>417.35</ele>
                <time>2010-11-14T11:33:31.000Z</time>
                <name>Position 2091</name>
            </trkpt>
            <trkpt lon="11.370430011302233" lat="49.53782298602164">
                <ele>418.31</ele>
                <time>2010-11-14T11:33:32.000Z</time>
                <name>Position 2092</name>
            </trkpt>
            <trkpt lon="11.37055004015565" lat="49.5378059707582">
                <ele>419.27</ele>
                <time>2010-11-14T11:33:33.000Z</time>
                <name>Position 2093</name>
            </trkpt>
            <trkpt lon="11.370692029595375" lat="49.53782198019326">
                <ele>420.23</ele>
                <time>2010-11-14T11:33:34.000Z</time>
                <name>Position 2094</name>
            </trkpt>
            <trkpt lon="11.370829995721579" lat="49.53787797130644">
                <ele>421.19</ele>
                <time>2010-11-14T11:33:35.000Z</time>
                <name>Position 2095</name>
            </trkpt>
            <trkpt lon="11.37093996629119" lat="49.537987019866705">
                <ele>421.68</ele>
                <time>2010-11-14T11:33:36.000Z</time>
                <name>Position 2096</name>
            </trkpt>
            <trkpt lon="11.371028982102871" lat="49.53812004067004">
                <ele>423.12</ele>
                <time>2010-11-14T11:33:37.000Z</time>
                <name>Position 2097</name>
            </trkpt>
            <trkpt lon="11.371105005964637" lat="49.5382549893111">
                <ele>424.56</ele>
                <time>2010-11-14T11:33:38.000Z</time>
                <name>Position 2098</name>
            </trkpt>
            <trkpt lon="11.37160699814558" lat="49.539103992283344">
                <ele>432.25</ele>
                <time>2010-11-14T11:33:46.000Z</time>
                <name>Position 2099</name>
            </trkpt>
            <trkpt lon="11.37178000062704" lat="49.53940900973976">
                <ele>434.17</ele>
                <time>2010-11-14T11:33:50.000Z</time>
                <name>Position 2100</name>
            </trkpt>
            <trkpt lon="11.371764997020364" lat="49.539470029994845">
                <ele>434.65</ele>
                <time>2010-11-14T11:33:51.000Z</time>
                <name>Position 2101</name>
            </trkpt>
            <trkpt lon="11.37173498980701" lat="49.53953197225928">
                <ele>434.65</ele>
                <time>2010-11-14T11:33:52.000Z</time>
                <name>Position 2102</name>
            </trkpt>
            <trkpt lon="11.371688973158598" lat="49.53959198668599">
                <ele>434.65</ele>
                <time>2010-11-14T11:33:53.000Z</time>
                <name>Position 2103</name>
            </trkpt>
            <trkpt lon="11.371641028672457" lat="49.53965099528432">
                <ele>435.13</ele>
                <time>2010-11-14T11:33:54.000Z</time>
                <name>Position 2104</name>
            </trkpt>
            <trkpt lon="11.371567016467452" lat="49.53975300304592">
                <ele>435.61</ele>
                <time>2010-11-14T11:33:56.000Z</time>
                <name>Position 2105</name>
            </trkpt>
            <trkpt lon="11.37156198732555" lat="49.539793990552425">
                <ele>435.61</ele>
                <time>2010-11-14T11:33:57.000Z</time>
                <name>Position 2106</name>
            </trkpt>
            <trkpt lon="11.371571961790323" lat="49.539835983887315">
                <ele>435.61</ele>
                <time>2010-11-14T11:33:58.000Z</time>
                <name>Position 2107</name>
            </trkpt>
            <trkpt lon="11.371599035337567" lat="49.539878983050585">
                <ele>436.58</ele>
                <time>2010-11-14T11:33:59.000Z</time>
                <name>Position 2108</name>
            </trkpt>
            <trkpt lon="11.37164899148047" lat="49.53991502523422">
                <ele>438.5</ele>
                <time>2010-11-14T11:34:00.000Z</time>
                <name>Position 2109</name>
            </trkpt>
            <trkpt lon="11.371711017563939" lat="49.539942014962435">
                <ele>438.98</ele>
                <time>2010-11-14T11:34:01.000Z</time>
                <name>Position 2110</name>
            </trkpt>
            <trkpt lon="11.371768014505506" lat="49.53995098359883">
                <ele>439.94</ele>
                <time>2010-11-14T11:34:02.000Z</time>
                <name>Position 2111</name>
            </trkpt>
            <trkpt lon="11.371826017275453" lat="49.539943020790815">
                <ele>440.42</ele>
                <time>2010-11-14T11:34:03.000Z</time>
                <name>Position 2112</name>
            </trkpt>
            <trkpt lon="11.37188896536827" lat="49.53994997777045">
                <ele>440.9</ele>
                <time>2010-11-14T11:34:04.000Z</time>
                <name>Position 2113</name>
            </trkpt>
            <trkpt lon="11.37193196453154" lat="49.53997403383255">
                <ele>441.38</ele>
                <time>2010-11-14T11:34:05.000Z</time>
                <name>Position 2114</name>
            </trkpt>
            <trkpt lon="11.371955014765263" lat="49.54000001773238">
                <ele>446.19</ele>
                <time>2010-11-14T13:08:14.000Z</time>
                <name>Position 2115</name>
            </trkpt>
            <trkpt lon="11.3718840200454" lat="49.54001896083355">
                <ele>444.75</ele>
                <time>2010-11-14T13:09:40.000Z</time>
                <name>Position 2116</name>
            </trkpt>
            <trkpt lon="11.371890977025032" lat="49.54001896083355">
                <ele>444.75</ele>
                <time>2010-11-14T13:11:12.000Z</time>
                <name>Position 2117</name>
            </trkpt>
            <trkpt lon="11.371893994510174" lat="49.540027007460594">
                <ele>444.75</ele>
                <time>2010-11-14T13:11:13.000Z</time>
                <name>Position 2118</name>
            </trkpt>
            <trkpt lon="11.37192903086543" lat="49.540092973038554">
                <ele>444.27</ele>
                <time>2010-11-14T13:11:21.000Z</time>
                <name>Position 2119</name>
            </trkpt>
            <trkpt lon="11.371930036693811" lat="49.54009800218046">
                <ele>444.27</ele>
                <time>2010-11-14T13:11:47.000Z</time>
                <name>Position 2120</name>
            </trkpt>
            <trkpt lon="11.37195199728012" lat="49.54007998108864">
                <ele>444.27</ele>
                <time>2010-11-14T13:11:48.000Z</time>
                <name>Position 2121</name>
            </trkpt>
            <trkpt lon="11.37192701920867" lat="49.53995500691235">
                <ele>443.31</ele>
                <time>2010-11-14T13:11:52.000Z</time>
                <name>Position 2122</name>
            </trkpt>
            <trkpt lon="11.371878990903497" lat="49.539922988042235">
                <ele>442.82</ele>
                <time>2010-11-14T13:11:53.000Z</time>
                <name>Position 2123</name>
            </trkpt>
            <trkpt lon="11.37182098813355" lat="49.53989298082888">
                <ele>442.34</ele>
                <time>2010-11-14T13:11:54.000Z</time>
                <name>Position 2124</name>
            </trkpt>
            <trkpt lon="11.371767008677125" lat="49.53987303189933">
                <ele>441.86</ele>
                <time>2010-11-14T13:11:55.000Z</time>
                <name>Position 2125</name>
            </trkpt>
            <trkpt lon="11.371721997857094" lat="49.53986003994942">
                <ele>441.38</ele>
                <time>2010-11-14T13:11:56.000Z</time>
                <name>Position 2126</name>
            </trkpt>
            <trkpt lon="11.371684027835727" lat="49.53984998166561">
                <ele>440.9</ele>
                <time>2010-11-14T13:11:57.000Z</time>
                <name>Position 2127</name>
            </trkpt>
            <trkpt lon="11.371600041165948" lat="49.53982600942254">
                <ele>439.46</ele>
                <time>2010-11-14T13:12:09.000Z</time>
                <name>Position 2128</name>
            </trkpt>
            <trkpt lon="11.371534997597337" lat="49.539811005815864">
                <ele>438.98</ele>
                <time>2010-11-14T13:12:15.000Z</time>
                <name>Position 2129</name>
            </trkpt>
            <trkpt lon="11.37150096707046" lat="49.539815029129386">
                <ele>438.98</ele>
                <time>2010-11-14T13:12:16.000Z</time>
                <name>Position 2130</name>
            </trkpt>
            <trkpt lon="11.371473977342248" lat="49.53982902690768">
                <ele>438.98</ele>
                <time>2010-11-14T13:12:17.000Z</time>
                <name>Position 2131</name>
            </trkpt>
            <trkpt lon="11.371450005099177" lat="49.53985299915075">
                <ele>438.5</ele>
                <time>2010-11-14T13:12:18.000Z</time>
                <name>Position 2132</name>
            </trkpt>
            <trkpt lon="11.371423015370965" lat="49.53988200053573">
                <ele>438.98</ele>
                <time>2010-11-14T13:12:19.000Z</time>
                <name>Position 2133</name>
            </trkpt>
            <trkpt lon="11.371402982622385" lat="49.5399110019207">
                <ele>438.5</ele>
                <time>2010-11-14T13:12:20.000Z</time>
                <name>Position 2134</name>
            </trkpt>
            <trkpt lon="11.371332993730903" lat="49.5401700027287">
                <ele>440.42</ele>
                <time>2010-11-14T13:12:30.000Z</time>
                <name>Position 2135</name>
            </trkpt>
            <trkpt lon="11.371364006772637" lat="49.54019104130566">
                <ele>440.42</ele>
                <time>2010-11-14T13:12:31.000Z</time>
                <name>Position 2136</name>
            </trkpt>
            <trkpt lon="11.371398959308863" lat="49.54020403325558">
                <ele>440.9</ele>
                <time>2010-11-14T13:12:32.000Z</time>
                <name>Position 2137</name>
            </trkpt>
            <trkpt lon="11.371419997885823" lat="49.54021702520549">
                <ele>440.9</ele>
                <time>2010-11-14T13:12:33.000Z</time>
                <name>Position 2138</name>
            </trkpt>
            <trkpt lon="11.371431984007359" lat="49.54023496247828">
                <ele>440.9</ele>
                <time>2010-11-14T13:12:34.000Z</time>
                <name>Position 2139</name>
            </trkpt>
            <trkpt lon="11.37145503424108" lat="49.540263041853905">
                <ele>441.38</ele>
                <time>2010-11-14T13:12:35.000Z</time>
                <name>Position 2140</name>
            </trkpt>
            <trkpt lon="11.37152099981904" lat="49.54033202491701">
                <ele>441.86</ele>
                <time>2010-11-14T13:12:37.000Z</time>
                <name>Position 2141</name>
            </trkpt>
            <trkpt lon="11.371613033115864" lat="49.540439983829856">
                <ele>442.82</ele>
                <time>2010-11-14T13:12:44.000Z</time>
                <name>Position 2142</name>
            </trkpt>
            <trkpt lon="11.371624013409019" lat="49.540650034323335">
                <ele>446.19</ele>
                <time>2010-11-14T13:12:55.000Z</time>
                <name>Position 2143</name>
            </trkpt>
            <trkpt lon="11.371487975120544" lat="49.541295021772385">
                <ele>458.21</ele>
                <time>2010-11-14T13:13:02.000Z</time>
                <name>Position 2144</name>
            </trkpt>
            <trkpt lon="11.371481018140912" lat="49.54143600538373">
                <ele>461.09</ele>
                <time>2010-11-14T13:13:05.000Z</time>
                <name>Position 2145</name>
            </trkpt>
            <trkpt lon="11.371534997597337" lat="49.5414650067687">
                <ele>462.05</ele>
                <time>2010-11-14T13:13:06.000Z</time>
                <name>Position 2146</name>
            </trkpt>
            <trkpt lon="11.371590988710523" lat="49.54147598706186">
                <ele>463.01</ele>
                <time>2010-11-14T13:13:07.000Z</time>
                <name>Position 2147</name>
            </trkpt>
            <trkpt lon="11.371709005907178" lat="49.54145402647555">
                <ele>463.97</ele>
                <time>2010-11-14T13:13:09.000Z</time>
                <name>Position 2148</name>
            </trkpt>
            <trkpt lon="11.372155006974936" lat="49.541294015944004">
                <ele>466.86</ele>
                <time>2010-11-14T13:13:13.000Z</time>
                <name>Position 2149</name>
            </trkpt>
            <trkpt lon="11.372325997799635" lat="49.54124196432531">
                <ele>467.82</ele>
                <time>2010-11-14T13:13:14.000Z</time>
                <name>Position 2150</name>
            </trkpt>
            <trkpt lon="11.372954975813627" lat="49.5410680398345">
                <ele>470.7</ele>
                <time>2010-11-14T13:13:18.000Z</time>
                <name>Position 2151</name>
            </trkpt>
            <trkpt lon="11.373374992981553" lat="49.54098103567958">
                <ele>472.63</ele>
                <time>2010-11-14T13:13:21.000Z</time>
                <name>Position 2152</name>
            </trkpt>
            <trkpt lon="11.373556964099407" lat="49.54090400598943">
                <ele>473.59</ele>
                <time>2010-11-14T13:13:22.000Z</time>
                <name>Position 2153</name>
            </trkpt>
            <trkpt lon="11.374213015660644" lat="49.54064601100981">
                <ele>474.55</ele>
                <time>2010-11-14T13:13:28.000Z</time>
                <name>Position 2154</name>
            </trkpt>
            <trkpt lon="11.374604031443596" lat="49.54053402878344">
                <ele>474.55</ele>
                <time>2010-11-14T13:13:31.000Z</time>
                <name>Position 2155</name>
            </trkpt>
            <trkpt lon="11.37474400922656" lat="49.54044702462852">
                <ele>476.47</ele>
                <time>2010-11-14T13:13:32.000Z</time>
                <name>Position 2156</name>
            </trkpt>
            <trkpt lon="11.37489203363657" lat="49.540374018251896">
                <ele>476.47</ele>
                <time>2010-11-14T13:13:33.000Z</time>
                <name>Position 2157</name>
            </trkpt>
            <trkpt lon="11.37502396479249" lat="49.54030101187527">
                <ele>476.47</ele>
                <time>2010-11-14T13:13:34.000Z</time>
                <name>Position 2158</name>
            </trkpt>
            <trkpt lon="11.375143993645906" lat="49.54022699967027">
                <ele>476.47</ele>
                <time>2010-11-14T13:13:35.000Z</time>
                <name>Position 2159</name>
            </trkpt>
            <trkpt lon="11.375240972265601" lat="49.54013999551535">
                <ele>477.91</ele>
                <time>2010-11-14T13:13:36.000Z</time>
                <name>Position 2160</name>
            </trkpt>
            <trkpt lon="11.375320013612509" lat="49.54004100523889">
                <ele>479.35</ele>
                <time>2010-11-14T13:13:37.000Z</time>
                <name>Position 2161</name>
            </trkpt>
            <trkpt lon="11.375668030232191" lat="49.53914397396147">
                <ele>488.97</ele>
                <time>2010-11-14T13:13:45.000Z</time>
                <name>Position 2162</name>
            </trkpt>
            <trkpt lon="11.375758973881602" lat="49.538909029215574">
                <ele>489.93</ele>
                <time>2010-11-14T13:13:47.000Z</time>
                <name>Position 2163</name>
            </trkpt>
            <trkpt lon="11.375824017450213" lat="49.538804003968835">
                <ele>490.89</ele>
                <time>2010-11-14T13:13:48.000Z</time>
                <name>Position 2164</name>
            </trkpt>
            <trkpt lon="11.376331960782409" lat="49.53832598403096">
                <ele>500.5</ele>
                <time>2010-11-14T13:13:54.000Z</time>
                <name>Position 2165</name>
            </trkpt>
            <trkpt lon="11.376561038196087" lat="49.538223976269364">
                <ele>503.39</ele>
                <time>2010-11-14T13:13:57.000Z</time>
                <name>Position 2166</name>
            </trkpt>
            <trkpt lon="11.376730017364025" lat="49.53816203400493">
                <ele>506.75</ele>
                <time>2010-11-14T13:14:00.000Z</time>
                <name>Position 2167</name>
            </trkpt>
            <trkpt lon="11.376794977113605" lat="49.538163961842656">
                <ele>508.19</ele>
                <time>2010-11-14T13:14:01.000Z</time>
                <name>Position 2168</name>
            </trkpt>
            <trkpt lon="11.376861026510596" lat="49.53816999681294">
                <ele>510.6</ele>
                <time>2010-11-14T13:14:02.000Z</time>
                <name>Position 2169</name>
            </trkpt>
            <trkpt lon="11.377090020105243" lat="49.5381669793278">
                <ele>514.92</ele>
                <time>2010-11-14T13:14:05.000Z</time>
                <name>Position 2170</name>
            </trkpt>
            <trkpt lon="11.37714701704681" lat="49.53816899098456">
                <ele>516.37</ele>
                <time>2010-11-14T13:14:06.000Z</time>
                <name>Position 2171</name>
            </trkpt>
            <trkpt lon="11.377424038946629" lat="49.538179971277714">
                <ele>519.73</ele>
                <time>2010-11-14T13:14:11.000Z</time>
                <name>Position 2172</name>
            </trkpt>
            <trkpt lon="11.377548007294536" lat="49.53828399069607">
                <ele>525.5</ele>
                <time>2010-11-14T13:14:14.000Z</time>
                <name>Position 2173</name>
            </trkpt>
            <trkpt lon="11.377540966495872" lat="49.53836898319423">
                <ele>526.94</ele>
                <time>2010-11-14T13:14:15.000Z</time>
                <name>Position 2174</name>
            </trkpt>
            <trkpt lon="11.377496039494872" lat="49.53844701871276">
                <ele>529.34</ele>
                <time>2010-11-14T13:14:16.000Z</time>
                <name>Position 2175</name>
            </trkpt>
            <trkpt lon="11.377421021461487" lat="49.53866100870073">
                <ele>534.15</ele>
                <time>2010-11-14T13:14:19.000Z</time>
                <name>Position 2176</name>
            </trkpt>
            <trkpt lon="11.377454968169332" lat="49.53872898593545">
                <ele>534.63</ele>
                <time>2010-11-14T13:14:20.000Z</time>
                <name>Position 2177</name>
            </trkpt>
            <trkpt lon="11.377539038658142" lat="49.53881599009037">
                <ele>535.59</ele>
                <time>2010-11-14T13:14:21.000Z</time>
                <name>Position 2178</name>
            </trkpt>
            <trkpt lon="11.378220990300179" lat="49.53941001556814">
                <ele>543.28</ele>
                <time>2010-11-14T13:14:27.000Z</time>
                <name>Position 2179</name>
            </trkpt>
            <trkpt lon="11.378383012488484" lat="49.53950196504593">
                <ele>544.72</ele>
                <time>2010-11-14T13:14:28.000Z</time>
                <name>Position 2180</name>
            </trkpt>
            <trkpt lon="11.37858803384006" lat="49.53960397280753">
                <ele>545.69</ele>
                <time>2010-11-14T13:14:29.000Z</time>
                <name>Position 2181</name>
            </trkpt>
            <trkpt lon="11.380260977894068" lat="49.54046596772969">
                <ele>551.45</ele>
                <time>2010-11-14T13:14:38.000Z</time>
                <name>Position 2182</name>
            </trkpt>
            <trkpt lon="11.380411013960838" lat="49.540525982156396">
                <ele>551.93</ele>
                <time>2010-11-14T13:14:39.000Z</time>
                <name>Position 2183</name>
            </trkpt>
            <trkpt lon="11.38056599535048" lat="49.54057199880481">
                <ele>551.93</ele>
                <time>2010-11-14T13:14:40.000Z</time>
                <name>Position 2184</name>
            </trkpt>
            <trkpt lon="11.380723994225264" lat="49.54060200601816">
                <ele>551.93</ele>
                <time>2010-11-14T13:14:41.000Z</time>
                <name>Position 2185</name>
            </trkpt>
            <trkpt lon="11.380880987271667" lat="49.54062203876674">
                <ele>552.41</ele>
                <time>2010-11-14T13:14:42.000Z</time>
                <name>Position 2186</name>
            </trkpt>
            <trkpt lon="11.381040997803211" lat="49.54062798991799">
                <ele>552.41</ele>
                <time>2010-11-14T13:14:43.000Z</time>
                <name>Position 2187</name>
            </trkpt>
            <trkpt lon="11.381195979192853" lat="49.5406190212816">
                <ele>552.9</ele>
                <time>2010-11-14T13:14:44.000Z</time>
                <name>Position 2188</name>
            </trkpt>
            <trkpt lon="11.381350038573146" lat="49.54059898853302">
                <ele>552.9</ele>
                <time>2010-11-14T13:14:45.000Z</time>
                <name>Position 2189</name>
            </trkpt>
            <trkpt lon="11.381494961678982" lat="49.54056101851165">
                <ele>552.9</ele>
                <time>2010-11-14T13:14:46.000Z</time>
                <name>Position 2190</name>
            </trkpt>
            <trkpt lon="11.381633011624217" lat="49.54050896689296">
                <ele>552.9</ele>
                <time>2010-11-14T13:14:47.000Z</time>
                <name>Position 2191</name>
            </trkpt>
            <trkpt lon="11.38177097775042" lat="49.54045196995139">
                <ele>552.9</ele>
                <time>2010-11-14T13:14:48.000Z</time>
                <name>Position 2192</name>
            </trkpt>
            <trkpt lon="11.382490983232856" lat="49.540072018280625">
                <ele>552.41</ele>
                <time>2010-11-14T13:14:53.000Z</time>
                <name>Position 2193</name>
            </trkpt>
            <trkpt lon="11.382654011249542" lat="49.540007980540395">
                <ele>551.93</ele>
                <time>2010-11-14T13:14:54.000Z</time>
                <name>Position 2194</name>
            </trkpt>
            <trkpt lon="11.38337703421712" lat="49.53981704078615">
                <ele>551.93</ele>
                <time>2010-11-14T13:14:59.000Z</time>
                <name>Position 2195</name>
            </trkpt>
            <trkpt lon="11.38353000395" lat="49.5398089941591">
                <ele>551.93</ele>
                <time>2010-11-14T13:15:00.000Z</time>
                <name>Position 2196</name>
            </trkpt>
            <trkpt lon="11.384632978588343" lat="49.53995198942721">
                <ele>551.93</ele>
                <time>2010-11-14T13:15:07.000Z</time>
                <name>Position 2197</name>
            </trkpt>
            <trkpt lon="11.385075962170959" lat="49.54004402272403">
                <ele>550.97</ele>
                <time>2010-11-14T13:15:10.000Z</time>
                <name>Position 2198</name>
            </trkpt>
            <trkpt lon="11.385233039036393" lat="49.540093978866935">
                <ele>550.49</ele>
                <time>2010-11-14T13:15:11.000Z</time>
                <name>Position 2199</name>
            </trkpt>
            <trkpt lon="11.386767011135817" lat="49.540630001574755">
                <ele>541.36</ele>
                <time>2010-11-14T13:15:19.000Z</time>
                <name>Position 2200</name>
            </trkpt>
            <trkpt lon="11.386982006952167" lat="49.54068004153669">
                <ele>539.92</ele>
                <time>2010-11-14T13:15:20.000Z</time>
                <name>Position 2201</name>
            </trkpt>
            <trkpt lon="11.388660985976458" lat="49.54114397987723">
                <ele>527.42</ele>
                <time>2010-11-14T13:15:29.000Z</time>
                <name>Position 2202</name>
            </trkpt>
            <trkpt lon="11.389624988660216" lat="49.541273983195424">
                <ele>521.17</ele>
                <time>2010-11-14T13:15:36.000Z</time>
                <name>Position 2203</name>
            </trkpt>
            <trkpt lon="11.389703024178743" lat="49.54126300290227">
                <ele>520.69</ele>
                <time>2010-11-14T13:15:37.000Z</time>
                <name>Position 2204</name>
            </trkpt>
            <trkpt lon="11.389766978099942" lat="49.5412390306592">
                <ele>520.21</ele>
                <time>2010-11-14T13:15:38.000Z</time>
                <name>Position 2205</name>
            </trkpt>
            <trkpt lon="11.389793967828155" lat="49.54119896516204">
                <ele>519.73</ele>
                <time>2010-11-14T13:15:39.000Z</time>
                <name>Position 2206</name>
            </trkpt>
            <trkpt lon="11.38980695977807" lat="49.54113802872598">
                <ele>520.21</ele>
                <time>2010-11-14T13:15:40.000Z</time>
                <name>Position 2207</name>
            </trkpt>
            <trkpt lon="11.389819029718637" lat="49.541058987379074">
                <ele>520.21</ele>
                <time>2010-11-14T13:15:41.000Z</time>
                <name>Position 2208</name>
            </trkpt>
            <trkpt lon="11.389875020831823" lat="49.54089503735304">
                <ele>519.73</ele>
                <time>2010-11-14T13:15:43.000Z</time>
                <name>Position 2209</name>
            </trkpt>
            <trkpt lon="11.389918019995093" lat="49.540824964642525">
                <ele>519.73</ele>
                <time>2010-11-14T13:15:44.000Z</time>
                <name>Position 2210</name>
            </trkpt>
            <trkpt lon="11.38997401110828" lat="49.540758999064565">
                <ele>519.25</ele>
                <time>2010-11-14T13:15:45.000Z</time>
                <name>Position 2211</name>
            </trkpt>
            <trkpt lon="11.390038970857859" lat="49.54069898463786">
                <ele>518.29</ele>
                <time>2010-11-14T13:15:46.000Z</time>
                <name>Position 2212</name>
            </trkpt>
            <trkpt lon="11.390109965577722" lat="49.540652967989445">
                <ele>518.29</ele>
                <time>2010-11-14T13:15:47.000Z</time>
                <name>Position 2213</name>
            </trkpt>
            <trkpt lon="11.390193030238152" lat="49.54062497243285">
                <ele>517.33</ele>
                <time>2010-11-14T13:15:48.000Z</time>
                <name>Position 2214</name>
            </trkpt>
            <trkpt lon="11.390284979715943" lat="49.54062103293836">
                <ele>516.37</ele>
                <time>2010-11-14T13:15:49.000Z</time>
                <name>Position 2215</name>
            </trkpt>
            <trkpt lon="11.390367960557342" lat="49.54063603654504">
                <ele>515.4</ele>
                <time>2010-11-14T13:15:50.000Z</time>
                <name>Position 2216</name>
            </trkpt>
            <trkpt lon="11.390439039096236" lat="49.54066998325288">
                <ele>514.44</ele>
                <time>2010-11-14T13:15:51.000Z</time>
                <name>Position 2217</name>
            </trkpt>
            <trkpt lon="11.390505004674196" lat="49.54072999767959">
                <ele>513.48</ele>
                <time>2010-11-14T13:15:52.000Z</time>
                <name>Position 2218</name>
            </trkpt>
            <trkpt lon="11.39055697247386" lat="49.54080702736974">
                <ele>513.0</ele>
                <time>2010-11-14T13:15:53.000Z</time>
                <name>Position 2219</name>
            </trkpt>
            <trkpt lon="11.390583962202072" lat="49.540908029302955">
                <ele>512.04</ele>
                <time>2010-11-14T13:15:54.000Z</time>
                <name>Position 2220</name>
            </trkpt>
            <trkpt lon="11.390612041577697" lat="49.54101297073066">
                <ele>511.08</ele>
                <time>2010-11-14T13:15:55.000Z</time>
                <name>Position 2221</name>
            </trkpt>
            <trkpt lon="11.390709020197392" lat="49.54119301401079">
                <ele>509.16</ele>
                <time>2010-11-14T13:15:57.000Z</time>
                <name>Position 2222</name>
            </trkpt>
            <trkpt lon="11.390786971896887" lat="49.54126903787255">
                <ele>508.19</ele>
                <time>2010-11-14T13:15:58.000Z</time>
                <name>Position 2223</name>
            </trkpt>
            <trkpt lon="11.390886968001723" lat="49.541339026764035">
                <ele>507.23</ele>
                <time>2010-11-14T13:15:59.000Z</time>
                <name>Position 2224</name>
            </trkpt>
            <trkpt lon="11.391000961884856" lat="49.54139904119074">
                <ele>505.79</ele>
                <time>2010-11-14T13:16:00.000Z</time>
                <name>Position 2225</name>
            </trkpt>
            <trkpt lon="11.39111202210188" lat="49.541448997333646">
                <ele>504.35</ele>
                <time>2010-11-14T13:16:01.000Z</time>
                <name>Position 2226</name>
            </trkpt>
            <trkpt lon="11.391254011541605" lat="49.54148101620376">
                <ele>501.95</ele>
                <time>2010-11-14T13:16:02.000Z</time>
                <name>Position 2227</name>
            </trkpt>
            <trkpt lon="11.391385020688176" lat="49.54150700010359">
                <ele>499.54</ele>
                <time>2010-11-14T13:16:03.000Z</time>
                <name>Position 2228</name>
            </trkpt>
            <trkpt lon="11.391512006521225" lat="49.54151999205351">
                <ele>497.62</ele>
                <time>2010-11-14T13:16:04.000Z</time>
                <name>Position 2229</name>
            </trkpt>
            <trkpt lon="11.391639998182654" lat="49.54152401536703">
                <ele>495.7</ele>
                <time>2010-11-14T13:16:05.000Z</time>
                <name>Position 2230</name>
            </trkpt>
            <trkpt lon="11.391770001500845" lat="49.541531978175044">
                <ele>493.77</ele>
                <time>2010-11-14T13:16:06.000Z</time>
                <name>Position 2231</name>
            </trkpt>
            <trkpt lon="11.392026990652084" lat="49.54155704006553">
                <ele>490.89</ele>
                <time>2010-11-14T13:16:08.000Z</time>
                <name>Position 2232</name>
            </trkpt>
            <trkpt lon="11.392154982313514" lat="49.541575983166695">
                <ele>489.45</ele>
                <time>2010-11-14T13:16:09.000Z</time>
                <name>Position 2233</name>
            </trkpt>
            <trkpt lon="11.392282973974943" lat="49.541601967066526">
                <ele>488.01</ele>
                <time>2010-11-14T13:16:10.000Z</time>
                <name>Position 2234</name>
            </trkpt>
            <trkpt lon="11.392793012782931" lat="49.54173901118338">
                <ele>485.12</ele>
                <time>2010-11-14T13:16:14.000Z</time>
                <name>Position 2235</name>
            </trkpt>
            <trkpt lon="11.393470019102097" lat="49.541941015049815">
                <ele>480.8</ele>
                <time>2010-11-14T13:16:19.000Z</time>
                <name>Position 2236</name>
            </trkpt>
            <trkpt lon="11.393893975764513" lat="49.542047968134284">
                <ele>478.39</ele>
                <time>2010-11-14T13:16:22.000Z</time>
                <name>Position 2237</name>
            </trkpt>
            <trkpt lon="11.394047029316425" lat="49.542068000882864">
                <ele>477.43</ele>
                <time>2010-11-14T13:16:23.000Z</time>
                <name>Position 2238</name>
            </trkpt>
            <trkpt lon="11.395344967022538" lat="49.54238399863243">
                <ele>463.97</ele>
                <time>2010-11-14T13:16:33.000Z</time>
                <name>Position 2239</name>
            </trkpt>
            <trkpt lon="11.395729025825858" lat="49.54257502220571">
                <ele>461.09</ele>
                <time>2010-11-14T13:16:37.000Z</time>
                <name>Position 2240</name>
            </trkpt>
            <trkpt lon="11.395791973918676" lat="49.54263403080404">
                <ele>460.61</ele>
                <time>2010-11-14T13:16:38.000Z</time>
                <name>Position 2241</name>
            </trkpt>
            <trkpt lon="11.395857017487288" lat="49.542696978896856">
                <ele>460.61</ele>
                <time>2010-11-14T13:16:39.000Z</time>
                <name>Position 2242</name>
            </trkpt>
            <trkpt lon="11.396131021901965" lat="49.54294399358332">
                <ele>458.69</ele>
                <time>2010-11-14T13:16:43.000Z</time>
                <name>Position 2243</name>
            </trkpt>
            <trkpt lon="11.39620796777308" lat="49.54298699274659">
                <ele>458.21</ele>
                <time>2010-11-14T13:16:44.000Z</time>
                <name>Position 2244</name>
            </trkpt>
            <trkpt lon="11.396306036040187" lat="49.54301901161671">
                <ele>457.24</ele>
                <time>2010-11-14T13:16:45.000Z</time>
                <name>Position 2245</name>
            </trkpt>
            <trkpt lon="11.396422041580081" lat="49.5430419780314">
                <ele>456.76</ele>
                <time>2010-11-14T13:16:46.000Z</time>
                <name>Position 2246</name>
            </trkpt>
            <trkpt lon="11.396534023806453" lat="49.543059999123216">
                <ele>455.8</ele>
                <time>2010-11-14T13:16:47.000Z</time>
                <name>Position 2247</name>
            </trkpt>
            <trkpt lon="11.396855972707272" lat="49.54309503547847">
                <ele>453.4</ele>
                <time>2010-11-14T13:16:50.000Z</time>
                <name>Position 2248</name>
            </trkpt>
            <trkpt lon="11.396954962983727" lat="49.543078020215034">
                <ele>452.92</ele>
                <time>2010-11-14T13:16:51.000Z</time>
                <name>Position 2249</name>
            </trkpt>
            <trkpt lon="11.397461984306574" lat="49.54300099052489">
                <ele>449.55</ele>
                <time>2010-11-14T13:16:55.000Z</time>
                <name>Position 2250</name>
            </trkpt>
            <trkpt lon="11.39794696122408" lat="49.542952040210366">
                <ele>443.79</ele>
                <time>2010-11-14T13:17:00.000Z</time>
                <name>Position 2251</name>
            </trkpt>
            <trkpt lon="11.398018961772323" lat="49.54296796582639">
                <ele>442.82</ele>
                <time>2010-11-14T13:17:01.000Z</time>
                <name>Position 2252</name>
            </trkpt>
            <trkpt lon="11.398089034482837" lat="49.54299998469651">
                <ele>442.34</ele>
                <time>2010-11-14T13:17:02.000Z</time>
                <name>Position 2253</name>
            </trkpt>
            <trkpt lon="11.39837502501905" lat="49.54313803464174">
                <ele>440.42</ele>
                <time>2010-11-14T13:17:05.000Z</time>
                <name>Position 2254</name>
            </trkpt>
            <trkpt lon="11.398694962263107" lat="49.543272983282804">
                <ele>436.58</ele>
                <time>2010-11-14T13:17:08.000Z</time>
                <name>Position 2255</name>
            </trkpt>
            <trkpt lon="11.398765034973621" lat="49.54332897439599">
                <ele>435.13</ele>
                <time>2010-11-14T13:17:09.000Z</time>
                <name>Position 2256</name>
            </trkpt>
            <trkpt lon="11.398800993338227" lat="49.54339502379298">
                <ele>433.69</ele>
                <time>2010-11-14T13:17:10.000Z</time>
                <name>Position 2257</name>
            </trkpt>
            <trkpt lon="11.398809039965272" lat="49.543466018512845">
                <ele>432.25</ele>
                <time>2010-11-14T13:17:11.000Z</time>
                <name>Position 2258</name>
            </trkpt>
            <trkpt lon="11.398794958367944" lat="49.54354003071785">
                <ele>430.81</ele>
                <time>2010-11-14T13:17:12.000Z</time>
                <name>Position 2259</name>
            </trkpt>
            <trkpt lon="11.398754976689816" lat="49.543618988245726">
                <ele>429.85</ele>
                <time>2010-11-14T13:17:13.000Z</time>
                <name>Position 2260</name>
            </trkpt>
            <trkpt lon="11.398705020546913" lat="49.543700041249394">
                <ele>428.89</ele>
                <time>2010-11-14T13:17:14.000Z</time>
                <name>Position 2261</name>
            </trkpt>
            <trkpt lon="11.398584991693497" lat="49.543940015137196">
                <ele>426.0</ele>
                <time>2010-11-14T13:17:17.000Z</time>
                <name>Position 2262</name>
            </trkpt>
            <trkpt lon="11.398568982258439" lat="49.54401997849345">
                <ele>424.56</ele>
                <time>2010-11-14T13:17:18.000Z</time>
                <name>Position 2263</name>
            </trkpt>
            <trkpt lon="11.398564036935568" lat="49.54410103149712">
                <ele>423.6</ele>
                <time>2010-11-14T13:17:19.000Z</time>
                <name>Position 2264</name>
            </trkpt>
            <trkpt lon="11.398579962551594" lat="49.54418200068176">
                <ele>422.16</ele>
                <time>2010-11-14T13:17:20.000Z</time>
                <name>Position 2265</name>
            </trkpt>
            <trkpt lon="11.398597983643413" lat="49.544260958209634">
                <ele>421.19</ele>
                <time>2010-11-14T13:17:21.000Z</time>
                <name>Position 2266</name>
            </trkpt>
            <trkpt lon="11.398605024442077" lat="49.54440202564001">
                <ele>418.79</ele>
                <time>2010-11-14T13:17:23.000Z</time>
                <name>Position 2267</name>
            </trkpt>
            <trkpt lon="11.39859396032989" lat="49.544456005096436">
                <ele>418.31</ele>
                <time>2010-11-14T13:17:24.000Z</time>
                <name>Position 2268</name>
            </trkpt>
            <trkpt lon="11.398574011400342" lat="49.54450403340161">
                <ele>417.83</ele>
                <time>2010-11-14T13:17:25.000Z</time>
                <name>Position 2269</name>
            </trkpt>
            <trkpt lon="11.398546015843749" lat="49.54454896040261">
                <ele>416.87</ele>
                <time>2010-11-14T13:17:26.000Z</time>
                <name>Position 2270</name>
            </trkpt>
            <trkpt lon="11.39850502833724" lat="49.54459799453616">
                <ele>416.39</ele>
                <time>2010-11-14T13:17:27.000Z</time>
                <name>Position 2271</name>
            </trkpt>
            <trkpt lon="11.398253990337253" lat="49.54489496536553">
                <ele>413.98</ele>
                <time>2010-11-14T13:17:32.000Z</time>
                <name>Position 2272</name>
            </trkpt>
            <trkpt lon="11.398189030587673" lat="49.54494098201394">
                <ele>413.02</ele>
                <time>2010-11-14T13:17:33.000Z</time>
                <name>Position 2273</name>
            </trkpt>
            <trkpt lon="11.39764596708119" lat="49.54521297477186">
                <ele>412.06</ele>
                <time>2010-11-14T13:17:42.000Z</time>
                <name>Position 2274</name>
            </trkpt>
            <trkpt lon="11.396954040974379" lat="49.545465018600225">
                <ele>413.98</ele>
                <time>2010-11-14T13:17:50.000Z</time>
                <name>Position 2275</name>
            </trkpt>
            <trkpt lon="11.396405026316643" lat="49.54564497806132">
                <ele>415.91</ele>
                <time>2010-11-14T13:17:55.000Z</time>
                <name>Position 2276</name>
            </trkpt>
            <trkpt lon="11.3963139988482" lat="49.54568697139621">
                <ele>416.39</ele>
                <time>2010-11-14T13:17:56.000Z</time>
                <name>Position 2277</name>
            </trkpt>
            <trkpt lon="11.396239986643195" lat="49.5457390230149">
                <ele>416.87</ele>
                <time>2010-11-14T13:17:57.000Z</time>
                <name>Position 2278</name>
            </trkpt>
            <trkpt lon="11.396065978333354" lat="49.54590800218284">
                <ele>418.31</ele>
                <time>2010-11-14T13:18:04.000Z</time>
                <name>Position 2279</name>
            </trkpt>
            <trkpt lon="11.39603697694838" lat="49.54592602327466">
                <ele>418.31</ele>
                <time>2010-11-14T13:18:12.000Z</time>
                <name>Position 2280</name>
            </trkpt>
            <trkpt lon="11.396000012755394" lat="49.54591998830438">
                <ele>418.31</ele>
                <time>2010-11-14T13:18:13.000Z</time>
                <name>Position 2281</name>
            </trkpt>
            <trkpt lon="11.395979980006814" lat="49.54590196721256">
                <ele>417.83</ele>
                <time>2010-11-14T13:18:14.000Z</time>
                <name>Position 2282</name>
            </trkpt>
            <trkpt lon="11.395987020805478" lat="49.54588302411139">
                <ele>416.87</ele>
                <time>2010-11-14T13:18:15.000Z</time>
                <name>Position 2283</name>
            </trkpt>
            <trkpt lon="11.39601199887693" lat="49.545873971655965">
                <ele>416.39</ele>
                <time>2010-11-14T13:18:16.000Z</time>
                <name>Position 2284</name>
            </trkpt>
            <trkpt lon="11.39603697694838" lat="49.545870032161474">
                <ele>415.91</ele>
                <time>2010-11-14T13:18:17.000Z</time>
                <name>Position 2285</name>
            </trkpt>
            <trkpt lon="11.396125992760062" lat="49.54583398997784">
                <ele>415.43</ele>
                <time>2010-11-14T13:18:19.000Z</time>
                <name>Position 2286</name>
            </trkpt>
            <trkpt lon="11.39618500135839" lat="49.54579199664295">
                <ele>414.95</ele>
                <time>2010-11-14T13:18:20.000Z</time>
                <name>Position 2287</name>
            </trkpt>
            <trkpt lon="11.396408965811133" lat="49.54562997445464">
                <ele>413.02</ele>
                <time>2010-11-14T13:18:24.000Z</time>
                <name>Position 2288</name>
            </trkpt>
            <trkpt lon="11.397417979314923" lat="49.545270977541804">
                <ele>408.22</ele>
                <time>2010-11-14T13:18:36.000Z</time>
                <name>Position 2289</name>
            </trkpt>
            <trkpt lon="11.397675974294543" lat="49.545181039720774">
                <ele>407.74</ele>
                <time>2010-11-14T13:18:39.000Z</time>
                <name>Position 2290</name>
            </trkpt>
            <trkpt lon="11.39794696122408" lat="49.54506302252412">
                <ele>406.77</ele>
                <time>2010-11-14T13:18:43.000Z</time>
                <name>Position 2291</name>
            </trkpt>
            <trkpt lon="11.398003958165646" lat="49.54502899199724">
                <ele>406.29</ele>
                <time>2010-11-14T13:18:44.000Z</time>
                <name>Position 2292</name>
            </trkpt>
            <trkpt lon="11.39822800643742" lat="49.54488901421428">
                <ele>406.77</ele>
                <time>2010-11-14T13:18:48.000Z</time>
                <name>Position 2293</name>
            </trkpt>
            <trkpt lon="11.398374019190669" lat="49.544732021167874">
                <ele>408.7</ele>
                <time>2010-11-14T13:18:51.000Z</time>
                <name>Position 2294</name>
            </trkpt>
            <trkpt lon="11.398560013622046" lat="49.54446103423834">
                <ele>410.62</ele>
                <time>2010-11-14T13:18:55.000Z</time>
                <name>Position 2295</name>
            </trkpt>
            <trkpt lon="11.398679036647081" lat="49.54440697096288">
                <ele>411.58</ele>
                <time>2010-11-14T13:18:56.000Z</time>
                <name>Position 2296</name>
            </trkpt>
            <trkpt lon="11.399169964715838" lat="49.54425198957324">
                <ele>413.02</ele>
                <time>2010-11-14T13:18:59.000Z</time>
                <name>Position 2297</name>
            </trkpt>
            <trkpt lon="11.399335004389286" lat="49.54422399401665">
                <ele>412.54</ele>
                <time>2010-11-14T13:19:00.000Z</time>
                <name>Position 2298</name>
            </trkpt>
            <trkpt lon="11.399491997435689" lat="49.54420002177358">
                <ele>412.54</ele>
                <time>2010-11-14T13:19:01.000Z</time>
                <name>Position 2299</name>
            </trkpt>
            <trkpt lon="11.399655025452375" lat="49.54418996348977">
                <ele>412.06</ele>
                <time>2010-11-14T13:19:02.000Z</time>
                <name>Position 2300</name>
            </trkpt>
            <trkpt lon="11.39981796965003" lat="49.54418200068176">
                <ele>411.58</ele>
                <time>2010-11-14T13:19:03.000Z</time>
                <name>Position 2301</name>
            </trkpt>
            <trkpt lon="11.40063202008605" lat="49.54414595849812">
                <ele>406.77</ele>
                <time>2010-11-14T13:19:08.000Z</time>
                <name>Position 2302</name>
            </trkpt>
            <trkpt lon="11.400781972333789" lat="49.54411997459829">
                <ele>405.81</ele>
                <time>2010-11-14T13:19:09.000Z</time>
                <name>Position 2303</name>
            </trkpt>
            <trkpt lon="11.400941982865334" lat="49.54407697543502">
                <ele>405.33</ele>
                <time>2010-11-14T13:19:10.000Z</time>
                <name>Position 2304</name>
            </trkpt>
            <trkpt lon="11.401125965639949" lat="49.54401201568544">
                <ele>404.37</ele>
                <time>2010-11-14T13:19:11.000Z</time>
                <name>Position 2305</name>
            </trkpt>
            <trkpt lon="11.401330986991525" lat="49.543919982388616">
                <ele>403.89</ele>
                <time>2010-11-14T13:19:12.000Z</time>
                <name>Position 2306</name>
            </trkpt>
            <trkpt lon="11.401541037485003" lat="49.543808000162244">
                <ele>402.93</ele>
                <time>2010-11-14T13:19:13.000Z</time>
                <name>Position 2307</name>
            </trkpt>
            <trkpt lon="11.402466986328363" lat="49.54338597133756">
                <ele>398.12</ele>
                <time>2010-11-14T13:19:17.000Z</time>
                <name>Position 2308</name>
            </trkpt>
            <trkpt lon="11.403271984308958" lat="49.54313996247947">
                <ele>393.32</ele>
                <time>2010-11-14T13:19:20.000Z</time>
                <name>Position 2309</name>
            </trkpt>
            <trkpt lon="11.403506007045507" lat="49.543037032708526">
                <ele>391.87</ele>
                <time>2010-11-14T13:19:21.000Z</time>
                <name>Position 2310</name>
            </trkpt>
            <trkpt lon="11.403713962063193" lat="49.542909963056445">
                <ele>391.39</ele>
                <time>2010-11-14T13:19:22.000Z</time>
                <name>Position 2311</name>
            </trkpt>
            <trkpt lon="11.403886964544654" lat="49.54276403412223">
                <ele>390.43</ele>
                <time>2010-11-14T13:19:23.000Z</time>
                <name>Position 2312</name>
            </trkpt>
            <trkpt lon="11.40402995981276" lat="49.5426030177623">
                <ele>389.95</ele>
                <time>2010-11-14T13:19:24.000Z</time>
                <name>Position 2313</name>
            </trkpt>
            <trkpt lon="11.404149988666177" lat="49.542435966432095">
                <ele>389.47</ele>
                <time>2010-11-14T13:19:25.000Z</time>
                <name>Position 2314</name>
            </trkpt>
            <trkpt lon="11.405558986589313" lat="49.54005500301719">
                <ele>380.34</ele>
                <time>2010-11-14T13:19:39.000Z</time>
                <name>Position 2315</name>
            </trkpt>
            <trkpt lon="11.40568102709949" lat="49.53991401940584">
                <ele>379.86</ele>
                <time>2010-11-14T13:19:40.000Z</time>
                <name>Position 2316</name>
            </trkpt>
            <trkpt lon="11.405829973518848" lat="49.53978301025927">
                <ele>379.38</ele>
                <time>2010-11-14T13:19:41.000Z</time>
                <name>Position 2317</name>
            </trkpt>
            <trkpt lon="11.406010016798973" lat="49.53965996392071">
                <ele>379.38</ele>
                <time>2010-11-14T13:19:42.000Z</time>
                <name>Position 2318</name>
            </trkpt>
            <trkpt lon="11.406226018443704" lat="49.53955099917948">
                <ele>379.86</ele>
                <time>2010-11-14T13:19:43.000Z</time>
                <name>Position 2319</name>
            </trkpt>
            <trkpt lon="11.406466998159885" lat="49.53946298919618">
                <ele>379.86</ele>
                <time>2010-11-14T13:19:44.000Z</time>
                <name>Position 2320</name>
            </trkpt>
            <trkpt lon="11.40673203393817" lat="49.539387971162796">
                <ele>380.34</ele>
                <time>2010-11-14T13:19:45.000Z</time>
                <name>Position 2321</name>
            </trkpt>
            <trkpt lon="11.407007966190577" lat="49.53931303694844">
                <ele>380.82</ele>
                <time>2010-11-14T13:19:46.000Z</time>
                <name>Position 2322</name>
            </trkpt>
            <trkpt lon="11.408845027908683" lat="49.538523964583874">
                <ele>380.34</ele>
                <time>2010-11-14T13:19:53.000Z</time>
                <name>Position 2323</name>
            </trkpt>
            <trkpt lon="11.409823028370738" lat="49.53754596412182">
                <ele>379.86</ele>
                <time>2010-11-14T13:19:59.000Z</time>
                <name>Position 2324</name>
            </trkpt>
            <trkpt lon="11.410012962296605" lat="49.53740296885371">
                <ele>379.86</ele>
                <time>2010-11-14T13:20:00.000Z</time>
                <name>Position 2325</name>
            </trkpt>
            <trkpt lon="11.41023701056838" lat="49.53726701438427">
                <ele>379.38</ele>
                <time>2010-11-14T13:20:01.000Z</time>
                <name>Position 2326</name>
            </trkpt>
            <trkpt lon="11.410488970577717" lat="49.53714597970247">
                <ele>379.38</ele>
                <time>2010-11-14T13:20:02.000Z</time>
                <name>Position 2327</name>
            </trkpt>
            <trkpt lon="11.410762974992394" lat="49.53703299164772">
                <ele>379.38</ele>
                <time>2010-11-14T13:20:03.000Z</time>
                <name>Position 2328</name>
            </trkpt>
            <trkpt lon="11.411042008548975" lat="49.53693098388612">
                <ele>378.9</ele>
                <time>2010-11-14T13:20:04.000Z</time>
                <name>Position 2329</name>
            </trkpt>
            <trkpt lon="11.411581970751286" lat="49.53676703386009">
                <ele>378.9</ele>
                <time>2010-11-14T13:20:06.000Z</time>
                <name>Position 2330</name>
            </trkpt>
            <trkpt lon="11.411863015964627" lat="49.53671397641301">
                <ele>377.94</ele>
                <time>2010-11-14T13:20:07.000Z</time>
                <name>Position 2331</name>
            </trkpt>
            <trkpt lon="11.412160992622375" lat="49.536678018048406">
                <ele>376.97</ele>
                <time>2010-11-14T13:20:08.000Z</time>
                <name>Position 2332</name>
            </trkpt>
            <trkpt lon="11.412460980936885" lat="49.53666603192687">
                <ele>376.01</ele>
                <time>2010-11-14T13:20:09.000Z</time>
                <name>Position 2333</name>
            </trkpt>
            <trkpt lon="11.412764992564917" lat="49.53666502609849">
                <ele>375.05</ele>
                <time>2010-11-14T13:20:10.000Z</time>
                <name>Position 2334</name>
            </trkpt>
            <trkpt lon="11.413348037749529" lat="49.536632001399994">
                <ele>373.13</ele>
                <time>2010-11-14T13:20:12.000Z</time>
                <name>Position 2335</name>
            </trkpt>
            <trkpt lon="11.413635034114122" lat="49.536569975316525">
                <ele>372.17</ele>
                <time>2010-11-14T13:20:13.000Z</time>
                <name>Position 2336</name>
            </trkpt>
            <trkpt lon="11.413904009386897" lat="49.53647903166711">
                <ele>371.69</ele>
                <time>2010-11-14T13:20:14.000Z</time>
                <name>Position 2337</name>
            </trkpt>
            <trkpt lon="11.414158986881375" lat="49.53636503778398">
                <ele>371.21</ele>
                <time>2010-11-14T13:20:15.000Z</time>
                <name>Position 2338</name>
            </trkpt>
            <trkpt lon="11.41440499573946" lat="49.53624098561704">
                <ele>371.21</ele>
                <time>2010-11-14T13:20:16.000Z</time>
                <name>Position 2339</name>
            </trkpt>
            <trkpt lon="11.415785998106003" lat="49.53541503287852">
                <ele>367.36</ele>
                <time>2010-11-14T13:20:22.000Z</time>
                <name>Position 2340</name>
            </trkpt>
            <trkpt lon="11.415980039164424" lat="49.535257034003735">
                <ele>366.88</ele>
                <time>2010-11-14T13:20:23.000Z</time>
                <name>Position 2341</name>
            </trkpt>
            <trkpt lon="11.416199980303645" lat="49.53511403873563">
                <ele>366.88</ele>
                <time>2010-11-14T13:20:24.000Z</time>
                <name>Position 2342</name>
            </trkpt>
            <trkpt lon="11.417903015390038" lat="49.53423502855003">
                <ele>365.44</ele>
                <time>2010-11-14T13:20:31.000Z</time>
                <name>Position 2343</name>
            </trkpt>
            <trkpt lon="11.41977502964437" lat="49.53343899920583">
                <ele>361.59</ele>
                <time>2010-11-14T13:20:40.000Z</time>
                <name>Position 2344</name>
            </trkpt>
            <trkpt lon="11.421969998627901" lat="49.532657973468304">
                <ele>359.67</ele>
                <time>2010-11-14T13:20:52.000Z</time>
                <name>Position 2345</name>
            </trkpt>
            <trkpt lon="11.422276021912694" lat="49.532525036484">
                <ele>359.19</ele>
                <time>2010-11-14T13:20:54.000Z</time>
                <name>Position 2346</name>
            </trkpt>
            <trkpt lon="11.42241801135242" lat="49.5324370265007">
                <ele>359.67</ele>
                <time>2010-11-14T13:20:55.000Z</time>
                <name>Position 2347</name>
            </trkpt>
            <trkpt lon="11.422823024913669" lat="49.532166961580515">
                <ele>359.19</ele>
                <time>2010-11-14T13:20:58.000Z</time>
                <name>Position 2348</name>
            </trkpt>
            <trkpt lon="11.422986974939704" lat="49.532100996002555">
                <ele>359.19</ele>
                <time>2010-11-14T13:20:59.000Z</time>
                <name>Position 2349</name>
            </trkpt>
            <trkpt lon="11.423159977421165" lat="49.53204198740423">
                <ele>359.19</ele>
                <time>2010-11-14T13:21:00.000Z</time>
                <name>Position 2350</name>
            </trkpt>
            <trkpt lon="11.423676973208785" lat="49.53187099657953">
                <ele>358.71</ele>
                <time>2010-11-14T13:21:03.000Z</time>
                <name>Position 2351</name>
            </trkpt>
            <trkpt lon="11.423822985962033" lat="49.53179396688938">
                <ele>358.23</ele>
                <time>2010-11-14T13:21:04.000Z</time>
                <name>Position 2352</name>
            </trkpt>
            <trkpt lon="11.423962963744998" lat="49.53170402906835">
                <ele>357.75</ele>
                <time>2010-11-14T13:21:05.000Z</time>
                <name>Position 2353</name>
            </trkpt>
            <trkpt lon="11.425250004976988" lat="49.53081697225571">
                <ele>357.27</ele>
                <time>2010-11-14T13:21:12.000Z</time>
                <name>Position 2354</name>
            </trkpt>
            <trkpt lon="11.425999011844397" lat="49.53036602586508">
                <ele>356.79</ele>
                <time>2010-11-14T13:21:15.000Z</time>
                <name>Position 2355</name>
            </trkpt>
            <trkpt lon="11.426273016259074" lat="49.530250020325184">
                <ele>356.79</ele>
                <time>2010-11-14T13:21:16.000Z</time>
                <name>Position 2356</name>
            </trkpt>
            <trkpt lon="11.42656403593719" lat="49.53015496954322">
                <ele>356.79</ele>
                <time>2010-11-14T13:21:17.000Z</time>
                <name>Position 2357</name>
            </trkpt>
            <trkpt lon="11.428356003016233" lat="49.529629005119205">
                <ele>356.79</ele>
                <time>2010-11-14T13:21:24.000Z</time>
                <name>Position 2358</name>
            </trkpt>
            <trkpt lon="11.429183967411518" lat="49.52939095906913">
                <ele>358.23</ele>
                <time>2010-11-14T13:21:29.000Z</time>
                <name>Position 2359</name>
            </trkpt>
            <trkpt lon="11.42924901098013" lat="49.52934100292623">
                <ele>358.71</ele>
                <time>2010-11-14T13:21:30.000Z</time>
                <name>Position 2360</name>
            </trkpt>
            <trkpt lon="11.429252028465271" lat="49.529290962964296">
                <ele>359.19</ele>
                <time>2010-11-14T13:21:31.000Z</time>
                <name>Position 2361</name>
            </trkpt>
            <trkpt lon="11.429236019030213" lat="49.529242012649775">
                <ele>359.67</ele>
                <time>2010-11-14T13:21:32.000Z</time>
                <name>Position 2362</name>
            </trkpt>
            <trkpt lon="11.429190002381802" lat="49.52918602153659">
                <ele>358.71</ele>
                <time>2010-11-14T13:21:33.000Z</time>
                <name>Position 2363</name>
            </trkpt>
            <trkpt lon="11.429109033197165" lat="49.529113015159965">
                <ele>358.71</ele>
                <time>2010-11-14T13:21:34.000Z</time>
                <name>Position 2364</name>
            </trkpt>
            <trkpt lon="11.429006019607186" lat="49.52901402488351">
                <ele>358.23</ele>
                <time>2010-11-14T13:21:35.000Z</time>
                <name>Position 2365</name>
            </trkpt>
            <trkpt lon="11.427975967526436" lat="49.52803200110793">
                <ele>355.34</ele>
                <time>2010-11-14T13:21:42.000Z</time>
                <name>Position 2366</name>
            </trkpt>
            <trkpt lon="11.42720801755786" lat="49.52675602398813">
                <ele>353.42</ele>
                <time>2010-11-14T13:21:49.000Z</time>
                <name>Position 2367</name>
            </trkpt>
            <trkpt lon="11.426489017903805" lat="49.525161031633615">
                <ele>353.9</ele>
                <time>2010-11-14T13:21:58.000Z</time>
                <name>Position 2368</name>
            </trkpt>
            <trkpt lon="11.426019966602325" lat="49.524237010627985">
                <ele>351.02</ele>
                <time>2010-11-14T13:22:06.000Z</time>
                <name>Position 2369</name>
            </trkpt>
            <trkpt lon="11.425928017124534" lat="49.52413902617991">
                <ele>351.02</ele>
                <time>2010-11-14T13:22:07.000Z</time>
                <name>Position 2370</name>
            </trkpt>
            <trkpt lon="11.425632974132895" lat="49.52386502176523">
                <ele>351.98</ele>
                <time>2010-11-14T13:22:10.000Z</time>
                <name>Position 2371</name>
            </trkpt>
            <trkpt lon="11.425564996898174" lat="49.52376703731716">
                <ele>352.46</ele>
                <time>2010-11-14T13:22:11.000Z</time>
                <name>Position 2372</name>
            </trkpt>
            <trkpt lon="11.42551302909851" lat="49.52366201207042">
                <ele>352.94</ele>
                <time>2010-11-14T13:22:12.000Z</time>
                <name>Position 2373</name>
            </trkpt>
            <trkpt lon="11.425476986914873" lat="49.523551035672426">
                <ele>353.42</ele>
                <time>2010-11-14T13:22:13.000Z</time>
                <name>Position 2374</name>
            </trkpt>
            <trkpt lon="11.425451003015041" lat="49.52343704178929">
                <ele>353.42</ele>
                <time>2010-11-14T13:22:14.000Z</time>
                <name>Position 2375</name>
            </trkpt>
            <trkpt lon="11.425435999408364" lat="49.52332598157227">
                <ele>353.9</ele>
                <time>2010-11-14T13:22:15.000Z</time>
                <name>Position 2376</name>
            </trkpt>
            <trkpt lon="11.425360981374979" lat="49.522928008809686">
                <ele>354.86</ele>
                <time>2010-11-14T13:22:19.000Z</time>
                <name>Position 2377</name>
            </trkpt>
            <trkpt lon="11.42530096694827" lat="49.52282700687647">
                <ele>354.86</ele>
                <time>2010-11-14T13:22:20.000Z</time>
                <name>Position 2378</name>
            </trkpt>
            <trkpt lon="11.42521396279335" lat="49.52272399328649">
                <ele>353.9</ele>
                <time>2010-11-14T13:22:21.000Z</time>
                <name>Position 2379</name>
            </trkpt>
            <trkpt lon="11.42508496530354" lat="49.52261603437364">
                <ele>353.42</ele>
                <time>2010-11-14T13:22:22.000Z</time>
                <name>Position 2380</name>
            </trkpt>
            <trkpt lon="11.424942975863814" lat="49.522496005520225">
                <ele>352.46</ele>
                <time>2010-11-14T13:22:23.000Z</time>
                <name>Position 2381</name>
            </trkpt>
            <trkpt lon="11.423528026789427" lat="49.521249029785395">
                <ele>345.73</ele>
                <time>2010-11-14T13:22:31.000Z</time>
                <name>Position 2382</name>
            </trkpt>
            <trkpt lon="11.421755002811551" lat="49.519573990255594">
                <ele>342.37</ele>
                <time>2010-11-14T13:22:40.000Z</time>
                <name>Position 2383</name>
            </trkpt>
            <trkpt lon="11.421546963974833" lat="49.519426971673965">
                <ele>342.37</ele>
                <time>2010-11-14T13:22:41.000Z</time>
                <name>Position 2384</name>
            </trkpt>
            <trkpt lon="11.420213989913464" lat="49.51844000257552">
                <ele>340.92</ele>
                <time>2010-11-14T13:22:48.000Z</time>
                <name>Position 2385</name>
            </trkpt>
            <trkpt lon="11.42011801712215" lat="49.518289966508746">
                <ele>340.92</ele>
                <time>2010-11-14T13:22:49.000Z</time>
                <name>Position 2386</name>
            </trkpt>
            <trkpt lon="11.420058002695441" lat="49.518135990947485">
                <ele>340.44</ele>
                <time>2010-11-14T13:22:50.000Z</time>
                <name>Position 2387</name>
            </trkpt>
            <trkpt lon="11.420022966340184" lat="49.51797497458756">
                <ele>340.44</ele>
                <time>2010-11-14T13:22:51.000Z</time>
                <name>Position 2388</name>
            </trkpt>
            <trkpt lon="11.420008968561888" lat="49.517813958227634">
                <ele>340.44</ele>
                <time>2010-11-14T13:22:52.000Z</time>
                <name>Position 2389</name>
            </trkpt>
            <trkpt lon="11.419808976352215" lat="49.51668499968946">
                <ele>338.52</ele>
                <time>2010-11-14T13:22:59.000Z</time>
                <name>Position 2390</name>
            </trkpt>
            <trkpt lon="11.41968802548945" lat="49.516546027734876">
                <ele>338.52</ele>
                <time>2010-11-14T13:23:00.000Z</time>
                <name>Position 2391</name>
            </trkpt>
            <trkpt lon="11.419510999694467" lat="49.51642599888146">
                <ele>338.52</ele>
                <time>2010-11-14T13:23:01.000Z</time>
                <name>Position 2392</name>
            </trkpt>
            <trkpt lon="11.418948993086815" lat="49.51607798226178">
                <ele>338.52</ele>
                <time>2010-11-14T13:23:04.000Z</time>
                <name>Position 2393</name>
            </trkpt>
            <trkpt lon="11.418799962848425" lat="49.51595300808549">
                <ele>338.04</ele>
                <time>2010-11-14T13:23:05.000Z</time>
                <name>Position 2394</name>
            </trkpt>
            <trkpt lon="11.417895974591374" lat="49.51514197513461">
                <ele>338.04</ele>
                <time>2010-11-14T13:23:13.000Z</time>
                <name>Position 2395</name>
            </trkpt>
            <trkpt lon="11.4166599791497" lat="49.5140649843961">
                <ele>335.64</ele>
                <time>2010-11-14T13:23:25.000Z</time>
                <name>Position 2396</name>
            </trkpt>
            <trkpt lon="11.41505098901689" lat="49.51318496838212">
                <ele>334.68</ele>
                <time>2010-11-14T13:23:35.000Z</time>
                <name>Position 2397</name>
            </trkpt>
            <trkpt lon="11.414397032931447" lat="49.51274902559817">
                <ele>334.2</ele>
                <time>2010-11-14T13:23:40.000Z</time>
                <name>Position 2398</name>
            </trkpt>
            <trkpt lon="11.414292007684708" lat="49.51265104115009">
                <ele>334.2</ele>
                <time>2010-11-14T13:23:41.000Z</time>
                <name>Position 2399</name>
            </trkpt>
            <trkpt lon="11.414208021014929" lat="49.51254199258983">
                <ele>334.2</ele>
                <time>2010-11-14T13:23:42.000Z</time>
                <name>Position 2400</name>
            </trkpt>
            <trkpt lon="11.414152029901743" lat="49.51241500675678">
                <ele>334.2</ele>
                <time>2010-11-14T13:23:43.000Z</time>
                <name>Position 2401</name>
            </trkpt>
            <trkpt lon="11.414109030738473" lat="49.51227997429669">
                <ele>334.2</ele>
                <time>2010-11-14T13:23:44.000Z</time>
                <name>Position 2402</name>
            </trkpt>
            <trkpt lon="11.414004005491734" lat="49.512009993195534">
                <ele>334.2</ele>
                <time>2010-11-14T13:23:46.000Z</time>
                <name>Position 2403</name>
            </trkpt>
            <trkpt lon="11.413934016600251" lat="49.511884013190866">
                <ele>334.2</ele>
                <time>2010-11-14T13:23:47.000Z</time>
                <name>Position 2404</name>
            </trkpt>
            <trkpt lon="11.413832008838654" lat="49.51177001930773">
                <ele>334.2</ele>
                <time>2010-11-14T13:23:48.000Z</time>
                <name>Position 2405</name>
            </trkpt>
            <trkpt lon="11.41369597055018" lat="49.511667005717754">
                <ele>334.2</ele>
                <time>2010-11-14T13:23:49.000Z</time>
                <name>Position 2406</name>
            </trkpt>
            <trkpt lon="11.413564961403608" lat="49.51156600378454">
                <ele>333.71</ele>
                <time>2010-11-14T13:23:50.000Z</time>
                <name>Position 2407</name>
            </trkpt>
            <trkpt lon="11.41345800831914" lat="49.5114609785378">
                <ele>333.71</ele>
                <time>2010-11-14T13:23:51.000Z</time>
                <name>Position 2408</name>
            </trkpt>
            <trkpt lon="11.413381984457374" lat="49.51135603711009">
                <ele>333.23</ele>
                <time>2010-11-14T13:23:52.000Z</time>
                <name>Position 2409</name>
            </trkpt>
            <trkpt lon="11.41332901082933" lat="49.51124598272145">
                <ele>332.75</ele>
                <time>2010-11-14T13:23:53.000Z</time>
                <name>Position 2410</name>
            </trkpt>
            <trkpt lon="11.41328701749444" lat="49.51113902963698">
                <ele>333.23</ele>
                <time>2010-11-14T13:23:54.000Z</time>
                <name>Position 2411</name>
            </trkpt>
            <trkpt lon="11.413262961432338" lat="49.51103199273348">
                <ele>332.75</ele>
                <time>2010-11-14T13:23:55.000Z</time>
                <name>Position 2412</name>
            </trkpt>
            <trkpt lon="11.413264973089099" lat="49.51092302799225">
                <ele>332.75</ele>
                <time>2010-11-14T13:23:56.000Z</time>
                <name>Position 2413</name>
            </trkpt>
            <trkpt lon="11.413280982524157" lat="49.51081498526037">
                <ele>332.27</ele>
                <time>2010-11-14T13:23:57.000Z</time>
                <name>Position 2414</name>
            </trkpt>
            <trkpt lon="11.413303026929498" lat="49.51070602051914">
                <ele>332.27</ele>
                <time>2010-11-14T13:23:58.000Z</time>
                <name>Position 2415</name>
            </trkpt>
            <trkpt lon="11.413409980013967" lat="49.50994301587343">
                <ele>334.2</ele>
                <time>2010-11-14T13:24:05.000Z</time>
                <name>Position 2416</name>
            </trkpt>
            <trkpt lon="11.413273019716144" lat="49.50931303203106">
                <ele>335.16</ele>
                <time>2010-11-14T13:24:14.000Z</time>
                <name>Position 2417</name>
            </trkpt>
            <trkpt lon="11.413079984486103" lat="49.50916701927781">
                <ele>335.16</ele>
                <time>2010-11-14T13:24:21.000Z</time>
                <name>Position 2418</name>
            </trkpt>
            <trkpt lon="11.41298501752317" lat="49.50913801789284">
                <ele>335.16</ele>
                <time>2010-11-14T13:24:22.000Z</time>
                <name>Position 2419</name>
            </trkpt>
            <trkpt lon="11.412861971184611" lat="49.509114967659116">
                <ele>334.68</ele>
                <time>2010-11-14T13:24:23.000Z</time>
                <name>Position 2420</name>
            </trkpt>
            <trkpt lon="11.41247003339231" lat="49.50903399847448">
                <ele>334.2</ele>
                <time>2010-11-14T13:24:26.000Z</time>
                <name>Position 2421</name>
            </trkpt>
            <trkpt lon="11.412333995103836" lat="49.50896501541138">
                <ele>333.71</ele>
                <time>2010-11-14T13:24:27.000Z</time>
                <name>Position 2422</name>
            </trkpt>
            <trkpt lon="11.412203991785645" lat="49.50886099599302">
                <ele>333.23</ele>
                <time>2010-11-14T13:24:28.000Z</time>
                <name>Position 2423</name>
            </trkpt>
            <trkpt lon="11.411496978253126" lat="49.50829999521375">
                <ele>333.23</ele>
                <time>2010-11-14T13:24:34.000Z</time>
                <name>Position 2424</name>
            </trkpt>
            <trkpt lon="11.411358006298542" lat="49.508249033242464">
                <ele>333.23</ele>
                <time>2010-11-14T13:24:35.000Z</time>
                <name>Position 2425</name>
            </trkpt>
            <trkpt lon="11.411193972453475" lat="49.50822003185749">
                <ele>333.71</ele>
                <time>2010-11-14T13:24:36.000Z</time>
                <name>Position 2426</name>
            </trkpt>
            <trkpt lon="11.411016024649143" lat="49.508210979402065">
                <ele>333.23</ele>
                <time>2010-11-14T13:24:37.000Z</time>
                <name>Position 2427</name>
            </trkpt>
            <trkpt lon="11.410841010510921" lat="49.50822598300874">
                <ele>333.23</ele>
                <time>2010-11-14T13:24:38.000Z</time>
                <name>Position 2428</name>
            </trkpt>
            <trkpt lon="11.4106659963727" lat="49.508255990222096">
                <ele>332.75</ele>
                <time>2010-11-14T13:24:39.000Z</time>
                <name>Position 2429</name>
            </trkpt>
            <trkpt lon="11.410491988062859" lat="49.508292032405734">
                <ele>332.27</ele>
                <time>2010-11-14T13:24:40.000Z</time>
                <name>Position 2430</name>
            </trkpt>
            <trkpt lon="11.40795897692442" lat="49.50893500819802">
                <ele>331.31</ele>
                <time>2010-11-14T13:24:55.000Z</time>
                <name>Position 2431</name>
            </trkpt>
            <trkpt lon="11.405586982145905" lat="49.50967999175191">
                <ele>330.83</ele>
                <time>2010-11-14T13:25:07.000Z</time>
                <name>Position 2432</name>
            </trkpt>
            <trkpt lon="11.404130039736629" lat="49.510247027501464">
                <ele>329.87</ele>
                <time>2010-11-14T13:25:17.000Z</time>
                <name>Position 2433</name>
            </trkpt>
            <trkpt lon="11.403742963448167" lat="49.510382981970906">
                <ele>330.83</ele>
                <time>2010-11-14T13:25:23.000Z</time>
                <name>Position 2434</name>
            </trkpt>
            <trkpt lon="11.403665011748672" lat="49.51043201610446">
                <ele>331.31</ele>
                <time>2010-11-14T13:25:24.000Z</time>
                <name>Position 2435</name>
            </trkpt>
            <trkpt lon="11.403497038409114" lat="49.51051600277424">
                <ele>331.79</ele>
                <time>2010-11-14T13:25:26.000Z</time>
                <name>Position 2436</name>
            </trkpt>
            <trkpt lon="11.40340399928391" lat="49.510528994724154">
                <ele>331.79</ele>
                <time>2010-11-14T13:25:27.000Z</time>
                <name>Position 2437</name>
            </trkpt>
            <trkpt lon="11.403312971815467" lat="49.51051700860262">
                <ele>331.79</ele>
                <time>2010-11-14T13:25:28.000Z</time>
                <name>Position 2438</name>
            </trkpt>
            <trkpt lon="11.40323300845921" lat="49.510485995560884">
                <ele>331.79</ele>
                <time>2010-11-14T13:25:29.000Z</time>
                <name>Position 2439</name>
            </trkpt>
            <trkpt lon="11.403178023174405" lat="49.510442996397614">
                <ele>331.31</ele>
                <time>2010-11-14T13:25:30.000Z</time>
                <name>Position 2440</name>
            </trkpt>
            <trkpt lon="11.403157990425825" lat="49.51039102859795">
                <ele>330.83</ele>
                <time>2010-11-14T13:25:31.000Z</time>
                <name>Position 2441</name>
            </trkpt>
            <trkpt lon="11.403173999860883" lat="49.51032598502934">
                <ele>330.83</ele>
                <time>2010-11-14T13:25:32.000Z</time>
                <name>Position 2442</name>
            </trkpt>
            <trkpt lon="11.40323200263083" lat="49.510252978652716">
                <ele>330.35</ele>
                <time>2010-11-14T13:25:33.000Z</time>
                <name>Position 2443</name>
            </trkpt>
            <trkpt lon="11.40331800095737" lat="49.510165974497795">
                <ele>330.35</ele>
                <time>2010-11-14T13:25:34.000Z</time>
                <name>Position 2444</name>
            </trkpt>
            <trkpt lon="11.403392013162374" lat="49.510056003928185">
                <ele>330.35</ele>
                <time>2010-11-14T13:25:35.000Z</time>
                <name>Position 2445</name>
            </trkpt>
            <trkpt lon="11.403443980962038" lat="49.5099310297519">
                <ele>329.87</ele>
                <time>2010-11-14T13:25:36.000Z</time>
                <name>Position 2446</name>
            </trkpt>
            <trkpt lon="11.403473988175392" lat="49.50980303809047">
                <ele>329.39</ele>
                <time>2010-11-14T13:25:37.000Z</time>
                <name>Position 2447</name>
            </trkpt>
            <trkpt lon="11.403623018413782" lat="49.50840996578336">
                <ele>329.39</ele>
                <time>2010-11-14T13:25:46.000Z</time>
                <name>Position 2448</name>
            </trkpt>
            <trkpt lon="11.403944967314601" lat="49.50663300231099">
                <ele>330.35</ele>
                <time>2010-11-14T13:25:55.000Z</time>
                <name>Position 2449</name>
            </trkpt>
            <trkpt lon="11.404518960043788" lat="49.5046260394156">
                <ele>330.35</ele>
                <time>2010-11-14T13:26:07.000Z</time>
                <name>Position 2450</name>
            </trkpt>
            <trkpt lon="11.404555002227426" lat="49.504405008628964">
                <ele>330.35</ele>
                <time>2010-11-14T13:26:09.000Z</time>
                <name>Position 2451</name>
            </trkpt>
            <trkpt lon="11.40449901111424" lat="49.504322027787566">
                <ele>330.35</ele>
                <time>2010-11-14T13:26:10.000Z</time>
                <name>Position 2452</name>
            </trkpt>
            <trkpt lon="11.404389040544629" lat="49.50426100753248">
                <ele>330.35</ele>
                <time>2010-11-14T13:26:11.000Z</time>
                <name>Position 2453</name>
            </trkpt>
            <trkpt lon="11.404231041669846" lat="49.504214990884066">
                <ele>330.35</ele>
                <time>2010-11-14T13:26:12.000Z</time>
                <name>Position 2454</name>
            </trkpt>
            <trkpt lon="11.404044041410089" lat="49.50416796840727">
                <ele>329.87</ele>
                <time>2010-11-14T13:26:13.000Z</time>
                <name>Position 2455</name>
            </trkpt>
            <trkpt lon="11.403844971209764" lat="49.504105020314455">
                <ele>330.35</ele>
                <time>2010-11-14T13:26:14.000Z</time>
                <name>Position 2456</name>
            </trkpt>
            <trkpt lon="11.403649002313614" lat="49.50402899645269">
                <ele>329.87</ele>
                <time>2010-11-14T13:26:15.000Z</time>
                <name>Position 2457</name>
            </trkpt>
            <trkpt lon="11.403462002053857" lat="49.50393897481263">
                <ele>329.39</ele>
                <time>2010-11-14T13:26:16.000Z</time>
                <name>Position 2458</name>
            </trkpt>
            <trkpt lon="11.403279025107622" lat="49.50383696705103">
                <ele>329.39</ele>
                <time>2010-11-14T13:26:17.000Z</time>
                <name>Position 2459</name>
            </trkpt>
            <trkpt lon="11.403096970170736" lat="49.50372498482466">
                <ele>329.39</ele>
                <time>2010-11-14T13:26:18.000Z</time>
                <name>Position 2460</name>
            </trkpt>
            <trkpt lon="11.401380021125078" lat="49.50283398851752">
                <ele>329.39</ele>
                <time>2010-11-14T13:26:26.000Z</time>
                <name>Position 2461</name>
            </trkpt>
            <trkpt lon="11.399028981104493" lat="49.50178298167884">
                <ele>331.79</ele>
                <time>2010-11-14T13:26:35.000Z</time>
                <name>Position 2462</name>
            </trkpt>
            <trkpt lon="11.397987026721239" lat="49.50138903222978">
                <ele>332.75</ele>
                <time>2010-11-14T13:26:39.000Z</time>
                <name>Position 2463</name>
            </trkpt>
            <trkpt lon="11.397727020084858" lat="49.501331029459834">
                <ele>333.23</ele>
                <time>2010-11-14T13:26:40.000Z</time>
                <name>Position 2464</name>
            </trkpt>
            <trkpt lon="11.397469025105238" lat="49.50129800476134">
                <ele>333.23</ele>
                <time>2010-11-14T13:26:41.000Z</time>
                <name>Position 2465</name>
            </trkpt>
            <trkpt lon="11.397209018468857" lat="49.501289036124945">
                <ele>333.71</ele>
                <time>2010-11-14T13:26:42.000Z</time>
                <name>Position 2466</name>
            </trkpt>
            <trkpt lon="11.396955968812108" lat="49.501293981447816">
                <ele>333.71</ele>
                <time>2010-11-14T13:26:43.000Z</time>
                <name>Position 2467</name>
            </trkpt>
            <trkpt lon="11.394328996539116" lat="49.50145298615098">
                <ele>332.75</ele>
                <time>2010-11-14T13:26:53.000Z</time>
                <name>Position 2468</name>
            </trkpt>
            <trkpt lon="11.394072007387877" lat="49.50149296782911">
                <ele>332.75</ele>
                <time>2010-11-14T13:26:54.000Z</time>
                <name>Position 2469</name>
            </trkpt>
            <trkpt lon="11.39381904155016" lat="49.5015539880842">
                <ele>332.27</ele>
                <time>2010-11-14T13:26:55.000Z</time>
                <name>Position 2470</name>
            </trkpt>
            <trkpt lon="11.393577978014946" lat="49.501634035259485">
                <ele>332.27</ele>
                <time>2010-11-14T13:26:56.000Z</time>
                <name>Position 2471</name>
            </trkpt>
            <trkpt lon="11.393361976370215" lat="49.501721039414406">
                <ele>332.27</ele>
                <time>2010-11-14T13:26:57.000Z</time>
                <name>Position 2472</name>
            </trkpt>
            <trkpt lon="11.393152009695768" lat="49.501805026084185">
                <ele>332.27</ele>
                <time>2010-11-14T13:26:58.000Z</time>
                <name>Position 2473</name>
            </trkpt>
            <trkpt lon="11.392944976687431" lat="49.501871997490525">
                <ele>331.79</ele>
                <time>2010-11-14T13:26:59.000Z</time>
                <name>Position 2474</name>
            </trkpt>
            <trkpt lon="11.392736015841365" lat="49.5019060280174">
                <ele>331.79</ele>
                <time>2010-11-14T13:27:00.000Z</time>
                <name>Position 2475</name>
            </trkpt>
            <trkpt lon="11.392535017803311" lat="49.50190301053226">
                <ele>331.31</ele>
                <time>2010-11-14T13:27:01.000Z</time>
                <name>Position 2476</name>
            </trkpt>
            <trkpt lon="11.392356986179948" lat="49.50186202302575">
                <ele>331.31</ele>
                <time>2010-11-14T13:27:02.000Z</time>
                <name>Position 2477</name>
            </trkpt>
            <trkpt lon="11.392207033932209" lat="49.50179102830589">
                <ele>330.83</ele>
                <time>2010-11-14T13:27:03.000Z</time>
                <name>Position 2478</name>
            </trkpt>
            <trkpt lon="11.392088010907173" lat="49.5016969833523">
                <ele>329.87</ele>
                <time>2010-11-14T13:27:04.000Z</time>
                <name>Position 2479</name>
            </trkpt>
            <trkpt lon="11.392003018409014" lat="49.50158399529755">
                <ele>329.39</ele>
                <time>2010-11-14T13:27:05.000Z</time>
                <name>Position 2480</name>
            </trkpt>
            <trkpt lon="11.391966976225376" lat="49.50144602917135">
                <ele>328.43</ele>
                <time>2010-11-14T13:27:06.000Z</time>
                <name>Position 2481</name>
            </trkpt>
            <trkpt lon="11.391968987882137" lat="49.50128400698304">
                <ele>327.47</ele>
                <time>2010-11-14T13:27:07.000Z</time>
                <name>Position 2482</name>
            </trkpt>
            <trkpt lon="11.39197301119566" lat="49.501120978966355">
                <ele>326.5</ele>
                <time>2010-11-14T13:27:08.000Z</time>
                <name>Position 2483</name>
            </trkpt>
            <trkpt lon="11.391951972618699" lat="49.50097496621311">
                <ele>326.02</ele>
                <time>2010-11-14T13:27:09.000Z</time>
                <name>Position 2484</name>
            </trkpt>
            <trkpt lon="11.391906961798668" lat="49.50084496289492">
                <ele>326.5</ele>
                <time>2010-11-14T13:27:10.000Z</time>
                <name>Position 2485</name>
            </trkpt>
            <trkpt lon="11.39182498678565" lat="49.500730969011784">
                <ele>326.99</ele>
                <time>2010-11-14T13:27:11.000Z</time>
                <name>Position 2486</name>
            </trkpt>
            <trkpt lon="11.391728008165956" lat="49.50063097290695">
                <ele>327.95</ele>
                <time>2010-11-14T13:27:12.000Z</time>
                <name>Position 2487</name>
            </trkpt>
            <trkpt lon="11.391628012061119" lat="49.500538017600775">
                <ele>328.43</ele>
                <time>2010-11-14T13:27:13.000Z</time>
                <name>Position 2488</name>
            </trkpt>
            <trkpt lon="11.391358030959964" lat="49.500214979052544">
                <ele>329.87</ele>
                <time>2010-11-14T13:27:17.000Z</time>
                <name>Position 2489</name>
            </trkpt>
            <trkpt lon="11.391320982947946" lat="49.500131998211145">
                <ele>329.87</ele>
                <time>2010-11-14T13:27:18.000Z</time>
                <name>Position 2490</name>
            </trkpt>
            <trkpt lon="11.391294999048114" lat="49.500042982399464">
                <ele>329.87</ele>
                <time>2010-11-14T13:27:19.000Z</time>
                <name>Position 2491</name>
            </trkpt>
            <trkpt lon="11.391164995729923" lat="49.499187022447586">
                <ele>330.35</ele>
                <time>2010-11-14T13:27:28.000Z</time>
                <name>Position 2492</name>
            </trkpt>
            <trkpt lon="11.391174970194697" lat="49.49779897928238">
                <ele>337.56</ele>
                <time>2010-11-14T13:27:42.000Z</time>
                <name>Position 2493</name>
            </trkpt>
            <trkpt lon="11.39094396494329" lat="49.49700596742332">
                <ele>336.6</ele>
                <time>2010-11-14T13:27:53.000Z</time>
                <name>Position 2494</name>
            </trkpt>
            <trkpt lon="11.39061899855733" lat="49.4964940007776">
                <ele>337.08</ele>
                <time>2010-11-14T13:27:58.000Z</time>
                <name>Position 2495</name>
            </trkpt>
            <trkpt lon="11.390445996075869" lat="49.495917996391654">
                <ele>337.08</ele>
                <time>2010-11-14T13:28:03.000Z</time>
                <name>Position 2496</name>
            </trkpt>
            <trkpt lon="11.39044700190425" lat="49.49579796753824">
                <ele>337.08</ele>
                <time>2010-11-14T13:28:04.000Z</time>
                <name>Position 2497</name>
            </trkpt>
            <trkpt lon="11.390466028824449" lat="49.49567701667547">
                <ele>336.6</ele>
                <time>2010-11-14T13:28:05.000Z</time>
                <name>Position 2498</name>
            </trkpt>
            <trkpt lon="11.390611035749316" lat="49.49462198652327">
                <ele>336.12</ele>
                <time>2010-11-14T13:28:15.000Z</time>
                <name>Position 2499</name>
            </trkpt>
            <trkpt lon="11.390552027150989" lat="49.49399602599442">
                <ele>334.68</ele>
                <time>2010-11-14T13:28:21.000Z</time>
                <name>Position 2500</name>
            </trkpt>
            <trkpt lon="11.390520008280873" lat="49.4925949908793">
                <ele>337.08</ele>
                <time>2010-11-14T13:28:34.000Z</time>
                <name>Position 2501</name>
            </trkpt>
            <trkpt lon="11.390369972214103" lat="49.492332972586155">
                <ele>338.04</ele>
                <time>2010-11-14T13:28:36.000Z</time>
                <name>Position 2502</name>
            </trkpt>
            <trkpt lon="11.390241980552673" lat="49.49217698536813">
                <ele>338.52</ele>
                <time>2010-11-14T13:28:37.000Z</time>
                <name>Position 2503</name>
            </trkpt>
            <trkpt lon="11.390079036355019" lat="49.49201596900821">
                <ele>338.52</ele>
                <time>2010-11-14T13:28:38.000Z</time>
                <name>Position 2504</name>
            </trkpt>
            <trkpt lon="11.389870997518301" lat="49.491857970133424">
                <ele>337.56</ele>
                <time>2010-11-14T13:28:39.000Z</time>
                <name>Position 2505</name>
            </trkpt>
            <trkpt lon="11.389613002538681" lat="49.49170500040054">
                <ele>336.6</ele>
                <time>2010-11-14T13:28:40.000Z</time>
                <name>Position 2506</name>
            </trkpt>
            <trkpt lon="11.389316031709313" lat="49.49155597016215">
                <ele>336.6</ele>
                <time>2010-11-14T13:28:41.000Z</time>
                <name>Position 2507</name>
            </trkpt>
            <trkpt lon="11.388981007039547" lat="49.491432001814246">
                <ele>339.48</ele>
                <time>2010-11-14T13:28:42.000Z</time>
                <name>Position 2508</name>
            </trkpt>
            <trkpt lon="11.388628967106342" lat="49.49132697656751">
                <ele>341.41</ele>
                <time>2010-11-14T13:28:43.000Z</time>
                <name>Position 2509</name>
            </trkpt>
            <trkpt lon="11.388251027092338" lat="49.49123100377619">
                <ele>343.81</ele>
                <time>2010-11-14T13:28:44.000Z</time>
                <name>Position 2510</name>
            </trkpt>
            <trkpt lon="11.385369999334216" lat="49.4906160235405">
                <ele>364.0</ele>
                <time>2010-11-14T13:28:51.000Z</time>
                <name>Position 2511</name>
            </trkpt>
            <trkpt lon="11.383789004758" lat="49.49025199748576">
                <ele>376.01</ele>
                <time>2010-11-14T13:28:56.000Z</time>
                <name>Position 2512</name>
            </trkpt>
            <trkpt lon="11.38219702988863" lat="49.48948899284005">
                <ele>378.42</ele>
                <time>2010-11-14T13:29:02.000Z</time>
                <name>Position 2513</name>
            </trkpt>
            <trkpt lon="11.379765020683408" lat="49.4882379937917">
                <ele>369.76</ele>
                <time>2010-11-14T13:29:11.000Z</time>
                <name>Position 2514</name>
            </trkpt>
            <trkpt lon="11.37736301869154" lat="49.487495021894574">
                <ele>363.04</ele>
                <time>2010-11-14T13:29:19.000Z</time>
                <name>Position 2515</name>
            </trkpt>
            <trkpt lon="11.37511096894741" lat="49.48692698031664">
                <ele>357.27</ele>
                <time>2010-11-14T13:29:26.000Z</time>
                <name>Position 2516</name>
            </trkpt>
            <trkpt lon="11.373451016843319" lat="49.48664400726557">
                <ele>355.34</ele>
                <time>2010-11-14T13:29:32.000Z</time>
                <name>Position 2517</name>
            </trkpt>
            <trkpt lon="11.373207019641995" lat="49.48654199950397">
                <ele>354.86</ele>
                <time>2010-11-14T13:29:33.000Z</time>
                <name>Position 2518</name>
            </trkpt>
            <trkpt lon="11.3729839771986" lat="49.486419036984444">
                <ele>354.86</ele>
                <time>2010-11-14T13:29:34.000Z</time>
                <name>Position 2519</name>
            </trkpt>
            <trkpt lon="11.372779961675406" lat="49.486276963725686">
                <ele>354.38</ele>
                <time>2010-11-14T13:29:35.000Z</time>
                <name>Position 2520</name>
            </trkpt>
            <trkpt lon="11.372587010264397" lat="49.486124999821186">
                <ele>353.9</ele>
                <time>2010-11-14T13:29:36.000Z</time>
                <name>Position 2521</name>
            </trkpt>
            <trkpt lon="11.37240101583302" lat="49.48596398346126">
                <ele>353.9</ele>
                <time>2010-11-14T13:29:37.000Z</time>
                <name>Position 2522</name>
            </trkpt>
            <trkpt lon="11.371068963781" lat="49.48459002189338">
                <ele>347.65</ele>
                <time>2010-11-14T13:29:46.000Z</time>
                <name>Position 2523</name>
            </trkpt>
            <trkpt lon="11.370525984093547" lat="49.483846966177225">
                <ele>344.77</ele>
                <time>2010-11-14T13:29:52.000Z</time>
                <name>Position 2524</name>
            </trkpt>
            <trkpt lon="11.370412996038795" lat="49.48376499116421">
                <ele>345.73</ele>
                <time>2010-11-14T13:29:53.000Z</time>
                <name>Position 2525</name>
            </trkpt>
            <trkpt lon="11.370278969407082" lat="49.48369902558625">
                <ele>345.73</ele>
                <time>2010-11-14T13:29:54.000Z</time>
                <name>Position 2526</name>
            </trkpt>
            <trkpt lon="11.370128011330962" lat="49.48365703225136">
                <ele>346.21</ele>
                <time>2010-11-14T13:29:55.000Z</time>
                <name>Position 2527</name>
            </trkpt>
            <trkpt lon="11.36997596360743" lat="49.483631970360875">
                <ele>346.69</ele>
                <time>2010-11-14T13:29:56.000Z</time>
                <name>Position 2528</name>
            </trkpt>
            <trkpt lon="11.3697599619627" lat="49.48354898951948">
                <ele>347.17</ele>
                <time>2010-11-14T13:29:58.000Z</time>
                <name>Position 2529</name>
            </trkpt>
            <trkpt lon="11.369721991941333" lat="49.48348604142666">
                <ele>347.65</ele>
                <time>2010-11-14T13:29:59.000Z</time>
                <name>Position 2530</name>
            </trkpt>
            <trkpt lon="11.369712017476559" lat="49.483418986201286">
                <ele>348.13</ele>
                <time>2010-11-14T13:30:00.000Z</time>
                <name>Position 2531</name>
            </trkpt>
            <trkpt lon="11.369719980284572" lat="49.48335402645171">
                <ele>348.13</ele>
                <time>2010-11-14T13:30:01.000Z</time>
                <name>Position 2532</name>
            </trkpt>
            <trkpt lon="11.369746970012784" lat="49.48329300619662">
                <ele>348.62</ele>
                <time>2010-11-14T13:30:02.000Z</time>
                <name>Position 2533</name>
            </trkpt>
            <trkpt lon="11.369786029681563" lat="49.48323500342667">
                <ele>348.62</ele>
                <time>2010-11-14T13:30:03.000Z</time>
                <name>Position 2534</name>
            </trkpt>
            <trkpt lon="11.369829028844833" lat="49.48310198262334">
                <ele>348.13</ele>
                <time>2010-11-14T13:30:05.000Z</time>
                <name>Position 2535</name>
            </trkpt>
            <trkpt lon="11.369808996096253" lat="49.4830400403589">
                <ele>348.13</ele>
                <time>2010-11-14T13:30:06.000Z</time>
                <name>Position 2536</name>
            </trkpt>
            <trkpt lon="11.369754010811448" lat="49.482987988740206">
                <ele>348.13</ele>
                <time>2010-11-14T13:30:07.000Z</time>
                <name>Position 2537</name>
            </trkpt>
            <trkpt lon="11.369683016091585" lat="49.48294800706208">
                <ele>347.65</ele>
                <time>2010-11-14T13:30:08.000Z</time>
                <name>Position 2538</name>
            </trkpt>
            <trkpt lon="11.369600035250187" lat="49.4829139765352">
                <ele>347.17</ele>
                <time>2010-11-14T13:30:09.000Z</time>
                <name>Position 2539</name>
            </trkpt>
            <trkpt lon="11.369509007781744" lat="49.48288204148412">
                <ele>346.69</ele>
                <time>2010-11-14T13:30:10.000Z</time>
                <name>Position 2540</name>
            </trkpt>
            <trkpt lon="11.36922201141715" lat="49.48275497183204">
                <ele>346.21</ele>
                <time>2010-11-14T13:30:13.000Z</time>
                <name>Position 2541</name>
            </trkpt>
            <trkpt lon="11.369118997827172" lat="49.482688000425696">
                <ele>346.69</ele>
                <time>2010-11-14T13:30:14.000Z</time>
                <name>Position 2542</name>
            </trkpt>
            <trkpt lon="11.368348030373454" lat="49.48211803101003">
                <ele>350.54</ele>
                <time>2010-11-14T13:30:21.000Z</time>
                <name>Position 2543</name>
            </trkpt>
            <trkpt lon="11.368186008185148" lat="49.48202398605645">
                <ele>351.5</ele>
                <time>2010-11-14T13:30:22.000Z</time>
                <name>Position 2544</name>
            </trkpt>
            <trkpt lon="11.367989033460617" lat="49.48192801326513">
                <ele>352.46</ele>
                <time>2010-11-14T13:30:23.000Z</time>
                <name>Position 2545</name>
            </trkpt>
            <trkpt lon="11.367766996845603" lat="49.48183799162507">
                <ele>353.42</ele>
                <time>2010-11-14T13:30:24.000Z</time>
                <name>Position 2546</name>
            </trkpt>
            <trkpt lon="11.367533979937434" lat="49.481758028268814">
                <ele>354.38</ele>
                <time>2010-11-14T13:30:25.000Z</time>
                <name>Position 2547</name>
            </trkpt>
            <trkpt lon="11.367283025756478" lat="49.4816929847002">
                <ele>354.86</ele>
                <time>2010-11-14T13:30:26.000Z</time>
                <name>Position 2548</name>
            </trkpt>
            <trkpt lon="11.366998963057995" lat="49.48163900524378">
                <ele>355.83</ele>
                <time>2010-11-14T13:30:27.000Z</time>
                <name>Position 2549</name>
            </trkpt>
            <trkpt lon="11.36668799445033" lat="49.48159399442375">
                <ele>356.31</ele>
                <time>2010-11-14T13:30:28.000Z</time>
                <name>Position 2550</name>
            </trkpt>
            <trkpt lon="11.365576973184943" lat="49.48141001164913">
                <ele>356.79</ele>
                <time>2010-11-14T13:30:32.000Z</time>
                <name>Position 2551</name>
            </trkpt>
            <trkpt lon="11.365339010953903" lat="49.481329964473844">
                <ele>356.79</ele>
                <time>2010-11-14T13:30:33.000Z</time>
                <name>Position 2552</name>
            </trkpt>
            <trkpt lon="11.365104988217354" lat="49.48124103248119">
                <ele>356.31</ele>
                <time>2010-11-14T13:30:34.000Z</time>
                <name>Position 2553</name>
            </trkpt>
            <trkpt lon="11.364878006279469" lat="49.481138018891215">
                <ele>356.31</ele>
                <time>2010-11-14T13:30:35.000Z</time>
                <name>Position 2554</name>
            </trkpt>
            <trkpt lon="11.364658987149596" lat="49.481026036664844">
                <ele>356.31</ele>
                <time>2010-11-14T13:30:36.000Z</time>
                <name>Position 2555</name>
            </trkpt>
            <trkpt lon="11.36167704127729" lat="49.47932098992169">
                <ele>359.67</ele>
                <time>2010-11-14T13:30:49.000Z</time>
                <name>Position 2556</name>
            </trkpt>
            <trkpt lon="11.359501015394926" lat="49.47769096121192">
                <ele>363.04</ele>
                <time>2010-11-14T13:30:59.000Z</time>
                <name>Position 2557</name>
            </trkpt>
            <trkpt lon="11.35708199813962" lat="49.476003013551235">
                <ele>376.97</ele>
                <time>2010-11-14T13:31:10.000Z</time>
                <name>Position 2558</name>
            </trkpt>
            <trkpt lon="11.356371967121959" lat="49.47500104084611">
                <ele>383.7</ele>
                <time>2010-11-14T13:31:16.000Z</time>
                <name>Position 2559</name>
            </trkpt>
            <trkpt lon="11.356074996292591" lat="49.47384500876069">
                <ele>387.55</ele>
                <time>2010-11-14T13:31:25.000Z</time>
                <name>Position 2560</name>
            </trkpt>
            <trkpt lon="11.355938035994768" lat="49.473232962191105">
                <ele>388.51</ele>
                <time>2010-11-14T13:31:31.000Z</time>
                <name>Position 2561</name>
            </trkpt>
            <trkpt lon="11.35585798881948" lat="49.473163979128">
                <ele>388.51</ele>
                <time>2010-11-14T13:31:32.000Z</time>
                <name>Position 2562</name>
            </trkpt>
            <trkpt lon="11.35572999715805" lat="49.47311201132834">
                <ele>388.51</ele>
                <time>2010-11-14T13:31:33.000Z</time>
                <name>Position 2563</name>
            </trkpt>
            <trkpt lon="11.355552971363068" lat="49.47309097275138">
                <ele>388.03</ele>
                <time>2010-11-14T13:31:34.000Z</time>
                <name>Position 2564</name>
            </trkpt>
            <trkpt lon="11.355352979153395" lat="49.473062977194786">
                <ele>387.55</ele>
                <time>2010-11-14T13:31:35.000Z</time>
                <name>Position 2565</name>
            </trkpt>
            <trkpt lon="11.354948971420527" lat="49.47300497442484">
                <ele>385.63</ele>
                <time>2010-11-14T13:31:37.000Z</time>
                <name>Position 2566</name>
            </trkpt>
            <trkpt lon="11.354730958119035" lat="49.47294403798878">
                <ele>384.66</ele>
                <time>2010-11-14T13:31:38.000Z</time>
                <name>Position 2567</name>
            </trkpt>
            <trkpt lon="11.354509005323052" lat="49.47285602800548">
                <ele>383.7</ele>
                <time>2010-11-14T13:31:39.000Z</time>
                <name>Position 2568</name>
            </trkpt>
            <trkpt lon="11.354303983971477" lat="49.47274899110198">
                <ele>382.26</ele>
                <time>2010-11-14T13:31:40.000Z</time>
                <name>Position 2569</name>
            </trkpt>
            <trkpt lon="11.354126958176494" lat="49.47261597029865">
                <ele>380.82</ele>
                <time>2010-11-14T13:31:41.000Z</time>
                <name>Position 2570</name>
            </trkpt>
            <trkpt lon="11.353974994271994" lat="49.47247196920216">
                <ele>379.86</ele>
                <time>2010-11-14T13:31:42.000Z</time>
                <name>Position 2571</name>
            </trkpt>
            <trkpt lon="11.353839039802551" lat="49.472312964499">
                <ele>378.9</ele>
                <time>2010-11-14T13:31:43.000Z</time>
                <name>Position 2572</name>
            </trkpt>
            <trkpt lon="11.352481003850698" lat="49.47057497687638">
                <ele>387.55</ele>
                <time>2010-11-14T13:31:53.000Z</time>
                <name>Position 2573</name>
            </trkpt>
            <trkpt lon="11.352401040494442" lat="49.47038998827338">
                <ele>388.99</ele>
                <time>2010-11-14T13:31:54.000Z</time>
                <name>Position 2574</name>
            </trkpt>
            <trkpt lon="11.352343037724495" lat="49.4701989647001">
                <ele>390.91</ele>
                <time>2010-11-14T13:31:55.000Z</time>
                <name>Position 2575</name>
            </trkpt>
            <trkpt lon="11.35231202468276" lat="49.46999997831881">
                <ele>392.36</ele>
                <time>2010-11-14T13:31:56.000Z</time>
                <name>Position 2576</name>
            </trkpt>
            <trkpt lon="11.352236000820994" lat="49.469430008903146">
                <ele>396.68</ele>
                <time>2010-11-14T13:31:59.000Z</time>
                <name>Position 2577</name>
            </trkpt>
            <trkpt lon="11.352160982787609" lat="49.46924895979464">
                <ele>398.12</ele>
                <time>2010-11-14T13:32:00.000Z</time>
                <name>Position 2578</name>
            </trkpt>
            <trkpt lon="11.352069033309817" lat="49.46907000616193">
                <ele>399.57</ele>
                <time>2010-11-14T13:32:01.000Z</time>
                <name>Position 2579</name>
            </trkpt>
            <trkpt lon="11.35151599533856" lat="49.46771398186684">
                <ele>410.14</ele>
                <time>2010-11-14T13:32:09.000Z</time>
                <name>Position 2580</name>
            </trkpt>
            <trkpt lon="11.35145296342671" lat="49.46754600852728">
                <ele>411.1</ele>
                <time>2010-11-14T13:32:10.000Z</time>
                <name>Position 2581</name>
            </trkpt>
            <trkpt lon="11.351373000070453" lat="49.46738398633897">
                <ele>412.54</ele>
                <time>2010-11-14T13:32:11.000Z</time>
                <name>Position 2582</name>
            </trkpt>
            <trkpt lon="11.350688030943274" lat="49.46578295901418">
                <ele>421.19</ele>
                <time>2010-11-14T13:32:20.000Z</time>
                <name>Position 2583</name>
            </trkpt>
            <trkpt lon="11.350562972947955" lat="49.464592980220914">
                <ele>422.16</ele>
                <time>2010-11-14T13:32:27.000Z</time>
                <name>Position 2584</name>
            </trkpt>
            <trkpt lon="11.350543024018407" lat="49.46400096639991">
                <ele>423.6</ele>
                <time>2010-11-14T13:32:31.000Z</time>
                <name>Position 2585</name>
            </trkpt>
            <trkpt lon="11.350501030683517" lat="49.463866017758846">
                <ele>424.56</ele>
                <time>2010-11-14T13:32:32.000Z</time>
                <name>Position 2586</name>
            </trkpt>
            <trkpt lon="11.350431963801384" lat="49.463736014440656">
                <ele>425.04</ele>
                <time>2010-11-14T13:32:33.000Z</time>
                <name>Position 2587</name>
            </trkpt>
            <trkpt lon="11.350344037637115" lat="49.46361497975886">
                <ele>426.0</ele>
                <time>2010-11-14T13:32:34.000Z</time>
                <name>Position 2588</name>
            </trkpt>
            <trkpt lon="11.35023096576333" lat="49.463499980047345">
                <ele>426.0</ele>
                <time>2010-11-14T13:32:35.000Z</time>
                <name>Position 2589</name>
            </trkpt>
            <trkpt lon="11.350109009072185" lat="49.463391015306115">
                <ele>426.0</ele>
                <time>2010-11-14T13:32:36.000Z</time>
                <name>Position 2590</name>
            </trkpt>
            <trkpt lon="11.34878701530397" lat="49.46228301152587">
                <ele>427.44</ele>
                <time>2010-11-14T13:32:46.000Z</time>
                <name>Position 2591</name>
            </trkpt>
            <trkpt lon="11.348184021189809" lat="49.46177297271788">
                <ele>427.92</ele>
                <time>2010-11-14T13:32:52.000Z</time>
                <name>Position 2592</name>
            </trkpt>
            <trkpt lon="11.348111014813185" lat="49.46167699992657">
                <ele>427.92</ele>
                <time>2010-11-14T13:32:53.000Z</time>
                <name>Position 2593</name>
            </trkpt>
            <trkpt lon="11.348062986508012" lat="49.46156904101372">
                <ele>427.44</ele>
                <time>2010-11-14T13:32:54.000Z</time>
                <name>Position 2594</name>
            </trkpt>
            <trkpt lon="11.348033985123038" lat="49.4614490121603">
                <ele>427.92</ele>
                <time>2010-11-14T13:32:55.000Z</time>
                <name>Position 2595</name>
            </trkpt>
            <trkpt lon="11.348021999001503" lat="49.46131498552859">
                <ele>427.44</ele>
                <time>2010-11-14T13:32:56.000Z</time>
                <name>Position 2596</name>
            </trkpt>
            <trkpt lon="11.34801303036511" lat="49.46116302162409">
                <ele>427.44</ele>
                <time>2010-11-14T13:32:57.000Z</time>
                <name>Position 2597</name>
            </trkpt>
            <trkpt lon="11.348019987344742" lat="49.45972896181047">
                <ele>427.92</ele>
                <time>2010-11-14T13:33:05.000Z</time>
                <name>Position 2598</name>
            </trkpt>
            <trkpt lon="11.347986040636897" lat="49.459568029269576">
                <ele>427.92</ele>
                <time>2010-11-14T13:33:06.000Z</time>
                <name>Position 2599</name>
            </trkpt>
            <trkpt lon="11.347928959876299" lat="49.459417993202806">
                <ele>428.4</ele>
                <time>2010-11-14T13:33:07.000Z</time>
                <name>Position 2600</name>
            </trkpt>
            <trkpt lon="11.347852014005184" lat="49.459286984056234">
                <ele>428.4</ele>
                <time>2010-11-14T13:33:08.000Z</time>
                <name>Position 2601</name>
            </trkpt>
            <trkpt lon="11.34775503538549" lat="49.45916603319347">
                <ele>428.89</ele>
                <time>2010-11-14T13:33:09.000Z</time>
                <name>Position 2602</name>
            </trkpt>
            <trkpt lon="11.347647998481989" lat="49.45906100794673">
                <ele>428.4</ele>
                <time>2010-11-14T13:33:10.000Z</time>
                <name>Position 2603</name>
            </trkpt>
            <trkpt lon="11.347536016255617" lat="49.458963023498654">
                <ele>428.4</ele>
                <time>2010-11-14T13:33:11.000Z</time>
                <name>Position 2604</name>
            </trkpt>
            <trkpt lon="11.345919985324144" lat="49.45759501308203">
                <ele>417.35</ele>
                <time>2010-11-14T13:33:24.000Z</time>
                <name>Position 2605</name>
            </trkpt>
            <trkpt lon="11.345624020323157" lat="49.457292007282376">
                <ele>414.47</ele>
                <time>2010-11-14T13:33:27.000Z</time>
                <name>Position 2606</name>
            </trkpt>
            <trkpt lon="11.345557970926166" lat="49.457183964550495">
                <ele>413.5</ele>
                <time>2010-11-14T13:33:28.000Z</time>
                <name>Position 2607</name>
            </trkpt>
            <trkpt lon="11.345511032268405" lat="49.457073993980885">
                <ele>412.54</ele>
                <time>2010-11-14T13:33:29.000Z</time>
                <name>Position 2608</name>
            </trkpt>
            <trkpt lon="11.34548102505505" lat="49.456964023411274">
                <ele>411.58</ele>
                <time>2010-11-14T13:33:30.000Z</time>
                <name>Position 2609</name>
            </trkpt>
            <trkpt lon="11.345472978428006" lat="49.45685296319425">
                <ele>410.62</ele>
                <time>2010-11-14T13:33:31.000Z</time>
                <name>Position 2610</name>
            </trkpt>
            <trkpt lon="11.34548001922667" lat="49.45674299262464">
                <ele>410.14</ele>
                <time>2010-11-14T13:33:32.000Z</time>
                <name>Position 2611</name>
            </trkpt>
            <trkpt lon="11.345508014783263" lat="49.45663503371179">
                <ele>409.18</ele>
                <time>2010-11-14T13:33:33.000Z</time>
                <name>Position 2612</name>
            </trkpt>
            <trkpt lon="11.345553025603294" lat="49.45652799680829">
                <ele>408.7</ele>
                <time>2010-11-14T13:33:34.000Z</time>
                <name>Position 2613</name>
            </trkpt>
            <trkpt lon="11.345615973696113" lat="49.456428000703454">
                <ele>407.74</ele>
                <time>2010-11-14T13:33:35.000Z</time>
                <name>Position 2614</name>
            </trkpt>
            <trkpt lon="11.345690991729498" lat="49.45633102208376">
                <ele>407.26</ele>
                <time>2010-11-14T13:33:36.000Z</time>
                <name>Position 2615</name>
            </trkpt>
            <trkpt lon="11.345937000587583" lat="49.45594503544271">
                <ele>404.85</ele>
                <time>2010-11-14T13:33:40.000Z</time>
                <name>Position 2616</name>
            </trkpt>
            <trkpt lon="11.345977988094091" lat="49.45584503933787">
                <ele>403.89</ele>
                <time>2010-11-14T13:33:41.000Z</time>
                <name>Position 2617</name>
            </trkpt>
            <trkpt lon="11.346434969455004" lat="49.454559003934264">
                <ele>402.93</ele>
                <time>2010-11-14T13:33:52.000Z</time>
                <name>Position 2618</name>
            </trkpt>
            <trkpt lon="11.346455002203584" lat="49.45438499562442">
                <ele>402.93</ele>
                <time>2010-11-14T13:33:53.000Z</time>
                <name>Position 2619</name>
            </trkpt>
            <trkpt lon="11.34644603356719" lat="49.45418600924313">
                <ele>402.93</ele>
                <time>2010-11-14T13:33:54.000Z</time>
                <name>Position 2620</name>
            </trkpt>
            <trkpt lon="11.345928031951189" lat="49.452733006328344">
                <ele>401.01</ele>
                <time>2010-11-14T13:34:01.000Z</time>
                <name>Position 2621</name>
            </trkpt>
            <trkpt lon="11.345444982871413" lat="49.4513469748199">
                <ele>398.12</ele>
                <time>2010-11-14T13:34:09.000Z</time>
                <name>Position 2622</name>
            </trkpt>
            <trkpt lon="11.345493011176586" lat="49.450154984369874">
                <ele>391.87</ele>
                <time>2010-11-14T13:34:18.000Z</time>
                <name>Position 2623</name>
            </trkpt>
            <trkpt lon="11.345514971762896" lat="49.44978198967874">
                <ele>391.39</ele>
                <time>2010-11-14T13:34:21.000Z</time>
                <name>Position 2624</name>
            </trkpt>
            <trkpt lon="11.345478007569909" lat="49.44965802133083">
                <ele>391.39</ele>
                <time>2010-11-14T13:34:22.000Z</time>
                <name>Position 2625</name>
            </trkpt>
            <trkpt lon="11.34541598148644" lat="49.44952600635588">
                <ele>391.39</ele>
                <time>2010-11-14T13:34:23.000Z</time>
                <name>Position 2626</name>
            </trkpt>
            <trkpt lon="11.345315985381603" lat="49.44939700886607">
                <ele>391.39</ele>
                <time>2010-11-14T13:34:24.000Z</time>
                <name>Position 2627</name>
            </trkpt>
            <trkpt lon="11.34518003091216" lat="49.449275974184275">
                <ele>391.39</ele>
                <time>2010-11-14T13:34:25.000Z</time>
                <name>Position 2628</name>
            </trkpt>
            <trkpt lon="11.34500602260232" lat="49.449158962816">
                <ele>391.87</ele>
                <time>2010-11-14T13:34:26.000Z</time>
                <name>Position 2629</name>
            </trkpt>
            <trkpt lon="11.344803012907505" lat="49.44903600029647">
                <ele>391.87</ele>
                <time>2010-11-14T13:34:27.000Z</time>
                <name>Position 2630</name>
            </trkpt>
            <trkpt lon="11.343195028603077" lat="49.44807501509786">
                <ele>393.32</ele>
                <time>2010-11-14T13:34:34.000Z</time>
                <name>Position 2631</name>
            </trkpt>
            <trkpt lon="11.342118037864566" lat="49.446786968037486">
                <ele>393.32</ele>
                <time>2010-11-14T13:34:41.000Z</time>
                <name>Position 2632</name>
            </trkpt>
            <trkpt lon="11.341366013512015" lat="49.44470800459385">
                <ele>392.36</ele>
                <time>2010-11-14T13:34:52.000Z</time>
                <name>Position 2633</name>
            </trkpt>
            <trkpt lon="11.34086200967431" lat="49.44257698953152">
                <ele>392.84</ele>
                <time>2010-11-14T13:35:04.000Z</time>
                <name>Position 2634</name>
            </trkpt>
            <trkpt lon="11.340694036334753" lat="49.442014982923865">
                <ele>393.32</ele>
                <time>2010-11-14T13:35:09.000Z</time>
                <name>Position 2635</name>
            </trkpt>
            <trkpt lon="11.340642990544438" lat="49.44194499403238">
                <ele>392.84</ele>
                <time>2010-11-14T13:35:10.000Z</time>
                <name>Position 2636</name>
            </trkpt>
            <trkpt lon="11.340566966682673" lat="49.4418890029192">
                <ele>392.84</ele>
                <time>2010-11-14T13:35:11.000Z</time>
                <name>Position 2637</name>
            </trkpt>
            <trkpt lon="11.340465964749455" lat="49.44185899570584">
                <ele>392.36</ele>
                <time>2010-11-14T13:35:12.000Z</time>
                <name>Position 2638</name>
            </trkpt>
            <trkpt lon="11.340353982523084" lat="49.441864024847746">
                <ele>392.36</ele>
                <time>2010-11-14T13:35:13.000Z</time>
                <name>Position 2639</name>
            </trkpt>
            <trkpt lon="11.340223979204893" lat="49.441904006525874">
                <ele>391.87</ele>
                <time>2010-11-14T13:35:14.000Z</time>
                <name>Position 2640</name>
            </trkpt>
            <trkpt lon="11.340070003643632" lat="49.44197500124574">
                <ele>391.87</ele>
                <time>2010-11-14T13:35:15.000Z</time>
                <name>Position 2641</name>
            </trkpt>
            <trkpt lon="11.338804000988603" lat="49.44238403812051">
                <ele>388.51</ele>
                <time>2010-11-14T13:35:20.000Z</time>
                <name>Position 2642</name>
            </trkpt>
            <trkpt lon="11.334711033850908" lat="49.44333798252046">
                <ele>382.26</ele>
                <time>2010-11-14T13:35:33.000Z</time>
                <name>Position 2643</name>
            </trkpt>
            <trkpt lon="11.330844964832067" lat="49.44426401518285">
                <ele>377.94</ele>
                <time>2010-11-14T13:35:45.000Z</time>
                <name>Position 2644</name>
            </trkpt>
            <trkpt lon="11.328649995848536" lat="49.44520496763289">
                <ele>376.49</ele>
                <time>2010-11-14T13:35:53.000Z</time>
                <name>Position 2645</name>
            </trkpt>
            <trkpt lon="11.326538007706404" lat="49.446527967229486">
                <ele>383.7</ele>
                <time>2010-11-14T13:36:03.000Z</time>
                <name>Position 2646</name>
            </trkpt>
            <trkpt lon="11.325207967311144" lat="49.44732701405883">
                <ele>389.47</ele>
                <time>2010-11-14T13:36:11.000Z</time>
                <name>Position 2647</name>
            </trkpt>
            <trkpt lon="11.32367198355496" lat="49.44815103895962">
                <ele>391.87</ele>
                <time>2010-11-14T13:36:17.000Z</time>
                <name>Position 2648</name>
            </trkpt>
            <trkpt lon="11.321624033153057" lat="49.44873198866844">
                <ele>395.24</ele>
                <time>2010-11-14T13:36:23.000Z</time>
                <name>Position 2649</name>
            </trkpt>
            <trkpt lon="11.319593014195561" lat="49.44888495840132">
                <ele>401.01</ele>
                <time>2010-11-14T13:36:29.000Z</time>
                <name>Position 2650</name>
            </trkpt>
            <trkpt lon="11.316290041431785" lat="49.448995012789965">
                <ele>397.16</ele>
                <time>2010-11-14T13:36:40.000Z</time>
                <name>Position 2651</name>
            </trkpt>
            <trkpt lon="11.31438902579248" lat="49.449316039681435">
                <ele>393.32</ele>
                <time>2010-11-14T13:36:47.000Z</time>
                <name>Position 2652</name>
            </trkpt>
            <trkpt lon="11.313238022848964" lat="49.44977997802198">
                <ele>393.8</ele>
                <time>2010-11-14T13:36:54.000Z</time>
                <name>Position 2653</name>
            </trkpt>
            <trkpt lon="11.311027966439724" lat="49.4504920206964">
                <ele>391.87</ele>
                <time>2010-11-14T13:37:08.000Z</time>
                <name>Position 2654</name>
            </trkpt>
            <trkpt lon="11.309744026511908" lat="49.450738029554486">
                <ele>389.47</ele>
                <time>2010-11-14T13:37:16.000Z</time>
                <name>Position 2655</name>
            </trkpt>
            <trkpt lon="11.309584015980363" lat="49.45072595961392">
                <ele>388.99</ele>
                <time>2010-11-14T13:37:17.000Z</time>
                <name>Position 2656</name>
            </trkpt>
            <trkpt lon="11.30943096242845" lat="49.45068597793579">
                <ele>388.51</ele>
                <time>2010-11-14T13:37:18.000Z</time>
                <name>Position 2657</name>
            </trkpt>
            <trkpt lon="11.309290984645486" lat="49.45062101818621">
                <ele>388.51</ele>
                <time>2010-11-14T13:37:19.000Z</time>
                <name>Position 2658</name>
            </trkpt>
            <trkpt lon="11.309160981327295" lat="49.450543988496065">
                <ele>388.99</ele>
                <time>2010-11-14T13:37:20.000Z</time>
                <name>Position 2659</name>
            </trkpt>
            <trkpt lon="11.30904296413064" lat="49.45046100765467">
                <ele>388.51</ele>
                <time>2010-11-14T13:37:21.000Z</time>
                <name>Position 2660</name>
            </trkpt>
            <trkpt lon="11.30850501358509" lat="49.450136963278055">
                <ele>390.43</ele>
                <time>2010-11-14T13:37:26.000Z</time>
                <name>Position 2661</name>
            </trkpt>
            <trkpt lon="11.308429995551705" lat="49.450113996863365">
                <ele>390.43</ele>
                <time>2010-11-14T13:37:27.000Z</time>
                <name>Position 2662</name>
            </trkpt>
            <trkpt lon="11.308276019990444" lat="49.45004199631512">
                <ele>390.43</ele>
                <time>2010-11-14T13:37:30.000Z</time>
                <name>Position 2663</name>
            </trkpt>
            <trkpt lon="11.308252969756722" lat="49.45001098327339">
                <ele>390.91</ele>
                <time>2010-11-14T13:37:31.000Z</time>
                <name>Position 2664</name>
            </trkpt>
            <trkpt lon="11.308238971978426" lat="49.44998198188841">
                <ele>390.91</ele>
                <time>2010-11-14T13:37:32.000Z</time>
                <name>Position 2665</name>
            </trkpt>
            <trkpt lon="11.308234026655555" lat="49.44995599798858">
                <ele>390.91</ele>
                <time>2010-11-14T13:37:33.000Z</time>
                <name>Position 2666</name>
            </trkpt>
            <trkpt lon="11.308232014998794" lat="49.44993202574551">
                <ele>390.91</ele>
                <time>2010-11-14T13:37:34.000Z</time>
                <name>Position 2667</name>
            </trkpt>
            <trkpt lon="11.308227991685271" lat="49.44991098716855">
                <ele>390.91</ele>
                <time>2010-11-14T13:37:35.000Z</time>
                <name>Position 2668</name>
            </trkpt>
            <trkpt lon="11.308228997513652" lat="49.44986103102565">
                <ele>391.39</ele>
                <time>2010-11-14T13:37:37.000Z</time>
                <name>Position 2669</name>
            </trkpt>
            <trkpt lon="11.308248024433851" lat="49.44980202242732">
                <ele>391.39</ele>
                <time>2010-11-14T13:37:38.000Z</time>
                <name>Position 2670</name>
            </trkpt>
            <trkpt lon="11.308277025818825" lat="49.44973102770746">
                <ele>391.39</ele>
                <time>2010-11-14T13:37:39.000Z</time>
                <name>Position 2671</name>
            </trkpt>
            <trkpt lon="11.30844198167324" lat="49.44884003140032">
                <ele>390.91</ele>
                <time>2010-11-14T13:37:50.000Z</time>
                <name>Position 2672</name>
            </trkpt>
            <trkpt lon="11.308368975296617" lat="49.44834600202739">
                <ele>390.43</ele>
                <time>2010-11-14T13:37:56.000Z</time>
                <name>Position 2673</name>
            </trkpt>
            <trkpt lon="11.3083940371871" lat="49.448266038671136">
                <ele>389.95</ele>
                <time>2010-11-14T13:37:57.000Z</time>
                <name>Position 2674</name>
            </trkpt>
            <trkpt lon="11.308424966409802" lat="49.44818498566747">
                <ele>389.95</ele>
                <time>2010-11-14T13:37:58.000Z</time>
                <name>Position 2675</name>
            </trkpt>
            <trkpt lon="11.308924024924636" lat="49.44710003212094">
                <ele>385.15</ele>
                <time>2010-11-14T13:38:10.000Z</time>
                <name>Position 2676</name>
            </trkpt>
            <trkpt lon="11.308917989954352" lat="49.446976985782385">
                <ele>384.66</ele>
                <time>2010-11-14T13:38:11.000Z</time>
                <name>Position 2677</name>
            </trkpt>
            <trkpt lon="11.308882031589746" lat="49.44683901965618">
                <ele>383.7</ele>
                <time>2010-11-14T13:38:12.000Z</time>
                <name>Position 2678</name>
            </trkpt>
            <trkpt lon="11.308821011334658" lat="49.44669904187322">
                <ele>382.74</ele>
                <time>2010-11-14T13:38:13.000Z</time>
                <name>Position 2679</name>
            </trkpt>
            <trkpt lon="11.308721015229821" lat="49.44655596278608">
                <ele>382.26</ele>
                <time>2010-11-14T13:38:14.000Z</time>
                <name>Position 2680</name>
            </trkpt>
            <trkpt lon="11.308583971112967" lat="49.446420008316636">
                <ele>380.82</ele>
                <time>2010-11-14T13:38:15.000Z</time>
                <name>Position 2681</name>
            </trkpt>
            <trkpt lon="11.308410968631506" lat="49.44629897363484">
                <ele>379.38</ele>
                <time>2010-11-14T13:38:16.000Z</time>
                <name>Position 2682</name>
            </trkpt>
            <trkpt lon="11.308194966986775" lat="49.44618598558009">
                <ele>378.42</ele>
                <time>2010-11-14T13:38:17.000Z</time>
                <name>Position 2683</name>
            </trkpt>
            <trkpt lon="11.307948036119342" lat="49.44608196616173">
                <ele>377.94</ele>
                <time>2010-11-14T13:38:18.000Z</time>
                <name>Position 2684</name>
            </trkpt>
            <trkpt lon="11.307699009776115" lat="49.44598398171365">
                <ele>376.97</ele>
                <time>2010-11-14T13:38:19.000Z</time>
                <name>Position 2685</name>
            </trkpt>
            <trkpt lon="11.307468004524708" lat="49.445881973952055">
                <ele>376.49</ele>
                <time>2010-11-14T13:38:20.000Z</time>
                <name>Position 2686</name>
            </trkpt>
            <trkpt lon="11.307052010670304" lat="49.445668989792466">
                <ele>376.01</ele>
                <time>2010-11-14T13:38:22.000Z</time>
                <name>Position 2687</name>
            </trkpt>
            <trkpt lon="11.30682896822691" lat="49.44559397175908">
                <ele>376.01</ele>
                <time>2010-11-14T13:38:23.000Z</time>
                <name>Position 2688</name>
            </trkpt>
            <trkpt lon="11.306569967418909" lat="49.445562036708">
                <ele>375.05</ele>
                <time>2010-11-14T13:38:24.000Z</time>
                <name>Position 2689</name>
            </trkpt>
            <trkpt lon="11.30629101768136" lat="49.44556497037411">
                <ele>374.57</ele>
                <time>2010-11-14T13:38:25.000Z</time>
                <name>Position 2690</name>
            </trkpt>
            <trkpt lon="11.30603302270174" lat="49.44558500312269">
                <ele>374.09</ele>
                <time>2010-11-14T13:38:26.000Z</time>
                <name>Position 2691</name>
            </trkpt>
            <trkpt lon="11.30581903271377" lat="49.44560796953738">
                <ele>373.61</ele>
                <time>2010-11-14T13:38:27.000Z</time>
                <name>Position 2692</name>
            </trkpt>
            <trkpt lon="11.30545400083065" lat="49.44562699645758">
                <ele>372.17</ele>
                <time>2010-11-14T13:38:29.000Z</time>
                <name>Position 2693</name>
            </trkpt>
            <trkpt lon="11.305291978642344" lat="49.44561501033604">
                <ele>371.69</ele>
                <time>2010-11-14T13:38:30.000Z</time>
                <name>Position 2694</name>
            </trkpt>
            <trkpt lon="11.305144038051367" lat="49.44558902643621">
                <ele>370.73</ele>
                <time>2010-11-14T13:38:31.000Z</time>
                <name>Position 2695</name>
            </trkpt>
            <trkpt lon="11.305016968399286" lat="49.4455430097878">
                <ele>370.24</ele>
                <time>2010-11-14T13:38:32.000Z</time>
                <name>Position 2696</name>
            </trkpt>
            <trkpt lon="11.304911021143198" lat="49.44548299536109">
                <ele>370.24</ele>
                <time>2010-11-14T13:38:33.000Z</time>
                <name>Position 2697</name>
            </trkpt>
            <trkpt lon="11.304823011159897" lat="49.44541501812637">
                <ele>369.76</ele>
                <time>2010-11-14T13:38:34.000Z</time>
                <name>Position 2698</name>
            </trkpt>
            <trkpt lon="11.304752016440034" lat="49.44534000009298">
                <ele>369.76</ele>
                <time>2010-11-14T13:38:35.000Z</time>
                <name>Position 2699</name>
            </trkpt>
            <trkpt lon="11.304687978699803" lat="49.445257019251585">
                <ele>369.28</ele>
                <time>2010-11-14T13:38:36.000Z</time>
                <name>Position 2700</name>
            </trkpt>
            <trkpt lon="11.304632993414998" lat="49.4451680034399">
                <ele>368.8</ele>
                <time>2010-11-14T13:38:37.000Z</time>
                <name>Position 2701</name>
            </trkpt>
            <trkpt lon="11.304595023393631" lat="49.44507102482021">
                <ele>369.28</ele>
                <time>2010-11-14T13:38:38.000Z</time>
                <name>Position 2702</name>
            </trkpt>
            <trkpt lon="11.304565016180277" lat="49.444958036765456">
                <ele>369.28</ele>
                <time>2010-11-14T13:38:39.000Z</time>
                <name>Position 2703</name>
            </trkpt>
            <trkpt lon="11.304419003427029" lat="49.444612031802535">
                <ele>368.8</ele>
                <time>2010-11-14T13:38:42.000Z</time>
                <name>Position 2704</name>
            </trkpt>
            <trkpt lon="11.304301992058754" lat="49.44451597519219">
                <ele>368.32</ele>
                <time>2010-11-14T13:38:43.000Z</time>
                <name>Position 2705</name>
            </trkpt>
            <trkpt lon="11.304125972092152" lat="49.44445101544261">
                <ele>368.32</ele>
                <time>2010-11-14T13:38:44.000Z</time>
                <name>Position 2706</name>
            </trkpt>
            <trkpt lon="11.303896978497505" lat="49.44441396743059">
                <ele>368.32</ele>
                <time>2010-11-14T13:38:45.000Z</time>
                <name>Position 2707</name>
            </trkpt>
            <trkpt lon="11.303642001003027" lat="49.44438002072275">
                <ele>368.32</ele>
                <time>2010-11-14T13:38:46.000Z</time>
                <name>Position 2708</name>
            </trkpt>
            <trkpt lon="11.30283197388053" lat="49.44425404071808">
                <ele>367.36</ele>
                <time>2010-11-14T13:38:49.000Z</time>
                <name>Position 2709</name>
            </trkpt>
            <trkpt lon="11.302557969465852" lat="49.444181034341455">
                <ele>366.88</ele>
                <time>2010-11-14T13:38:50.000Z</time>
                <name>Position 2710</name>
            </trkpt>
            <trkpt lon="11.301348963752389" lat="49.44385196082294">
                <ele>365.44</ele>
                <time>2010-11-14T13:38:55.000Z</time>
                <name>Position 2711</name>
            </trkpt>
            <trkpt lon="11.301098009571433" lat="49.44384701550007">
                <ele>365.44</ele>
                <time>2010-11-14T13:38:56.000Z</time>
                <name>Position 2712</name>
            </trkpt>
            <trkpt lon="11.300830040127039" lat="49.44387400522828">
                <ele>365.44</ele>
                <time>2010-11-14T13:38:57.000Z</time>
                <name>Position 2713</name>
            </trkpt>
            <trkpt lon="11.298633981496096" lat="49.44405002519488">
                <ele>364.48</ele>
                <time>2010-11-14T13:39:04.000Z</time>
                <name>Position 2714</name>
            </trkpt>
            <trkpt lon="11.295572994276881" lat="49.44412898272276">
                <ele>363.04</ele>
                <time>2010-11-14T13:39:14.000Z</time>
                <name>Position 2715</name>
            </trkpt>
            <trkpt lon="11.293124975636601" lat="49.44383502937853">
                <ele>362.07</ele>
                <time>2010-11-14T13:39:22.000Z</time>
                <name>Position 2716</name>
            </trkpt>
            <trkpt lon="11.290981974452734" lat="49.44370896555483">
                <ele>361.59</ele>
                <time>2010-11-14T13:39:31.000Z</time>
                <name>Position 2717</name>
            </trkpt>
            <trkpt lon="11.289503993466496" lat="49.44350503385067">
                <ele>361.11</ele>
                <time>2010-11-14T13:39:38.000Z</time>
                <name>Position 2718</name>
            </trkpt>
            <trkpt lon="11.287617981433868" lat="49.44311804138124">
                <ele>357.75</ele>
                <time>2010-11-14T13:39:46.000Z</time>
                <name>Position 2719</name>
            </trkpt>
            <trkpt lon="11.287411032244563" lat="49.44311996921897">
                <ele>357.27</ele>
                <time>2010-11-14T13:39:47.000Z</time>
                <name>Position 2720</name>
            </trkpt>
            <trkpt lon="11.287215985357761" lat="49.44313799031079">
                <ele>356.79</ele>
                <time>2010-11-14T13:39:48.000Z</time>
                <name>Position 2721</name>
            </trkpt>
            <trkpt lon="11.287036025896668" lat="49.44316598586738">
                <ele>356.31</ele>
                <time>2010-11-14T13:39:49.000Z</time>
                <name>Position 2722</name>
            </trkpt>
            <trkpt lon="11.286865035071969" lat="49.44318702444434">
                <ele>355.83</ele>
                <time>2010-11-14T13:39:50.000Z</time>
                <name>Position 2723</name>
            </trkpt>
            <trkpt lon="11.286709969863296" lat="49.443174032494426">
                <ele>355.34</ele>
                <time>2010-11-14T13:39:51.000Z</time>
                <name>Position 2724</name>
            </trkpt>
            <trkpt lon="11.286564040929079" lat="49.443132961168885">
                <ele>354.86</ele>
                <time>2010-11-14T13:39:52.000Z</time>
                <name>Position 2725</name>
            </trkpt>
            <trkpt lon="11.286453986540437" lat="49.44307596422732">
                <ele>353.9</ele>
                <time>2010-11-14T13:39:53.000Z</time>
                <name>Position 2726</name>
            </trkpt>
            <trkpt lon="11.286377040669322" lat="49.4429939892143">
                <ele>352.94</ele>
                <time>2010-11-14T13:39:54.000Z</time>
                <name>Position 2727</name>
            </trkpt>
            <trkpt lon="11.286347033455968" lat="49.44288502447307">
                <ele>351.98</ele>
                <time>2010-11-14T13:39:55.000Z</time>
                <name>Position 2728</name>
            </trkpt>
            <trkpt lon="11.28633102402091" lat="49.44277698174119">
                <ele>351.5</ele>
                <time>2010-11-14T13:39:56.000Z</time>
                <name>Position 2729</name>
            </trkpt>
            <trkpt lon="11.2863349635154" lat="49.44266701117158">
                <ele>351.5</ele>
                <time>2010-11-14T13:39:57.000Z</time>
                <name>Position 2730</name>
            </trkpt>
            <trkpt lon="11.286307973787189" lat="49.442548993974924">
                <ele>351.02</ele>
                <time>2010-11-14T13:39:58.000Z</time>
                <name>Position 2731</name>
            </trkpt>
            <trkpt lon="11.28618098795414" lat="49.4422999676317">
                <ele>349.58</ele>
                <time>2010-11-14T13:40:00.000Z</time>
                <name>Position 2732</name>
            </trkpt>
            <trkpt lon="11.285797012969851" lat="49.44156797602773">
                <ele>345.25</ele>
                <time>2010-11-14T13:40:06.000Z</time>
                <name>Position 2733</name>
            </trkpt>
            <trkpt lon="11.285764994099736" lat="49.441454987972975">
                <ele>344.77</ele>
                <time>2010-11-14T13:40:07.000Z</time>
                <name>Position 2734</name>
            </trkpt>
            <trkpt lon="11.285758959129453" lat="49.441345017403364">
                <ele>344.77</ele>
                <time>2010-11-14T13:40:08.000Z</time>
                <name>Position 2735</name>
            </trkpt>
            <trkpt lon="11.28577396273613" lat="49.441238986328244">
                <ele>344.29</ele>
                <time>2010-11-14T13:40:09.000Z</time>
                <name>Position 2736</name>
            </trkpt>
            <trkpt lon="11.28579500131309" lat="49.44114603102207">
                <ele>344.29</ele>
                <time>2010-11-14T13:40:10.000Z</time>
                <name>Position 2737</name>
            </trkpt>
            <trkpt lon="11.285870019346476" lat="49.440917959436774">
                <ele>345.25</ele>
                <time>2010-11-14T13:40:16.000Z</time>
                <name>Position 2738</name>
            </trkpt>
            <trkpt lon="11.285951994359493" lat="49.440769013017416">
                <ele>345.73</ele>
                <time>2010-11-14T13:40:22.000Z</time>
                <name>Position 2739</name>
            </trkpt>
            <trkpt lon="11.285959035158157" lat="49.44069198332727">
                <ele>345.73</ele>
                <time>2010-11-14T13:40:23.000Z</time>
                <name>Position 2740</name>
            </trkpt>
            <trkpt lon="11.285928022116423" lat="49.44061201997101">
                <ele>345.73</ele>
                <time>2010-11-14T13:40:24.000Z</time>
                <name>Position 2741</name>
            </trkpt>
            <trkpt lon="11.28585702739656" lat="49.44052501581609">
                <ele>345.73</ele>
                <time>2010-11-14T13:40:25.000Z</time>
                <name>Position 2742</name>
            </trkpt>
            <trkpt lon="11.285756025463343" lat="49.440441029146314">
                <ele>345.73</ele>
                <time>2010-11-14T13:40:26.000Z</time>
                <name>Position 2743</name>
            </trkpt>
            <trkpt lon="11.2856459710747" lat="49.44036399945617">
                <ele>346.21</ele>
                <time>2010-11-14T13:40:27.000Z</time>
                <name>Position 2744</name>
            </trkpt>
            <trkpt lon="11.285526026040316" lat="49.44030499085784">
                <ele>346.69</ele>
                <time>2010-11-14T13:40:28.000Z</time>
                <name>Position 2745</name>
            </trkpt>
            <trkpt lon="11.285398034378886" lat="49.44027800112963">
                <ele>346.69</ele>
                <time>2010-11-14T13:40:29.000Z</time>
                <name>Position 2746</name>
            </trkpt>
            <trkpt lon="11.285251015797257" lat="49.44027900695801">
                <ele>346.69</ele>
                <time>2010-11-14T13:40:30.000Z</time>
                <name>Position 2747</name>
            </trkpt>
            <trkpt lon="11.285081030800939" lat="49.440291998907924">
                <ele>347.17</ele>
                <time>2010-11-14T13:40:31.000Z</time>
                <name>Position 2748</name>
            </trkpt>
            <trkpt lon="11.283377995714545" lat="49.44047598168254">
                <ele>354.86</ele>
                <time>2010-11-14T13:40:39.000Z</time>
                <name>Position 2749</name>
            </trkpt>
            <trkpt lon="11.28248699940741" lat="49.44064303301275">
                <ele>357.75</ele>
                <time>2010-11-14T13:40:43.000Z</time>
                <name>Position 2750</name>
            </trkpt>
            <trkpt lon="11.282263034954667" lat="49.440662981942296">
                <ele>358.23</ele>
                <time>2010-11-14T13:40:44.000Z</time>
                <name>Position 2751</name>
            </trkpt>
            <trkpt lon="11.282042004168034" lat="49.440683014690876">
                <ele>358.71</ele>
                <time>2010-11-14T13:40:45.000Z</time>
                <name>Position 2752</name>
            </trkpt>
            <trkpt lon="11.281822985038161" lat="49.44068603217602">
                <ele>359.19</ele>
                <time>2010-11-14T13:40:46.000Z</time>
                <name>Position 2753</name>
            </trkpt>
            <trkpt lon="11.281603965908289" lat="49.440681003034115">
                <ele>359.67</ele>
                <time>2010-11-14T13:40:47.000Z</time>
                <name>Position 2754</name>
            </trkpt>
            <trkpt lon="11.281387964263558" lat="49.44066700525582">
                <ele>359.67</ele>
                <time>2010-11-14T13:40:48.000Z</time>
                <name>Position 2755</name>
            </trkpt>
            <trkpt lon="11.278262017294765" lat="49.44046298973262">
                <ele>359.67</ele>
                <time>2010-11-14T13:41:02.000Z</time>
                <name>Position 2756</name>
            </trkpt>
            <trkpt lon="11.275789020583034" lat="49.440271966159344">
                <ele>358.71</ele>
                <time>2010-11-14T13:41:13.000Z</time>
                <name>Position 2757</name>
            </trkpt>
            <trkpt lon="11.275617023929954" lat="49.44021698087454">
                <ele>358.71</ele>
                <time>2010-11-14T13:41:14.000Z</time>
                <name>Position 2758</name>
            </trkpt>
            <trkpt lon="11.275461036711931" lat="49.440144980326295">
                <ele>358.71</ele>
                <time>2010-11-14T13:41:15.000Z</time>
                <name>Position 2759</name>
            </trkpt>
            <trkpt lon="11.275316029787064" lat="49.440054036676884">
                <ele>358.71</ele>
                <time>2010-11-14T13:41:16.000Z</time>
                <name>Position 2760</name>
            </trkpt>
            <trkpt lon="11.275176974013448" lat="49.43995404057205">
                <ele>358.71</ele>
                <time>2010-11-14T13:41:17.000Z</time>
                <name>Position 2761</name>
            </trkpt>
            <trkpt lon="11.275038002058864" lat="49.43984700366855">
                <ele>358.71</ele>
                <time>2010-11-14T13:41:18.000Z</time>
                <name>Position 2762</name>
            </trkpt>
            <trkpt lon="11.273688012734056" lat="49.43909699097276">
                <ele>359.67</ele>
                <time>2010-11-14T13:41:25.000Z</time>
                <name>Position 2763</name>
            </trkpt>
            <trkpt lon="11.272048009559512" lat="49.43836801685393">
                <ele>354.38</ele>
                <time>2010-11-14T13:41:33.000Z</time>
                <name>Position 2764</name>
            </trkpt>
            <trkpt lon="11.270480006933212" lat="49.43785697221756">
                <ele>351.02</ele>
                <time>2010-11-14T13:41:41.000Z</time>
                <name>Position 2765</name>
            </trkpt>
            <trkpt lon="11.268995990976691" lat="49.43757098168135">
                <ele>352.94</ele>
                <time>2010-11-14T13:41:49.000Z</time>
                <name>Position 2766</name>
            </trkpt>
            <trkpt lon="11.268209014087915" lat="49.43737702444196">
                <ele>355.83</ele>
                <time>2010-11-14T13:41:53.000Z</time>
                <name>Position 2767</name>
            </trkpt>
            <trkpt lon="11.268009021878242" lat="49.43729597143829">
                <ele>356.31</ele>
                <time>2010-11-14T13:41:54.000Z</time>
                <name>Position 2768</name>
            </trkpt>
            <trkpt lon="11.267802994698286" lat="49.437198992818594">
                <ele>357.27</ele>
                <time>2010-11-14T13:41:55.000Z</time>
                <name>Position 2769</name>
            </trkpt>
            <trkpt lon="11.265783961862326" lat="49.43631595931947">
                <ele>360.15</ele>
                <time>2010-11-14T13:42:04.000Z</time>
                <name>Position 2770</name>
            </trkpt>
            <trkpt lon="11.264236997812986" lat="49.4358569663018">
                <ele>361.59</ele>
                <time>2010-11-14T13:42:11.000Z</time>
                <name>Position 2771</name>
            </trkpt>
            <trkpt lon="11.26407003030181" lat="49.43583198823035">
                <ele>361.59</ele>
                <time>2010-11-14T13:42:12.000Z</time>
                <name>Position 2772</name>
            </trkpt>
            <trkpt lon="11.263914965093136" lat="49.43582201376557">
                <ele>361.59</ele>
                <time>2010-11-14T13:42:13.000Z</time>
                <name>Position 2773</name>
            </trkpt>
            <trkpt lon="11.263303002342582" lat="49.43578697741032">
                <ele>362.07</ele>
                <time>2010-11-14T13:42:17.000Z</time>
                <name>Position 2774</name>
            </trkpt>
            <trkpt lon="11.26175100915134" lat="49.435357991606">
                <ele>364.0</ele>
                <time>2010-11-14T13:42:26.000Z</time>
                <name>Position 2775</name>
            </trkpt>
            <trkpt lon="11.260385010391474" lat="49.43516897968948">
                <ele>364.48</ele>
                <time>2010-11-14T13:42:34.000Z</time>
                <name>Position 2776</name>
            </trkpt>
            <trkpt lon="11.258329013362527" lat="49.43495901301503">
                <ele>366.4</ele>
                <time>2010-11-14T13:42:50.000Z</time>
                <name>Position 2777</name>
            </trkpt>
            <trkpt lon="11.25818601809442" lat="49.43496001884341">
                <ele>366.88</ele>
                <time>2010-11-14T13:42:51.000Z</time>
                <name>Position 2778</name>
            </trkpt>
            <trkpt lon="11.258044028654695" lat="49.43497200496495">
                <ele>366.88</ele>
                <time>2010-11-14T13:42:52.000Z</time>
                <name>Position 2779</name>
            </trkpt>
            <trkpt lon="11.257898015901446" lat="49.43499203771353">
                <ele>366.88</ele>
                <time>2010-11-14T13:42:53.000Z</time>
                <name>Position 2780</name>
            </trkpt>
            <trkpt lon="11.257753008976579" lat="49.43501299247146">
                <ele>367.36</ele>
                <time>2010-11-14T13:42:54.000Z</time>
                <name>Position 2781</name>
            </trkpt>
            <trkpt lon="11.255385037511587" lat="49.435371989384294">
                <ele>369.28</ele>
                <time>2010-11-14T13:43:10.000Z</time>
                <name>Position 2782</name>
            </trkpt>
            <trkpt lon="11.25376095995307" lat="49.43577599711716">
                <ele>371.69</ele>
                <time>2010-11-14T13:43:22.000Z</time>
                <name>Position 2783</name>
            </trkpt>
            <trkpt lon="11.253513023257256" lat="49.43582201376557">
                <ele>371.69</ele>
                <time>2010-11-14T13:43:24.000Z</time>
                <name>Position 2784</name>
            </trkpt>
            <trkpt lon="11.25341503880918" lat="49.43586300127208">
                <ele>372.17</ele>
                <time>2010-11-14T13:43:25.000Z</time>
                <name>Position 2785</name>
            </trkpt>
            <trkpt lon="11.253127036616206" lat="49.435999039560556">
                <ele>372.17</ele>
                <time>2010-11-14T13:43:28.000Z</time>
                <name>Position 2786</name>
            </trkpt>
            <trkpt lon="11.25300700776279" lat="49.43601001985371">
                <ele>372.17</ele>
                <time>2010-11-14T13:43:29.000Z</time>
                <name>Position 2787</name>
            </trkpt>
            <trkpt lon="11.252884967252612" lat="49.43598596379161">
                <ele>372.65</ele>
                <time>2010-11-14T13:43:30.000Z</time>
                <name>Position 2788</name>
            </trkpt>
            <trkpt lon="11.252773990854621" lat="49.435932990163565">
                <ele>373.13</ele>
                <time>2010-11-14T13:43:31.000Z</time>
                <name>Position 2789</name>
            </trkpt>
            <trkpt lon="11.25266402028501" lat="49.43588403984904">
                <ele>373.13</ele>
                <time>2010-11-14T13:43:32.000Z</time>
                <name>Position 2790</name>
            </trkpt>
            <trkpt lon="11.252547008916736" lat="49.4358569663018">
                <ele>373.61</ele>
                <time>2010-11-14T13:43:33.000Z</time>
                <name>Position 2791</name>
            </trkpt>
            <trkpt lon="11.252424968406558" lat="49.435850009322166">
                <ele>373.61</ele>
                <time>2010-11-14T13:43:34.000Z</time>
                <name>Position 2792</name>
            </trkpt>
            <trkpt lon="11.252309968695045" lat="49.43585503846407">
                <ele>373.61</ele>
                <time>2010-11-14T13:43:35.000Z</time>
                <name>Position 2793</name>
            </trkpt>
            <trkpt lon="11.251712003722787" lat="49.43592997267842">
                <ele>376.49</ele>
                <time>2010-11-14T13:43:40.000Z</time>
                <name>Position 2794</name>
            </trkpt>
            <trkpt lon="11.251601027324796" lat="49.4359640032053">
                <ele>377.45</ele>
                <time>2010-11-14T13:43:41.000Z</time>
                <name>Position 2795</name>
            </trkpt>
            <trkpt lon="11.251496002078056" lat="49.43600800819695">
                <ele>377.94</ele>
                <time>2010-11-14T13:43:42.000Z</time>
                <name>Position 2796</name>
            </trkpt>
            <trkpt lon="11.25139600597322" lat="49.43605796433985">
                <ele>378.42</ele>
                <time>2010-11-14T13:43:43.000Z</time>
                <name>Position 2797</name>
            </trkpt>
            <trkpt lon="11.251301961019635" lat="49.43611496128142">
                <ele>379.38</ele>
                <time>2010-11-14T13:43:44.000Z</time>
                <name>Position 2798</name>
            </trkpt>
            <trkpt lon="11.251214034855366" lat="49.43617497570813">
                <ele>379.86</ele>
                <time>2010-11-14T13:43:45.000Z</time>
                <name>Position 2799</name>
            </trkpt>
            <trkpt lon="11.250737020745873" lat="49.4364820048213">
                <ele>381.3</ele>
                <time>2010-11-14T13:43:50.000Z</time>
                <name>Position 2800</name>
            </trkpt>
            <trkpt lon="11.250376012176275" lat="49.43662701174617">
                <ele>382.74</ele>
                <time>2010-11-14T13:43:53.000Z</time>
                <name>Position 2801</name>
            </trkpt>
            <trkpt lon="11.25023796223104" lat="49.436662970110774">
                <ele>383.22</ele>
                <time>2010-11-14T13:43:54.000Z</time>
                <name>Position 2802</name>
            </trkpt>
            <trkpt lon="11.250096978619695" lat="49.436685014516115">
                <ele>384.18</ele>
                <time>2010-11-14T13:43:55.000Z</time>
                <name>Position 2803</name>
            </trkpt>
            <trkpt lon="11.249949038028717" lat="49.43670202977955">
                <ele>384.66</ele>
                <time>2010-11-14T13:43:56.000Z</time>
                <name>Position 2804</name>
            </trkpt>
            <trkpt lon="11.249796990305185" lat="49.43671996705234">
                <ele>385.15</ele>
                <time>2010-11-14T13:43:57.000Z</time>
                <name>Position 2805</name>
            </trkpt>
            <trkpt lon="11.248102001845837" lat="49.43686396814883">
                <ele>393.32</ele>
                <time>2010-11-14T13:44:06.000Z</time>
                <name>Position 2806</name>
            </trkpt>
            <trkpt lon="11.247316030785441" lat="49.436900010332465">
                <ele>396.2</ele>
                <time>2010-11-14T13:44:09.000Z</time>
                <name>Position 2807</name>
            </trkpt>
            <trkpt lon="11.247025011107326" lat="49.43688601255417">
                <ele>397.16</ele>
                <time>2010-11-14T13:44:10.000Z</time>
                <name>Position 2808</name>
            </trkpt>
            <trkpt lon="11.24598297290504" lat="49.43684603087604">
                <ele>401.01</ele>
                <time>2010-11-14T13:44:14.000Z</time>
                <name>Position 2809</name>
            </trkpt>
            <trkpt lon="11.245716009289026" lat="49.43687201477587">
                <ele>401.97</ele>
                <time>2010-11-14T13:44:15.000Z</time>
                <name>Position 2810</name>
            </trkpt>
            <trkpt lon="11.245159031823277" lat="49.43695801310241">
                <ele>403.89</ele>
                <time>2010-11-14T13:44:17.000Z</time>
                <name>Position 2811</name>
            </trkpt>
            <trkpt lon="11.244889972731471" lat="49.43702297285199">
                <ele>404.85</ele>
                <time>2010-11-14T13:44:18.000Z</time>
                <name>Position 2812</name>
            </trkpt>
            <trkpt lon="11.244106013327837" lat="49.437198992818594">
                <ele>406.77</ele>
                <time>2010-11-14T13:44:21.000Z</time>
                <name>Position 2813</name>
            </trkpt>
            <trkpt lon="11.243798984214664" lat="49.43720502778888">
                <ele>407.74</ele>
                <time>2010-11-14T13:44:22.000Z</time>
                <name>Position 2814</name>
            </trkpt>
            <trkpt lon="11.243522968143225" lat="49.437220031395555">
                <ele>408.22</ele>
                <time>2010-11-14T13:44:23.000Z</time>
                <name>Position 2815</name>
            </trkpt>
            <trkpt lon="11.243251981213689" lat="49.43721500225365">
                <ele>409.18</ele>
                <time>2010-11-14T13:44:24.000Z</time>
                <name>Position 2816</name>
            </trkpt>
            <trkpt lon="11.242980994284153" lat="49.43719798699021">
                <ele>409.66</ele>
                <time>2010-11-14T13:44:25.000Z</time>
                <name>Position 2817</name>
            </trkpt>
            <trkpt lon="11.242727022618055" lat="49.437179965898395">
                <ele>413.5</ele>
                <time>2010-11-14T13:44:26.000Z</time>
                <name>Position 2818</name>
            </trkpt>
            <trkpt lon="11.242471039295197" lat="49.437136966735125">
                <ele>414.47</ele>
                <time>2010-11-14T13:44:27.000Z</time>
                <name>Position 2819</name>
            </trkpt>
            <trkpt lon="11.242217989638448" lat="49.43708399310708">
                <ele>415.91</ele>
                <time>2010-11-14T13:44:28.000Z</time>
                <name>Position 2820</name>
            </trkpt>
            <trkpt lon="11.241969969123602" lat="49.43701601587236">
                <ele>417.35</ele>
                <time>2010-11-14T13:44:29.000Z</time>
                <name>Position 2821</name>
            </trkpt>
            <trkpt lon="11.2417299952358" lat="49.43693496286869">
                <ele>418.79</ele>
                <time>2010-11-14T13:44:30.000Z</time>
                <name>Position 2822</name>
            </trkpt>
            <trkpt lon="11.241501001641154" lat="49.43684401921928">
                <ele>419.75</ele>
                <time>2010-11-14T13:44:31.000Z</time>
                <name>Position 2823</name>
            </trkpt>
            <trkpt lon="11.241273013874888" lat="49.43674301728606">
                <ele>421.19</ele>
                <time>2010-11-14T13:44:32.000Z</time>
                <name>Position 2824</name>
            </trkpt>
            <trkpt lon="11.241048965603113" lat="49.43663002923131">
                <ele>422.16</ele>
                <time>2010-11-14T13:44:33.000Z</time>
                <name>Position 2825</name>
            </trkpt>
            <trkpt lon="11.238865982741117" lat="49.435547003522515">
                <ele>420.71</ele>
                <time>2010-11-14T13:44:43.000Z</time>
                <name>Position 2826</name>
            </trkpt>
            <trkpt lon="11.238386034965515" lat="49.43542596884072">
                <ele>419.27</ele>
                <time>2010-11-14T13:44:45.000Z</time>
                <name>Position 2827</name>
            </trkpt>
            <trkpt lon="11.23813801445067" lat="49.43538799881935">
                <ele>418.79</ele>
                <time>2010-11-14T13:44:46.000Z</time>
                <name>Position 2828</name>
            </trkpt>
            <trkpt lon="11.237897034734488" lat="49.43536696024239">
                <ele>417.83</ele>
                <time>2010-11-14T13:44:47.000Z</time>
                <name>Position 2829</name>
            </trkpt>
            <trkpt lon="11.237659994512796" lat="49.43535698577762">
                <ele>417.35</ele>
                <time>2010-11-14T13:44:48.000Z</time>
                <name>Position 2830</name>
            </trkpt>
            <trkpt lon="11.237415997311473" lat="49.43536402657628">
                <ele>417.35</ele>
                <time>2010-11-14T13:44:49.000Z</time>
                <name>Position 2831</name>
            </trkpt>
            <trkpt lon="11.235801978036761" lat="49.43536503240466">
                <ele>413.98</ele>
                <time>2010-11-14T13:44:57.000Z</time>
                <name>Position 2832</name>
            </trkpt>
            <trkpt lon="11.234642006456852" lat="49.43533603101969">
                <ele>412.06</ele>
                <time>2010-11-14T13:45:04.000Z</time>
                <name>Position 2833</name>
            </trkpt>
            <trkpt lon="11.234430028125644" lat="49.43527802824974">
                <ele>410.62</ele>
                <time>2010-11-14T13:45:05.000Z</time>
                <name>Position 2834</name>
            </trkpt>
            <trkpt lon="11.234224000945687" lat="49.435178032144904">
                <ele>408.7</ele>
                <time>2010-11-14T13:45:06.000Z</time>
                <name>Position 2835</name>
            </trkpt>
            <trkpt lon="11.234024008736014" lat="49.43507904186845">
                <ele>407.26</ele>
                <time>2010-11-14T13:45:07.000Z</time>
                <name>Position 2836</name>
            </trkpt>
            <trkpt lon="11.23384597711265" lat="49.43493001163006">
                <ele>404.85</ele>
                <time>2010-11-14T13:45:08.000Z</time>
                <name>Position 2837</name>
            </trkpt>
            <trkpt lon="11.233659982681274" lat="49.434770001098514">
                <ele>402.45</ele>
                <time>2010-11-14T13:45:09.000Z</time>
                <name>Position 2838</name>
            </trkpt>
            <trkpt lon="11.231578001752496" lat="49.43313796073198">
                <ele>385.63</ele>
                <time>2010-11-14T13:45:19.000Z</time>
                <name>Position 2839</name>
            </trkpt>
            <trkpt lon="11.229034010320902" lat="49.43118195980787">
                <ele>375.53</ele>
                <time>2010-11-14T13:45:31.000Z</time>
                <name>Position 2840</name>
            </trkpt>
            <trkpt lon="11.227898010984063" lat="49.4305379781872">
                <ele>373.61</ele>
                <time>2010-11-14T13:45:36.000Z</time>
                <name>Position 2841</name>
            </trkpt>
            <trkpt lon="11.225064005702734" lat="49.42945403046906">
                <ele>372.65</ele>
                <time>2010-11-14T13:45:46.000Z</time>
                <name>Position 2842</name>
            </trkpt>
            <trkpt lon="11.221570009365678" lat="49.42809599451721">
                <ele>370.73</ele>
                <time>2010-11-14T13:45:59.000Z</time>
                <name>Position 2843</name>
            </trkpt>
            <trkpt lon="11.219687014818192" lat="49.42737003788352">
                <ele>366.88</ele>
                <time>2010-11-14T13:46:07.000Z</time>
                <name>Position 2844</name>
            </trkpt>
            <trkpt lon="11.216421006247401" lat="49.42591200582683">
                <ele>367.36</ele>
                <time>2010-11-14T13:46:22.000Z</time>
                <name>Position 2845</name>
            </trkpt>
            <trkpt lon="11.215876014903188" lat="49.4255440402776">
                <ele>367.84</ele>
                <time>2010-11-14T13:46:25.000Z</time>
                <name>Position 2846</name>
            </trkpt>
            <trkpt lon="11.214224025607109" lat="49.424439975991845">
                <ele>364.48</ele>
                <time>2010-11-14T13:46:33.000Z</time>
                <name>Position 2847</name>
            </trkpt>
            <trkpt lon="11.212654011324048" lat="49.42340003326535">
                <ele>360.63</ele>
                <time>2010-11-14T13:46:41.000Z</time>
                <name>Position 2848</name>
            </trkpt>
            <trkpt lon="11.21214296668768" lat="49.42299200221896">
                <ele>358.23</ele>
                <time>2010-11-14T13:46:45.000Z</time>
                <name>Position 2849</name>
            </trkpt>
            <trkpt lon="11.211809031665325" lat="49.42275898531079">
                <ele>357.75</ele>
                <time>2010-11-14T13:46:48.000Z</time>
                <name>Position 2850</name>
            </trkpt>
            <trkpt lon="11.211574003100395" lat="49.42260098643601">
                <ele>355.83</ele>
                <time>2010-11-14T13:46:50.000Z</time>
                <name>Position 2851</name>
            </trkpt>
            <trkpt lon="11.211336962878704" lat="49.42249403335154">
                <ele>355.83</ele>
                <time>2010-11-14T13:46:52.000Z</time>
                <name>Position 2852</name>
            </trkpt>
            <trkpt lon="11.211221041157842" lat="49.422462014481425">
                <ele>354.38</ele>
                <time>2010-11-14T13:46:53.000Z</time>
                <name>Position 2853</name>
            </trkpt>
            <trkpt lon="11.211099000647664" lat="49.42242798395455">
                <ele>354.38</ele>
                <time>2010-11-14T13:46:54.000Z</time>
                <name>Position 2854</name>
            </trkpt>
            <trkpt lon="11.210956005379558" lat="49.422396970912814">
                <ele>353.42</ele>
                <time>2010-11-14T13:46:55.000Z</time>
                <name>Position 2855</name>
            </trkpt>
            <trkpt lon="11.21081099845469" lat="49.42237098701298">
                <ele>353.42</ele>
                <time>2010-11-14T13:46:56.000Z</time>
                <name>Position 2856</name>
            </trkpt>
            <trkpt lon="11.209553964436054" lat="49.42215498536825">
                <ele>352.46</ele>
                <time>2010-11-14T13:47:07.000Z</time>
                <name>Position 2857</name>
            </trkpt>
            <trkpt lon="11.209356989711523" lat="49.42208901979029">
                <ele>351.98</ele>
                <time>2010-11-14T13:47:09.000Z</time>
                <name>Position 2858</name>
            </trkpt>
            <trkpt lon="11.209255987778306" lat="49.422035962343216">
                <ele>351.98</ele>
                <time>2010-11-14T13:47:10.000Z</time>
                <name>Position 2859</name>
            </trkpt>
            <trkpt lon="11.208704961463809" lat="49.42170303314924">
                <ele>351.5</ele>
                <time>2010-11-14T13:47:17.000Z</time>
                <name>Position 2860</name>
            </trkpt>
            <trkpt lon="11.208607982844114" lat="49.42161502316594">
                <ele>350.54</ele>
                <time>2010-11-14T13:47:18.000Z</time>
                <name>Position 2861</name>
            </trkpt>
            <trkpt lon="11.208504969254136" lat="49.421497005969286">
                <ele>350.54</ele>
                <time>2010-11-14T13:47:19.000Z</time>
                <name>Position 2862</name>
            </trkpt>
            <trkpt lon="11.207667030394077" lat="49.42053903825581">
                <ele>347.17</ele>
                <time>2010-11-14T13:47:28.000Z</time>
                <name>Position 2863</name>
            </trkpt>
            <trkpt lon="11.207512971013784" lat="49.42036704160273">
                <ele>346.69</ele>
                <time>2010-11-14T13:47:31.000Z</time>
                <name>Position 2864</name>
            </trkpt>
            <trkpt lon="11.20743703097105" lat="49.42032001912594">
                <ele>347.17</ele>
                <time>2010-11-14T13:47:32.000Z</time>
                <name>Position 2865</name>
            </trkpt>
            <trkpt lon="11.207304010167718" lat="49.42028003744781">
                <ele>347.17</ele>
                <time>2010-11-14T13:47:33.000Z</time>
                <name>Position 2866</name>
            </trkpt>
            <trkpt lon="11.207133019343019" lat="49.42025396972895">
                <ele>347.17</ele>
                <time>2010-11-14T13:47:34.000Z</time>
                <name>Position 2867</name>
            </trkpt>
            <trkpt lon="11.206960016861558" lat="49.420227985829115">
                <ele>347.17</ele>
                <time>2010-11-14T13:47:35.000Z</time>
                <name>Position 2868</name>
            </trkpt>
            <trkpt lon="11.204607971012592" lat="49.419886004179716">
                <ele>351.02</ele>
                <time>2010-11-14T13:47:47.000Z</time>
                <name>Position 2869</name>
            </trkpt>
            <trkpt lon="11.20217403396964" lat="49.41976103000343">
                <ele>350.54</ele>
                <time>2010-11-14T13:47:59.000Z</time>
                <name>Position 2870</name>
            </trkpt>
            <trkpt lon="11.199798015877604" lat="49.41956900060177">
                <ele>344.77</ele>
                <time>2010-11-14T13:48:11.000Z</time>
                <name>Position 2871</name>
            </trkpt>
            <trkpt lon="11.198767041787505" lat="49.41920296289027">
                <ele>343.81</ele>
                <time>2010-11-14T13:48:18.000Z</time>
                <name>Position 2872</name>
            </trkpt>
            <trkpt lon="11.197820976376534" lat="49.41866702400148">
                <ele>343.33</ele>
                <time>2010-11-14T13:48:26.000Z</time>
                <name>Position 2873</name>
            </trkpt>
            <trkpt lon="11.197672029957175" lat="49.4186279643327">
                <ele>343.33</ele>
                <time>2010-11-14T13:48:27.000Z</time>
                <name>Position 2874</name>
            </trkpt>
            <trkpt lon="11.197503972798586" lat="49.41862100735307">
                <ele>342.85</ele>
                <time>2010-11-14T13:48:28.000Z</time>
                <name>Position 2875</name>
            </trkpt>
            <trkpt lon="11.197330970317125" lat="49.41863399930298">
                <ele>342.85</ele>
                <time>2010-11-14T13:48:29.000Z</time>
                <name>Position 2876</name>
            </trkpt>
            <trkpt lon="11.197165008634329" lat="49.4186469912529">
                <ele>342.85</ele>
                <time>2010-11-14T13:48:30.000Z</time>
                <name>Position 2877</name>
            </trkpt>
            <trkpt lon="11.196341989561915" lat="49.418744975700974">
                <ele>342.85</ele>
                <time>2010-11-14T13:48:35.000Z</time>
                <name>Position 2878</name>
            </trkpt>
            <trkpt lon="11.196193965151906" lat="49.41879903897643">
                <ele>342.85</ele>
                <time>2010-11-14T13:48:36.000Z</time>
                <name>Position 2879</name>
            </trkpt>
            <trkpt lon="11.196053987368941" lat="49.41886701621115">
                <ele>343.33</ele>
                <time>2010-11-14T13:48:37.000Z</time>
                <name>Position 2880</name>
            </trkpt>
            <trkpt lon="11.19592197239399" lat="49.41894798539579">
                <ele>343.81</ele>
                <time>2010-11-14T13:48:38.000Z</time>
                <name>Position 2881</name>
            </trkpt>
            <trkpt lon="11.195804961025715" lat="49.419047981500626">
                <ele>343.81</ele>
                <time>2010-11-14T13:48:39.000Z</time>
                <name>Position 2882</name>
            </trkpt>
            <trkpt lon="11.195695996284485" lat="49.41914102062583">
                <ele>344.29</ele>
                <time>2010-11-14T13:48:40.000Z</time>
                <name>Position 2883</name>
            </trkpt>
            <trkpt lon="11.194864008575678" lat="49.419773016124964">
                <ele>344.29</ele>
                <time>2010-11-14T13:48:48.000Z</time>
                <name>Position 2884</name>
            </trkpt>
            <trkpt lon="11.194736016914248" lat="49.41983202472329">
                <ele>344.29</ele>
                <time>2010-11-14T13:48:49.000Z</time>
                <name>Position 2885</name>
            </trkpt>
            <trkpt lon="11.194599978625774" lat="49.419886004179716">
                <ele>344.29</ele>
                <time>2010-11-14T13:48:50.000Z</time>
                <name>Position 2886</name>
            </trkpt>
            <trkpt lon="11.19282796047628" lat="49.42042697221041">
                <ele>344.77</ele>
                <time>2010-11-14T13:49:02.000Z</time>
                <name>Position 2887</name>
            </trkpt>
            <trkpt lon="11.192261008545756" lat="49.420593017712235">
                <ele>343.81</ele>
                <time>2010-11-14T13:49:07.000Z</time>
                <name>Position 2888</name>
            </trkpt>
            <trkpt lon="11.192152965813875" lat="49.42058597691357">
                <ele>343.81</ele>
                <time>2010-11-14T13:49:08.000Z</time>
                <name>Position 2889</name>
            </trkpt>
            <trkpt lon="11.1920549813658" lat="49.42054398357868">
                <ele>342.85</ele>
                <time>2010-11-14T13:49:09.000Z</time>
                <name>Position 2890</name>
            </trkpt>
            <trkpt lon="11.19196797721088" lat="49.42049997858703">
                <ele>342.85</ele>
                <time>2010-11-14T13:49:10.000Z</time>
                <name>Position 2891</name>
            </trkpt>
            <trkpt lon="11.191887008026242" lat="49.420444993302226">
                <ele>342.37</ele>
                <time>2010-11-14T13:49:11.000Z</time>
                <name>Position 2892</name>
            </trkpt>
            <trkpt lon="11.191717023029923" lat="49.42033804021776">
                <ele>341.41</ele>
                <time>2010-11-14T13:49:13.000Z</time>
                <name>Position 2893</name>
            </trkpt>
            <trkpt lon="11.191618032753468" lat="49.420295963063836">
                <ele>341.41</ele>
                <time>2010-11-14T13:49:14.000Z</time>
                <name>Position 2894</name>
            </trkpt>
            <trkpt lon="11.191501021385193" lat="49.42026503384113">
                <ele>341.89</ele>
                <time>2010-11-14T13:49:15.000Z</time>
                <name>Position 2895</name>
            </trkpt>
            <trkpt lon="11.191383004188538" lat="49.4202340207994">
                <ele>342.37</ele>
                <time>2010-11-14T13:49:16.000Z</time>
                <name>Position 2896</name>
            </trkpt>
            <trkpt lon="11.191271021962166" lat="49.420207031071186">
                <ele>341.89</ele>
                <time>2010-11-14T13:49:17.000Z</time>
                <name>Position 2897</name>
            </trkpt>
            <trkpt lon="11.189633030444384" lat="49.4196639675647">
                <ele>340.44</ele>
                <time>2010-11-14T13:49:30.000Z</time>
                <name>Position 2898</name>
            </trkpt>
            <trkpt lon="11.188010964542627" lat="49.41929901950061">
                <ele>339.48</ele>
                <time>2010-11-14T13:49:42.000Z</time>
                <name>Position 2899</name>
            </trkpt>
            <trkpt lon="11.186183961108327" lat="49.41881203092635">
                <ele>339.0</ele>
                <time>2010-11-14T13:49:55.000Z</time>
                <name>Position 2900</name>
            </trkpt>
            <trkpt lon="11.186026968061924" lat="49.4188039842993">
                <ele>339.0</ele>
                <time>2010-11-14T13:49:56.000Z</time>
                <name>Position 2901</name>
            </trkpt>
            <trkpt lon="11.18586896918714" lat="49.41880197264254">
                <ele>338.52</ele>
                <time>2010-11-14T13:49:57.000Z</time>
                <name>Position 2902</name>
            </trkpt>
            <trkpt lon="11.18537100031972" lat="49.41879702731967">
                <ele>339.48</ele>
                <time>2010-11-14T13:50:00.000Z</time>
                <name>Position 2903</name>
            </trkpt>
            <trkpt lon="11.185004962608218" lat="49.41880599595606">
                <ele>339.48</ele>
                <time>2010-11-14T13:50:02.000Z</time>
                <name>Position 2904</name>
            </trkpt>
            <trkpt lon="11.183499991893768" lat="49.41852302290499">
                <ele>339.48</ele>
                <time>2010-11-14T13:50:11.000Z</time>
                <name>Position 2905</name>
            </trkpt>
            <trkpt lon="11.182725001126528" lat="49.41826703958213">
                <ele>339.48</ele>
                <time>2010-11-14T13:50:16.000Z</time>
                <name>Position 2906</name>
            </trkpt>
            <trkpt lon="11.182598015293479" lat="49.418164025992155">
                <ele>339.48</ele>
                <time>2010-11-14T13:50:17.000Z</time>
                <name>Position 2907</name>
            </trkpt>
            <trkpt lon="11.18249399587512" lat="49.418060006573796">
                <ele>339.48</ele>
                <time>2010-11-14T13:50:18.000Z</time>
                <name>Position 2908</name>
            </trkpt>
            <trkpt lon="11.18139797821641" lat="49.41720899194479">
                <ele>339.96</ele>
                <time>2010-11-14T13:50:28.000Z</time>
                <name>Position 2909</name>
            </trkpt>
            <trkpt lon="11.178527008742094" lat="49.415479972958565">
                <ele>341.41</ele>
                <time>2010-11-14T13:50:52.000Z</time>
                <name>Position 2910</name>
            </trkpt>
            <trkpt lon="11.178400022909045" lat="49.41540202125907">
                <ele>341.41</ele>
                <time>2010-11-14T13:50:53.000Z</time>
                <name>Position 2911</name>
            </trkpt>
            <trkpt lon="11.17699597030878" lat="49.41461102105677">
                <ele>340.44</ele>
                <time>2010-11-14T13:51:02.000Z</time>
                <name>Position 2912</name>
            </trkpt>
            <trkpt lon="11.176130035892129" lat="49.41409796476364">
                <ele>339.0</ele>
                <time>2010-11-14T13:51:10.000Z</time>
                <name>Position 2913</name>
            </trkpt>
            <trkpt lon="11.176054012030363" lat="49.414061000570655">
                <ele>339.0</ele>
                <time>2010-11-14T13:51:11.000Z</time>
                <name>Position 2914</name>
            </trkpt>
            <trkpt lon="11.175730973482132" lat="49.41388296894729">
                <ele>338.52</ele>
                <time>2010-11-14T13:51:17.000Z</time>
                <name>Position 2915</name>
            </trkpt>
            <trkpt lon="11.174949025735259" lat="49.413440991193056">
                <ele>338.04</ele>
                <time>2010-11-14T13:51:25.000Z</time>
                <name>Position 2916</name>
            </trkpt>
            <trkpt lon="11.174299009144306" lat="49.412980992347">
                <ele>335.64</ele>
                <time>2010-11-14T13:51:31.000Z</time>
                <name>Position 2917</name>
            </trkpt>
            <trkpt lon="11.173095032572746" lat="49.4122919999063">
                <ele>335.16</ele>
                <time>2010-11-14T13:51:41.000Z</time>
                <name>Position 2918</name>
            </trkpt>
            <trkpt lon="11.17183598689735" lat="49.41159303300083">
                <ele>338.04</ele>
                <time>2010-11-14T13:51:52.000Z</time>
                <name>Position 2919</name>
            </trkpt>
            <trkpt lon="11.171356961131096" lat="49.41132003441453">
                <ele>338.04</ele>
                <time>2010-11-14T13:52:00.000Z</time>
                <name>Position 2920</name>
            </trkpt>
            <trkpt lon="11.170392958447337" lat="49.410751992836595">
                <ele>339.0</ele>
                <time>2010-11-14T13:52:10.000Z</time>
                <name>Position 2921</name>
            </trkpt>
            <trkpt lon="11.168982032686472" lat="49.409937020391226">
                <ele>340.92</ele>
                <time>2010-11-14T13:52:23.000Z</time>
                <name>Position 2922</name>
            </trkpt>
            <trkpt lon="11.16822699084878" lat="49.40949202515185">
                <ele>342.85</ele>
                <time>2010-11-14T13:52:34.000Z</time>
                <name>Position 2923</name>
            </trkpt>
            <trkpt lon="11.167079005390406" lat="49.408842008560896">
                <ele>341.89</ele>
                <time>2010-11-14T13:52:43.000Z</time>
                <name>Position 2924</name>
            </trkpt>
            <trkpt lon="11.165959015488625" lat="49.40821001306176">
                <ele>340.92</ele>
                <time>2010-11-14T13:52:52.000Z</time>
                <name>Position 2925</name>
            </trkpt>
            <trkpt lon="11.164636015892029" lat="49.407487995922565">
                <ele>338.52</ele>
                <time>2010-11-14T13:53:06.000Z</time>
                <name>Position 2926</name>
            </trkpt>
            <trkpt lon="11.164534008130431" lat="49.40743502229452">
                <ele>338.52</ele>
                <time>2010-11-14T13:53:14.000Z</time>
                <name>Position 2927</name>
            </trkpt>
            <trkpt lon="11.16388700902462" lat="49.40710402093828">
                <ele>337.08</ele>
                <time>2010-11-14T13:53:24.000Z</time>
                <name>Position 2928</name>
            </trkpt>
            <trkpt lon="11.163832023739815" lat="49.40710402093828">
                <ele>337.08</ele>
                <time>2010-11-14T13:53:32.000Z</time>
                <name>Position 2929</name>
            </trkpt>
            <trkpt lon="11.16371501237154" lat="49.40704702399671">
                <ele>337.08</ele>
                <time>2010-11-14T13:54:16.000Z</time>
                <name>Position 2930</name>
            </trkpt>
            <trkpt lon="11.162624023854733" lat="49.406522987410426">
                <ele>337.56</ele>
                <time>2010-11-14T13:54:25.000Z</time>
                <name>Position 2931</name>
            </trkpt>
            <trkpt lon="11.16197501309216" lat="49.406240014359355">
                <ele>337.56</ele>
                <time>2010-11-14T13:54:29.000Z</time>
                <name>Position 2932</name>
            </trkpt>
            <trkpt lon="11.161280991509557" lat="49.405916975811124">
                <ele>337.56</ele>
                <time>2010-11-14T13:54:33.000Z</time>
                <name>Position 2933</name>
            </trkpt>
            <trkpt lon="11.159227006137371" lat="49.40489999949932">
                <ele>336.6</ele>
                <time>2010-11-14T13:54:44.000Z</time>
                <name>Position 2934</name>
            </trkpt>
            <trkpt lon="11.159023996442556" lat="49.404800003394485">
                <ele>337.08</ele>
                <time>2010-11-14T13:54:45.000Z</time>
                <name>Position 2935</name>
            </trkpt>
            <trkpt lon="11.1588179692626" lat="49.40470101311803">
                <ele>337.56</ele>
                <time>2010-11-14T13:54:46.000Z</time>
                <name>Position 2936</name>
            </trkpt>
            <trkpt lon="11.15862200036645" lat="49.404607973992825">
                <ele>337.56</ele>
                <time>2010-11-14T13:54:47.000Z</time>
                <name>Position 2937</name>
            </trkpt>
            <trkpt lon="11.158437011763453" lat="49.40451602451503">
                <ele>337.56</ele>
                <time>2010-11-14T13:54:48.000Z</time>
                <name>Position 2938</name>
            </trkpt>
            <trkpt lon="11.158243976533413" lat="49.40443002618849">
                <ele>337.56</ele>
                <time>2010-11-14T13:54:49.000Z</time>
                <name>Position 2939</name>
            </trkpt>
            <trkpt lon="11.156398029997945" lat="49.40353902988136">
                <ele>337.56</ele>
                <time>2010-11-14T13:55:00.000Z</time>
                <name>Position 2940</name>
            </trkpt>
            <trkpt lon="11.156080020591617" lat="49.40336502157152">
                <ele>337.08</ele>
                <time>2010-11-14T13:55:06.000Z</time>
                <name>Position 2941</name>
            </trkpt>
            <trkpt lon="11.155752036720514" lat="49.40319797024131">
                <ele>337.56</ele>
                <time>2010-11-14T13:55:31.000Z</time>
                <name>Position 2942</name>
            </trkpt>
            <trkpt lon="11.153613980859518" lat="49.40212500281632">
                <ele>341.41</ele>
                <time>2010-11-14T13:55:44.000Z</time>
                <name>Position 2943</name>
            </trkpt>
            <trkpt lon="11.151393027976155" lat="49.401021022349596">
                <ele>342.37</ele>
                <time>2010-11-14T13:55:56.000Z</time>
                <name>Position 2944</name>
            </trkpt>
            <trkpt lon="11.14876203238964" lat="49.39969399943948">
                <ele>342.85</ele>
                <time>2010-11-14T13:56:11.000Z</time>
                <name>Position 2945</name>
            </trkpt>
            <trkpt lon="11.146520962938666" lat="49.39860896207392">
                <ele>344.77</ele>
                <time>2010-11-14T13:56:24.000Z</time>
                <name>Position 2946</name>
            </trkpt>
            <trkpt lon="11.143745966255665" lat="49.39724799245596">
                <ele>347.65</ele>
                <time>2010-11-14T13:56:40.000Z</time>
                <name>Position 2947</name>
            </trkpt>
            <trkpt lon="11.142150973901153" lat="49.39642799086869">
                <ele>349.58</ele>
                <time>2010-11-14T13:56:48.000Z</time>
                <name>Position 2948</name>
            </trkpt>
            <trkpt lon="11.139721982181072" lat="49.39517196267843">
                <ele>349.1</ele>
                <time>2010-11-14T13:57:02.000Z</time>
                <name>Position 2949</name>
            </trkpt>
            <trkpt lon="11.137478984892368" lat="49.394057001918554">
                <ele>350.06</ele>
                <time>2010-11-14T13:57:14.000Z</time>
                <name>Position 2950</name>
            </trkpt>
            <trkpt lon="11.135407984256744" lat="49.393460964784026">
                <ele>354.38</ele>
                <time>2010-11-14T13:57:24.000Z</time>
                <name>Position 2951</name>
            </trkpt>
            <trkpt lon="11.132485968992114" lat="49.39306600950658">
                <ele>360.15</ele>
                <time>2010-11-14T13:57:37.000Z</time>
                <name>Position 2952</name>
            </trkpt>
            <trkpt lon="11.129868971183896" lat="49.393180003389716">
                <ele>360.63</ele>
                <time>2010-11-14T13:57:49.000Z</time>
                <name>Position 2953</name>
            </trkpt>
            <trkpt lon="11.127981031313539" lat="49.39364201389253">
                <ele>356.79</ele>
                <time>2010-11-14T13:57:58.000Z</time>
                <name>Position 2954</name>
            </trkpt>
            <trkpt lon="11.12658703699708" lat="49.394510965794325">
                <ele>352.94</ele>
                <time>2010-11-14T13:58:06.000Z</time>
                <name>Position 2955</name>
            </trkpt>
            <trkpt lon="11.125639965757728" lat="49.395712008699775">
                <ele>349.58</ele>
                <time>2010-11-14T13:58:15.000Z</time>
                <name>Position 2956</name>
            </trkpt>
            <trkpt lon="11.125548016279936" lat="49.39585299231112">
                <ele>349.58</ele>
                <time>2010-11-14T13:58:16.000Z</time>
                <name>Position 2957</name>
            </trkpt>
            <trkpt lon="11.124299028888345" lat="49.39741898328066">
                <ele>347.65</ele>
                <time>2010-11-14T13:58:28.000Z</time>
                <name>Position 2958</name>
            </trkpt>
            <trkpt lon="11.123770968988538" lat="49.397863978520036">
                <ele>347.17</ele>
                <time>2010-11-14T13:58:35.000Z</time>
                <name>Position 2959</name>
            </trkpt>
            <trkpt lon="11.123740039765835" lat="49.39789599739015">
                <ele>347.65</ele>
                <time>2010-11-14T13:58:44.000Z</time>
                <name>Position 2960</name>
            </trkpt>
            <trkpt lon="11.123420018702745" lat="49.39806195907295">
                <ele>347.65</ele>
                <time>2010-11-14T13:59:06.000Z</time>
                <name>Position 2961</name>
            </trkpt>
            <trkpt lon="11.122445035725832" lat="49.3987170048058">
                <ele>347.17</ele>
                <time>2010-11-14T13:59:13.000Z</time>
                <name>Position 2962</name>
            </trkpt>
            <trkpt lon="11.121039977297187" lat="49.3998550157994">
                <ele>345.25</ele>
                <time>2010-11-14T13:59:23.000Z</time>
                <name>Position 2963</name>
            </trkpt>
            <trkpt lon="11.119740027934313" lat="49.40096402540803">
                <ele>343.81</ele>
                <time>2010-11-14T13:59:34.000Z</time>
                <name>Position 2964</name>
            </trkpt>
            <trkpt lon="11.118021989241242" lat="49.40238299779594">
                <ele>342.85</ele>
                <time>2010-11-14T13:59:49.000Z</time>
                <name>Position 2965</name>
            </trkpt>
            <trkpt lon="11.116583989933133" lat="49.40343802794814">
                <ele>340.92</ele>
                <time>2010-11-14T14:00:00.000Z</time>
                <name>Position 2966</name>
            </trkpt>
            <trkpt lon="11.116430014371872" lat="49.40350097604096">
                <ele>340.44</ele>
                <time>2010-11-14T14:00:01.000Z</time>
                <name>Position 2967</name>
            </trkpt>
            <trkpt lon="11.116272015497088" lat="49.403555961325765">
                <ele>340.44</ele>
                <time>2010-11-14T14:00:02.000Z</time>
                <name>Position 2968</name>
            </trkpt>
            <trkpt lon="11.115407003089786" lat="49.40375897102058">
                <ele>338.52</ele>
                <time>2010-11-14T14:00:09.000Z</time>
                <name>Position 2969</name>
            </trkpt>
            <trkpt lon="11.115343971177936" lat="49.40377900376916">
                <ele>338.52</ele>
                <time>2010-11-14T14:00:16.000Z</time>
                <name>Position 2970</name>
            </trkpt>
            <trkpt lon="11.113314628601074" lat="49.404062028518695">
                <ele>337.0</ele>
                <name>Neue Position</name>
            </trkpt>
            <trkpt lon="11.113046407699585" lat="49.40403410262136">
                <ele>337.0</ele>
                <name>Neue Position</name>
            </trkpt>
            <trkpt lon="11.113625764846802" lat="49.40376880580457">
                <ele>338.0</ele>
                <name>Neue Position</name>
            </trkpt>
            <trkpt lon="11.114387512207031" lat="49.402665714195976">
                <ele>339.0</ele>
                <name>Neue Position</name>
            </trkpt>
            <trkpt lon="11.114827394485474" lat="49.40176507039294">
                <ele>338.0</ele>
                <name>Neue Position</name>
            </trkpt>
        </trkseg>
    </trk>
</gpx>
